8810 lines
288 KiB
XML
8810 lines
288 KiB
XML
<?xml version='1.0' encoding='UTF-8'?>
|
|
<gpx version="1.1" creator="https://www.komoot.de" xmlns="http://www.topografix.com/GPX/1/1" xmlns:xsi="http://www.w3.org/2001/XMLSchema-instance" xsi:schemaLocation="http://www.topografix.com/GPX/1/1 http://www.topografix.com/GPX/1/1/gpx.xsd">
|
|
<metadata>
|
|
<name>Ribe to Shelter</name>
|
|
<author>
|
|
<link href="https://www.komoot.de">
|
|
<text>komoot</text>
|
|
<type>text/html</type>
|
|
</link>
|
|
</author>
|
|
</metadata>
|
|
<trk>
|
|
<name>Ribe to Shelter</name>
|
|
<type>racebike</type>
|
|
<trkseg>
|
|
<trkpt lat="55.328182" lon="8.762339">
|
|
<ele>6.376954</ele>
|
|
<time>2026-07-10T17:01:22.000Z</time>
|
|
</trkpt>
|
|
<trkpt lat="55.328182" lon="8.762339">
|
|
<ele>6.376954</ele>
|
|
<time>2026-07-10T17:01:23.000Z</time>
|
|
</trkpt>
|
|
<trkpt lat="55.328148" lon="8.762242">
|
|
<ele>6.376954</ele>
|
|
<time>2026-07-10T17:02:05.000Z</time>
|
|
</trkpt>
|
|
<trkpt lat="55.328155" lon="8.762253">
|
|
<ele>6.376954</ele>
|
|
<time>2026-07-10T17:02:06.000Z</time>
|
|
</trkpt>
|
|
<trkpt lat="55.328167" lon="8.762250">
|
|
<ele>6.376954</ele>
|
|
<time>2026-07-10T17:02:07.000Z</time>
|
|
</trkpt>
|
|
<trkpt lat="55.328178" lon="8.762250">
|
|
<ele>6.376954</ele>
|
|
<time>2026-07-10T17:02:08.000Z</time>
|
|
</trkpt>
|
|
<trkpt lat="55.328188" lon="8.762248">
|
|
<ele>6.376954</ele>
|
|
<time>2026-07-10T17:02:09.000Z</time>
|
|
</trkpt>
|
|
<trkpt lat="55.328205" lon="8.762248">
|
|
<ele>6.376954</ele>
|
|
<time>2026-07-10T17:02:10.000Z</time>
|
|
</trkpt>
|
|
<trkpt lat="55.328216" lon="8.762248">
|
|
<ele>6.376954</ele>
|
|
<time>2026-07-10T17:02:11.000Z</time>
|
|
</trkpt>
|
|
<trkpt lat="55.328231" lon="8.762242">
|
|
<ele>6.376954</ele>
|
|
<time>2026-07-10T17:02:12.000Z</time>
|
|
</trkpt>
|
|
<trkpt lat="55.328239" lon="8.762234">
|
|
<ele>6.376954</ele>
|
|
<time>2026-07-10T17:02:13.000Z</time>
|
|
</trkpt>
|
|
<trkpt lat="55.328247" lon="8.762223">
|
|
<ele>6.376954</ele>
|
|
<time>2026-07-10T17:02:14.000Z</time>
|
|
</trkpt>
|
|
<trkpt lat="55.328257" lon="8.762216">
|
|
<ele>6.376954</ele>
|
|
<time>2026-07-10T17:02:15.000Z</time>
|
|
</trkpt>
|
|
<trkpt lat="55.328270" lon="8.762208">
|
|
<ele>6.376954</ele>
|
|
<time>2026-07-10T17:02:16.000Z</time>
|
|
</trkpt>
|
|
<trkpt lat="55.328277" lon="8.762201">
|
|
<ele>6.376954</ele>
|
|
<time>2026-07-10T17:02:17.000Z</time>
|
|
</trkpt>
|
|
<trkpt lat="55.328288" lon="8.762199">
|
|
<ele>6.376954</ele>
|
|
<time>2026-07-10T17:02:18.000Z</time>
|
|
</trkpt>
|
|
<trkpt lat="55.328297" lon="8.762197">
|
|
<ele>6.376954</ele>
|
|
<time>2026-07-10T17:02:19.000Z</time>
|
|
</trkpt>
|
|
<trkpt lat="55.328308" lon="8.762200">
|
|
<ele>6.376954</ele>
|
|
<time>2026-07-10T17:02:20.000Z</time>
|
|
</trkpt>
|
|
<trkpt lat="55.328319" lon="8.762207">
|
|
<ele>6.376954</ele>
|
|
<time>2026-07-10T17:02:21.000Z</time>
|
|
</trkpt>
|
|
<trkpt lat="55.328331" lon="8.762215">
|
|
<ele>6.376954</ele>
|
|
<time>2026-07-10T17:02:22.000Z</time>
|
|
</trkpt>
|
|
<trkpt lat="55.328335" lon="8.762223">
|
|
<ele>6.376954</ele>
|
|
<time>2026-07-10T17:02:23.000Z</time>
|
|
</trkpt>
|
|
<trkpt lat="55.328341" lon="8.762227">
|
|
<ele>6.376954</ele>
|
|
<time>2026-07-10T17:02:24.000Z</time>
|
|
</trkpt>
|
|
<trkpt lat="55.328350" lon="8.762232">
|
|
<ele>6.376954</ele>
|
|
<time>2026-07-10T17:02:25.000Z</time>
|
|
</trkpt>
|
|
<trkpt lat="55.328358" lon="8.762235">
|
|
<ele>6.376954</ele>
|
|
<time>2026-07-10T17:02:26.000Z</time>
|
|
</trkpt>
|
|
<trkpt lat="55.328361" lon="8.762237">
|
|
<ele>6.376954</ele>
|
|
<time>2026-07-10T17:02:27.000Z</time>
|
|
</trkpt>
|
|
<trkpt lat="55.328368" lon="8.762237">
|
|
<ele>6.376954</ele>
|
|
<time>2026-07-10T17:02:28.000Z</time>
|
|
</trkpt>
|
|
<trkpt lat="55.328369" lon="8.762235">
|
|
<ele>6.376954</ele>
|
|
<time>2026-07-10T17:02:29.000Z</time>
|
|
</trkpt>
|
|
<trkpt lat="55.328373" lon="8.762238">
|
|
<ele>6.376954</ele>
|
|
<time>2026-07-10T17:02:30.000Z</time>
|
|
</trkpt>
|
|
<trkpt lat="55.328377" lon="8.762237">
|
|
<ele>6.376954</ele>
|
|
<time>2026-07-10T17:02:31.000Z</time>
|
|
</trkpt>
|
|
<trkpt lat="55.328354" lon="8.762247">
|
|
<ele>6.376954</ele>
|
|
<time>2026-07-10T17:03:14.000Z</time>
|
|
</trkpt>
|
|
<trkpt lat="55.328388" lon="8.762184">
|
|
<ele>6.376954</ele>
|
|
<time>2026-07-10T17:03:37.000Z</time>
|
|
</trkpt>
|
|
<trkpt lat="55.328394" lon="8.762175">
|
|
<ele>6.376954</ele>
|
|
<time>2026-07-10T17:03:38.000Z</time>
|
|
</trkpt>
|
|
<trkpt lat="55.328403" lon="8.762161">
|
|
<ele>6.376954</ele>
|
|
<time>2026-07-10T17:03:39.000Z</time>
|
|
</trkpt>
|
|
<trkpt lat="55.328411" lon="8.762152">
|
|
<ele>6.376954</ele>
|
|
<time>2026-07-10T17:03:40.000Z</time>
|
|
</trkpt>
|
|
<trkpt lat="55.328415" lon="8.762145">
|
|
<ele>6.376954</ele>
|
|
<time>2026-07-10T17:03:41.000Z</time>
|
|
</trkpt>
|
|
<trkpt lat="55.328415" lon="8.762141">
|
|
<ele>6.376954</ele>
|
|
<time>2026-07-10T17:03:42.000Z</time>
|
|
</trkpt>
|
|
<trkpt lat="55.328419" lon="8.762135">
|
|
<ele>6.376954</ele>
|
|
<time>2026-07-10T17:03:43.000Z</time>
|
|
</trkpt>
|
|
<trkpt lat="55.328426" lon="8.762135">
|
|
<ele>6.376954</ele>
|
|
<time>2026-07-10T17:03:44.000Z</time>
|
|
</trkpt>
|
|
<trkpt lat="55.328430" lon="8.762135">
|
|
<ele>6.376954</ele>
|
|
<time>2026-07-10T17:03:45.000Z</time>
|
|
</trkpt>
|
|
<trkpt lat="55.328456" lon="8.762159">
|
|
<ele>6.376954</ele>
|
|
<time>2026-07-10T17:03:49.000Z</time>
|
|
</trkpt>
|
|
<trkpt lat="55.328461" lon="8.762168">
|
|
<ele>6.376954</ele>
|
|
<time>2026-07-10T17:03:50.000Z</time>
|
|
</trkpt>
|
|
<trkpt lat="55.328464" lon="8.762181">
|
|
<ele>6.376954</ele>
|
|
<time>2026-07-10T17:03:51.000Z</time>
|
|
</trkpt>
|
|
<trkpt lat="55.328468" lon="8.762196">
|
|
<ele>6.376954</ele>
|
|
<time>2026-07-10T17:03:52.000Z</time>
|
|
</trkpt>
|
|
<trkpt lat="55.328468" lon="8.762209">
|
|
<ele>6.376954</ele>
|
|
<time>2026-07-10T17:03:53.000Z</time>
|
|
</trkpt>
|
|
<trkpt lat="55.328472" lon="8.762221">
|
|
<ele>6.376954</ele>
|
|
<time>2026-07-10T17:03:54.000Z</time>
|
|
</trkpt>
|
|
<trkpt lat="55.328480" lon="8.762236">
|
|
<ele>6.376954</ele>
|
|
<time>2026-07-10T17:03:55.000Z</time>
|
|
</trkpt>
|
|
<trkpt lat="55.328480" lon="8.762252">
|
|
<ele>6.376954</ele>
|
|
<time>2026-07-10T17:03:56.000Z</time>
|
|
</trkpt>
|
|
<trkpt lat="55.328486" lon="8.762262">
|
|
<ele>6.376954</ele>
|
|
<time>2026-07-10T17:03:57.000Z</time>
|
|
</trkpt>
|
|
<trkpt lat="55.328491" lon="8.762276">
|
|
<ele>6.376954</ele>
|
|
<time>2026-07-10T17:03:58.000Z</time>
|
|
</trkpt>
|
|
<trkpt lat="55.328495" lon="8.762290">
|
|
<ele>6.376954</ele>
|
|
<time>2026-07-10T17:03:59.000Z</time>
|
|
</trkpt>
|
|
<trkpt lat="55.328495" lon="8.762295">
|
|
<ele>6.376954</ele>
|
|
<time>2026-07-10T17:04:00.000Z</time>
|
|
</trkpt>
|
|
<trkpt lat="55.328498" lon="8.762302">
|
|
<ele>6.376954</ele>
|
|
<time>2026-07-10T17:04:01.000Z</time>
|
|
</trkpt>
|
|
<trkpt lat="55.328503" lon="8.762316">
|
|
<ele>6.376954</ele>
|
|
<time>2026-07-10T17:04:02.000Z</time>
|
|
</trkpt>
|
|
<trkpt lat="55.328506" lon="8.762325">
|
|
<ele>6.376954</ele>
|
|
<time>2026-07-10T17:04:03.000Z</time>
|
|
</trkpt>
|
|
<trkpt lat="55.328514" lon="8.762339">
|
|
<ele>6.376954</ele>
|
|
<time>2026-07-10T17:04:04.000Z</time>
|
|
</trkpt>
|
|
<trkpt lat="55.328517" lon="8.762347">
|
|
<ele>6.376954</ele>
|
|
<time>2026-07-10T17:04:05.000Z</time>
|
|
</trkpt>
|
|
<trkpt lat="55.328526" lon="8.762366">
|
|
<ele>6.376954</ele>
|
|
<time>2026-07-10T17:04:06.000Z</time>
|
|
</trkpt>
|
|
<trkpt lat="55.328533" lon="8.762379">
|
|
<ele>6.376954</ele>
|
|
<time>2026-07-10T17:04:07.000Z</time>
|
|
</trkpt>
|
|
<trkpt lat="55.328536" lon="8.762390">
|
|
<ele>6.376954</ele>
|
|
<time>2026-07-10T17:04:08.000Z</time>
|
|
</trkpt>
|
|
<trkpt lat="55.328541" lon="8.762406">
|
|
<ele>6.376954</ele>
|
|
<time>2026-07-10T17:04:09.000Z</time>
|
|
</trkpt>
|
|
<trkpt lat="55.328545" lon="8.762419">
|
|
<ele>6.376954</ele>
|
|
<time>2026-07-10T17:04:10.000Z</time>
|
|
</trkpt>
|
|
<trkpt lat="55.328550" lon="8.762432">
|
|
<ele>6.376954</ele>
|
|
<time>2026-07-10T17:04:11.000Z</time>
|
|
</trkpt>
|
|
<trkpt lat="55.328552" lon="8.762457">
|
|
<ele>6.376954</ele>
|
|
<time>2026-07-10T17:04:12.000Z</time>
|
|
</trkpt>
|
|
<trkpt lat="55.328556" lon="8.762475">
|
|
<ele>6.376954</ele>
|
|
<time>2026-07-10T17:04:13.000Z</time>
|
|
</trkpt>
|
|
<trkpt lat="55.328559" lon="8.762487">
|
|
<ele>6.376954</ele>
|
|
<time>2026-07-10T17:04:14.000Z</time>
|
|
</trkpt>
|
|
<trkpt lat="55.328567" lon="8.762504">
|
|
<ele>6.376954</ele>
|
|
<time>2026-07-10T17:04:15.000Z</time>
|
|
</trkpt>
|
|
<trkpt lat="55.328575" lon="8.762520">
|
|
<ele>6.376954</ele>
|
|
<time>2026-07-10T17:04:16.000Z</time>
|
|
</trkpt>
|
|
<trkpt lat="55.328581" lon="8.762533">
|
|
<ele>6.376954</ele>
|
|
<time>2026-07-10T17:04:17.000Z</time>
|
|
</trkpt>
|
|
<trkpt lat="55.328587" lon="8.762550">
|
|
<ele>6.376954</ele>
|
|
<time>2026-07-10T17:04:18.000Z</time>
|
|
</trkpt>
|
|
<trkpt lat="55.328598" lon="8.762566">
|
|
<ele>6.376954</ele>
|
|
<time>2026-07-10T17:04:19.000Z</time>
|
|
</trkpt>
|
|
<trkpt lat="55.328603" lon="8.762576">
|
|
<ele>6.376954</ele>
|
|
<time>2026-07-10T17:04:20.000Z</time>
|
|
</trkpt>
|
|
<trkpt lat="55.328609" lon="8.762598">
|
|
<ele>6.376954</ele>
|
|
<time>2026-07-10T17:04:21.000Z</time>
|
|
</trkpt>
|
|
<trkpt lat="55.328613" lon="8.762618">
|
|
<ele>6.376954</ele>
|
|
<time>2026-07-10T17:04:22.000Z</time>
|
|
</trkpt>
|
|
<trkpt lat="55.328619" lon="8.762632">
|
|
<ele>6.376954</ele>
|
|
<time>2026-07-10T17:04:23.000Z</time>
|
|
</trkpt>
|
|
<trkpt lat="55.328628" lon="8.762647">
|
|
<ele>6.376954</ele>
|
|
<time>2026-07-10T17:04:24.000Z</time>
|
|
</trkpt>
|
|
<trkpt lat="55.328636" lon="8.762663">
|
|
<ele>6.376954</ele>
|
|
<time>2026-07-10T17:04:25.000Z</time>
|
|
</trkpt>
|
|
<trkpt lat="55.328639" lon="8.762678">
|
|
<ele>6.376954</ele>
|
|
<time>2026-07-10T17:04:26.000Z</time>
|
|
</trkpt>
|
|
<trkpt lat="55.328648" lon="8.762698">
|
|
<ele>6.376954</ele>
|
|
<time>2026-07-10T17:04:27.000Z</time>
|
|
</trkpt>
|
|
<trkpt lat="55.328651" lon="8.762720">
|
|
<ele>6.376954</ele>
|
|
<time>2026-07-10T17:04:28.000Z</time>
|
|
</trkpt>
|
|
<trkpt lat="55.328657" lon="8.762732">
|
|
<ele>6.376954</ele>
|
|
<time>2026-07-10T17:04:29.000Z</time>
|
|
</trkpt>
|
|
<trkpt lat="55.328666" lon="8.762756">
|
|
<ele>6.376954</ele>
|
|
<time>2026-07-10T17:04:30.000Z</time>
|
|
</trkpt>
|
|
<trkpt lat="55.328670" lon="8.762773">
|
|
<ele>6.376954</ele>
|
|
<time>2026-07-10T17:04:31.000Z</time>
|
|
</trkpt>
|
|
<trkpt lat="55.328677" lon="8.762783">
|
|
<ele>6.376954</ele>
|
|
<time>2026-07-10T17:04:32.000Z</time>
|
|
</trkpt>
|
|
<trkpt lat="55.328689" lon="8.762805">
|
|
<ele>6.374965</ele>
|
|
<time>2026-07-10T17:04:33.000Z</time>
|
|
</trkpt>
|
|
<trkpt lat="55.328697" lon="8.762810">
|
|
<ele>6.373410</ele>
|
|
<time>2026-07-10T17:04:34.000Z</time>
|
|
</trkpt>
|
|
<trkpt lat="55.328703" lon="8.762818">
|
|
<ele>6.372031</ele>
|
|
<time>2026-07-10T17:04:35.000Z</time>
|
|
</trkpt>
|
|
<trkpt lat="55.328709" lon="8.762834">
|
|
<ele>6.370035</ele>
|
|
<time>2026-07-10T17:04:36.000Z</time>
|
|
</trkpt>
|
|
<trkpt lat="55.328720" lon="8.762849">
|
|
<ele>6.367486</ele>
|
|
<time>2026-07-10T17:04:37.000Z</time>
|
|
</trkpt>
|
|
<trkpt lat="55.328725" lon="8.762860">
|
|
<ele>6.366019</ele>
|
|
<time>2026-07-10T17:04:38.000Z</time>
|
|
</trkpt>
|
|
<trkpt lat="55.328735" lon="8.762887">
|
|
<ele>6.362663</ele>
|
|
<time>2026-07-10T17:04:39.000Z</time>
|
|
</trkpt>
|
|
<trkpt lat="55.328739" lon="8.762912">
|
|
<ele>6.359958</ele>
|
|
<time>2026-07-10T17:04:40.000Z</time>
|
|
</trkpt>
|
|
<trkpt lat="55.328744" lon="8.762923">
|
|
<ele>6.358491</ele>
|
|
<time>2026-07-10T17:04:41.000Z</time>
|
|
</trkpt>
|
|
<trkpt lat="55.328750" lon="8.762948">
|
|
<ele>6.355665</ele>
|
|
<time>2026-07-10T17:04:42.000Z</time>
|
|
</trkpt>
|
|
<trkpt lat="55.328758" lon="8.762968">
|
|
<ele>6.353118</ele>
|
|
<time>2026-07-10T17:04:43.000Z</time>
|
|
</trkpt>
|
|
<trkpt lat="55.328761" lon="8.762977">
|
|
<ele>6.352031</ele>
|
|
<time>2026-07-10T17:04:44.000Z</time>
|
|
</trkpt>
|
|
<trkpt lat="55.328769" lon="8.762993">
|
|
<ele>6.349813</ele>
|
|
<time>2026-07-10T17:04:45.000Z</time>
|
|
</trkpt>
|
|
<trkpt lat="55.328773" lon="8.763014">
|
|
<ele>6.347506</ele>
|
|
<time>2026-07-10T17:04:46.000Z</time>
|
|
</trkpt>
|
|
<trkpt lat="55.328778" lon="8.763025">
|
|
<ele>6.346039</ele>
|
|
<time>2026-07-10T17:04:47.000Z</time>
|
|
</trkpt>
|
|
<trkpt lat="55.328789" lon="8.763045">
|
|
<ele>6.343141</ele>
|
|
<time>2026-07-10T17:04:48.000Z</time>
|
|
</trkpt>
|
|
<trkpt lat="55.328793" lon="8.763055">
|
|
<ele>6.341868</ele>
|
|
<time>2026-07-10T17:04:49.000Z</time>
|
|
</trkpt>
|
|
<trkpt lat="55.328796" lon="8.763061">
|
|
<ele>6.341036</ele>
|
|
<time>2026-07-10T17:04:50.000Z</time>
|
|
</trkpt>
|
|
<trkpt lat="55.328800" lon="8.763067">
|
|
<ele>6.340073</ele>
|
|
<time>2026-07-10T17:04:51.000Z</time>
|
|
</trkpt>
|
|
<trkpt lat="55.328819" lon="8.763092">
|
|
<ele>6.335727</ele>
|
|
<time>2026-07-10T17:04:52.000Z</time>
|
|
</trkpt>
|
|
<trkpt lat="55.328827" lon="8.763103">
|
|
<ele>6.333867</ele>
|
|
<time>2026-07-10T17:04:53.000Z</time>
|
|
</trkpt>
|
|
<trkpt lat="55.328834" lon="8.763117">
|
|
<ele>6.331926</ele>
|
|
<time>2026-07-10T17:04:54.000Z</time>
|
|
</trkpt>
|
|
<trkpt lat="55.328842" lon="8.763130">
|
|
<ele>6.329931</ele>
|
|
<time>2026-07-10T17:04:55.000Z</time>
|
|
</trkpt>
|
|
<trkpt lat="55.328846" lon="8.763152">
|
|
<ele>6.327525</ele>
|
|
<time>2026-07-10T17:04:56.000Z</time>
|
|
</trkpt>
|
|
<trkpt lat="55.328850" lon="8.763165">
|
|
<ele>6.325985</ele>
|
|
<time>2026-07-10T17:04:57.000Z</time>
|
|
</trkpt>
|
|
<trkpt lat="55.328861" lon="8.763184">
|
|
<ele>6.323161</ele>
|
|
<time>2026-07-10T17:04:58.000Z</time>
|
|
</trkpt>
|
|
<trkpt lat="55.328868" lon="8.763198">
|
|
<ele>6.321220</ele>
|
|
<time>2026-07-10T17:04:59.000Z</time>
|
|
</trkpt>
|
|
<trkpt lat="55.328876" lon="8.763210">
|
|
<ele>6.319294</ele>
|
|
<time>2026-07-10T17:05:00.000Z</time>
|
|
</trkpt>
|
|
<trkpt lat="55.328884" lon="8.763223">
|
|
<ele>6.317299</ele>
|
|
<time>2026-07-10T17:05:01.000Z</time>
|
|
</trkpt>
|
|
<trkpt lat="55.328888" lon="8.763235">
|
|
<ele>6.315850</ele>
|
|
<time>2026-07-10T17:05:02.000Z</time>
|
|
</trkpt>
|
|
<trkpt lat="55.328892" lon="8.763248">
|
|
<ele>6.314311</ele>
|
|
<time>2026-07-10T17:05:03.000Z</time>
|
|
</trkpt>
|
|
<trkpt lat="55.328899" lon="8.763265">
|
|
<ele>6.312125</ele>
|
|
<time>2026-07-10T17:05:04.000Z</time>
|
|
</trkpt>
|
|
<trkpt lat="55.328903" lon="8.763275">
|
|
<ele>6.310851</ele>
|
|
<time>2026-07-10T17:05:05.000Z</time>
|
|
</trkpt>
|
|
<trkpt lat="55.328918" lon="8.763286">
|
|
<ele>6.307875</ele>
|
|
<time>2026-07-10T17:05:06.000Z</time>
|
|
</trkpt>
|
|
<trkpt lat="55.328926" lon="8.763306">
|
|
<ele>6.305328</ele>
|
|
<time>2026-07-10T17:05:07.000Z</time>
|
|
</trkpt>
|
|
<trkpt lat="55.328932" lon="8.763318">
|
|
<ele>6.303664</ele>
|
|
<time>2026-07-10T17:05:08.000Z</time>
|
|
</trkpt>
|
|
<trkpt lat="55.328941" lon="8.763331">
|
|
<ele>6.301531</ele>
|
|
<time>2026-07-10T17:05:09.000Z</time>
|
|
</trkpt>
|
|
<trkpt lat="55.328949" lon="8.763346">
|
|
<ele>6.299389</ele>
|
|
<time>2026-07-10T17:05:10.000Z</time>
|
|
</trkpt>
|
|
<trkpt lat="55.328952" lon="8.763355">
|
|
<ele>6.298303</ele>
|
|
<time>2026-07-10T17:05:11.000Z</time>
|
|
</trkpt>
|
|
<trkpt lat="55.328957" lon="8.763367">
|
|
<ele>6.296753</ele>
|
|
<time>2026-07-10T17:05:12.000Z</time>
|
|
</trkpt>
|
|
<trkpt lat="55.328964" lon="8.763376">
|
|
<ele>6.295165</ele>
|
|
<time>2026-07-10T17:05:13.000Z</time>
|
|
</trkpt>
|
|
<trkpt lat="55.328972" lon="8.763387">
|
|
<ele>6.293306</ele>
|
|
<time>2026-07-10T17:05:14.000Z</time>
|
|
</trkpt>
|
|
<trkpt lat="55.328977" lon="8.763398">
|
|
<ele>6.291839</ele>
|
|
<time>2026-07-10T17:05:15.000Z</time>
|
|
</trkpt>
|
|
<trkpt lat="55.328983" lon="8.763415">
|
|
<ele>6.289755</ele>
|
|
<time>2026-07-10T17:05:16.000Z</time>
|
|
</trkpt>
|
|
<trkpt lat="55.328991" lon="8.763425">
|
|
<ele>6.287957</ele>
|
|
<time>2026-07-10T17:05:17.000Z</time>
|
|
</trkpt>
|
|
<trkpt lat="55.328994" lon="8.763434">
|
|
<ele>6.286871</ele>
|
|
<time>2026-07-10T17:05:18.000Z</time>
|
|
</trkpt>
|
|
<trkpt lat="55.329002" lon="8.763455">
|
|
<ele>6.284238</ele>
|
|
<time>2026-07-10T17:05:19.000Z</time>
|
|
</trkpt>
|
|
<trkpt lat="55.329010" lon="8.763475">
|
|
<ele>6.281691</ele>
|
|
<time>2026-07-10T17:05:20.000Z</time>
|
|
</trkpt>
|
|
<trkpt lat="55.329013" lon="8.763487">
|
|
<ele>6.280326</ele>
|
|
<time>2026-07-10T17:05:21.000Z</time>
|
|
</trkpt>
|
|
<trkpt lat="55.329029" lon="8.763500">
|
|
<ele>6.277098</ele>
|
|
<time>2026-07-10T17:05:22.000Z</time>
|
|
</trkpt>
|
|
<trkpt lat="55.329037" lon="8.763511">
|
|
<ele>6.275239</ele>
|
|
<time>2026-07-10T17:05:23.000Z</time>
|
|
</trkpt>
|
|
<trkpt lat="55.329047" lon="8.763523">
|
|
<ele>6.273021</ele>
|
|
<time>2026-07-10T17:05:24.000Z</time>
|
|
</trkpt>
|
|
<trkpt lat="55.329052" lon="8.763543">
|
|
<ele>6.270746</ele>
|
|
<time>2026-07-10T17:05:25.000Z</time>
|
|
</trkpt>
|
|
<trkpt lat="55.329056" lon="8.763565">
|
|
<ele>6.268340</ele>
|
|
<time>2026-07-10T17:05:26.000Z</time>
|
|
</trkpt>
|
|
<trkpt lat="55.329061" lon="8.763576">
|
|
<ele>6.266873</ele>
|
|
<time>2026-07-10T17:05:27.000Z</time>
|
|
</trkpt>
|
|
<trkpt lat="55.329063" lon="8.763594">
|
|
<ele>6.264963</ele>
|
|
<time>2026-07-10T17:05:28.000Z</time>
|
|
</trkpt>
|
|
<trkpt lat="55.329067" lon="8.763607">
|
|
<ele>6.263423</ele>
|
|
<time>2026-07-10T17:05:29.000Z</time>
|
|
</trkpt>
|
|
<trkpt lat="55.329075" lon="8.763621">
|
|
<ele>6.261356</ele>
|
|
<time>2026-07-10T17:05:30.000Z</time>
|
|
</trkpt>
|
|
<trkpt lat="55.329078" lon="8.763631">
|
|
<ele>6.260179</ele>
|
|
<time>2026-07-10T17:05:31.000Z</time>
|
|
</trkpt>
|
|
<trkpt lat="55.329082" lon="8.763650">
|
|
<ele>6.258068</ele>
|
|
<time>2026-07-10T17:05:32.000Z</time>
|
|
</trkpt>
|
|
<trkpt lat="55.329090" lon="8.763668">
|
|
<ele>6.255689</ele>
|
|
<time>2026-07-10T17:05:33.000Z</time>
|
|
</trkpt>
|
|
<trkpt lat="55.329093" lon="8.763680">
|
|
<ele>6.254324</ele>
|
|
<time>2026-07-10T17:05:34.000Z</time>
|
|
</trkpt>
|
|
<trkpt lat="55.329102" lon="8.763695">
|
|
<ele>6.252053</ele>
|
|
<time>2026-07-10T17:05:35.000Z</time>
|
|
</trkpt>
|
|
<trkpt lat="55.329109" lon="8.763712">
|
|
<ele>6.249867</ele>
|
|
<time>2026-07-10T17:05:36.000Z</time>
|
|
</trkpt>
|
|
<trkpt lat="55.329114" lon="8.763723">
|
|
<ele>6.248400</ele>
|
|
<time>2026-07-10T17:05:37.000Z</time>
|
|
</trkpt>
|
|
<trkpt lat="55.329121" lon="8.763743">
|
|
<ele>6.245954</ele>
|
|
<time>2026-07-10T17:05:38.000Z</time>
|
|
</trkpt>
|
|
<trkpt lat="55.329128" lon="8.763761">
|
|
<ele>6.243683</ele>
|
|
<time>2026-07-10T17:05:39.000Z</time>
|
|
</trkpt>
|
|
<trkpt lat="55.329134" lon="8.763777">
|
|
<ele>6.241686</ele>
|
|
<time>2026-07-10T17:05:40.000Z</time>
|
|
</trkpt>
|
|
<trkpt lat="55.329143" lon="8.763805">
|
|
<ele>6.238336</ele>
|
|
<time>2026-07-10T17:05:41.000Z</time>
|
|
</trkpt>
|
|
<trkpt lat="55.329149" lon="8.763818">
|
|
<ele>6.236592</ele>
|
|
<time>2026-07-10T17:05:42.000Z</time>
|
|
</trkpt>
|
|
<trkpt lat="55.329155" lon="8.763841">
|
|
<ele>6.233957</ele>
|
|
<time>2026-07-10T17:05:43.000Z</time>
|
|
</trkpt>
|
|
<trkpt lat="55.329166" lon="8.763859">
|
|
<ele>6.231205</ele>
|
|
<time>2026-07-10T17:05:44.000Z</time>
|
|
</trkpt>
|
|
<trkpt lat="55.329169" lon="8.763870">
|
|
<ele>6.229934</ele>
|
|
<time>2026-07-10T17:05:45.000Z</time>
|
|
</trkpt>
|
|
<trkpt lat="55.329174" lon="8.763893">
|
|
<ele>6.227369</ele>
|
|
<time>2026-07-10T17:05:46.000Z</time>
|
|
</trkpt>
|
|
<trkpt lat="55.329182" lon="8.763908">
|
|
<ele>6.225228</ele>
|
|
<time>2026-07-10T17:05:47.000Z</time>
|
|
</trkpt>
|
|
<trkpt lat="55.329182" lon="8.763922">
|
|
<ele>6.223769</ele>
|
|
<time>2026-07-10T17:05:48.000Z</time>
|
|
</trkpt>
|
|
<trkpt lat="55.329193" lon="8.763944">
|
|
<ele>6.220718</ele>
|
|
<time>2026-07-10T17:05:49.000Z</time>
|
|
</trkpt>
|
|
<trkpt lat="55.329193" lon="8.763959">
|
|
<ele>6.219156</ele>
|
|
<time>2026-07-10T17:05:50.000Z</time>
|
|
</trkpt>
|
|
<trkpt lat="55.329198" lon="8.763973">
|
|
<ele>6.217434</ele>
|
|
<time>2026-07-10T17:05:51.000Z</time>
|
|
</trkpt>
|
|
<trkpt lat="55.329205" lon="8.763991">
|
|
<ele>6.215163</ele>
|
|
<time>2026-07-10T17:05:52.000Z</time>
|
|
</trkpt>
|
|
<trkpt lat="55.329208" lon="8.764004">
|
|
<ele>6.213701</ele>
|
|
<time>2026-07-10T17:05:53.000Z</time>
|
|
</trkpt>
|
|
<trkpt lat="55.329215" lon="8.764012">
|
|
<ele>6.212172</ele>
|
|
<time>2026-07-10T17:05:54.000Z</time>
|
|
</trkpt>
|
|
<trkpt lat="55.329227" lon="8.764031">
|
|
<ele>6.209215</ele>
|
|
<time>2026-07-10T17:05:55.000Z</time>
|
|
</trkpt>
|
|
<trkpt lat="55.329235" lon="8.764048">
|
|
<ele>6.206917</ele>
|
|
<time>2026-07-10T17:05:56.000Z</time>
|
|
</trkpt>
|
|
<trkpt lat="55.329241" lon="8.764059">
|
|
<ele>6.205330</ele>
|
|
<time>2026-07-10T17:05:57.000Z</time>
|
|
</trkpt>
|
|
<trkpt lat="55.329250" lon="8.764082">
|
|
<ele>6.202422</ele>
|
|
<time>2026-07-10T17:05:58.000Z</time>
|
|
</trkpt>
|
|
<trkpt lat="55.329258" lon="8.764098">
|
|
<ele>6.200203</ele>
|
|
<time>2026-07-10T17:05:59.000Z</time>
|
|
</trkpt>
|
|
<trkpt lat="55.329261" lon="8.764109">
|
|
<ele>6.198932</ele>
|
|
<time>2026-07-10T17:06:00.000Z</time>
|
|
</trkpt>
|
|
<trkpt lat="55.329273" lon="8.764127">
|
|
<ele>6.196043</ele>
|
|
<time>2026-07-10T17:06:01.000Z</time>
|
|
</trkpt>
|
|
<trkpt lat="55.329277" lon="8.764142">
|
|
<ele>6.194318</ele>
|
|
<time>2026-07-10T17:06:02.000Z</time>
|
|
</trkpt>
|
|
<trkpt lat="55.329285" lon="8.764150">
|
|
<ele>6.192632</ele>
|
|
<time>2026-07-10T17:06:03.000Z</time>
|
|
</trkpt>
|
|
<trkpt lat="55.329292" lon="8.764171">
|
|
<ele>6.190097</ele>
|
|
<time>2026-07-10T17:06:04.000Z</time>
|
|
</trkpt>
|
|
<trkpt lat="55.329296" lon="8.764183">
|
|
<ele>6.188648</ele>
|
|
<time>2026-07-10T17:06:05.000Z</time>
|
|
</trkpt>
|
|
<trkpt lat="55.329299" lon="8.764194">
|
|
<ele>6.187378</ele>
|
|
<time>2026-07-10T17:06:06.000Z</time>
|
|
</trkpt>
|
|
<trkpt lat="55.329304" lon="8.764211">
|
|
<ele>6.185384</ele>
|
|
<time>2026-07-10T17:06:07.000Z</time>
|
|
</trkpt>
|
|
<trkpt lat="55.329311" lon="8.764230">
|
|
<ele>6.183026</ele>
|
|
<time>2026-07-10T17:06:08.000Z</time>
|
|
</trkpt>
|
|
<trkpt lat="55.329314" lon="8.764243">
|
|
<ele>6.181565</ele>
|
|
<time>2026-07-10T17:06:09.000Z</time>
|
|
</trkpt>
|
|
<trkpt lat="55.329326" lon="8.764254">
|
|
<ele>6.179087</ele>
|
|
<time>2026-07-10T17:06:10.000Z</time>
|
|
</trkpt>
|
|
<trkpt lat="55.329334" lon="8.764273">
|
|
<ele>6.176624</ele>
|
|
<time>2026-07-10T17:06:11.000Z</time>
|
|
</trkpt>
|
|
<trkpt lat="55.329339" lon="8.764285">
|
|
<ele>6.175075</ele>
|
|
<time>2026-07-10T17:06:12.000Z</time>
|
|
</trkpt>
|
|
<trkpt lat="55.329349" lon="8.764318">
|
|
<ele>6.171180</ele>
|
|
<time>2026-07-10T17:06:13.000Z</time>
|
|
</trkpt>
|
|
<trkpt lat="55.329355" lon="8.764331">
|
|
<ele>6.169436</ele>
|
|
<time>2026-07-10T17:06:14.000Z</time>
|
|
</trkpt>
|
|
<trkpt lat="55.329365" lon="8.764355">
|
|
<ele>6.166338</ele>
|
|
<time>2026-07-10T17:06:15.000Z</time>
|
|
</trkpt>
|
|
<trkpt lat="55.329369" lon="8.764374">
|
|
<ele>6.164227</ele>
|
|
<time>2026-07-10T17:06:16.000Z</time>
|
|
</trkpt>
|
|
<trkpt lat="55.329373" lon="8.764386">
|
|
<ele>6.162779</ele>
|
|
<time>2026-07-10T17:06:17.000Z</time>
|
|
</trkpt>
|
|
<trkpt lat="55.329383" lon="8.764409">
|
|
<ele>6.159763</ele>
|
|
<time>2026-07-10T17:06:18.000Z</time>
|
|
</trkpt>
|
|
<trkpt lat="55.329384" lon="8.764441">
|
|
<ele>6.156425</ele>
|
|
<time>2026-07-10T17:06:19.000Z</time>
|
|
</trkpt>
|
|
<trkpt lat="55.329386" lon="8.764455">
|
|
<ele>6.154921</ele>
|
|
<time>2026-07-10T17:06:20.000Z</time>
|
|
</trkpt>
|
|
<trkpt lat="55.329395" lon="8.764479">
|
|
<ele>6.151927</ele>
|
|
<time>2026-07-10T17:06:21.000Z</time>
|
|
</trkpt>
|
|
<trkpt lat="55.329403" lon="8.764495">
|
|
<ele>6.149708</ele>
|
|
<time>2026-07-10T17:06:22.000Z</time>
|
|
</trkpt>
|
|
<trkpt lat="55.329408" lon="8.764505">
|
|
<ele>6.148321</ele>
|
|
<time>2026-07-10T17:06:23.000Z</time>
|
|
</trkpt>
|
|
<trkpt lat="55.329418" lon="8.764523">
|
|
<ele>6.145700</ele>
|
|
<time>2026-07-10T17:06:24.000Z</time>
|
|
</trkpt>
|
|
<trkpt lat="55.329426" lon="8.764538">
|
|
<ele>6.143559</ele>
|
|
<time>2026-07-10T17:06:25.000Z</time>
|
|
</trkpt>
|
|
<trkpt lat="55.329431" lon="8.764548">
|
|
<ele>6.142172</ele>
|
|
<time>2026-07-10T17:06:26.000Z</time>
|
|
</trkpt>
|
|
<trkpt lat="55.329433" lon="8.764566">
|
|
<ele>6.140261</ele>
|
|
<time>2026-07-10T17:06:27.000Z</time>
|
|
</trkpt>
|
|
<trkpt lat="55.329445" lon="8.764583">
|
|
<ele>6.137439</ele>
|
|
<time>2026-07-10T17:06:28.000Z</time>
|
|
</trkpt>
|
|
<trkpt lat="55.329447" lon="8.764593">
|
|
<ele>6.136335</ele>
|
|
<time>2026-07-10T17:06:29.000Z</time>
|
|
</trkpt>
|
|
<trkpt lat="55.329456" lon="8.764616">
|
|
<ele>6.133427</ele>
|
|
<time>2026-07-10T17:06:30.000Z</time>
|
|
</trkpt>
|
|
<trkpt lat="55.329464" lon="8.764633">
|
|
<ele>6.131129</ele>
|
|
<time>2026-07-10T17:06:31.000Z</time>
|
|
</trkpt>
|
|
<trkpt lat="55.329469" lon="8.764642">
|
|
<ele>6.129819</ele>
|
|
<time>2026-07-10T17:06:32.000Z</time>
|
|
</trkpt>
|
|
<trkpt lat="55.329479" lon="8.764660">
|
|
<ele>6.127198</ele>
|
|
<time>2026-07-10T17:06:33.000Z</time>
|
|
</trkpt>
|
|
<trkpt lat="55.329490" lon="8.764677">
|
|
<ele>6.124516</ele>
|
|
<time>2026-07-10T17:06:34.000Z</time>
|
|
</trkpt>
|
|
<trkpt lat="55.329496" lon="8.764689">
|
|
<ele>6.122852</ele>
|
|
<time>2026-07-10T17:06:35.000Z</time>
|
|
</trkpt>
|
|
<trkpt lat="55.329506" lon="8.764711">
|
|
<ele>6.119918</ele>
|
|
<time>2026-07-10T17:06:36.000Z</time>
|
|
</trkpt>
|
|
<trkpt lat="55.329513" lon="8.764726">
|
|
<ele>6.117897</ele>
|
|
<time>2026-07-10T17:06:37.000Z</time>
|
|
</trkpt>
|
|
<trkpt lat="55.329520" lon="8.764735">
|
|
<ele>6.116309</ele>
|
|
<time>2026-07-10T17:06:38.000Z</time>
|
|
</trkpt>
|
|
<trkpt lat="55.329525" lon="8.764751">
|
|
<ele>6.114408</ele>
|
|
<time>2026-07-10T17:06:39.000Z</time>
|
|
</trkpt>
|
|
<trkpt lat="55.329525" lon="8.764753">
|
|
<ele>6.114199</ele>
|
|
<time>2026-07-10T17:06:40.000Z</time>
|
|
</trkpt>
|
|
<trkpt lat="55.329525" lon="8.764756">
|
|
<ele>6.113887</ele>
|
|
<time>2026-07-10T17:06:41.000Z</time>
|
|
</trkpt>
|
|
<trkpt lat="55.329525" lon="8.764756">
|
|
<ele>6.113887</ele>
|
|
<time>2026-07-10T17:06:42.000Z</time>
|
|
</trkpt>
|
|
<trkpt lat="55.329525" lon="8.764756">
|
|
<ele>6.113887</ele>
|
|
<time>2026-07-10T17:06:44.000Z</time>
|
|
</trkpt>
|
|
<trkpt lat="55.329540" lon="8.764807">
|
|
<ele>6.107906</ele>
|
|
<time>2026-07-10T17:06:45.000Z</time>
|
|
</trkpt>
|
|
<trkpt lat="55.329546" lon="8.764830">
|
|
<ele>6.105271</ele>
|
|
<time>2026-07-10T17:06:46.000Z</time>
|
|
</trkpt>
|
|
<trkpt lat="55.329561" lon="8.764880">
|
|
<ele>6.099383</ele>
|
|
<time>2026-07-10T17:06:47.000Z</time>
|
|
</trkpt>
|
|
<trkpt lat="55.329569" lon="8.764914">
|
|
<ele>6.095550</ele>
|
|
<time>2026-07-10T17:06:48.000Z</time>
|
|
</trkpt>
|
|
<trkpt lat="55.329576" lon="8.764943">
|
|
<ele>6.092269</ele>
|
|
<time>2026-07-10T17:06:49.000Z</time>
|
|
</trkpt>
|
|
<trkpt lat="55.329583" lon="8.764989">
|
|
<ele>6.087309</ele>
|
|
<time>2026-07-10T17:06:50.000Z</time>
|
|
</trkpt>
|
|
<trkpt lat="55.329591" lon="8.765041">
|
|
<ele>6.081697</ele>
|
|
<time>2026-07-10T17:06:51.000Z</time>
|
|
</trkpt>
|
|
<trkpt lat="55.329603" lon="8.765095">
|
|
<ele>6.075659</ele>
|
|
<time>2026-07-10T17:06:52.000Z</time>
|
|
</trkpt>
|
|
<trkpt lat="55.329613" lon="8.765140">
|
|
<ele>6.070626</ele>
|
|
<time>2026-07-10T17:06:53.000Z</time>
|
|
</trkpt>
|
|
<trkpt lat="55.329630" lon="8.765195">
|
|
<ele>6.064106</ele>
|
|
<time>2026-07-10T17:06:54.000Z</time>
|
|
</trkpt>
|
|
<trkpt lat="55.329653" lon="8.765279">
|
|
<ele>6.054395</ele>
|
|
<time>2026-07-10T17:06:55.000Z</time>
|
|
</trkpt>
|
|
<trkpt lat="55.329658" lon="8.765340">
|
|
<ele>6.047976</ele>
|
|
<time>2026-07-10T17:06:56.000Z</time>
|
|
</trkpt>
|
|
<trkpt lat="55.329670" lon="8.765395">
|
|
<ele>6.044083</ele>
|
|
<time>2026-07-10T17:06:57.000Z</time>
|
|
</trkpt>
|
|
<trkpt lat="55.329678" lon="8.765448">
|
|
<ele>6.040595</ele>
|
|
<time>2026-07-10T17:06:58.000Z</time>
|
|
</trkpt>
|
|
<trkpt lat="55.329688" lon="8.765497">
|
|
<ele>6.037284</ele>
|
|
<time>2026-07-10T17:06:59.000Z</time>
|
|
</trkpt>
|
|
<trkpt lat="55.329704" lon="8.765551">
|
|
<ele>6.033412</ele>
|
|
<time>2026-07-10T17:07:00.000Z</time>
|
|
</trkpt>
|
|
<trkpt lat="55.329714" lon="8.765602">
|
|
<ele>6.029981</ele>
|
|
<time>2026-07-10T17:07:01.000Z</time>
|
|
</trkpt>
|
|
<trkpt lat="55.329723" lon="8.765653">
|
|
<ele>6.026584</ele>
|
|
<time>2026-07-10T17:07:02.000Z</time>
|
|
</trkpt>
|
|
<trkpt lat="55.329723" lon="8.765701">
|
|
<ele>6.023531</ele>
|
|
<time>2026-07-10T17:07:03.000Z</time>
|
|
</trkpt>
|
|
<trkpt lat="55.329730" lon="8.765740">
|
|
<ele>6.020930</ele>
|
|
<time>2026-07-10T17:07:04.000Z</time>
|
|
</trkpt>
|
|
<trkpt lat="55.329735" lon="8.765793">
|
|
<ele>6.017513</ele>
|
|
<time>2026-07-10T17:07:05.000Z</time>
|
|
</trkpt>
|
|
<trkpt lat="55.329746" lon="8.765839">
|
|
<ele>6.014340</ele>
|
|
<time>2026-07-10T17:07:06.000Z</time>
|
|
</trkpt>
|
|
<trkpt lat="55.329753" lon="8.765881">
|
|
<ele>6.011556</ele>
|
|
<time>2026-07-10T17:07:07.000Z</time>
|
|
</trkpt>
|
|
<trkpt lat="55.329768" lon="8.765934">
|
|
<ele>6.007791</ele>
|
|
<time>2026-07-10T17:07:08.000Z</time>
|
|
</trkpt>
|
|
<trkpt lat="55.329784" lon="8.765984">
|
|
<ele>6.004142</ele>
|
|
<time>2026-07-10T17:07:09.000Z</time>
|
|
</trkpt>
|
|
<trkpt lat="55.329797" lon="8.766021">
|
|
<ele>6.001376</ele>
|
|
<time>2026-07-10T17:07:10.000Z</time>
|
|
</trkpt>
|
|
<trkpt lat="55.329813" lon="8.766063">
|
|
<ele>5.998161</ele>
|
|
<time>2026-07-10T17:07:11.000Z</time>
|
|
</trkpt>
|
|
<trkpt lat="55.329832" lon="8.766104">
|
|
<ele>5.994798</ele>
|
|
<time>2026-07-10T17:07:12.000Z</time>
|
|
</trkpt>
|
|
<trkpt lat="55.329852" lon="8.766147">
|
|
<ele>5.991265</ele>
|
|
<time>2026-07-10T17:07:13.000Z</time>
|
|
</trkpt>
|
|
<trkpt lat="55.329866" lon="8.766178">
|
|
<ele>5.988747</ele>
|
|
<time>2026-07-10T17:07:14.000Z</time>
|
|
</trkpt>
|
|
<trkpt lat="55.329887" lon="8.766215">
|
|
<ele>5.985423</ele>
|
|
<time>2026-07-10T17:07:15.000Z</time>
|
|
</trkpt>
|
|
<trkpt lat="55.329902" lon="8.766242">
|
|
<ele>5.983023</ele>
|
|
<time>2026-07-10T17:07:16.000Z</time>
|
|
</trkpt>
|
|
<trkpt lat="55.329914" lon="8.766265">
|
|
<ele>5.981038</ele>
|
|
<time>2026-07-10T17:07:17.000Z</time>
|
|
</trkpt>
|
|
<trkpt lat="55.329929" lon="8.766283">
|
|
<ele>5.979007</ele>
|
|
<time>2026-07-10T17:07:18.000Z</time>
|
|
</trkpt>
|
|
<trkpt lat="55.329937" lon="8.766296">
|
|
<ele>5.977789</ele>
|
|
<time>2026-07-10T17:07:19.000Z</time>
|
|
</trkpt>
|
|
<trkpt lat="55.329950" lon="8.766308">
|
|
<ele>5.976147</ele>
|
|
<time>2026-07-10T17:07:20.000Z</time>
|
|
</trkpt>
|
|
<trkpt lat="55.329963" lon="8.766327">
|
|
<ele>5.974257</ele>
|
|
<time>2026-07-10T17:07:21.000Z</time>
|
|
</trkpt>
|
|
<trkpt lat="55.329971" lon="8.766349">
|
|
<ele>5.972596</ele>
|
|
<time>2026-07-10T17:07:22.000Z</time>
|
|
</trkpt>
|
|
<trkpt lat="55.329990" lon="8.766372">
|
|
<ele>5.970017</ele>
|
|
<time>2026-07-10T17:07:23.000Z</time>
|
|
</trkpt>
|
|
<trkpt lat="55.330016" lon="8.766385">
|
|
<ele>5.966995</ele>
|
|
<time>2026-07-10T17:07:24.000Z</time>
|
|
</trkpt>
|
|
<trkpt lat="55.330040" lon="8.766398">
|
|
<ele>5.964187</ele>
|
|
<time>2026-07-10T17:07:25.000Z</time>
|
|
</trkpt>
|
|
<trkpt lat="55.330066" lon="8.766409">
|
|
<ele>5.961197</ele>
|
|
<time>2026-07-10T17:07:26.000Z</time>
|
|
</trkpt>
|
|
<trkpt lat="55.330091" lon="8.766418">
|
|
<ele>5.958343</ele>
|
|
<time>2026-07-10T17:07:27.000Z</time>
|
|
</trkpt>
|
|
<trkpt lat="55.330120" lon="8.766436">
|
|
<ele>5.954905</ele>
|
|
<time>2026-07-10T17:07:28.000Z</time>
|
|
</trkpt>
|
|
<trkpt lat="55.330145" lon="8.766453">
|
|
<ele>5.951908</ele>
|
|
<time>2026-07-10T17:07:29.000Z</time>
|
|
</trkpt>
|
|
<trkpt lat="55.330172" lon="8.766471">
|
|
<ele>5.948679</ele>
|
|
<time>2026-07-10T17:07:30.000Z</time>
|
|
</trkpt>
|
|
<trkpt lat="55.330201" lon="8.766485">
|
|
<ele>5.945317</ele>
|
|
<time>2026-07-10T17:07:31.000Z</time>
|
|
</trkpt>
|
|
<trkpt lat="55.330229" lon="8.766498">
|
|
<ele>5.942079</ele>
|
|
<time>2026-07-10T17:07:32.000Z</time>
|
|
</trkpt>
|
|
<trkpt lat="55.330255" lon="8.766508">
|
|
<ele>5.939103</ele>
|
|
<time>2026-07-10T17:07:33.000Z</time>
|
|
</trkpt>
|
|
<trkpt lat="55.330276" lon="8.766517">
|
|
<ele>5.936686</ele>
|
|
<time>2026-07-10T17:07:34.000Z</time>
|
|
</trkpt>
|
|
<trkpt lat="55.330307" lon="8.766541">
|
|
<ele>5.932899</ele>
|
|
<time>2026-07-10T17:07:38.000Z</time>
|
|
</trkpt>
|
|
<trkpt lat="55.330321" lon="8.766550">
|
|
<ele>5.931232</ele>
|
|
<time>2026-07-10T17:07:39.000Z</time>
|
|
</trkpt>
|
|
<trkpt lat="55.330337" lon="8.766559">
|
|
<ele>5.929354</ele>
|
|
<time>2026-07-10T17:07:40.000Z</time>
|
|
</trkpt>
|
|
<trkpt lat="55.330360" lon="8.766588">
|
|
<ele>5.926189</ele>
|
|
<time>2026-07-10T17:07:41.000Z</time>
|
|
</trkpt>
|
|
<trkpt lat="55.330390" lon="8.766613">
|
|
<ele>5.922477</ele>
|
|
<time>2026-07-10T17:07:42.000Z</time>
|
|
</trkpt>
|
|
<trkpt lat="55.330421" lon="8.766638">
|
|
<ele>5.918664</ele>
|
|
<time>2026-07-10T17:07:43.000Z</time>
|
|
</trkpt>
|
|
<trkpt lat="55.330455" lon="8.766666">
|
|
<ele>5.914466</ele>
|
|
<time>2026-07-10T17:07:44.000Z</time>
|
|
</trkpt>
|
|
<trkpt lat="55.330486" lon="8.766690">
|
|
<ele>5.910678</ele>
|
|
<time>2026-07-10T17:07:45.000Z</time>
|
|
</trkpt>
|
|
<trkpt lat="55.330516" lon="8.766713">
|
|
<ele>5.907019</ele>
|
|
<time>2026-07-10T17:07:46.000Z</time>
|
|
</trkpt>
|
|
<trkpt lat="55.330550" lon="8.766741">
|
|
<ele>5.902821</ele>
|
|
<time>2026-07-10T17:07:47.000Z</time>
|
|
</trkpt>
|
|
<trkpt lat="55.330585" lon="8.766770">
|
|
<ele>5.898495</ele>
|
|
<time>2026-07-10T17:07:48.000Z</time>
|
|
</trkpt>
|
|
<trkpt lat="55.330623" lon="8.766798">
|
|
<ele>5.893888</ele>
|
|
<time>2026-07-10T17:07:49.000Z</time>
|
|
</trkpt>
|
|
<trkpt lat="55.330661" lon="8.766828">
|
|
<ele>5.889230</ele>
|
|
<time>2026-07-10T17:07:50.000Z</time>
|
|
</trkpt>
|
|
<trkpt lat="55.330703" lon="8.766860">
|
|
<ele>5.884112</ele>
|
|
<time>2026-07-10T17:07:51.000Z</time>
|
|
</trkpt>
|
|
<trkpt lat="55.330745" lon="8.766891">
|
|
<ele>5.879019</ele>
|
|
<time>2026-07-10T17:07:52.000Z</time>
|
|
</trkpt>
|
|
<trkpt lat="55.330787" lon="8.766925">
|
|
<ele>5.873849</ele>
|
|
<time>2026-07-10T17:07:53.000Z</time>
|
|
</trkpt>
|
|
<trkpt lat="55.330833" lon="8.766955">
|
|
<ele>5.868364</ele>
|
|
<time>2026-07-10T17:07:54.000Z</time>
|
|
</trkpt>
|
|
<trkpt lat="55.330875" lon="8.766984">
|
|
<ele>5.863318</ele>
|
|
<time>2026-07-10T17:07:55.000Z</time>
|
|
</trkpt>
|
|
<trkpt lat="55.330920" lon="8.767018">
|
|
<ele>5.857842</ele>
|
|
<time>2026-07-10T17:07:56.000Z</time>
|
|
</trkpt>
|
|
<trkpt lat="55.330963" lon="8.767049">
|
|
<ele>5.852646</ele>
|
|
<time>2026-07-10T17:07:57.000Z</time>
|
|
</trkpt>
|
|
<trkpt lat="55.331008" lon="8.767080">
|
|
<ele>5.847242</ele>
|
|
<time>2026-07-10T17:07:58.000Z</time>
|
|
</trkpt>
|
|
<trkpt lat="55.331054" lon="8.767109">
|
|
<ele>5.840103</ele>
|
|
<time>2026-07-10T17:07:59.000Z</time>
|
|
</trkpt>
|
|
<trkpt lat="55.331095" lon="8.767139">
|
|
<ele>5.833374</ele>
|
|
<time>2026-07-10T17:08:00.000Z</time>
|
|
</trkpt>
|
|
<trkpt lat="55.331138" lon="8.767174">
|
|
<ele>5.826195</ele>
|
|
<time>2026-07-10T17:08:01.000Z</time>
|
|
</trkpt>
|
|
<trkpt lat="55.331180" lon="8.767214">
|
|
<ele>5.818957</ele>
|
|
<time>2026-07-10T17:08:02.000Z</time>
|
|
</trkpt>
|
|
<trkpt lat="55.331225" lon="8.767252">
|
|
<ele>5.811393</ele>
|
|
<time>2026-07-10T17:08:03.000Z</time>
|
|
</trkpt>
|
|
<trkpt lat="55.331271" lon="8.767291">
|
|
<ele>5.803656</ele>
|
|
<time>2026-07-10T17:08:04.000Z</time>
|
|
</trkpt>
|
|
<trkpt lat="55.331314" lon="8.767330">
|
|
<ele>5.796325</ele>
|
|
<time>2026-07-10T17:08:05.000Z</time>
|
|
</trkpt>
|
|
<trkpt lat="55.331348" lon="8.767363">
|
|
<ele>5.790440</ele>
|
|
<time>2026-07-10T17:08:06.000Z</time>
|
|
</trkpt>
|
|
<trkpt lat="55.331386" lon="8.767396">
|
|
<ele>5.784019</ele>
|
|
<time>2026-07-10T17:08:07.000Z</time>
|
|
</trkpt>
|
|
<trkpt lat="55.331428" lon="8.767426">
|
|
<ele>5.777150</ele>
|
|
<time>2026-07-10T17:08:08.000Z</time>
|
|
</trkpt>
|
|
<trkpt lat="55.331455" lon="8.767450">
|
|
<ele>5.772566</ele>
|
|
<time>2026-07-10T17:08:09.000Z</time>
|
|
</trkpt>
|
|
<trkpt lat="55.331470" lon="8.767458">
|
|
<ele>5.770191</ele>
|
|
<time>2026-07-10T17:08:10.000Z</time>
|
|
</trkpt>
|
|
<trkpt lat="55.331478" lon="8.767460">
|
|
<ele>5.768967</ele>
|
|
<time>2026-07-10T17:08:11.000Z</time>
|
|
</trkpt>
|
|
<trkpt lat="55.331482" lon="8.767460">
|
|
<ele>5.768361</ele>
|
|
<time>2026-07-10T17:08:12.000Z</time>
|
|
</trkpt>
|
|
<trkpt lat="55.331482" lon="8.767464">
|
|
<ele>5.768016</ele>
|
|
<time>2026-07-10T17:08:13.000Z</time>
|
|
</trkpt>
|
|
<trkpt lat="55.331462" lon="8.767377">
|
|
<ele>5.759929</ele>
|
|
<time>2026-07-10T17:09:23.000Z</time>
|
|
</trkpt>
|
|
<trkpt lat="55.331452" lon="8.767384">
|
|
<ele>5.758298</ele>
|
|
<time>2026-07-10T17:09:24.000Z</time>
|
|
</trkpt>
|
|
<trkpt lat="55.331440" lon="8.767398">
|
|
<ele>5.756116</ele>
|
|
<time>2026-07-10T17:09:25.000Z</time>
|
|
</trkpt>
|
|
<trkpt lat="55.331431" lon="8.767410">
|
|
<ele>5.754405</ele>
|
|
<time>2026-07-10T17:09:26.000Z</time>
|
|
</trkpt>
|
|
<trkpt lat="55.331421" lon="8.767431">
|
|
<ele>5.752044</ele>
|
|
<time>2026-07-10T17:09:27.000Z</time>
|
|
</trkpt>
|
|
<trkpt lat="55.331413" lon="8.767450">
|
|
<ele>5.750007</ele>
|
|
<time>2026-07-10T17:09:28.000Z</time>
|
|
</trkpt>
|
|
<trkpt lat="55.331407" lon="8.767469">
|
|
<ele>5.748134</ele>
|
|
<time>2026-07-10T17:09:29.000Z</time>
|
|
</trkpt>
|
|
<trkpt lat="55.331406" lon="8.767506">
|
|
<ele>5.744942</ele>
|
|
<time>2026-07-10T17:09:30.000Z</time>
|
|
</trkpt>
|
|
<trkpt lat="55.331402" lon="8.767531">
|
|
<ele>5.742704</ele>
|
|
<time>2026-07-10T17:09:31.000Z</time>
|
|
</trkpt>
|
|
<trkpt lat="55.331402" lon="8.767562">
|
|
<ele>5.740032</ele>
|
|
<time>2026-07-10T17:09:32.000Z</time>
|
|
</trkpt>
|
|
<trkpt lat="55.331402" lon="8.767595">
|
|
<ele>5.737188</ele>
|
|
<time>2026-07-10T17:09:33.000Z</time>
|
|
</trkpt>
|
|
<trkpt lat="55.331398" lon="8.767619">
|
|
<ele>5.735032</ele>
|
|
<time>2026-07-10T17:09:34.000Z</time>
|
|
</trkpt>
|
|
<trkpt lat="55.331398" lon="8.767646">
|
|
<ele>5.732705</ele>
|
|
<time>2026-07-10T17:09:35.000Z</time>
|
|
</trkpt>
|
|
<trkpt lat="55.331394" lon="8.767673">
|
|
<ele>5.730301</ele>
|
|
<time>2026-07-10T17:09:36.000Z</time>
|
|
</trkpt>
|
|
<trkpt lat="55.331391" lon="8.767697">
|
|
<ele>5.728183</ele>
|
|
<time>2026-07-10T17:09:37.000Z</time>
|
|
</trkpt>
|
|
<trkpt lat="55.331387" lon="8.767720">
|
|
<ele>5.726110</ele>
|
|
<time>2026-07-10T17:09:38.000Z</time>
|
|
</trkpt>
|
|
<trkpt lat="55.331387" lon="8.767741">
|
|
<ele>5.724300</ele>
|
|
<time>2026-07-10T17:09:39.000Z</time>
|
|
</trkpt>
|
|
<trkpt lat="55.331387" lon="8.767761">
|
|
<ele>5.722577</ele>
|
|
<time>2026-07-10T17:09:40.000Z</time>
|
|
</trkpt>
|
|
<trkpt lat="55.331387" lon="8.767780">
|
|
<ele>5.720939</ele>
|
|
<time>2026-07-10T17:09:41.000Z</time>
|
|
</trkpt>
|
|
<trkpt lat="55.331383" lon="8.767797">
|
|
<ele>5.719354</ele>
|
|
<time>2026-07-10T17:09:42.000Z</time>
|
|
</trkpt>
|
|
<trkpt lat="55.331379" lon="8.767820">
|
|
<ele>5.717281</ele>
|
|
<time>2026-07-10T17:09:43.000Z</time>
|
|
</trkpt>
|
|
<trkpt lat="55.331375" lon="8.767841">
|
|
<ele>5.715372</ele>
|
|
<time>2026-07-10T17:09:44.000Z</time>
|
|
</trkpt>
|
|
<trkpt lat="55.331375" lon="8.767857">
|
|
<ele>5.713993</ele>
|
|
<time>2026-07-10T17:09:45.000Z</time>
|
|
</trkpt>
|
|
<trkpt lat="55.331371" lon="8.767887">
|
|
<ele>5.711338</ele>
|
|
<time>2026-07-10T17:09:46.000Z</time>
|
|
</trkpt>
|
|
<trkpt lat="55.331364" lon="8.767908">
|
|
<ele>5.709240</ele>
|
|
<time>2026-07-10T17:09:47.000Z</time>
|
|
</trkpt>
|
|
<trkpt lat="55.331361" lon="8.767924">
|
|
<ele>5.707788</ele>
|
|
<time>2026-07-10T17:09:48.000Z</time>
|
|
</trkpt>
|
|
<trkpt lat="55.331360" lon="8.767952">
|
|
<ele>5.705370</ele>
|
|
<time>2026-07-10T17:09:49.000Z</time>
|
|
</trkpt>
|
|
<trkpt lat="55.331352" lon="8.767973">
|
|
<ele>5.703192</ele>
|
|
<time>2026-07-10T17:09:50.000Z</time>
|
|
</trkpt>
|
|
<trkpt lat="55.331352" lon="8.767987">
|
|
<ele>5.701985</ele>
|
|
<time>2026-07-10T17:09:51.000Z</time>
|
|
</trkpt>
|
|
<trkpt lat="55.331352" lon="8.768008">
|
|
<ele>5.700175</ele>
|
|
<time>2026-07-10T17:09:52.000Z</time>
|
|
</trkpt>
|
|
<trkpt lat="55.331356" lon="8.768025">
|
|
<ele>5.698590</ele>
|
|
<time>2026-07-10T17:09:53.000Z</time>
|
|
</trkpt>
|
|
<trkpt lat="55.331356" lon="8.768042">
|
|
<ele>5.697125</ele>
|
|
<time>2026-07-10T17:09:54.000Z</time>
|
|
</trkpt>
|
|
<trkpt lat="55.331352" lon="8.768060">
|
|
<ele>5.695459</ele>
|
|
<time>2026-07-10T17:09:55.000Z</time>
|
|
</trkpt>
|
|
<trkpt lat="55.331348" lon="8.768077">
|
|
<ele>5.693874</ele>
|
|
<time>2026-07-10T17:09:56.000Z</time>
|
|
</trkpt>
|
|
<trkpt lat="55.331345" lon="8.768092">
|
|
<ele>5.692503</ele>
|
|
<time>2026-07-10T17:09:57.000Z</time>
|
|
</trkpt>
|
|
<trkpt lat="55.331341" lon="8.768121">
|
|
<ele>5.689932</ele>
|
|
<time>2026-07-10T17:09:58.000Z</time>
|
|
</trkpt>
|
|
<trkpt lat="55.331337" lon="8.768144">
|
|
<ele>5.687859</ele>
|
|
<time>2026-07-10T17:09:59.000Z</time>
|
|
</trkpt>
|
|
<trkpt lat="55.331334" lon="8.768164">
|
|
<ele>5.686076</ele>
|
|
<time>2026-07-10T17:10:00.000Z</time>
|
|
</trkpt>
|
|
<trkpt lat="55.331329" lon="8.768190">
|
|
<ele>5.683711</ele>
|
|
<time>2026-07-10T17:10:01.000Z</time>
|
|
</trkpt>
|
|
<trkpt lat="55.331326" lon="8.768214">
|
|
<ele>5.681593</ele>
|
|
<time>2026-07-10T17:10:02.000Z</time>
|
|
</trkpt>
|
|
<trkpt lat="55.331323" lon="8.768229">
|
|
<ele>5.680223</ele>
|
|
<time>2026-07-10T17:10:03.000Z</time>
|
|
</trkpt>
|
|
<trkpt lat="55.331318" lon="8.768258">
|
|
<ele>5.677611</ele>
|
|
<time>2026-07-10T17:10:04.000Z</time>
|
|
</trkpt>
|
|
<trkpt lat="55.331322" lon="8.768280">
|
|
<ele>5.675621</ele>
|
|
<time>2026-07-10T17:10:05.000Z</time>
|
|
</trkpt>
|
|
<trkpt lat="55.331322" lon="8.768295">
|
|
<ele>5.674328</ele>
|
|
<time>2026-07-10T17:10:06.000Z</time>
|
|
</trkpt>
|
|
<trkpt lat="55.331318" lon="8.768320">
|
|
<ele>5.672090</ele>
|
|
<time>2026-07-10T17:10:07.000Z</time>
|
|
</trkpt>
|
|
<trkpt lat="55.331314" lon="8.768340">
|
|
<ele>5.670262</ele>
|
|
<time>2026-07-10T17:10:08.000Z</time>
|
|
</trkpt>
|
|
<trkpt lat="55.331314" lon="8.768352">
|
|
<ele>5.669228</ele>
|
|
<time>2026-07-10T17:10:09.000Z</time>
|
|
</trkpt>
|
|
<trkpt lat="55.331314" lon="8.768375">
|
|
<ele>5.667246</ele>
|
|
<time>2026-07-10T17:10:10.000Z</time>
|
|
</trkpt>
|
|
<trkpt lat="55.331314" lon="8.768389">
|
|
<ele>5.666039</ele>
|
|
<time>2026-07-10T17:10:11.000Z</time>
|
|
</trkpt>
|
|
<trkpt lat="55.331317" lon="8.768394">
|
|
<ele>5.665413</ele>
|
|
<time>2026-07-10T17:10:12.000Z</time>
|
|
</trkpt>
|
|
<trkpt lat="55.331322" lon="8.768402">
|
|
<ele>5.664389</ele>
|
|
<time>2026-07-10T17:10:13.000Z</time>
|
|
</trkpt>
|
|
<trkpt lat="55.331325" lon="8.768402">
|
|
<ele>5.663934</ele>
|
|
<time>2026-07-10T17:10:14.000Z</time>
|
|
</trkpt>
|
|
<trkpt lat="55.331215" lon="8.768410">
|
|
<ele>5.647254</ele>
|
|
<time>2026-07-10T17:11:44.000Z</time>
|
|
</trkpt>
|
|
<trkpt lat="55.331204" lon="8.768420">
|
|
<ele>5.645377</ele>
|
|
<time>2026-07-10T17:11:45.000Z</time>
|
|
</trkpt>
|
|
<trkpt lat="55.331196" lon="8.768429">
|
|
<ele>5.643938</ele>
|
|
<time>2026-07-10T17:11:46.000Z</time>
|
|
</trkpt>
|
|
<trkpt lat="55.331191" lon="8.768435">
|
|
<ele>5.643021</ele>
|
|
<time>2026-07-10T17:11:47.000Z</time>
|
|
</trkpt>
|
|
<trkpt lat="55.331188" lon="8.768447">
|
|
<ele>5.641891</ele>
|
|
<time>2026-07-10T17:11:48.000Z</time>
|
|
</trkpt>
|
|
<trkpt lat="55.331184" lon="8.768456">
|
|
<ele>5.640907</ele>
|
|
<time>2026-07-10T17:11:49.000Z</time>
|
|
</trkpt>
|
|
<trkpt lat="55.331181" lon="8.768465">
|
|
<ele>5.640008</ele>
|
|
<time>2026-07-10T17:11:50.000Z</time>
|
|
</trkpt>
|
|
<trkpt lat="55.331177" lon="8.768460">
|
|
<ele>5.639264</ele>
|
|
<time>2026-07-10T17:11:51.000Z</time>
|
|
</trkpt>
|
|
<trkpt lat="55.331181" lon="8.768461">
|
|
<ele>5.638652</ele>
|
|
<time>2026-07-10T17:11:52.000Z</time>
|
|
</trkpt>
|
|
<trkpt lat="55.331181" lon="8.768465">
|
|
<ele>5.638308</ele>
|
|
<time>2026-07-10T17:11:53.000Z</time>
|
|
</trkpt>
|
|
<trkpt lat="55.331271" lon="8.768106">
|
|
<ele>5.604496</ele>
|
|
<time>2026-07-10T17:26:25.000Z</time>
|
|
</trkpt>
|
|
<trkpt lat="55.331283" lon="8.768062">
|
|
<ele>5.600290</ele>
|
|
<time>2026-07-10T17:26:26.000Z</time>
|
|
</trkpt>
|
|
<trkpt lat="55.331292" lon="8.768044">
|
|
<ele>5.598225</ele>
|
|
<time>2026-07-10T17:26:27.000Z</time>
|
|
</trkpt>
|
|
<trkpt lat="55.331306" lon="8.768014">
|
|
<ele>5.594881</ele>
|
|
<time>2026-07-10T17:26:28.000Z</time>
|
|
</trkpt>
|
|
<trkpt lat="55.331309" lon="8.767992">
|
|
<ele>5.592931</ele>
|
|
<time>2026-07-10T17:26:29.000Z</time>
|
|
</trkpt>
|
|
<trkpt lat="55.331314" lon="8.767970">
|
|
<ele>5.590889</ele>
|
|
<time>2026-07-10T17:26:30.000Z</time>
|
|
</trkpt>
|
|
<trkpt lat="55.331318" lon="8.767972">
|
|
<ele>5.590259</ele>
|
|
<time>2026-07-10T17:26:31.000Z</time>
|
|
</trkpt>
|
|
<trkpt lat="55.331318" lon="8.767972">
|
|
<ele>5.590259</ele>
|
|
<time>2026-07-10T17:26:32.000Z</time>
|
|
</trkpt>
|
|
<trkpt lat="55.331322" lon="8.767970">
|
|
<ele>5.589629</ele>
|
|
<time>2026-07-10T17:26:33.000Z</time>
|
|
</trkpt>
|
|
<trkpt lat="55.331322" lon="8.767970">
|
|
<ele>5.589629</ele>
|
|
<time>2026-07-10T17:26:34.000Z</time>
|
|
</trkpt>
|
|
<trkpt lat="55.331329" lon="8.767926">
|
|
<ele>5.585691</ele>
|
|
<time>2026-07-10T17:26:38.000Z</time>
|
|
</trkpt>
|
|
<trkpt lat="55.331333" lon="8.767891">
|
|
<ele>5.582615</ele>
|
|
<time>2026-07-10T17:26:39.000Z</time>
|
|
</trkpt>
|
|
<trkpt lat="55.331336" lon="8.767859">
|
|
<ele>5.579819</ele>
|
|
<time>2026-07-10T17:26:40.000Z</time>
|
|
</trkpt>
|
|
<trkpt lat="55.331344" lon="8.767802">
|
|
<ele>5.574760</ele>
|
|
<time>2026-07-10T17:26:41.000Z</time>
|
|
</trkpt>
|
|
<trkpt lat="55.331347" lon="8.767765">
|
|
<ele>5.571658</ele>
|
|
<time>2026-07-10T17:26:42.000Z</time>
|
|
</trkpt>
|
|
<trkpt lat="55.331355" lon="8.767723">
|
|
<ele>5.568028</ele>
|
|
<time>2026-07-10T17:26:43.000Z</time>
|
|
</trkpt>
|
|
<trkpt lat="55.331362" lon="8.767673">
|
|
<ele>5.563807</ele>
|
|
<time>2026-07-10T17:26:44.000Z</time>
|
|
</trkpt>
|
|
<trkpt lat="55.331368" lon="8.767627">
|
|
<ele>5.559939</ele>
|
|
<time>2026-07-10T17:26:45.000Z</time>
|
|
</trkpt>
|
|
<trkpt lat="55.331386" lon="8.767568">
|
|
<ele>5.554452</ele>
|
|
<time>2026-07-10T17:26:46.000Z</time>
|
|
</trkpt>
|
|
<trkpt lat="55.331402" lon="8.767527">
|
|
<ele>5.550376</ele>
|
|
<time>2026-07-10T17:26:47.000Z</time>
|
|
</trkpt>
|
|
<trkpt lat="55.331421" lon="8.767491">
|
|
<ele>5.546351</ele>
|
|
<time>2026-07-10T17:26:48.000Z</time>
|
|
</trkpt>
|
|
<trkpt lat="55.331447" lon="8.767465">
|
|
<ele>5.542041</ele>
|
|
<time>2026-07-10T17:26:49.000Z</time>
|
|
</trkpt>
|
|
<trkpt lat="55.331478" lon="8.767452">
|
|
<ele>5.537449</ele>
|
|
<time>2026-07-10T17:26:50.000Z</time>
|
|
</trkpt>
|
|
<trkpt lat="55.331509" lon="8.767456">
|
|
<ele>5.532970</ele>
|
|
<time>2026-07-10T17:26:51.000Z</time>
|
|
</trkpt>
|
|
<trkpt lat="55.331546" lon="8.767475">
|
|
<ele>5.527416</ele>
|
|
<time>2026-07-10T17:26:52.000Z</time>
|
|
</trkpt>
|
|
<trkpt lat="55.331580" lon="8.767496">
|
|
<ele>5.522223</ele>
|
|
<time>2026-07-10T17:26:53.000Z</time>
|
|
</trkpt>
|
|
<trkpt lat="55.331619" lon="8.767521">
|
|
<ele>5.516241</ele>
|
|
<time>2026-07-10T17:26:54.000Z</time>
|
|
</trkpt>
|
|
<trkpt lat="55.331659" lon="8.767544">
|
|
<ele>5.510177</ele>
|
|
<time>2026-07-10T17:26:55.000Z</time>
|
|
</trkpt>
|
|
<trkpt lat="55.331699" lon="8.767569">
|
|
<ele>5.504060</ele>
|
|
<time>2026-07-10T17:26:56.000Z</time>
|
|
</trkpt>
|
|
<trkpt lat="55.331737" lon="8.767596">
|
|
<ele>5.498154</ele>
|
|
<time>2026-07-10T17:26:57.000Z</time>
|
|
</trkpt>
|
|
<trkpt lat="55.331775" lon="8.767622">
|
|
<ele>5.492279</ele>
|
|
<time>2026-07-10T17:26:58.000Z</time>
|
|
</trkpt>
|
|
<trkpt lat="55.331817" lon="8.767653">
|
|
<ele>5.485715</ele>
|
|
<time>2026-07-10T17:26:59.000Z</time>
|
|
</trkpt>
|
|
<trkpt lat="55.331862" lon="8.767688">
|
|
<ele>5.478625</ele>
|
|
<time>2026-07-10T17:27:00.000Z</time>
|
|
</trkpt>
|
|
<trkpt lat="55.331905" lon="8.767720">
|
|
<ele>5.471897</ele>
|
|
<time>2026-07-10T17:27:01.000Z</time>
|
|
</trkpt>
|
|
<trkpt lat="55.331944" lon="8.767742">
|
|
<ele>5.465995</ele>
|
|
<time>2026-07-10T17:27:02.000Z</time>
|
|
</trkpt>
|
|
<trkpt lat="55.331992" lon="8.767769">
|
|
<ele>5.458733</ele>
|
|
<time>2026-07-10T17:27:03.000Z</time>
|
|
</trkpt>
|
|
<trkpt lat="55.332034" lon="8.767796">
|
|
<ele>5.452289</ele>
|
|
<time>2026-07-10T17:27:04.000Z</time>
|
|
</trkpt>
|
|
<trkpt lat="55.332073" lon="8.767827">
|
|
<ele>5.446122</ele>
|
|
<time>2026-07-10T17:27:05.000Z</time>
|
|
</trkpt>
|
|
<trkpt lat="55.332118" lon="8.767854">
|
|
<ele>5.439270</ele>
|
|
<time>2026-07-10T17:27:06.000Z</time>
|
|
</trkpt>
|
|
<trkpt lat="55.332164" lon="8.767886">
|
|
<ele>5.432142</ele>
|
|
<time>2026-07-10T17:27:07.000Z</time>
|
|
</trkpt>
|
|
<trkpt lat="55.332210" lon="8.767916">
|
|
<ele>5.425072</ele>
|
|
<time>2026-07-10T17:27:08.000Z</time>
|
|
</trkpt>
|
|
<trkpt lat="55.332260" lon="8.767946">
|
|
<ele>5.417460</ele>
|
|
<time>2026-07-10T17:27:09.000Z</time>
|
|
</trkpt>
|
|
<trkpt lat="55.332301" lon="8.767976">
|
|
<ele>5.411061</ele>
|
|
<time>2026-07-10T17:27:10.000Z</time>
|
|
</trkpt>
|
|
<trkpt lat="55.332346" lon="8.768007">
|
|
<ele>5.404097</ele>
|
|
<time>2026-07-10T17:27:11.000Z</time>
|
|
</trkpt>
|
|
<trkpt lat="55.332389" lon="8.768038">
|
|
<ele>5.397400</ele>
|
|
<time>2026-07-10T17:27:12.000Z</time>
|
|
</trkpt>
|
|
<trkpt lat="55.332435" lon="8.768068">
|
|
<ele>5.390330</ele>
|
|
<time>2026-07-10T17:27:13.000Z</time>
|
|
</trkpt>
|
|
<trkpt lat="55.332477" lon="8.768099">
|
|
<ele>5.383767</ele>
|
|
<time>2026-07-10T17:27:14.000Z</time>
|
|
</trkpt>
|
|
<trkpt lat="55.332523" lon="8.768135">
|
|
<ele>5.376511</ele>
|
|
<time>2026-07-10T17:27:15.000Z</time>
|
|
</trkpt>
|
|
<trkpt lat="55.332565" lon="8.768171">
|
|
<ele>5.369778</ele>
|
|
<time>2026-07-10T17:27:16.000Z</time>
|
|
</trkpt>
|
|
<trkpt lat="55.332607" lon="8.768208">
|
|
<ele>5.363009</ele>
|
|
<time>2026-07-10T17:27:17.000Z</time>
|
|
</trkpt>
|
|
<trkpt lat="55.332651" lon="8.768239">
|
|
<ele>5.356179</ele>
|
|
<time>2026-07-10T17:27:18.000Z</time>
|
|
</trkpt>
|
|
<trkpt lat="55.332698" lon="8.768273">
|
|
<ele>5.348856</ele>
|
|
<time>2026-07-10T17:27:19.000Z</time>
|
|
</trkpt>
|
|
<trkpt lat="55.332740" lon="8.768304">
|
|
<ele>5.342292</ele>
|
|
<time>2026-07-10T17:27:20.000Z</time>
|
|
</trkpt>
|
|
<trkpt lat="55.332786" lon="8.768340">
|
|
<ele>5.335037</ele>
|
|
<time>2026-07-10T17:27:21.000Z</time>
|
|
</trkpt>
|
|
<trkpt lat="55.332830" lon="8.768373">
|
|
<ele>5.328144</ele>
|
|
<time>2026-07-10T17:27:22.000Z</time>
|
|
</trkpt>
|
|
<trkpt lat="55.332877" lon="8.768408">
|
|
<ele>5.320789</ele>
|
|
<time>2026-07-10T17:27:23.000Z</time>
|
|
</trkpt>
|
|
<trkpt lat="55.332919" lon="8.768434">
|
|
<ele>5.313864</ele>
|
|
<time>2026-07-10T17:27:24.000Z</time>
|
|
</trkpt>
|
|
<trkpt lat="55.332965" lon="8.768461">
|
|
<ele>5.298735</ele>
|
|
<time>2026-07-10T17:27:25.000Z</time>
|
|
</trkpt>
|
|
<trkpt lat="55.333011" lon="8.768493">
|
|
<ele>5.283302</ele>
|
|
<time>2026-07-10T17:27:26.000Z</time>
|
|
</trkpt>
|
|
<trkpt lat="55.333053" lon="8.768527">
|
|
<ele>5.268878</ele>
|
|
<time>2026-07-10T17:27:27.000Z</time>
|
|
</trkpt>
|
|
<trkpt lat="55.333097" lon="8.768562">
|
|
<ele>5.253812</ele>
|
|
<time>2026-07-10T17:27:28.000Z</time>
|
|
</trkpt>
|
|
<trkpt lat="55.333141" lon="8.768598">
|
|
<ele>5.238671</ele>
|
|
<time>2026-07-10T17:27:29.000Z</time>
|
|
</trkpt>
|
|
<trkpt lat="55.333182" lon="8.768634">
|
|
<ele>5.224374</ele>
|
|
<time>2026-07-10T17:27:30.000Z</time>
|
|
</trkpt>
|
|
<trkpt lat="55.333221" lon="8.768674">
|
|
<ele>5.210289</ele>
|
|
<time>2026-07-10T17:27:31.000Z</time>
|
|
</trkpt>
|
|
<trkpt lat="55.333252" lon="8.768716">
|
|
<ele>5.198079</ele>
|
|
<time>2026-07-10T17:27:32.000Z</time>
|
|
</trkpt>
|
|
<trkpt lat="55.333279" lon="8.768750">
|
|
<ele>5.187719</ele>
|
|
<time>2026-07-10T17:27:33.000Z</time>
|
|
</trkpt>
|
|
<trkpt lat="55.333313" lon="8.768803">
|
|
<ele>5.173543</ele>
|
|
<time>2026-07-10T17:27:34.000Z</time>
|
|
</trkpt>
|
|
<trkpt lat="55.333335" lon="8.768849">
|
|
<ele>5.162879</ele>
|
|
<time>2026-07-10T17:27:35.000Z</time>
|
|
</trkpt>
|
|
<trkpt lat="55.333355" lon="8.768899">
|
|
<ele>5.152032</ele>
|
|
<time>2026-07-10T17:27:36.000Z</time>
|
|
</trkpt>
|
|
<trkpt lat="55.333370" lon="8.768947">
|
|
<ele>5.142314</ele>
|
|
<time>2026-07-10T17:27:37.000Z</time>
|
|
</trkpt>
|
|
<trkpt lat="55.333381" lon="8.768993">
|
|
<ele>5.133459</ele>
|
|
<time>2026-07-10T17:27:38.000Z</time>
|
|
</trkpt>
|
|
<trkpt lat="55.333392" lon="8.769032">
|
|
<ele>5.125735</ele>
|
|
<time>2026-07-10T17:27:39.000Z</time>
|
|
</trkpt>
|
|
<trkpt lat="55.333416" lon="8.769068">
|
|
<ele>5.115893</ele>
|
|
<time>2026-07-10T17:27:40.000Z</time>
|
|
</trkpt>
|
|
<trkpt lat="55.333444" lon="8.769079">
|
|
<ele>5.106943</ele>
|
|
<time>2026-07-10T17:27:41.000Z</time>
|
|
</trkpt>
|
|
<trkpt lat="55.333476" lon="8.769076">
|
|
<ele>5.096946</ele>
|
|
<time>2026-07-10T17:27:42.000Z</time>
|
|
</trkpt>
|
|
<trkpt lat="55.333514" lon="8.769057">
|
|
<ele>5.084621</ele>
|
|
<time>2026-07-10T17:27:43.000Z</time>
|
|
</trkpt>
|
|
<trkpt lat="55.333553" lon="8.769032">
|
|
<ele>5.071671</ele>
|
|
<time>2026-07-10T17:27:44.000Z</time>
|
|
</trkpt>
|
|
<trkpt lat="55.333591" lon="8.769005">
|
|
<ele>5.058885</ele>
|
|
<time>2026-07-10T17:27:45.000Z</time>
|
|
</trkpt>
|
|
<trkpt lat="55.333629" lon="8.768976">
|
|
<ele>5.045961</ele>
|
|
<time>2026-07-10T17:27:46.000Z</time>
|
|
</trkpt>
|
|
<trkpt lat="55.333665" lon="8.768942">
|
|
<ele>5.033213</ele>
|
|
<time>2026-07-10T17:27:47.000Z</time>
|
|
</trkpt>
|
|
<trkpt lat="55.333702" lon="8.768907">
|
|
<ele>5.020105</ele>
|
|
<time>2026-07-10T17:27:48.000Z</time>
|
|
</trkpt>
|
|
<trkpt lat="55.333739" lon="8.768874">
|
|
<ele>5.007162</ele>
|
|
<time>2026-07-10T17:27:49.000Z</time>
|
|
</trkpt>
|
|
<trkpt lat="55.333778" lon="8.768844">
|
|
<ele>4.993882</ele>
|
|
<time>2026-07-10T17:27:50.000Z</time>
|
|
</trkpt>
|
|
<trkpt lat="55.333806" lon="8.768828">
|
|
<ele>4.984697</ele>
|
|
<time>2026-07-10T17:27:51.000Z</time>
|
|
</trkpt>
|
|
<trkpt lat="55.333850" lon="8.768835">
|
|
<ele>4.970915</ele>
|
|
<time>2026-07-10T17:27:52.000Z</time>
|
|
</trkpt>
|
|
<trkpt lat="55.333884" lon="8.768870">
|
|
<ele>4.958624</ele>
|
|
<time>2026-07-10T17:27:53.000Z</time>
|
|
</trkpt>
|
|
<trkpt lat="55.333915" lon="8.768921">
|
|
<ele>4.945379</ele>
|
|
<time>2026-07-10T17:27:54.000Z</time>
|
|
</trkpt>
|
|
<trkpt lat="55.333946" lon="8.768984">
|
|
<ele>4.930597</ele>
|
|
<time>2026-07-10T17:27:55.000Z</time>
|
|
</trkpt>
|
|
<trkpt lat="55.333972" lon="8.769046">
|
|
<ele>4.916929</ele>
|
|
<time>2026-07-10T17:27:56.000Z</time>
|
|
</trkpt>
|
|
<trkpt lat="55.334003" lon="8.769106">
|
|
<ele>4.902546</ele>
|
|
<time>2026-07-10T17:27:57.000Z</time>
|
|
</trkpt>
|
|
<trkpt lat="55.334032" lon="8.769152">
|
|
<ele>4.890361</ele>
|
|
<time>2026-07-10T17:27:58.000Z</time>
|
|
</trkpt>
|
|
<trkpt lat="55.334068" lon="8.769198">
|
|
<ele>4.876478</ele>
|
|
<time>2026-07-10T17:27:59.000Z</time>
|
|
</trkpt>
|
|
<trkpt lat="55.334105" lon="8.769235">
|
|
<ele>4.863198</ele>
|
|
<time>2026-07-10T17:28:00.000Z</time>
|
|
</trkpt>
|
|
<trkpt lat="55.334144" lon="8.769271">
|
|
<ele>4.849457</ele>
|
|
<time>2026-07-10T17:28:01.000Z</time>
|
|
</trkpt>
|
|
<trkpt lat="55.334184" lon="8.769305">
|
|
<ele>4.835596</ele>
|
|
<time>2026-07-10T17:28:02.000Z</time>
|
|
</trkpt>
|
|
<trkpt lat="55.334228" lon="8.769339">
|
|
<ele>4.820603</ele>
|
|
<time>2026-07-10T17:28:03.000Z</time>
|
|
</trkpt>
|
|
<trkpt lat="55.334266" lon="8.769376">
|
|
<ele>4.807052</ele>
|
|
<time>2026-07-10T17:28:04.000Z</time>
|
|
</trkpt>
|
|
<trkpt lat="55.334304" lon="8.769411">
|
|
<ele>4.793669</ele>
|
|
<time>2026-07-10T17:28:05.000Z</time>
|
|
</trkpt>
|
|
<trkpt lat="55.334346" lon="8.769445">
|
|
<ele>4.779244</ele>
|
|
<time>2026-07-10T17:28:06.000Z</time>
|
|
</trkpt>
|
|
<trkpt lat="55.334385" lon="8.769479">
|
|
<ele>4.765664</ele>
|
|
<time>2026-07-10T17:28:07.000Z</time>
|
|
</trkpt>
|
|
<trkpt lat="55.334426" lon="8.769509">
|
|
<ele>4.753278</ele>
|
|
<time>2026-07-10T17:28:08.000Z</time>
|
|
</trkpt>
|
|
<trkpt lat="55.334467" lon="8.769541">
|
|
<ele>4.750166</ele>
|
|
<time>2026-07-10T17:28:09.000Z</time>
|
|
</trkpt>
|
|
<trkpt lat="55.334509" lon="8.769572">
|
|
<ele>4.747006</ele>
|
|
<time>2026-07-10T17:28:10.000Z</time>
|
|
</trkpt>
|
|
<trkpt lat="55.334556" lon="8.769601">
|
|
<ele>4.743550</ele>
|
|
<time>2026-07-10T17:28:11.000Z</time>
|
|
</trkpt>
|
|
<trkpt lat="55.334598" lon="8.769630">
|
|
<ele>4.740420</ele>
|
|
<time>2026-07-10T17:28:12.000Z</time>
|
|
</trkpt>
|
|
<trkpt lat="55.334637" lon="8.769655">
|
|
<ele>4.737540</ele>
|
|
<time>2026-07-10T17:28:13.000Z</time>
|
|
</trkpt>
|
|
<trkpt lat="55.334685" lon="8.769684">
|
|
<ele>4.734019</ele>
|
|
<time>2026-07-10T17:28:14.000Z</time>
|
|
</trkpt>
|
|
<trkpt lat="55.334727" lon="8.769715">
|
|
<ele>4.730859</ele>
|
|
<time>2026-07-10T17:28:15.000Z</time>
|
|
</trkpt>
|
|
<trkpt lat="55.334768" lon="8.769747">
|
|
<ele>4.727747</ele>
|
|
<time>2026-07-10T17:28:16.000Z</time>
|
|
</trkpt>
|
|
<trkpt lat="55.334810" lon="8.769780">
|
|
<ele>4.724555</ele>
|
|
<time>2026-07-10T17:28:17.000Z</time>
|
|
</trkpt>
|
|
<trkpt lat="55.334856" lon="8.769814">
|
|
<ele>4.721094</ele>
|
|
<time>2026-07-10T17:28:18.000Z</time>
|
|
</trkpt>
|
|
<trkpt lat="55.334898" lon="8.769846">
|
|
<ele>4.717918</ele>
|
|
<time>2026-07-10T17:28:19.000Z</time>
|
|
</trkpt>
|
|
<trkpt lat="55.334945" lon="8.769880">
|
|
<ele>4.714392</ele>
|
|
<time>2026-07-10T17:28:20.000Z</time>
|
|
</trkpt>
|
|
<trkpt lat="55.334987" lon="8.769911">
|
|
<ele>4.711232</ele>
|
|
<time>2026-07-10T17:28:21.000Z</time>
|
|
</trkpt>
|
|
<trkpt lat="55.335032" lon="8.769944">
|
|
<ele>4.707850</ele>
|
|
<time>2026-07-10T17:28:22.000Z</time>
|
|
</trkpt>
|
|
<trkpt lat="55.335079" lon="8.769978">
|
|
<ele>4.704324</ele>
|
|
<time>2026-07-10T17:28:23.000Z</time>
|
|
</trkpt>
|
|
<trkpt lat="55.335127" lon="8.770017">
|
|
<ele>4.700655</ele>
|
|
<time>2026-07-10T17:28:24.000Z</time>
|
|
</trkpt>
|
|
<trkpt lat="55.335174" lon="8.770056">
|
|
<ele>4.697050</ele>
|
|
<time>2026-07-10T17:28:25.000Z</time>
|
|
</trkpt>
|
|
<trkpt lat="55.335223" lon="8.770091">
|
|
<ele>4.693381</ele>
|
|
<time>2026-07-10T17:28:26.000Z</time>
|
|
</trkpt>
|
|
<trkpt lat="55.335268" lon="8.770124">
|
|
<ele>4.689998</ele>
|
|
<time>2026-07-10T17:28:27.000Z</time>
|
|
</trkpt>
|
|
<trkpt lat="55.335315" lon="8.770156">
|
|
<ele>4.686501</ele>
|
|
<time>2026-07-10T17:28:28.000Z</time>
|
|
</trkpt>
|
|
<trkpt lat="55.335362" lon="8.770196">
|
|
<ele>4.682879</ele>
|
|
<time>2026-07-10T17:28:29.000Z</time>
|
|
</trkpt>
|
|
<trkpt lat="55.335415" lon="8.770233">
|
|
<ele>4.678923</ele>
|
|
<time>2026-07-10T17:28:30.000Z</time>
|
|
</trkpt>
|
|
<trkpt lat="55.335463" lon="8.770269">
|
|
<ele>4.675302</ele>
|
|
<time>2026-07-10T17:28:31.000Z</time>
|
|
</trkpt>
|
|
<trkpt lat="55.335509" lon="8.770305">
|
|
<ele>4.671809</ele>
|
|
<time>2026-07-10T17:28:32.000Z</time>
|
|
</trkpt>
|
|
<trkpt lat="55.335558" lon="8.770340">
|
|
<ele>4.668140</ele>
|
|
<time>2026-07-10T17:28:33.000Z</time>
|
|
</trkpt>
|
|
<trkpt lat="55.335608" lon="8.770375">
|
|
<ele>4.664407</ele>
|
|
<time>2026-07-10T17:28:34.000Z</time>
|
|
</trkpt>
|
|
<trkpt lat="55.335658" lon="8.770409">
|
|
<ele>4.660687</ele>
|
|
<time>2026-07-10T17:28:35.000Z</time>
|
|
</trkpt>
|
|
<trkpt lat="55.335706" lon="8.770440">
|
|
<ele>4.657140</ele>
|
|
<time>2026-07-10T17:28:36.000Z</time>
|
|
</trkpt>
|
|
<trkpt lat="55.335757" lon="8.770474">
|
|
<ele>4.653356</ele>
|
|
<time>2026-07-10T17:28:37.000Z</time>
|
|
</trkpt>
|
|
<trkpt lat="55.335807" lon="8.770511">
|
|
<ele>4.649592</ele>
|
|
<time>2026-07-10T17:28:38.000Z</time>
|
|
</trkpt>
|
|
<trkpt lat="55.335856" lon="8.770549">
|
|
<ele>4.645877</ele>
|
|
<time>2026-07-10T17:28:39.000Z</time>
|
|
</trkpt>
|
|
<trkpt lat="55.335905" lon="8.770588">
|
|
<ele>4.642146</ele>
|
|
<time>2026-07-10T17:28:40.000Z</time>
|
|
</trkpt>
|
|
<trkpt lat="55.335956" lon="8.770627">
|
|
<ele>4.638287</ele>
|
|
<time>2026-07-10T17:28:41.000Z</time>
|
|
</trkpt>
|
|
<trkpt lat="55.336004" lon="8.770664">
|
|
<ele>4.634651</ele>
|
|
<time>2026-07-10T17:28:42.000Z</time>
|
|
</trkpt>
|
|
<trkpt lat="55.336041" lon="8.770694">
|
|
<ele>4.631825</ele>
|
|
<time>2026-07-10T17:28:43.000Z</time>
|
|
</trkpt>
|
|
<trkpt lat="55.336097" lon="8.770739">
|
|
<ele>4.614856</ele>
|
|
<time>2026-07-10T17:28:44.000Z</time>
|
|
</trkpt>
|
|
<trkpt lat="55.336143" lon="8.770774">
|
|
<ele>4.579012</ele>
|
|
<time>2026-07-10T17:28:45.000Z</time>
|
|
</trkpt>
|
|
<trkpt lat="55.336192" lon="8.770807">
|
|
<ele>4.541488</ele>
|
|
<time>2026-07-10T17:28:46.000Z</time>
|
|
</trkpt>
|
|
<trkpt lat="55.336233" lon="8.770838">
|
|
<ele>4.509571</ele>
|
|
<time>2026-07-10T17:28:47.000Z</time>
|
|
</trkpt>
|
|
<trkpt lat="55.336284" lon="8.770873">
|
|
<ele>4.470420</ele>
|
|
<time>2026-07-10T17:28:48.000Z</time>
|
|
</trkpt>
|
|
<trkpt lat="55.336330" lon="8.770906">
|
|
<ele>4.434892</ele>
|
|
<time>2026-07-10T17:28:49.000Z</time>
|
|
</trkpt>
|
|
<trkpt lat="55.336375" lon="8.770937">
|
|
<ele>4.400329</ele>
|
|
<time>2026-07-10T17:28:50.000Z</time>
|
|
</trkpt>
|
|
<trkpt lat="55.336420" lon="8.770971">
|
|
<ele>4.365303</ele>
|
|
<time>2026-07-10T17:28:51.000Z</time>
|
|
</trkpt>
|
|
<trkpt lat="55.336467" lon="8.771008">
|
|
<ele>4.328477</ele>
|
|
<time>2026-07-10T17:28:52.000Z</time>
|
|
</trkpt>
|
|
<trkpt lat="55.336511" lon="8.771042">
|
|
<ele>4.294106</ele>
|
|
<time>2026-07-10T17:28:53.000Z</time>
|
|
</trkpt>
|
|
<trkpt lat="55.336558" lon="8.771076">
|
|
<ele>4.257762</ele>
|
|
<time>2026-07-10T17:28:54.000Z</time>
|
|
</trkpt>
|
|
<trkpt lat="55.336603" lon="8.771106">
|
|
<ele>4.223346</ele>
|
|
<time>2026-07-10T17:28:55.000Z</time>
|
|
</trkpt>
|
|
<trkpt lat="55.336646" lon="8.771139">
|
|
<ele>4.189793</ele>
|
|
<time>2026-07-10T17:28:56.000Z</time>
|
|
</trkpt>
|
|
<trkpt lat="55.336684" lon="8.771179">
|
|
<ele>4.158121</ele>
|
|
<time>2026-07-10T17:28:57.000Z</time>
|
|
</trkpt>
|
|
<trkpt lat="55.336717" lon="8.771231">
|
|
<ele>4.126431</ele>
|
|
<time>2026-07-10T17:28:58.000Z</time>
|
|
</trkpt>
|
|
<trkpt lat="55.336735" lon="8.771307">
|
|
<ele>4.092947</ele>
|
|
<time>2026-07-10T17:28:59.000Z</time>
|
|
</trkpt>
|
|
<trkpt lat="55.336738" lon="8.771378">
|
|
<ele>4.063989</ele>
|
|
<time>2026-07-10T17:29:00.000Z</time>
|
|
</trkpt>
|
|
<trkpt lat="55.336735" lon="8.771464">
|
|
<ele>4.028945</ele>
|
|
<time>2026-07-10T17:29:01.000Z</time>
|
|
</trkpt>
|
|
<trkpt lat="55.336720" lon="8.771540">
|
|
<ele>3.996225</ele>
|
|
<time>2026-07-10T17:29:02.000Z</time>
|
|
</trkpt>
|
|
<trkpt lat="55.336705" lon="8.771612">
|
|
<ele>3.965038</ele>
|
|
<time>2026-07-10T17:29:03.000Z</time>
|
|
</trkpt>
|
|
<trkpt lat="55.336689" lon="8.771681">
|
|
<ele>3.934731</ele>
|
|
<time>2026-07-10T17:29:04.000Z</time>
|
|
</trkpt>
|
|
<trkpt lat="55.336679" lon="8.771733">
|
|
<ele>3.912404</ele>
|
|
<time>2026-07-10T17:29:05.000Z</time>
|
|
</trkpt>
|
|
<trkpt lat="55.336674" lon="8.771795">
|
|
<ele>3.886935</ele>
|
|
<time>2026-07-10T17:29:06.000Z</time>
|
|
</trkpt>
|
|
<trkpt lat="55.336677" lon="8.771835">
|
|
<ele>3.870525</ele>
|
|
<time>2026-07-10T17:29:07.000Z</time>
|
|
</trkpt>
|
|
<trkpt lat="55.336693" lon="8.771884">
|
|
<ele>3.847544</ele>
|
|
<time>2026-07-10T17:29:08.000Z</time>
|
|
</trkpt>
|
|
<trkpt lat="55.336707" lon="8.771906">
|
|
<ele>3.834117</ele>
|
|
<time>2026-07-10T17:29:09.000Z</time>
|
|
</trkpt>
|
|
<trkpt lat="55.336723" lon="8.771915">
|
|
<ele>3.822103</ele>
|
|
<time>2026-07-10T17:29:10.000Z</time>
|
|
</trkpt>
|
|
<trkpt lat="55.336742" lon="8.771909">
|
|
<ele>3.808298</ele>
|
|
<time>2026-07-10T17:29:11.000Z</time>
|
|
</trkpt>
|
|
<trkpt lat="55.336751" lon="8.771904">
|
|
<ele>3.801549</ele>
|
|
<time>2026-07-10T17:29:12.000Z</time>
|
|
</trkpt>
|
|
<trkpt lat="55.336772" lon="8.771907">
|
|
<ele>3.786482</ele>
|
|
<time>2026-07-10T17:29:13.000Z</time>
|
|
</trkpt>
|
|
<trkpt lat="55.336795" lon="8.771915">
|
|
<ele>3.769715</ele>
|
|
<time>2026-07-10T17:29:14.000Z</time>
|
|
</trkpt>
|
|
<trkpt lat="55.336817" lon="8.771923">
|
|
<ele>3.753649</ele>
|
|
<time>2026-07-10T17:29:15.000Z</time>
|
|
</trkpt>
|
|
<trkpt lat="55.336845" lon="8.771930">
|
|
<ele>3.733424</ele>
|
|
<time>2026-07-10T17:29:16.000Z</time>
|
|
</trkpt>
|
|
<trkpt lat="55.336867" lon="8.771927">
|
|
<ele>3.717644</ele>
|
|
<time>2026-07-10T17:29:17.000Z</time>
|
|
</trkpt>
|
|
<trkpt lat="55.336894" lon="8.771914">
|
|
<ele>3.697625</ele>
|
|
<time>2026-07-10T17:29:18.000Z</time>
|
|
</trkpt>
|
|
<trkpt lat="55.336920" lon="8.771893">
|
|
<ele>3.677164</ele>
|
|
<time>2026-07-10T17:29:19.000Z</time>
|
|
</trkpt>
|
|
<trkpt lat="55.336948" lon="8.771861">
|
|
<ele>3.653282</ele>
|
|
<time>2026-07-10T17:29:20.000Z</time>
|
|
</trkpt>
|
|
<trkpt lat="55.336969" lon="8.771826">
|
|
<ele>3.632590</ele>
|
|
<time>2026-07-10T17:29:21.000Z</time>
|
|
</trkpt>
|
|
<trkpt lat="55.336994" lon="8.771776">
|
|
<ele>3.605512</ele>
|
|
<time>2026-07-10T17:29:22.000Z</time>
|
|
</trkpt>
|
|
<trkpt lat="55.337019" lon="8.771728">
|
|
<ele>3.579040</ele>
|
|
<time>2026-07-10T17:29:23.000Z</time>
|
|
</trkpt>
|
|
<trkpt lat="55.337047" lon="8.771670">
|
|
<ele>3.548098</ele>
|
|
<time>2026-07-10T17:29:24.000Z</time>
|
|
</trkpt>
|
|
<trkpt lat="55.337073" lon="8.771610">
|
|
<ele>3.517418</ele>
|
|
<time>2026-07-10T17:29:25.000Z</time>
|
|
</trkpt>
|
|
<trkpt lat="55.337104" lon="8.771548">
|
|
<ele>3.483842</ele>
|
|
<time>2026-07-10T17:29:26.000Z</time>
|
|
</trkpt>
|
|
<trkpt lat="55.337133" lon="8.771490">
|
|
<ele>3.452432</ele>
|
|
<time>2026-07-10T17:29:27.000Z</time>
|
|
</trkpt>
|
|
<trkpt lat="55.337161" lon="8.771433">
|
|
<ele>3.421798</ele>
|
|
<time>2026-07-10T17:29:28.000Z</time>
|
|
</trkpt>
|
|
<trkpt lat="55.337185" lon="8.771384">
|
|
<ele>3.395497</ele>
|
|
<time>2026-07-10T17:29:29.000Z</time>
|
|
</trkpt>
|
|
<trkpt lat="55.337207" lon="8.771335">
|
|
<ele>3.370106</ele>
|
|
<time>2026-07-10T17:29:30.000Z</time>
|
|
</trkpt>
|
|
<trkpt lat="55.337230" lon="8.771269">
|
|
<ele>3.346707</ele>
|
|
<time>2026-07-10T17:29:31.000Z</time>
|
|
</trkpt>
|
|
<trkpt lat="55.337256" lon="8.771218">
|
|
<ele>3.374612</ele>
|
|
<time>2026-07-10T17:29:32.000Z</time>
|
|
</trkpt>
|
|
<trkpt lat="55.337294" lon="8.771145">
|
|
<ele>3.414931</ele>
|
|
<time>2026-07-10T17:29:33.000Z</time>
|
|
</trkpt>
|
|
<trkpt lat="55.337335" lon="8.771087">
|
|
<ele>3.452628</ele>
|
|
<time>2026-07-10T17:29:34.000Z</time>
|
|
</trkpt>
|
|
<trkpt lat="55.337381" lon="8.771035">
|
|
<ele>3.491804</ele>
|
|
<time>2026-07-10T17:29:35.000Z</time>
|
|
</trkpt>
|
|
<trkpt lat="55.337430" lon="8.770989">
|
|
<ele>3.531596</ele>
|
|
<time>2026-07-10T17:29:36.000Z</time>
|
|
</trkpt>
|
|
<trkpt lat="55.337481" lon="8.770954">
|
|
<ele>3.570815</ele>
|
|
<time>2026-07-10T17:29:37.000Z</time>
|
|
</trkpt>
|
|
<trkpt lat="55.337531" lon="8.770927">
|
|
<ele>3.608285</ele>
|
|
<time>2026-07-10T17:29:38.000Z</time>
|
|
</trkpt>
|
|
<trkpt lat="55.337581" lon="8.770909">
|
|
<ele>3.644846</ele>
|
|
<time>2026-07-10T17:29:39.000Z</time>
|
|
</trkpt>
|
|
<trkpt lat="55.337626" lon="8.770895">
|
|
<ele>3.677583</ele>
|
|
<time>2026-07-10T17:29:40.000Z</time>
|
|
</trkpt>
|
|
<trkpt lat="55.337675" lon="8.770889">
|
|
<ele>3.712770</ele>
|
|
<time>2026-07-10T17:29:41.000Z</time>
|
|
</trkpt>
|
|
<trkpt lat="55.337726" lon="8.770886">
|
|
<ele>3.749325</ele>
|
|
<time>2026-07-10T17:29:42.000Z</time>
|
|
</trkpt>
|
|
<trkpt lat="55.337771" lon="8.770892">
|
|
<ele>3.781655</ele>
|
|
<time>2026-07-10T17:29:43.000Z</time>
|
|
</trkpt>
|
|
<trkpt lat="55.337817" lon="8.770904">
|
|
<ele>3.814968</ele>
|
|
<time>2026-07-10T17:29:44.000Z</time>
|
|
</trkpt>
|
|
<trkpt lat="55.337859" lon="8.770923">
|
|
<ele>3.846035</ele>
|
|
<time>2026-07-10T17:29:45.000Z</time>
|
|
</trkpt>
|
|
<trkpt lat="55.337902" lon="8.770944">
|
|
<ele>3.878005</ele>
|
|
<time>2026-07-10T17:29:46.000Z</time>
|
|
</trkpt>
|
|
<trkpt lat="55.337946" lon="8.770969">
|
|
<ele>3.911130</ele>
|
|
<time>2026-07-10T17:29:47.000Z</time>
|
|
</trkpt>
|
|
<trkpt lat="55.337988" lon="8.770992">
|
|
<ele>3.942643</ele>
|
|
<time>2026-07-10T17:29:48.000Z</time>
|
|
</trkpt>
|
|
<trkpt lat="55.338030" lon="8.771017">
|
|
<ele>3.974408</ele>
|
|
<time>2026-07-10T17:29:49.000Z</time>
|
|
</trkpt>
|
|
<trkpt lat="55.338073" lon="8.771040">
|
|
<ele>4.006605</ele>
|
|
<time>2026-07-10T17:29:50.000Z</time>
|
|
</trkpt>
|
|
<trkpt lat="55.338121" lon="8.771056">
|
|
<ele>4.041603</ele>
|
|
<time>2026-07-10T17:29:51.000Z</time>
|
|
</trkpt>
|
|
<trkpt lat="55.338166" lon="8.771063">
|
|
<ele>4.073966</ele>
|
|
<time>2026-07-10T17:29:52.000Z</time>
|
|
</trkpt>
|
|
<trkpt lat="55.338217" lon="8.771054">
|
|
<ele>4.110684</ele>
|
|
<time>2026-07-10T17:29:53.000Z</time>
|
|
</trkpt>
|
|
<trkpt lat="55.338260" lon="8.771032">
|
|
<ele>4.142765</ele>
|
|
<time>2026-07-10T17:29:54.000Z</time>
|
|
</trkpt>
|
|
<trkpt lat="55.338298" lon="8.770998">
|
|
<ele>4.173309</ele>
|
|
<time>2026-07-10T17:29:55.000Z</time>
|
|
</trkpt>
|
|
<trkpt lat="55.338336" lon="8.770952">
|
|
<ele>4.206359</ele>
|
|
<time>2026-07-10T17:29:56.000Z</time>
|
|
</trkpt>
|
|
<trkpt lat="55.338367" lon="8.770907">
|
|
<ele>4.235156</ele>
|
|
<time>2026-07-10T17:29:57.000Z</time>
|
|
</trkpt>
|
|
<trkpt lat="55.338401" lon="8.770851">
|
|
<ele>4.268530</ele>
|
|
<time>2026-07-10T17:29:58.000Z</time>
|
|
</trkpt>
|
|
<trkpt lat="55.338424" lon="8.770798">
|
|
<ele>4.295691</ele>
|
|
<time>2026-07-10T17:29:59.000Z</time>
|
|
</trkpt>
|
|
<trkpt lat="55.338436" lon="8.770754">
|
|
<ele>4.315572</ele>
|
|
<time>2026-07-10T17:30:00.000Z</time>
|
|
</trkpt>
|
|
<trkpt lat="55.338462" lon="8.770683">
|
|
<ele>4.349976</ele>
|
|
<time>2026-07-10T17:30:01.000Z</time>
|
|
</trkpt>
|
|
<trkpt lat="55.338489" lon="8.770622">
|
|
<ele>4.381468</ele>
|
|
<time>2026-07-10T17:30:02.000Z</time>
|
|
</trkpt>
|
|
<trkpt lat="55.338511" lon="8.770568">
|
|
<ele>4.408531</ele>
|
|
<time>2026-07-10T17:30:03.000Z</time>
|
|
</trkpt>
|
|
<trkpt lat="55.338535" lon="8.770510">
|
|
<ele>4.437754</ele>
|
|
<time>2026-07-10T17:30:04.000Z</time>
|
|
</trkpt>
|
|
<trkpt lat="55.338557" lon="8.770459">
|
|
<ele>4.463833</ele>
|
|
<time>2026-07-10T17:30:05.000Z</time>
|
|
</trkpt>
|
|
<trkpt lat="55.338581" lon="8.770404">
|
|
<ele>4.492077</ele>
|
|
<time>2026-07-10T17:30:06.000Z</time>
|
|
</trkpt>
|
|
<trkpt lat="55.338602" lon="8.770357">
|
|
<ele>4.516428</ele>
|
|
<time>2026-07-10T17:30:07.000Z</time>
|
|
</trkpt>
|
|
<trkpt lat="55.338634" lon="8.770306">
|
|
<ele>4.547367</ele>
|
|
<time>2026-07-10T17:30:08.000Z</time>
|
|
</trkpt>
|
|
<trkpt lat="55.338656" lon="8.770260">
|
|
<ele>4.571854</ele>
|
|
<time>2026-07-10T17:30:09.000Z</time>
|
|
</trkpt>
|
|
<trkpt lat="55.338687" lon="8.770201">
|
|
<ele>4.604580</ele>
|
|
<time>2026-07-10T17:30:10.000Z</time>
|
|
</trkpt>
|
|
<trkpt lat="55.338718" lon="8.770142">
|
|
<ele>4.632292</ele>
|
|
<time>2026-07-10T17:30:11.000Z</time>
|
|
</trkpt>
|
|
<trkpt lat="55.338752" lon="8.770078">
|
|
<ele>4.638911</ele>
|
|
<time>2026-07-10T17:30:12.000Z</time>
|
|
</trkpt>
|
|
<trkpt lat="55.338789" lon="8.770019">
|
|
<ele>4.645549</ele>
|
|
<time>2026-07-10T17:30:13.000Z</time>
|
|
</trkpt>
|
|
<trkpt lat="55.338824" lon="8.769961">
|
|
<ele>4.651941</ele>
|
|
<time>2026-07-10T17:30:14.000Z</time>
|
|
</trkpt>
|
|
<trkpt lat="55.338851" lon="8.769898">
|
|
<ele>4.657903</ele>
|
|
<time>2026-07-10T17:30:15.000Z</time>
|
|
</trkpt>
|
|
<trkpt lat="55.338878" lon="8.769832">
|
|
<ele>4.664048</ele>
|
|
<time>2026-07-10T17:30:16.000Z</time>
|
|
</trkpt>
|
|
<trkpt lat="55.338904" lon="8.769761">
|
|
<ele>4.670430</ele>
|
|
<time>2026-07-10T17:30:17.000Z</time>
|
|
</trkpt>
|
|
<trkpt lat="55.338931" lon="8.769698">
|
|
<ele>4.676392</ele>
|
|
<time>2026-07-10T17:30:18.000Z</time>
|
|
</trkpt>
|
|
<trkpt lat="55.338951" lon="8.769638">
|
|
<ele>4.681648</ele>
|
|
<time>2026-07-10T17:30:19.000Z</time>
|
|
</trkpt>
|
|
<trkpt lat="55.338966" lon="8.769578">
|
|
<ele>4.686602</ele>
|
|
<time>2026-07-10T17:30:20.000Z</time>
|
|
</trkpt>
|
|
<trkpt lat="55.338977" lon="8.769519">
|
|
<ele>4.691295</ele>
|
|
<time>2026-07-10T17:30:21.000Z</time>
|
|
</trkpt>
|
|
<trkpt lat="55.338990" lon="8.769473">
|
|
<ele>4.695177</ele>
|
|
<time>2026-07-10T17:30:22.000Z</time>
|
|
</trkpt>
|
|
<trkpt lat="55.339008" lon="8.769394">
|
|
<ele>4.701609</ele>
|
|
<time>2026-07-10T17:30:23.000Z</time>
|
|
</trkpt>
|
|
<trkpt lat="55.339031" lon="8.769336">
|
|
<ele>4.706953</ele>
|
|
<time>2026-07-10T17:30:24.000Z</time>
|
|
</trkpt>
|
|
<trkpt lat="55.339061" lon="8.769259">
|
|
<ele>4.714007</ele>
|
|
<time>2026-07-10T17:30:25.000Z</time>
|
|
</trkpt>
|
|
<trkpt lat="55.339086" lon="8.769189">
|
|
<ele>4.720255</ele>
|
|
<time>2026-07-10T17:30:26.000Z</time>
|
|
</trkpt>
|
|
<trkpt lat="55.339118" lon="8.769115">
|
|
<ele>4.727281</ele>
|
|
<time>2026-07-10T17:30:27.000Z</time>
|
|
</trkpt>
|
|
<trkpt lat="55.339150" lon="8.769048">
|
|
<ele>4.733893</ele>
|
|
<time>2026-07-10T17:30:28.000Z</time>
|
|
</trkpt>
|
|
<trkpt lat="55.339183" lon="8.768982">
|
|
<ele>4.740535</ele>
|
|
<time>2026-07-10T17:30:29.000Z</time>
|
|
</trkpt>
|
|
<trkpt lat="55.339206" lon="8.768907">
|
|
<ele>4.746975</ele>
|
|
<time>2026-07-10T17:30:30.000Z</time>
|
|
</trkpt>
|
|
<trkpt lat="55.339236" lon="8.768835">
|
|
<ele>4.753721</ele>
|
|
<time>2026-07-10T17:30:31.000Z</time>
|
|
</trkpt>
|
|
<trkpt lat="55.339266" lon="8.768768">
|
|
<ele>4.760166</ele>
|
|
<time>2026-07-10T17:30:32.000Z</time>
|
|
</trkpt>
|
|
<trkpt lat="55.339295" lon="8.768697">
|
|
<ele>4.766773</ele>
|
|
<time>2026-07-10T17:30:33.000Z</time>
|
|
</trkpt>
|
|
<trkpt lat="55.339324" lon="8.768625">
|
|
<ele>4.773441</ele>
|
|
<time>2026-07-10T17:30:34.000Z</time>
|
|
</trkpt>
|
|
<trkpt lat="55.339347" lon="8.768564">
|
|
<ele>4.778973</ele>
|
|
<time>2026-07-10T17:30:35.000Z</time>
|
|
</trkpt>
|
|
<trkpt lat="55.339367" lon="8.768504">
|
|
<ele>4.784229</ele>
|
|
<time>2026-07-10T17:30:36.000Z</time>
|
|
</trkpt>
|
|
<trkpt lat="55.339396" lon="8.768449">
|
|
<ele>4.789897</ele>
|
|
<time>2026-07-10T17:30:37.000Z</time>
|
|
</trkpt>
|
|
<trkpt lat="55.339424" lon="8.768388">
|
|
<ele>4.795822</ele>
|
|
<time>2026-07-10T17:30:38.000Z</time>
|
|
</trkpt>
|
|
<trkpt lat="55.339449" lon="8.768331">
|
|
<ele>4.801262</ele>
|
|
<time>2026-07-10T17:30:39.000Z</time>
|
|
</trkpt>
|
|
<trkpt lat="55.339473" lon="8.768264">
|
|
<ele>4.807247</ele>
|
|
<time>2026-07-10T17:30:40.000Z</time>
|
|
</trkpt>
|
|
<trkpt lat="55.339504" lon="8.768197">
|
|
<ele>4.813775</ele>
|
|
<time>2026-07-10T17:30:41.000Z</time>
|
|
</trkpt>
|
|
<trkpt lat="55.339527" lon="8.768118">
|
|
<ele>4.820483</ele>
|
|
<time>2026-07-10T17:30:42.000Z</time>
|
|
</trkpt>
|
|
<trkpt lat="55.339549" lon="8.768046">
|
|
<ele>4.826660</ele>
|
|
<time>2026-07-10T17:30:43.000Z</time>
|
|
</trkpt>
|
|
<trkpt lat="55.339576" lon="8.767959">
|
|
<ele>4.834151</ele>
|
|
<time>2026-07-10T17:30:44.000Z</time>
|
|
</trkpt>
|
|
<trkpt lat="55.339603" lon="8.767884">
|
|
<ele>4.840859</ele>
|
|
<time>2026-07-10T17:30:45.000Z</time>
|
|
</trkpt>
|
|
<trkpt lat="55.339625" lon="8.767787">
|
|
<ele>4.848752</ele>
|
|
<time>2026-07-10T17:30:46.000Z</time>
|
|
</trkpt>
|
|
<trkpt lat="55.339649" lon="8.767699">
|
|
<ele>4.856128</ele>
|
|
<time>2026-07-10T17:30:47.000Z</time>
|
|
</trkpt>
|
|
<trkpt lat="55.339686" lon="8.767600">
|
|
<ele>4.865081</ele>
|
|
<time>2026-07-10T17:30:48.000Z</time>
|
|
</trkpt>
|
|
<trkpt lat="55.339713" lon="8.767509">
|
|
<ele>4.868466</ele>
|
|
<time>2026-07-10T17:30:49.000Z</time>
|
|
</trkpt>
|
|
<trkpt lat="55.339740" lon="8.767423">
|
|
<ele>4.863680</ele>
|
|
<time>2026-07-10T17:30:50.000Z</time>
|
|
</trkpt>
|
|
<trkpt lat="55.339767" lon="8.767338">
|
|
<ele>4.858937</ele>
|
|
<time>2026-07-10T17:30:51.000Z</time>
|
|
</trkpt>
|
|
<trkpt lat="55.339789" lon="8.767265">
|
|
<ele>4.854912</ele>
|
|
<time>2026-07-10T17:30:52.000Z</time>
|
|
</trkpt>
|
|
<trkpt lat="55.339809" lon="8.767192">
|
|
<ele>4.850964</ele>
|
|
<time>2026-07-10T17:30:53.000Z</time>
|
|
</trkpt>
|
|
<trkpt lat="55.339847" lon="8.767115">
|
|
<ele>4.845997</ele>
|
|
<time>2026-07-10T17:30:54.000Z</time>
|
|
</trkpt>
|
|
<trkpt lat="55.339865" lon="8.767046">
|
|
<ele>4.842298</ele>
|
|
<time>2026-07-10T17:30:55.000Z</time>
|
|
</trkpt>
|
|
<trkpt lat="55.339881" lon="8.766966">
|
|
<ele>4.838166</ele>
|
|
<time>2026-07-10T17:30:56.000Z</time>
|
|
</trkpt>
|
|
<trkpt lat="55.339897" lon="8.766894">
|
|
<ele>4.834400</ele>
|
|
<time>2026-07-10T17:30:57.000Z</time>
|
|
</trkpt>
|
|
<trkpt lat="55.339916" lon="8.766821">
|
|
<ele>4.830489</ele>
|
|
<time>2026-07-10T17:30:58.000Z</time>
|
|
</trkpt>
|
|
<trkpt lat="55.339935" lon="8.766749">
|
|
<ele>4.826621</ele>
|
|
<time>2026-07-10T17:30:59.000Z</time>
|
|
</trkpt>
|
|
<trkpt lat="55.339956" lon="8.766667">
|
|
<ele>4.822240</ele>
|
|
<time>2026-07-10T17:31:00.000Z</time>
|
|
</trkpt>
|
|
<trkpt lat="55.339977" lon="8.766575">
|
|
<ele>4.817410</ele>
|
|
<time>2026-07-10T17:31:01.000Z</time>
|
|
</trkpt>
|
|
<trkpt lat="55.339999" lon="8.766492">
|
|
<ele>4.812949</ele>
|
|
<time>2026-07-10T17:31:02.000Z</time>
|
|
</trkpt>
|
|
<trkpt lat="55.340030" lon="8.766411">
|
|
<ele>4.808192</ele>
|
|
<time>2026-07-10T17:31:03.000Z</time>
|
|
</trkpt>
|
|
<trkpt lat="55.340053" lon="8.766330">
|
|
<ele>4.803781</ele>
|
|
<time>2026-07-10T17:31:04.000Z</time>
|
|
</trkpt>
|
|
<trkpt lat="55.340072" lon="8.766246">
|
|
<ele>4.799376</ele>
|
|
<time>2026-07-10T17:31:05.000Z</time>
|
|
</trkpt>
|
|
<trkpt lat="55.340094" lon="8.766167">
|
|
<ele>4.795091</ele>
|
|
<time>2026-07-10T17:31:06.000Z</time>
|
|
</trkpt>
|
|
<trkpt lat="55.340117" lon="8.766083">
|
|
<ele>4.790548</ele>
|
|
<time>2026-07-10T17:31:07.000Z</time>
|
|
</trkpt>
|
|
<trkpt lat="55.340144" lon="8.765992">
|
|
<ele>4.785548</ele>
|
|
<time>2026-07-10T17:31:08.000Z</time>
|
|
</trkpt>
|
|
<trkpt lat="55.340170" lon="8.765908">
|
|
<ele>4.780888</ele>
|
|
<time>2026-07-10T17:31:09.000Z</time>
|
|
</trkpt>
|
|
<trkpt lat="55.340197" lon="8.765814">
|
|
<ele>4.775758</ele>
|
|
<time>2026-07-10T17:31:10.000Z</time>
|
|
</trkpt>
|
|
<trkpt lat="55.340223" lon="8.765733">
|
|
<ele>4.771226</ele>
|
|
<time>2026-07-10T17:31:11.000Z</time>
|
|
</trkpt>
|
|
<trkpt lat="55.340243" lon="8.765651">
|
|
<ele>4.766879</ele>
|
|
<time>2026-07-10T17:31:12.000Z</time>
|
|
</trkpt>
|
|
<trkpt lat="55.340265" lon="8.765574">
|
|
<ele>4.762681</ele>
|
|
<time>2026-07-10T17:31:13.000Z</time>
|
|
</trkpt>
|
|
<trkpt lat="55.340292" lon="8.765481">
|
|
<ele>4.757593</ele>
|
|
<time>2026-07-10T17:31:14.000Z</time>
|
|
</trkpt>
|
|
<trkpt lat="55.340320" lon="8.765394">
|
|
<ele>4.752723</ele>
|
|
<time>2026-07-10T17:31:15.000Z</time>
|
|
</trkpt>
|
|
<trkpt lat="55.340349" lon="8.765311">
|
|
<ele>4.747977</ele>
|
|
<time>2026-07-10T17:31:16.000Z</time>
|
|
</trkpt>
|
|
<trkpt lat="55.340376" lon="8.765230">
|
|
<ele>4.743402</ele>
|
|
<time>2026-07-10T17:31:17.000Z</time>
|
|
</trkpt>
|
|
<trkpt lat="55.340404" lon="8.765149">
|
|
<ele>4.738784</ele>
|
|
<time>2026-07-10T17:31:18.000Z</time>
|
|
</trkpt>
|
|
<trkpt lat="55.340429" lon="8.765061">
|
|
<ele>4.733992</ele>
|
|
<time>2026-07-10T17:31:19.000Z</time>
|
|
</trkpt>
|
|
<trkpt lat="55.340452" lon="8.764975">
|
|
<ele>4.729361</ele>
|
|
<time>2026-07-10T17:31:20.000Z</time>
|
|
</trkpt>
|
|
<trkpt lat="55.340510" lon="8.764865">
|
|
<ele>4.722053</ele>
|
|
<time>2026-07-10T17:31:21.000Z</time>
|
|
</trkpt>
|
|
<trkpt lat="55.340563" lon="8.764760">
|
|
<ele>4.716471</ele>
|
|
<time>2026-07-10T17:31:22.000Z</time>
|
|
</trkpt>
|
|
<trkpt lat="55.340609" lon="8.764663">
|
|
<ele>4.719149</ele>
|
|
<time>2026-07-10T17:31:23.000Z</time>
|
|
</trkpt>
|
|
<trkpt lat="55.340665" lon="8.764537">
|
|
<ele>4.722540</ele>
|
|
<time>2026-07-10T17:31:24.000Z</time>
|
|
</trkpt>
|
|
<trkpt lat="55.340720" lon="8.764416">
|
|
<ele>4.725824</ele>
|
|
<time>2026-07-10T17:31:25.000Z</time>
|
|
</trkpt>
|
|
<trkpt lat="55.340764" lon="8.764313">
|
|
<ele>4.728555</ele>
|
|
<time>2026-07-10T17:31:26.000Z</time>
|
|
</trkpt>
|
|
<trkpt lat="55.340802" lon="8.764213">
|
|
<ele>4.731105</ele>
|
|
<time>2026-07-10T17:31:27.000Z</time>
|
|
</trkpt>
|
|
<trkpt lat="55.340835" lon="8.764126">
|
|
<ele>4.733322</ele>
|
|
<time>2026-07-10T17:31:28.000Z</time>
|
|
</trkpt>
|
|
<trkpt lat="55.340874" lon="8.764033">
|
|
<ele>4.735772</ele>
|
|
<time>2026-07-10T17:31:29.000Z</time>
|
|
</trkpt>
|
|
<trkpt lat="55.340909" lon="8.763945">
|
|
<ele>4.738049</ele>
|
|
<time>2026-07-10T17:31:30.000Z</time>
|
|
</trkpt>
|
|
<trkpt lat="55.340942" lon="8.763863">
|
|
<ele>4.740178</ele>
|
|
<time>2026-07-10T17:31:31.000Z</time>
|
|
</trkpt>
|
|
<trkpt lat="55.340981" lon="8.763775">
|
|
<ele>4.742544</ele>
|
|
<time>2026-07-10T17:31:32.000Z</time>
|
|
</trkpt>
|
|
<trkpt lat="55.341021" lon="8.763686">
|
|
<ele>4.744949</ele>
|
|
<time>2026-07-10T17:31:33.000Z</time>
|
|
</trkpt>
|
|
<trkpt lat="55.341055" lon="8.763605">
|
|
<ele>4.747083</ele>
|
|
<time>2026-07-10T17:31:34.000Z</time>
|
|
</trkpt>
|
|
<trkpt lat="55.341092" lon="8.763516">
|
|
<ele>4.749421</ele>
|
|
<time>2026-07-10T17:31:35.000Z</time>
|
|
</trkpt>
|
|
<trkpt lat="55.341129" lon="8.763423">
|
|
<ele>4.751827</ele>
|
|
<time>2026-07-10T17:31:36.000Z</time>
|
|
</trkpt>
|
|
<trkpt lat="55.341164" lon="8.763332">
|
|
<ele>4.754156</ele>
|
|
<time>2026-07-10T17:31:37.000Z</time>
|
|
</trkpt>
|
|
<trkpt lat="55.341195" lon="8.763253">
|
|
<ele>4.756191</ele>
|
|
<time>2026-07-10T17:31:38.000Z</time>
|
|
</trkpt>
|
|
<trkpt lat="55.341230" lon="8.763170">
|
|
<ele>4.758382</ele>
|
|
<time>2026-07-10T17:31:39.000Z</time>
|
|
</trkpt>
|
|
<trkpt lat="55.341268" lon="8.763085">
|
|
<ele>4.760674</ele>
|
|
<time>2026-07-10T17:31:40.000Z</time>
|
|
</trkpt>
|
|
<trkpt lat="55.341303" lon="8.763005">
|
|
<ele>4.762814</ele>
|
|
<time>2026-07-10T17:31:41.000Z</time>
|
|
</trkpt>
|
|
<trkpt lat="55.341334" lon="8.762931">
|
|
<ele>4.764763</ele>
|
|
<time>2026-07-10T17:31:42.000Z</time>
|
|
</trkpt>
|
|
<trkpt lat="55.341367" lon="8.762849">
|
|
<ele>4.766892</ele>
|
|
<time>2026-07-10T17:31:43.000Z</time>
|
|
</trkpt>
|
|
<trkpt lat="55.341404" lon="8.762759">
|
|
<ele>4.769247</ele>
|
|
<time>2026-07-10T17:31:44.000Z</time>
|
|
</trkpt>
|
|
<trkpt lat="55.341442" lon="8.762670">
|
|
<ele>4.771606</ele>
|
|
<time>2026-07-10T17:31:45.000Z</time>
|
|
</trkpt>
|
|
<trkpt lat="55.341477" lon="8.762581">
|
|
<ele>4.773901</ele>
|
|
<time>2026-07-10T17:31:46.000Z</time>
|
|
</trkpt>
|
|
<trkpt lat="55.341513" lon="8.762490">
|
|
<ele>4.776251</ele>
|
|
<time>2026-07-10T17:31:47.000Z</time>
|
|
</trkpt>
|
|
<trkpt lat="55.341549" lon="8.762399">
|
|
<ele>4.778601</ele>
|
|
<time>2026-07-10T17:31:48.000Z</time>
|
|
</trkpt>
|
|
<trkpt lat="55.341584" lon="8.762315">
|
|
<ele>4.780809</ele>
|
|
<time>2026-07-10T17:31:49.000Z</time>
|
|
</trkpt>
|
|
<trkpt lat="55.341628" lon="8.762224">
|
|
<ele>4.781110</ele>
|
|
<time>2026-07-10T17:31:50.000Z</time>
|
|
</trkpt>
|
|
<trkpt lat="55.341682" lon="8.762125">
|
|
<ele>4.750899</ele>
|
|
<time>2026-07-10T17:31:51.000Z</time>
|
|
</trkpt>
|
|
<trkpt lat="55.341736" lon="8.762029">
|
|
<ele>4.721161</ele>
|
|
<time>2026-07-10T17:31:52.000Z</time>
|
|
</trkpt>
|
|
<trkpt lat="55.341778" lon="8.761950">
|
|
<ele>4.697343</ele>
|
|
<time>2026-07-10T17:31:53.000Z</time>
|
|
</trkpt>
|
|
<trkpt lat="55.341818" lon="8.761869">
|
|
<ele>4.673717</ele>
|
|
<time>2026-07-10T17:31:54.000Z</time>
|
|
</trkpt>
|
|
<trkpt lat="55.341862" lon="8.761785">
|
|
<ele>4.648566</ele>
|
|
<time>2026-07-10T17:31:55.000Z</time>
|
|
</trkpt>
|
|
<trkpt lat="55.341906" lon="8.761703">
|
|
<ele>4.623736</ele>
|
|
<time>2026-07-10T17:31:56.000Z</time>
|
|
</trkpt>
|
|
<trkpt lat="55.341948" lon="8.761615">
|
|
<ele>4.598435</ele>
|
|
<time>2026-07-10T17:31:57.000Z</time>
|
|
</trkpt>
|
|
<trkpt lat="55.341988" lon="8.761528">
|
|
<ele>4.573796</ele>
|
|
<time>2026-07-10T17:31:58.000Z</time>
|
|
</trkpt>
|
|
<trkpt lat="55.342025" lon="8.761445">
|
|
<ele>4.550569</ele>
|
|
<time>2026-07-10T17:31:59.000Z</time>
|
|
</trkpt>
|
|
<trkpt lat="55.342061" lon="8.761367">
|
|
<ele>4.528446</ele>
|
|
<time>2026-07-10T17:32:00.000Z</time>
|
|
</trkpt>
|
|
<trkpt lat="55.342096" lon="8.761289">
|
|
<ele>4.506564</ele>
|
|
<time>2026-07-10T17:32:01.000Z</time>
|
|
</trkpt>
|
|
<trkpt lat="55.342135" lon="8.761205">
|
|
<ele>4.482682</ele>
|
|
<time>2026-07-10T17:32:02.000Z</time>
|
|
</trkpt>
|
|
<trkpt lat="55.342189" lon="8.761120">
|
|
<ele>4.454614</ele>
|
|
<time>2026-07-10T17:32:03.000Z</time>
|
|
</trkpt>
|
|
<trkpt lat="55.342252" lon="8.761042">
|
|
<ele>4.424775</ele>
|
|
<time>2026-07-10T17:32:04.000Z</time>
|
|
</trkpt>
|
|
<trkpt lat="55.342309" lon="8.760956">
|
|
<ele>4.395689</ele>
|
|
<time>2026-07-10T17:32:05.000Z</time>
|
|
</trkpt>
|
|
<trkpt lat="55.342357" lon="8.760882">
|
|
<ele>4.370968</ele>
|
|
<time>2026-07-10T17:32:06.000Z</time>
|
|
</trkpt>
|
|
<trkpt lat="55.342464" lon="8.760746">
|
|
<ele>4.319838</ele>
|
|
<time>2026-07-10T17:32:07.000Z</time>
|
|
</trkpt>
|
|
<trkpt lat="55.342535" lon="8.760647">
|
|
<ele>4.284747</ele>
|
|
<time>2026-07-10T17:32:08.000Z</time>
|
|
</trkpt>
|
|
<trkpt lat="55.342578" lon="8.760561">
|
|
<ele>4.259527</ele>
|
|
<time>2026-07-10T17:32:09.000Z</time>
|
|
</trkpt>
|
|
<trkpt lat="55.342612" lon="8.760475">
|
|
<ele>4.236460</ele>
|
|
<time>2026-07-10T17:32:10.000Z</time>
|
|
</trkpt>
|
|
<trkpt lat="55.342651" lon="8.760390">
|
|
<ele>4.212407</ele>
|
|
<time>2026-07-10T17:32:11.000Z</time>
|
|
</trkpt>
|
|
<trkpt lat="55.342704" lon="8.760308">
|
|
<ele>4.185068</ele>
|
|
<time>2026-07-10T17:32:12.000Z</time>
|
|
</trkpt>
|
|
<trkpt lat="55.342746" lon="8.760220">
|
|
<ele>4.159767</ele>
|
|
<time>2026-07-10T17:32:13.000Z</time>
|
|
</trkpt>
|
|
<trkpt lat="55.342799" lon="8.760136">
|
|
<ele>4.132135</ele>
|
|
<time>2026-07-10T17:32:14.000Z</time>
|
|
</trkpt>
|
|
<trkpt lat="55.342843" lon="8.760058">
|
|
<ele>4.107939</ele>
|
|
<time>2026-07-10T17:32:15.000Z</time>
|
|
</trkpt>
|
|
<trkpt lat="55.342880" lon="8.759983">
|
|
<ele>4.086404</ele>
|
|
<time>2026-07-10T17:32:16.000Z</time>
|
|
</trkpt>
|
|
<trkpt lat="55.342921" lon="8.759901">
|
|
<ele>4.078085</ele>
|
|
<time>2026-07-10T17:32:17.000Z</time>
|
|
</trkpt>
|
|
<trkpt lat="55.342970" lon="8.759825">
|
|
<ele>4.069331</ele>
|
|
<time>2026-07-10T17:32:18.000Z</time>
|
|
</trkpt>
|
|
<trkpt lat="55.343016" lon="8.759748">
|
|
<ele>4.060822</ele>
|
|
<time>2026-07-10T17:32:19.000Z</time>
|
|
</trkpt>
|
|
<trkpt lat="55.343065" lon="8.759667">
|
|
<ele>4.051812</ele>
|
|
<time>2026-07-10T17:32:20.000Z</time>
|
|
</trkpt>
|
|
<trkpt lat="55.343104" lon="8.759589">
|
|
<ele>4.043899</ele>
|
|
<time>2026-07-10T17:32:21.000Z</time>
|
|
</trkpt>
|
|
<trkpt lat="55.343142" lon="8.759509">
|
|
<ele>4.035957</ele>
|
|
<time>2026-07-10T17:32:22.000Z</time>
|
|
</trkpt>
|
|
<trkpt lat="55.343180" lon="8.759431">
|
|
<ele>4.028131</ele>
|
|
<time>2026-07-10T17:32:23.000Z</time>
|
|
</trkpt>
|
|
<trkpt lat="55.343210" lon="8.759352">
|
|
<ele>4.020894</ele>
|
|
<time>2026-07-10T17:32:24.000Z</time>
|
|
</trkpt>
|
|
<trkpt lat="55.343252" lon="8.759278">
|
|
<ele>4.012928</ele>
|
|
<time>2026-07-10T17:32:25.000Z</time>
|
|
</trkpt>
|
|
<trkpt lat="55.343294" lon="8.759199">
|
|
<ele>4.004688</ele>
|
|
<time>2026-07-10T17:32:26.000Z</time>
|
|
</trkpt>
|
|
<trkpt lat="55.343329" lon="8.759117">
|
|
<ele>3.996877</ele>
|
|
<time>2026-07-10T17:32:27.000Z</time>
|
|
</trkpt>
|
|
<trkpt lat="55.343371" lon="8.759033">
|
|
<ele>3.988355</ele>
|
|
<time>2026-07-10T17:32:28.000Z</time>
|
|
</trkpt>
|
|
<trkpt lat="55.343411" lon="8.758951">
|
|
<ele>3.980123</ele>
|
|
<time>2026-07-10T17:32:29.000Z</time>
|
|
</trkpt>
|
|
<trkpt lat="55.343454" lon="8.758862">
|
|
<ele>3.971226</ele>
|
|
<time>2026-07-10T17:32:30.000Z</time>
|
|
</trkpt>
|
|
<trkpt lat="55.343495" lon="8.758783">
|
|
<ele>3.963077</ele>
|
|
<time>2026-07-10T17:32:31.000Z</time>
|
|
</trkpt>
|
|
<trkpt lat="55.343543" lon="8.758686">
|
|
<ele>3.953280</ele>
|
|
<time>2026-07-10T17:32:32.000Z</time>
|
|
</trkpt>
|
|
<trkpt lat="55.343587" lon="8.758600">
|
|
<ele>3.944466</ele>
|
|
<time>2026-07-10T17:32:33.000Z</time>
|
|
</trkpt>
|
|
<trkpt lat="55.343631" lon="8.758509">
|
|
<ele>3.935366</ele>
|
|
<time>2026-07-10T17:32:34.000Z</time>
|
|
</trkpt>
|
|
<trkpt lat="55.343671" lon="8.758429">
|
|
<ele>3.927250</ele>
|
|
<time>2026-07-10T17:32:35.000Z</time>
|
|
</trkpt>
|
|
<trkpt lat="55.343715" lon="8.758339">
|
|
<ele>3.918207</ele>
|
|
<time>2026-07-10T17:32:36.000Z</time>
|
|
</trkpt>
|
|
<trkpt lat="55.343752" lon="8.758252">
|
|
<ele>3.909930</ele>
|
|
<time>2026-07-10T17:32:37.000Z</time>
|
|
</trkpt>
|
|
<trkpt lat="55.343790" lon="8.758163">
|
|
<ele>3.901450</ele>
|
|
<time>2026-07-10T17:32:38.000Z</time>
|
|
</trkpt>
|
|
<trkpt lat="55.343829" lon="8.758076">
|
|
<ele>3.893010</ele>
|
|
<time>2026-07-10T17:32:39.000Z</time>
|
|
</trkpt>
|
|
<trkpt lat="55.343866" lon="8.757993">
|
|
<ele>3.884975</ele>
|
|
<time>2026-07-10T17:32:40.000Z</time>
|
|
</trkpt>
|
|
<trkpt lat="55.343905" lon="8.757908">
|
|
<ele>3.876654</ele>
|
|
<time>2026-07-10T17:32:41.000Z</time>
|
|
</trkpt>
|
|
<trkpt lat="55.343943" lon="8.757825">
|
|
<ele>3.868535</ele>
|
|
<time>2026-07-10T17:32:42.000Z</time>
|
|
</trkpt>
|
|
<trkpt lat="55.343978" lon="8.757741">
|
|
<ele>3.860601</ele>
|
|
<time>2026-07-10T17:32:43.000Z</time>
|
|
</trkpt>
|
|
<trkpt lat="55.344016" lon="8.757660">
|
|
<ele>3.852601</ele>
|
|
<time>2026-07-10T17:32:44.000Z</time>
|
|
</trkpt>
|
|
<trkpt lat="55.344050" lon="8.757579">
|
|
<ele>3.847751</ele>
|
|
<time>2026-07-10T17:32:45.000Z</time>
|
|
</trkpt>
|
|
<trkpt lat="55.344085" lon="8.757495">
|
|
<ele>3.873483</ele>
|
|
<time>2026-07-10T17:32:46.000Z</time>
|
|
</trkpt>
|
|
<trkpt lat="55.344119" lon="8.757414">
|
|
<ele>3.898360</ele>
|
|
<time>2026-07-10T17:32:47.000Z</time>
|
|
</trkpt>
|
|
<trkpt lat="55.344152" lon="8.757336">
|
|
<ele>3.922383</ele>
|
|
<time>2026-07-10T17:32:48.000Z</time>
|
|
</trkpt>
|
|
<trkpt lat="55.344191" lon="8.757252">
|
|
<ele>3.949178</ele>
|
|
<time>2026-07-10T17:32:49.000Z</time>
|
|
</trkpt>
|
|
<trkpt lat="55.344225" lon="8.757174">
|
|
<ele>3.973463</ele>
|
|
<time>2026-07-10T17:32:50.000Z</time>
|
|
</trkpt>
|
|
<trkpt lat="55.344260" lon="8.757092">
|
|
<ele>3.998797</ele>
|
|
<time>2026-07-10T17:32:51.000Z</time>
|
|
</trkpt>
|
|
<trkpt lat="55.344294" lon="8.757011">
|
|
<ele>4.023674</ele>
|
|
<time>2026-07-10T17:32:52.000Z</time>
|
|
</trkpt>
|
|
<trkpt lat="55.344328" lon="8.756930">
|
|
<ele>4.048551</ele>
|
|
<time>2026-07-10T17:32:53.000Z</time>
|
|
</trkpt>
|
|
<trkpt lat="55.344363" lon="8.756849">
|
|
<ele>4.073688</ele>
|
|
<time>2026-07-10T17:32:54.000Z</time>
|
|
</trkpt>
|
|
<trkpt lat="55.344397" lon="8.756770">
|
|
<ele>4.098169</ele>
|
|
<time>2026-07-10T17:32:55.000Z</time>
|
|
</trkpt>
|
|
<trkpt lat="55.344436" lon="8.756688">
|
|
<ele>4.124584</ele>
|
|
<time>2026-07-10T17:32:56.000Z</time>
|
|
</trkpt>
|
|
<trkpt lat="55.344470" lon="8.756607">
|
|
<ele>4.149461</ele>
|
|
<time>2026-07-10T17:32:57.000Z</time>
|
|
</trkpt>
|
|
<trkpt lat="55.344500" lon="8.756529">
|
|
<ele>4.172729</ele>
|
|
<time>2026-07-10T17:32:58.000Z</time>
|
|
</trkpt>
|
|
<trkpt lat="55.344538" lon="8.756448">
|
|
<ele>4.198676</ele>
|
|
<time>2026-07-10T17:32:59.000Z</time>
|
|
</trkpt>
|
|
<trkpt lat="55.344572" lon="8.756368">
|
|
<ele>4.223354</ele>
|
|
<time>2026-07-10T17:33:00.000Z</time>
|
|
</trkpt>
|
|
<trkpt lat="55.344607" lon="8.756288">
|
|
<ele>4.248295</ele>
|
|
<time>2026-07-10T17:33:01.000Z</time>
|
|
</trkpt>
|
|
<trkpt lat="55.344637" lon="8.756210">
|
|
<ele>4.271563</ele>
|
|
<time>2026-07-10T17:33:02.000Z</time>
|
|
</trkpt>
|
|
<trkpt lat="55.344671" lon="8.756132">
|
|
<ele>4.295847</ele>
|
|
<time>2026-07-10T17:33:03.000Z</time>
|
|
</trkpt>
|
|
<trkpt lat="55.344707" lon="8.756054">
|
|
<ele>4.320670</ele>
|
|
<time>2026-07-10T17:33:04.000Z</time>
|
|
</trkpt>
|
|
<trkpt lat="55.344738" lon="8.755981">
|
|
<ele>4.343182</ele>
|
|
<time>2026-07-10T17:33:05.000Z</time>
|
|
</trkpt>
|
|
<trkpt lat="55.344771" lon="8.755898">
|
|
<ele>4.368207</ele>
|
|
<time>2026-07-10T17:33:06.000Z</time>
|
|
</trkpt>
|
|
<trkpt lat="55.344805" lon="8.755820">
|
|
<ele>4.392491</ele>
|
|
<time>2026-07-10T17:33:07.000Z</time>
|
|
</trkpt>
|
|
<trkpt lat="55.344839" lon="8.755742">
|
|
<ele>4.416775</ele>
|
|
<time>2026-07-10T17:33:08.000Z</time>
|
|
</trkpt>
|
|
<trkpt lat="55.344870" lon="8.755663">
|
|
<ele>4.440492</ele>
|
|
<time>2026-07-10T17:33:09.000Z</time>
|
|
</trkpt>
|
|
<trkpt lat="55.344905" lon="8.755585">
|
|
<ele>4.465043</ele>
|
|
<time>2026-07-10T17:33:10.000Z</time>
|
|
</trkpt>
|
|
<trkpt lat="55.344940" lon="8.755507">
|
|
<ele>4.489594</ele>
|
|
<time>2026-07-10T17:33:11.000Z</time>
|
|
</trkpt>
|
|
<trkpt lat="55.344966" lon="8.755434">
|
|
<ele>4.510878</ele>
|
|
<time>2026-07-10T17:33:12.000Z</time>
|
|
</trkpt>
|
|
<trkpt lat="55.344991" lon="8.755369">
|
|
<ele>4.530268</ele>
|
|
<time>2026-07-10T17:33:13.000Z</time>
|
|
</trkpt>
|
|
<trkpt lat="55.345016" lon="8.755304">
|
|
<ele>4.549658</ele>
|
|
<time>2026-07-10T17:33:14.000Z</time>
|
|
</trkpt>
|
|
<trkpt lat="55.345041" lon="8.755250">
|
|
<ele>4.566863</ele>
|
|
<time>2026-07-10T17:33:15.000Z</time>
|
|
</trkpt>
|
|
<trkpt lat="55.345067" lon="8.755184">
|
|
<ele>4.586702</ele>
|
|
<time>2026-07-10T17:33:16.000Z</time>
|
|
</trkpt>
|
|
<trkpt lat="55.345093" lon="8.755117">
|
|
<ele>4.606745</ele>
|
|
<time>2026-07-10T17:33:17.000Z</time>
|
|
</trkpt>
|
|
<trkpt lat="55.345115" lon="8.755044">
|
|
<ele>4.627159</ele>
|
|
<time>2026-07-10T17:33:18.000Z</time>
|
|
</trkpt>
|
|
<trkpt lat="55.345138" lon="8.754970">
|
|
<ele>4.610265</ele>
|
|
<time>2026-07-10T17:33:19.000Z</time>
|
|
</trkpt>
|
|
<trkpt lat="55.345163" lon="8.754897">
|
|
<ele>4.593183</ele>
|
|
<time>2026-07-10T17:33:20.000Z</time>
|
|
</trkpt>
|
|
<trkpt lat="55.345188" lon="8.754823">
|
|
<ele>4.575930</ele>
|
|
<time>2026-07-10T17:33:21.000Z</time>
|
|
</trkpt>
|
|
<trkpt lat="55.345216" lon="8.754753">
|
|
<ele>4.558775</ele>
|
|
<time>2026-07-10T17:33:22.000Z</time>
|
|
</trkpt>
|
|
<trkpt lat="55.345245" lon="8.754683">
|
|
<ele>4.541415</ele>
|
|
<time>2026-07-10T17:33:23.000Z</time>
|
|
</trkpt>
|
|
<trkpt lat="55.345271" lon="8.754620">
|
|
<ele>4.525811</ele>
|
|
<time>2026-07-10T17:33:24.000Z</time>
|
|
</trkpt>
|
|
<trkpt lat="55.345293" lon="8.754560">
|
|
<ele>4.511501</ele>
|
|
<time>2026-07-10T17:33:25.000Z</time>
|
|
</trkpt>
|
|
<trkpt lat="55.345318" lon="8.754495">
|
|
<ele>4.495772</ele>
|
|
<time>2026-07-10T17:33:26.000Z</time>
|
|
</trkpt>
|
|
<trkpt lat="55.345344" lon="8.754431">
|
|
<ele>4.480006</ele>
|
|
<time>2026-07-10T17:33:27.000Z</time>
|
|
</trkpt>
|
|
<trkpt lat="55.345373" lon="8.754346">
|
|
<ele>4.460136</ele>
|
|
<time>2026-07-10T17:33:28.000Z</time>
|
|
</trkpt>
|
|
<trkpt lat="55.345402" lon="8.754261">
|
|
<ele>4.440267</ele>
|
|
<time>2026-07-10T17:33:29.000Z</time>
|
|
</trkpt>
|
|
<trkpt lat="55.345447" lon="8.754173">
|
|
<ele>4.416545</ele>
|
|
<time>2026-07-10T17:33:30.000Z</time>
|
|
</trkpt>
|
|
<trkpt lat="55.345493" lon="8.754085">
|
|
<ele>4.392585</ele>
|
|
<time>2026-07-10T17:33:31.000Z</time>
|
|
</trkpt>
|
|
<trkpt lat="55.345531" lon="8.754000">
|
|
<ele>4.370912</ele>
|
|
<time>2026-07-10T17:33:32.000Z</time>
|
|
</trkpt>
|
|
<trkpt lat="55.345573" lon="8.753913">
|
|
<ele>4.348036</ele>
|
|
<time>2026-07-10T17:33:33.000Z</time>
|
|
</trkpt>
|
|
<trkpt lat="55.345615" lon="8.753826">
|
|
<ele>4.325161</ele>
|
|
<time>2026-07-10T17:33:34.000Z</time>
|
|
</trkpt>
|
|
<trkpt lat="55.345651" lon="8.753745">
|
|
<ele>4.304554</ele>
|
|
<time>2026-07-10T17:33:35.000Z</time>
|
|
</trkpt>
|
|
<trkpt lat="55.345691" lon="8.753660">
|
|
<ele>4.282438</ele>
|
|
<time>2026-07-10T17:33:36.000Z</time>
|
|
</trkpt>
|
|
<trkpt lat="55.345728" lon="8.753579">
|
|
<ele>4.261613</ele>
|
|
<time>2026-07-10T17:33:37.000Z</time>
|
|
</trkpt>
|
|
<trkpt lat="55.345766" lon="8.753494">
|
|
<ele>4.239940</ele>
|
|
<time>2026-07-10T17:33:38.000Z</time>
|
|
</trkpt>
|
|
<trkpt lat="55.345800" lon="8.753415">
|
|
<ele>4.220081</ele>
|
|
<time>2026-07-10T17:33:39.000Z</time>
|
|
</trkpt>
|
|
<trkpt lat="55.345836" lon="8.753332">
|
|
<ele>4.199156</ele>
|
|
<time>2026-07-10T17:33:40.000Z</time>
|
|
</trkpt>
|
|
<trkpt lat="55.345874" lon="8.753253">
|
|
<ele>4.178416</ele>
|
|
<time>2026-07-10T17:33:41.000Z</time>
|
|
</trkpt>
|
|
<trkpt lat="55.345909" lon="8.753176">
|
|
<ele>4.158657</ele>
|
|
<time>2026-07-10T17:33:42.000Z</time>
|
|
</trkpt>
|
|
<trkpt lat="55.345947" lon="8.753098">
|
|
<ele>4.138069</ele>
|
|
<time>2026-07-10T17:33:43.000Z</time>
|
|
</trkpt>
|
|
<trkpt lat="55.345981" lon="8.753019">
|
|
<ele>4.118209</ele>
|
|
<time>2026-07-10T17:33:44.000Z</time>
|
|
</trkpt>
|
|
<trkpt lat="55.346018" lon="8.752948">
|
|
<ele>4.098905</ele>
|
|
<time>2026-07-10T17:33:45.000Z</time>
|
|
</trkpt>
|
|
<trkpt lat="55.346053" lon="8.752871">
|
|
<ele>4.079146</ele>
|
|
<time>2026-07-10T17:33:46.000Z</time>
|
|
</trkpt>
|
|
<trkpt lat="55.346088" lon="8.752794">
|
|
<ele>4.059387</ele>
|
|
<time>2026-07-10T17:33:47.000Z</time>
|
|
</trkpt>
|
|
<trkpt lat="55.346122" lon="8.752718">
|
|
<ele>4.040004</ele>
|
|
<time>2026-07-10T17:33:48.000Z</time>
|
|
</trkpt>
|
|
<trkpt lat="55.346153" lon="8.752643">
|
|
<ele>4.021419</ele>
|
|
<time>2026-07-10T17:33:49.000Z</time>
|
|
</trkpt>
|
|
<trkpt lat="55.346183" lon="8.752567">
|
|
<ele>4.002875</ele>
|
|
<time>2026-07-10T17:33:50.000Z</time>
|
|
</trkpt>
|
|
<trkpt lat="55.346218" lon="8.752487">
|
|
<ele>3.995980</ele>
|
|
<time>2026-07-10T17:33:51.000Z</time>
|
|
</trkpt>
|
|
<trkpt lat="55.346252" lon="8.752413">
|
|
<ele>4.001153</ele>
|
|
<time>2026-07-10T17:33:52.000Z</time>
|
|
</trkpt>
|
|
<trkpt lat="55.346286" lon="8.752340">
|
|
<ele>4.006283</ele>
|
|
<time>2026-07-10T17:33:53.000Z</time>
|
|
</trkpt>
|
|
<trkpt lat="55.346319" lon="8.752267">
|
|
<ele>4.011353</ele>
|
|
<time>2026-07-10T17:33:54.000Z</time>
|
|
</trkpt>
|
|
<trkpt lat="55.346351" lon="8.752187">
|
|
<ele>4.016670</ele>
|
|
<time>2026-07-10T17:33:55.000Z</time>
|
|
</trkpt>
|
|
<trkpt lat="55.346381" lon="8.752109">
|
|
<ele>4.021790</ele>
|
|
<time>2026-07-10T17:33:56.000Z</time>
|
|
</trkpt>
|
|
<trkpt lat="55.346412" lon="8.752030">
|
|
<ele>4.027008</ele>
|
|
<time>2026-07-10T17:33:57.000Z</time>
|
|
</trkpt>
|
|
<trkpt lat="55.346443" lon="8.751950">
|
|
<ele>4.032271</ele>
|
|
<time>2026-07-10T17:33:58.000Z</time>
|
|
</trkpt>
|
|
<trkpt lat="55.346473" lon="8.751871">
|
|
<ele>4.037436</ele>
|
|
<time>2026-07-10T17:33:59.000Z</time>
|
|
</trkpt>
|
|
<trkpt lat="55.346508" lon="8.751795">
|
|
<ele>4.042753</ele>
|
|
<time>2026-07-10T17:34:00.000Z</time>
|
|
</trkpt>
|
|
<trkpt lat="55.346542" lon="8.751719">
|
|
<ele>4.048010</ele>
|
|
<time>2026-07-10T17:34:01.000Z</time>
|
|
</trkpt>
|
|
<trkpt lat="55.346574" lon="8.751645">
|
|
<ele>4.053064</ele>
|
|
<time>2026-07-10T17:34:02.000Z</time>
|
|
</trkpt>
|
|
<trkpt lat="55.346606" lon="8.751571">
|
|
<ele>4.058119</ele>
|
|
<time>2026-07-10T17:34:03.000Z</time>
|
|
</trkpt>
|
|
<trkpt lat="55.346641" lon="8.751500">
|
|
<ele>4.063227</ele>
|
|
<time>2026-07-10T17:34:04.000Z</time>
|
|
</trkpt>
|
|
<trkpt lat="55.346671" lon="8.751432">
|
|
<ele>4.067906</ele>
|
|
<time>2026-07-10T17:34:05.000Z</time>
|
|
</trkpt>
|
|
<trkpt lat="55.346702" lon="8.751362">
|
|
<ele>4.072730</ele>
|
|
<time>2026-07-10T17:34:06.000Z</time>
|
|
</trkpt>
|
|
<trkpt lat="55.346732" lon="8.751291">
|
|
<ele>4.077539</ele>
|
|
<time>2026-07-10T17:34:07.000Z</time>
|
|
</trkpt>
|
|
<trkpt lat="55.346767" lon="8.751215">
|
|
<ele>4.082856</ele>
|
|
<time>2026-07-10T17:34:08.000Z</time>
|
|
</trkpt>
|
|
<trkpt lat="55.346801" lon="8.751136">
|
|
<ele>4.088242</ele>
|
|
<time>2026-07-10T17:34:09.000Z</time>
|
|
</trkpt>
|
|
<trkpt lat="55.346835" lon="8.751059">
|
|
<ele>4.093542</ele>
|
|
<time>2026-07-10T17:34:10.000Z</time>
|
|
</trkpt>
|
|
<trkpt lat="55.346870" lon="8.750979">
|
|
<ele>4.099030</ele>
|
|
<time>2026-07-10T17:34:11.000Z</time>
|
|
</trkpt>
|
|
<trkpt lat="55.346903" lon="8.750903">
|
|
<ele>4.104228</ele>
|
|
<time>2026-07-10T17:34:12.000Z</time>
|
|
</trkpt>
|
|
<trkpt lat="55.346937" lon="8.750827">
|
|
<ele>4.109486</ele>
|
|
<time>2026-07-10T17:34:13.000Z</time>
|
|
</trkpt>
|
|
<trkpt lat="55.346972" lon="8.750750">
|
|
<ele>4.114845</ele>
|
|
<time>2026-07-10T17:34:14.000Z</time>
|
|
</trkpt>
|
|
<trkpt lat="55.347003" lon="8.750672">
|
|
<ele>4.120018</ele>
|
|
<time>2026-07-10T17:34:15.000Z</time>
|
|
</trkpt>
|
|
<trkpt lat="55.347039" lon="8.750596">
|
|
<ele>4.125396</ele>
|
|
<time>2026-07-10T17:34:16.000Z</time>
|
|
</trkpt>
|
|
<trkpt lat="55.347076" lon="8.750520">
|
|
<ele>4.130835</ele>
|
|
<time>2026-07-10T17:34:17.000Z</time>
|
|
</trkpt>
|
|
<trkpt lat="55.347110" lon="8.750445">
|
|
<ele>4.136050</ele>
|
|
<time>2026-07-10T17:34:18.000Z</time>
|
|
</trkpt>
|
|
<trkpt lat="55.347145" lon="8.750369">
|
|
<ele>4.141367</ele>
|
|
<time>2026-07-10T17:34:19.000Z</time>
|
|
</trkpt>
|
|
<trkpt lat="55.347179" lon="8.750296">
|
|
<ele>4.146497</ele>
|
|
<time>2026-07-10T17:34:20.000Z</time>
|
|
</trkpt>
|
|
<trkpt lat="55.347210" lon="8.750219">
|
|
<ele>4.151626</ele>
|
|
<time>2026-07-10T17:34:21.000Z</time>
|
|
</trkpt>
|
|
<trkpt lat="55.347240" lon="8.750145">
|
|
<ele>4.156567</ele>
|
|
<time>2026-07-10T17:34:22.000Z</time>
|
|
</trkpt>
|
|
<trkpt lat="55.347274" lon="8.750072">
|
|
<ele>4.161697</ele>
|
|
<time>2026-07-10T17:34:23.000Z</time>
|
|
</trkpt>
|
|
<trkpt lat="55.347305" lon="8.750006">
|
|
<ele>4.165877</ele>
|
|
<time>2026-07-10T17:34:24.000Z</time>
|
|
</trkpt>
|
|
<trkpt lat="55.347339" lon="8.749939">
|
|
<ele>4.168903</ele>
|
|
<time>2026-07-10T17:34:25.000Z</time>
|
|
</trkpt>
|
|
<trkpt lat="55.347370" lon="8.749872">
|
|
<ele>4.171814</ele>
|
|
<time>2026-07-10T17:34:26.000Z</time>
|
|
</trkpt>
|
|
<trkpt lat="55.347400" lon="8.749807">
|
|
<ele>4.174636</ele>
|
|
<time>2026-07-10T17:34:27.000Z</time>
|
|
</trkpt>
|
|
<trkpt lat="55.347430" lon="8.749742">
|
|
<ele>4.177457</ele>
|
|
<time>2026-07-10T17:34:28.000Z</time>
|
|
</trkpt>
|
|
<trkpt lat="55.347460" lon="8.749677">
|
|
<ele>4.180279</ele>
|
|
<time>2026-07-10T17:34:29.000Z</time>
|
|
</trkpt>
|
|
<trkpt lat="55.347495" lon="8.749606">
|
|
<ele>4.183446</ele>
|
|
<time>2026-07-10T17:34:30.000Z</time>
|
|
</trkpt>
|
|
<trkpt lat="55.347526" lon="8.749539">
|
|
<ele>4.186357</ele>
|
|
<time>2026-07-10T17:34:31.000Z</time>
|
|
</trkpt>
|
|
<trkpt lat="55.347560" lon="8.749472">
|
|
<ele>4.189383</ele>
|
|
<time>2026-07-10T17:34:32.000Z</time>
|
|
</trkpt>
|
|
<trkpt lat="55.347594" lon="8.749405">
|
|
<ele>4.192410</ele>
|
|
<time>2026-07-10T17:34:33.000Z</time>
|
|
</trkpt>
|
|
<trkpt lat="55.347628" lon="8.749336">
|
|
<ele>4.195487</ele>
|
|
<time>2026-07-10T17:34:34.000Z</time>
|
|
</trkpt>
|
|
<trkpt lat="55.347659" lon="8.749268">
|
|
<ele>4.198424</ele>
|
|
<time>2026-07-10T17:34:35.000Z</time>
|
|
</trkpt>
|
|
<trkpt lat="55.347698" lon="8.749201">
|
|
<ele>4.201656</ele>
|
|
<time>2026-07-10T17:34:36.000Z</time>
|
|
</trkpt>
|
|
<trkpt lat="55.347728" lon="8.749132">
|
|
<ele>4.204583</ele>
|
|
<time>2026-07-10T17:34:37.000Z</time>
|
|
</trkpt>
|
|
<trkpt lat="55.347762" lon="8.749066">
|
|
<ele>4.207584</ele>
|
|
<time>2026-07-10T17:34:38.000Z</time>
|
|
</trkpt>
|
|
<trkpt lat="55.347796" lon="8.749000">
|
|
<ele>4.210586</ele>
|
|
<time>2026-07-10T17:34:39.000Z</time>
|
|
</trkpt>
|
|
<trkpt lat="55.347831" lon="8.748934">
|
|
<ele>4.213627</ele>
|
|
<time>2026-07-10T17:34:40.000Z</time>
|
|
</trkpt>
|
|
<trkpt lat="55.347861" lon="8.748867">
|
|
<ele>4.216502</ele>
|
|
<time>2026-07-10T17:34:41.000Z</time>
|
|
</trkpt>
|
|
<trkpt lat="55.347895" lon="8.748798">
|
|
<ele>4.219579</ele>
|
|
<time>2026-07-10T17:34:42.000Z</time>
|
|
</trkpt>
|
|
<trkpt lat="55.347929" lon="8.748726">
|
|
<ele>4.222733</ele>
|
|
<time>2026-07-10T17:34:43.000Z</time>
|
|
</trkpt>
|
|
<trkpt lat="55.347964" lon="8.748658">
|
|
<ele>4.225824</ele>
|
|
<time>2026-07-10T17:34:44.000Z</time>
|
|
</trkpt>
|
|
<trkpt lat="55.347997" lon="8.748589">
|
|
<ele>4.228863</ele>
|
|
<time>2026-07-10T17:34:45.000Z</time>
|
|
</trkpt>
|
|
<trkpt lat="55.348029" lon="8.748519">
|
|
<ele>4.231890</ele>
|
|
<time>2026-07-10T17:34:46.000Z</time>
|
|
</trkpt>
|
|
<trkpt lat="55.348067" lon="8.748448">
|
|
<ele>4.235176</ele>
|
|
<time>2026-07-10T17:34:47.000Z</time>
|
|
</trkpt>
|
|
<trkpt lat="55.348101" lon="8.748381">
|
|
<ele>4.238202</ele>
|
|
<time>2026-07-10T17:34:48.000Z</time>
|
|
</trkpt>
|
|
<trkpt lat="55.348136" lon="8.748308">
|
|
<ele>4.241420</ele>
|
|
<time>2026-07-10T17:34:49.000Z</time>
|
|
</trkpt>
|
|
<trkpt lat="55.348166" lon="8.748239">
|
|
<ele>4.244348</ele>
|
|
<time>2026-07-10T17:34:50.000Z</time>
|
|
</trkpt>
|
|
<trkpt lat="55.348201" lon="8.748167">
|
|
<ele>4.247540</ele>
|
|
<time>2026-07-10T17:34:51.000Z</time>
|
|
</trkpt>
|
|
<trkpt lat="55.348235" lon="8.748098">
|
|
<ele>4.250617</ele>
|
|
<time>2026-07-10T17:34:52.000Z</time>
|
|
</trkpt>
|
|
<trkpt lat="55.348270" lon="8.748025">
|
|
<ele>4.253835</ele>
|
|
<time>2026-07-10T17:34:53.000Z</time>
|
|
</trkpt>
|
|
<trkpt lat="55.348304" lon="8.747954">
|
|
<ele>4.256964</ele>
|
|
<time>2026-07-10T17:34:54.000Z</time>
|
|
</trkpt>
|
|
<trkpt lat="55.348338" lon="8.747886">
|
|
<ele>4.260015</ele>
|
|
<time>2026-07-10T17:34:55.000Z</time>
|
|
</trkpt>
|
|
<trkpt lat="55.348372" lon="8.747814">
|
|
<ele>4.263170</ele>
|
|
<time>2026-07-10T17:34:56.000Z</time>
|
|
</trkpt>
|
|
<trkpt lat="55.348406" lon="8.747743">
|
|
<ele>4.266298</ele>
|
|
<time>2026-07-10T17:34:57.000Z</time>
|
|
</trkpt>
|
|
<trkpt lat="55.348441" lon="8.747668">
|
|
<ele>4.269568</ele>
|
|
<time>2026-07-10T17:34:58.000Z</time>
|
|
</trkpt>
|
|
<trkpt lat="55.348479" lon="8.747593">
|
|
<ele>4.277294</ele>
|
|
<time>2026-07-10T17:34:59.000Z</time>
|
|
</trkpt>
|
|
<trkpt lat="55.348513" lon="8.747523">
|
|
<ele>4.291248</ele>
|
|
<time>2026-07-10T17:35:00.000Z</time>
|
|
</trkpt>
|
|
<trkpt lat="55.348548" lon="8.747446">
|
|
<ele>4.306190</ele>
|
|
<time>2026-07-10T17:35:01.000Z</time>
|
|
</trkpt>
|
|
<trkpt lat="55.348582" lon="8.747370">
|
|
<ele>4.320848</ele>
|
|
<time>2026-07-10T17:35:02.000Z</time>
|
|
</trkpt>
|
|
<trkpt lat="55.348616" lon="8.747298">
|
|
<ele>4.335034</ele>
|
|
<time>2026-07-10T17:35:03.000Z</time>
|
|
</trkpt>
|
|
<trkpt lat="55.348651" lon="8.747226">
|
|
<ele>4.349392</ele>
|
|
<time>2026-07-10T17:35:04.000Z</time>
|
|
</trkpt>
|
|
<trkpt lat="55.348687" lon="8.747159">
|
|
<ele>4.363365</ele>
|
|
<time>2026-07-10T17:35:05.000Z</time>
|
|
</trkpt>
|
|
<trkpt lat="55.348723" lon="8.747088">
|
|
<ele>4.377784</ele>
|
|
<time>2026-07-10T17:35:06.000Z</time>
|
|
</trkpt>
|
|
<trkpt lat="55.348756" lon="8.747021">
|
|
<ele>4.391220</ele>
|
|
<time>2026-07-10T17:35:07.000Z</time>
|
|
</trkpt>
|
|
<trkpt lat="55.348792" lon="8.746949">
|
|
<ele>4.405752</ele>
|
|
<time>2026-07-10T17:35:08.000Z</time>
|
|
</trkpt>
|
|
<trkpt lat="55.348830" lon="8.746879">
|
|
<ele>4.420421</ele>
|
|
<time>2026-07-10T17:35:09.000Z</time>
|
|
</trkpt>
|
|
<trkpt lat="55.348864" lon="8.746815">
|
|
<ele>4.433697</ele>
|
|
<time>2026-07-10T17:35:10.000Z</time>
|
|
</trkpt>
|
|
<trkpt lat="55.348902" lon="8.746748">
|
|
<ele>4.448041</ele>
|
|
<time>2026-07-10T17:35:11.000Z</time>
|
|
</trkpt>
|
|
<trkpt lat="55.348938" lon="8.746685">
|
|
<ele>4.461579</ele>
|
|
<time>2026-07-10T17:35:12.000Z</time>
|
|
</trkpt>
|
|
<trkpt lat="55.348978" lon="8.746618">
|
|
<ele>4.476305</ele>
|
|
<time>2026-07-10T17:35:13.000Z</time>
|
|
</trkpt>
|
|
<trkpt lat="55.349017" lon="8.746556">
|
|
<ele>4.490319</ele>
|
|
<time>2026-07-10T17:35:14.000Z</time>
|
|
</trkpt>
|
|
<trkpt lat="55.349054" lon="8.746494">
|
|
<ele>4.503942</ele>
|
|
<time>2026-07-10T17:35:15.000Z</time>
|
|
</trkpt>
|
|
<trkpt lat="55.349093" lon="8.746433">
|
|
<ele>4.517855</ele>
|
|
<time>2026-07-10T17:35:16.000Z</time>
|
|
</trkpt>
|
|
<trkpt lat="55.349131" lon="8.746369">
|
|
<ele>4.531881</ele>
|
|
<time>2026-07-10T17:35:17.000Z</time>
|
|
</trkpt>
|
|
<trkpt lat="55.349169" lon="8.746306">
|
|
<ele>4.545802</ele>
|
|
<time>2026-07-10T17:35:18.000Z</time>
|
|
</trkpt>
|
|
<trkpt lat="55.349207" lon="8.746242">
|
|
<ele>4.559828</ele>
|
|
<time>2026-07-10T17:35:19.000Z</time>
|
|
</trkpt>
|
|
<trkpt lat="55.349248" lon="8.746186">
|
|
<ele>4.573666</ele>
|
|
<time>2026-07-10T17:35:20.000Z</time>
|
|
</trkpt>
|
|
<trkpt lat="55.349292" lon="8.746129">
|
|
<ele>4.588234</ele>
|
|
<time>2026-07-10T17:35:21.000Z</time>
|
|
</trkpt>
|
|
<trkpt lat="55.349329" lon="8.746074">
|
|
<ele>4.601148</ele>
|
|
<time>2026-07-10T17:35:22.000Z</time>
|
|
</trkpt>
|
|
<trkpt lat="55.349364" lon="8.746016">
|
|
<ele>4.613967</ele>
|
|
<time>2026-07-10T17:35:23.000Z</time>
|
|
</trkpt>
|
|
<trkpt lat="55.349402" lon="8.745961">
|
|
<ele>4.627087</ele>
|
|
<time>2026-07-10T17:35:24.000Z</time>
|
|
</trkpt>
|
|
<trkpt lat="55.349440" lon="8.745899">
|
|
<ele>4.640904</ele>
|
|
<time>2026-07-10T17:35:25.000Z</time>
|
|
</trkpt>
|
|
<trkpt lat="55.349478" lon="8.745837">
|
|
<ele>4.654722</ele>
|
|
<time>2026-07-10T17:35:26.000Z</time>
|
|
</trkpt>
|
|
<trkpt lat="55.349516" lon="8.745771">
|
|
<ele>4.668959</ele>
|
|
<time>2026-07-10T17:35:27.000Z</time>
|
|
</trkpt>
|
|
<trkpt lat="55.349551" lon="8.745711">
|
|
<ele>4.681988</ele>
|
|
<time>2026-07-10T17:35:28.000Z</time>
|
|
</trkpt>
|
|
<trkpt lat="55.349585" lon="8.745648">
|
|
<ele>4.695153</ele>
|
|
<time>2026-07-10T17:35:29.000Z</time>
|
|
</trkpt>
|
|
<trkpt lat="55.349623" lon="8.745592">
|
|
<ele>4.708369</ele>
|
|
<time>2026-07-10T17:35:30.000Z</time>
|
|
</trkpt>
|
|
<trkpt lat="55.349662" lon="8.745540">
|
|
<ele>4.721415</ele>
|
|
<time>2026-07-10T17:35:31.000Z</time>
|
|
</trkpt>
|
|
<trkpt lat="55.349704" lon="8.745499">
|
|
<ele>4.734221</ele>
|
|
<time>2026-07-10T17:35:32.000Z</time>
|
|
</trkpt>
|
|
<trkpt lat="55.349749" lon="8.745467">
|
|
<ele>4.747160</ele>
|
|
<time>2026-07-10T17:35:33.000Z</time>
|
|
</trkpt>
|
|
<trkpt lat="55.349792" lon="8.745435">
|
|
<ele>4.747244</ele>
|
|
<time>2026-07-10T17:35:34.000Z</time>
|
|
</trkpt>
|
|
<trkpt lat="55.349843" lon="8.745403">
|
|
<ele>4.740471</ele>
|
|
<time>2026-07-10T17:35:35.000Z</time>
|
|
</trkpt>
|
|
<trkpt lat="55.349888" lon="8.745378">
|
|
<ele>4.734569</ele>
|
|
<time>2026-07-10T17:35:36.000Z</time>
|
|
</trkpt>
|
|
<trkpt lat="55.349933" lon="8.745353">
|
|
<ele>4.728666</ele>
|
|
<time>2026-07-10T17:35:37.000Z</time>
|
|
</trkpt>
|
|
<trkpt lat="55.349988" lon="8.745326">
|
|
<ele>4.721523</ele>
|
|
<time>2026-07-10T17:35:38.000Z</time>
|
|
</trkpt>
|
|
<trkpt lat="55.350038" lon="8.745302">
|
|
<ele>4.715040</ele>
|
|
<time>2026-07-10T17:35:39.000Z</time>
|
|
</trkpt>
|
|
<trkpt lat="55.350091" lon="8.745273">
|
|
<ele>4.708097</ele>
|
|
<time>2026-07-10T17:35:40.000Z</time>
|
|
</trkpt>
|
|
<trkpt lat="55.350142" lon="8.745243">
|
|
<ele>4.701371</ele>
|
|
<time>2026-07-10T17:35:41.000Z</time>
|
|
</trkpt>
|
|
<trkpt lat="55.350194" lon="8.745211">
|
|
<ele>4.694480</ele>
|
|
<time>2026-07-10T17:35:42.000Z</time>
|
|
</trkpt>
|
|
<trkpt lat="55.350244" lon="8.745181">
|
|
<ele>4.687872</ele>
|
|
<time>2026-07-10T17:35:43.000Z</time>
|
|
</trkpt>
|
|
<trkpt lat="55.350294" lon="8.745153">
|
|
<ele>4.681308</ele>
|
|
<time>2026-07-10T17:35:44.000Z</time>
|
|
</trkpt>
|
|
<trkpt lat="55.350343" lon="8.745126">
|
|
<ele>4.674885</ele>
|
|
<time>2026-07-10T17:35:45.000Z</time>
|
|
</trkpt>
|
|
<trkpt lat="55.350404" lon="8.745097">
|
|
<ele>4.666981</ele>
|
|
<time>2026-07-10T17:35:46.000Z</time>
|
|
</trkpt>
|
|
<trkpt lat="55.350454" lon="8.745070">
|
|
<ele>4.660439</ele>
|
|
<time>2026-07-10T17:35:47.000Z</time>
|
|
</trkpt>
|
|
<trkpt lat="55.350509" lon="8.745040">
|
|
<ele>4.653236</ele>
|
|
<time>2026-07-10T17:35:48.000Z</time>
|
|
</trkpt>
|
|
<trkpt lat="55.350560" lon="8.745013">
|
|
<ele>4.646574</ele>
|
|
<time>2026-07-10T17:35:49.000Z</time>
|
|
</trkpt>
|
|
<trkpt lat="55.350611" lon="8.744983">
|
|
<ele>4.639848</ele>
|
|
<time>2026-07-10T17:35:50.000Z</time>
|
|
</trkpt>
|
|
<trkpt lat="55.350665" lon="8.744952">
|
|
<ele>4.632742</ele>
|
|
<time>2026-07-10T17:35:51.000Z</time>
|
|
</trkpt>
|
|
<trkpt lat="55.350718" lon="8.744924">
|
|
<ele>4.625820</ele>
|
|
<time>2026-07-10T17:35:52.000Z</time>
|
|
</trkpt>
|
|
<trkpt lat="55.350768" lon="8.744896">
|
|
<ele>4.619257</ele>
|
|
<time>2026-07-10T17:35:53.000Z</time>
|
|
</trkpt>
|
|
<trkpt lat="55.350819" lon="8.744868">
|
|
<ele>4.612574</ele>
|
|
<time>2026-07-10T17:35:54.000Z</time>
|
|
</trkpt>
|
|
<trkpt lat="55.350870" lon="8.744838">
|
|
<ele>4.605847</ele>
|
|
<time>2026-07-10T17:35:55.000Z</time>
|
|
</trkpt>
|
|
<trkpt lat="55.350923" lon="8.744807">
|
|
<ele>4.598861</ele>
|
|
<time>2026-07-10T17:35:56.000Z</time>
|
|
</trkpt>
|
|
<trkpt lat="55.350974" lon="8.744779">
|
|
<ele>4.592178</ele>
|
|
<time>2026-07-10T17:35:57.000Z</time>
|
|
</trkpt>
|
|
<trkpt lat="55.351026" lon="8.744751">
|
|
<ele>4.585376</ele>
|
|
<time>2026-07-10T17:35:58.000Z</time>
|
|
</trkpt>
|
|
<trkpt lat="55.351078" lon="8.744723">
|
|
<ele>4.578574</ele>
|
|
<time>2026-07-10T17:35:59.000Z</time>
|
|
</trkpt>
|
|
<trkpt lat="55.351125" lon="8.744697">
|
|
<ele>4.572411</ele>
|
|
<time>2026-07-10T17:36:00.000Z</time>
|
|
</trkpt>
|
|
<trkpt lat="55.351183" lon="8.744666">
|
|
<ele>4.564828</ele>
|
|
<time>2026-07-10T17:36:01.000Z</time>
|
|
</trkpt>
|
|
<trkpt lat="55.351237" lon="8.744637">
|
|
<ele>4.557766</ele>
|
|
<time>2026-07-10T17:36:02.000Z</time>
|
|
</trkpt>
|
|
<trkpt lat="55.351286" lon="8.744608">
|
|
<ele>4.551299</ele>
|
|
<time>2026-07-10T17:36:03.000Z</time>
|
|
</trkpt>
|
|
<trkpt lat="55.351336" lon="8.744581">
|
|
<ele>4.544757</ele>
|
|
<time>2026-07-10T17:36:04.000Z</time>
|
|
</trkpt>
|
|
<trkpt lat="55.351389" lon="8.744551">
|
|
<ele>4.537793</ele>
|
|
<time>2026-07-10T17:36:05.000Z</time>
|
|
</trkpt>
|
|
<trkpt lat="55.351436" lon="8.744524">
|
|
<ele>4.531608</ele>
|
|
<time>2026-07-10T17:36:06.000Z</time>
|
|
</trkpt>
|
|
<trkpt lat="55.351491" lon="8.744495">
|
|
<ele>4.529108</ele>
|
|
<time>2026-07-10T17:36:07.000Z</time>
|
|
</trkpt>
|
|
<trkpt lat="55.351541" lon="8.744468">
|
|
<ele>4.539722</ele>
|
|
<time>2026-07-10T17:36:08.000Z</time>
|
|
</trkpt>
|
|
<trkpt lat="55.351594" lon="8.744440">
|
|
<ele>4.550951</ele>
|
|
<time>2026-07-10T17:36:09.000Z</time>
|
|
</trkpt>
|
|
<trkpt lat="55.351645" lon="8.744411">
|
|
<ele>4.561827</ele>
|
|
<time>2026-07-10T17:36:10.000Z</time>
|
|
</trkpt>
|
|
<trkpt lat="55.351694" lon="8.744383">
|
|
<ele>4.572281</ele>
|
|
<time>2026-07-10T17:36:11.000Z</time>
|
|
</trkpt>
|
|
<trkpt lat="55.351744" lon="8.744352">
|
|
<ele>4.583039</ele>
|
|
<time>2026-07-10T17:36:12.000Z</time>
|
|
</trkpt>
|
|
<trkpt lat="55.351798" lon="8.744324">
|
|
<ele>4.594463</ele>
|
|
<time>2026-07-10T17:36:13.000Z</time>
|
|
</trkpt>
|
|
<trkpt lat="55.351846" lon="8.744298">
|
|
<ele>4.604654</ele>
|
|
<time>2026-07-10T17:36:14.000Z</time>
|
|
</trkpt>
|
|
<trkpt lat="55.351900" lon="8.744269">
|
|
<ele>4.616111</ele>
|
|
<time>2026-07-10T17:36:15.000Z</time>
|
|
</trkpt>
|
|
<trkpt lat="55.351950" lon="8.744239">
|
|
<ele>4.626831</ele>
|
|
<time>2026-07-10T17:36:16.000Z</time>
|
|
</trkpt>
|
|
<trkpt lat="55.352003" lon="8.744212">
|
|
<ele>4.638028</ele>
|
|
<time>2026-07-10T17:36:17.000Z</time>
|
|
</trkpt>
|
|
<trkpt lat="55.352052" lon="8.744194">
|
|
<ele>4.648185</ele>
|
|
<time>2026-07-10T17:36:18.000Z</time>
|
|
</trkpt>
|
|
<trkpt lat="55.352106" lon="8.744179">
|
|
<ele>4.659279</ele>
|
|
<time>2026-07-10T17:36:19.000Z</time>
|
|
</trkpt>
|
|
<trkpt lat="55.352150" lon="8.744169">
|
|
<ele>4.668281</ele>
|
|
<time>2026-07-10T17:36:20.000Z</time>
|
|
</trkpt>
|
|
<trkpt lat="55.352205" lon="8.744157">
|
|
<ele>4.679527</ele>
|
|
<time>2026-07-10T17:36:21.000Z</time>
|
|
</trkpt>
|
|
<trkpt lat="55.352255" lon="8.744146">
|
|
<ele>4.689752</ele>
|
|
<time>2026-07-10T17:36:22.000Z</time>
|
|
</trkpt>
|
|
<trkpt lat="55.352310" lon="8.744133">
|
|
<ele>4.701013</ele>
|
|
<time>2026-07-10T17:36:23.000Z</time>
|
|
</trkpt>
|
|
<trkpt lat="55.352358" lon="8.744122">
|
|
<ele>4.710835</ele>
|
|
<time>2026-07-10T17:36:24.000Z</time>
|
|
</trkpt>
|
|
<trkpt lat="55.352411" lon="8.744112">
|
|
<ele>4.721651</ele>
|
|
<time>2026-07-10T17:36:25.000Z</time>
|
|
</trkpt>
|
|
<trkpt lat="55.352464" lon="8.744107">
|
|
<ele>4.732421</ele>
|
|
<time>2026-07-10T17:36:26.000Z</time>
|
|
</trkpt>
|
|
<trkpt lat="55.352518" lon="8.744106">
|
|
<ele>4.743380</ele>
|
|
<time>2026-07-10T17:36:27.000Z</time>
|
|
</trkpt>
|
|
<trkpt lat="55.352571" lon="8.744108">
|
|
<ele>4.754137</ele>
|
|
<time>2026-07-10T17:36:28.000Z</time>
|
|
</trkpt>
|
|
<trkpt lat="55.352624" lon="8.744110">
|
|
<ele>4.764894</ele>
|
|
<time>2026-07-10T17:36:29.000Z</time>
|
|
</trkpt>
|
|
<trkpt lat="55.352665" lon="8.744110">
|
|
<ele>4.773213</ele>
|
|
<time>2026-07-10T17:36:30.000Z</time>
|
|
</trkpt>
|
|
<trkpt lat="55.352730" lon="8.744112">
|
|
<ele>4.786405</ele>
|
|
<time>2026-07-10T17:36:31.000Z</time>
|
|
</trkpt>
|
|
<trkpt lat="55.352786" lon="8.744118">
|
|
<ele>4.797789</ele>
|
|
<time>2026-07-10T17:36:32.000Z</time>
|
|
</trkpt>
|
|
<trkpt lat="55.352838" lon="8.744125">
|
|
<ele>4.808372</ele>
|
|
<time>2026-07-10T17:36:33.000Z</time>
|
|
</trkpt>
|
|
<trkpt lat="55.352892" lon="8.744134">
|
|
<ele>4.819379</ele>
|
|
<time>2026-07-10T17:36:34.000Z</time>
|
|
</trkpt>
|
|
<trkpt lat="55.352948" lon="8.744143">
|
|
<ele>4.830789</ele>
|
|
<time>2026-07-10T17:36:35.000Z</time>
|
|
</trkpt>
|
|
<trkpt lat="55.353003" lon="8.744153">
|
|
<ele>4.842009</ele>
|
|
<time>2026-07-10T17:36:36.000Z</time>
|
|
</trkpt>
|
|
<trkpt lat="55.353056" lon="8.744161">
|
|
<ele>4.852803</ele>
|
|
<time>2026-07-10T17:36:37.000Z</time>
|
|
</trkpt>
|
|
<trkpt lat="55.353110" lon="8.744172">
|
|
<ele>4.863834</ele>
|
|
<time>2026-07-10T17:36:38.000Z</time>
|
|
</trkpt>
|
|
<trkpt lat="55.353163" lon="8.744180">
|
|
<ele>4.874628</ele>
|
|
<time>2026-07-10T17:36:39.000Z</time>
|
|
</trkpt>
|
|
<trkpt lat="55.353221" lon="8.744190">
|
|
<ele>4.886454</ele>
|
|
<time>2026-07-10T17:36:40.000Z</time>
|
|
</trkpt>
|
|
<trkpt lat="55.353274" lon="8.744201">
|
|
<ele>4.904512</ele>
|
|
<time>2026-07-10T17:36:41.000Z</time>
|
|
</trkpt>
|
|
<trkpt lat="55.353330" lon="8.744211">
|
|
<ele>4.929480</ele>
|
|
<time>2026-07-10T17:36:42.000Z</time>
|
|
</trkpt>
|
|
<trkpt lat="55.353384" lon="8.744226">
|
|
<ele>4.953729</ele>
|
|
<time>2026-07-10T17:36:43.000Z</time>
|
|
</trkpt>
|
|
<trkpt lat="55.353437" lon="8.744247">
|
|
<ele>4.977827</ele>
|
|
<time>2026-07-10T17:36:44.000Z</time>
|
|
</trkpt>
|
|
<trkpt lat="55.353491" lon="8.744268">
|
|
<ele>5.002358</ele>
|
|
<time>2026-07-10T17:36:45.000Z</time>
|
|
</trkpt>
|
|
<trkpt lat="55.353547" lon="8.744284">
|
|
<ele>5.027524</ele>
|
|
<time>2026-07-10T17:36:46.000Z</time>
|
|
</trkpt>
|
|
<trkpt lat="55.353601" lon="8.744299">
|
|
<ele>5.051773</ele>
|
|
<time>2026-07-10T17:36:47.000Z</time>
|
|
</trkpt>
|
|
<trkpt lat="55.353654" lon="8.744311">
|
|
<ele>5.075476</ele>
|
|
<time>2026-07-10T17:36:48.000Z</time>
|
|
</trkpt>
|
|
<trkpt lat="55.353708" lon="8.744323">
|
|
<ele>5.099619</ele>
|
|
<time>2026-07-10T17:36:49.000Z</time>
|
|
</trkpt>
|
|
<trkpt lat="55.353765" lon="8.744336">
|
|
<ele>5.125114</ele>
|
|
<time>2026-07-10T17:36:50.000Z</time>
|
|
</trkpt>
|
|
<trkpt lat="55.353823" lon="8.744350">
|
|
<ele>5.151082</ele>
|
|
<time>2026-07-10T17:36:51.000Z</time>
|
|
</trkpt>
|
|
<trkpt lat="55.353875" lon="8.744361">
|
|
<ele>5.174313</ele>
|
|
<time>2026-07-10T17:36:52.000Z</time>
|
|
</trkpt>
|
|
<trkpt lat="55.353929" lon="8.744373">
|
|
<ele>5.198456</ele>
|
|
<time>2026-07-10T17:36:53.000Z</time>
|
|
</trkpt>
|
|
<trkpt lat="55.353982" lon="8.744382">
|
|
<ele>5.222075</ele>
|
|
<time>2026-07-10T17:36:54.000Z</time>
|
|
</trkpt>
|
|
<trkpt lat="55.354036" lon="8.744391">
|
|
<ele>5.246135</ele>
|
|
<time>2026-07-10T17:36:55.000Z</time>
|
|
</trkpt>
|
|
<trkpt lat="55.354090" lon="8.744403">
|
|
<ele>5.270277</ele>
|
|
<time>2026-07-10T17:36:56.000Z</time>
|
|
</trkpt>
|
|
<trkpt lat="55.354143" lon="8.744415">
|
|
<ele>5.293980</ele>
|
|
<time>2026-07-10T17:36:57.000Z</time>
|
|
</trkpt>
|
|
<trkpt lat="55.354195" lon="8.744428">
|
|
<ele>5.317278</ele>
|
|
<time>2026-07-10T17:36:58.000Z</time>
|
|
</trkpt>
|
|
<trkpt lat="55.354246" lon="8.744441">
|
|
<ele>5.340136</ele>
|
|
<time>2026-07-10T17:36:59.000Z</time>
|
|
</trkpt>
|
|
<trkpt lat="55.354299" lon="8.744453">
|
|
<ele>5.363839</ele>
|
|
<time>2026-07-10T17:37:00.000Z</time>
|
|
</trkpt>
|
|
<trkpt lat="55.354349" lon="8.744466">
|
|
<ele>5.386258</ele>
|
|
<time>2026-07-10T17:37:01.000Z</time>
|
|
</trkpt>
|
|
<trkpt lat="55.354402" lon="8.744481">
|
|
<ele>5.410069</ele>
|
|
<time>2026-07-10T17:37:02.000Z</time>
|
|
</trkpt>
|
|
<trkpt lat="55.354451" lon="8.744491">
|
|
<ele>5.431950</ele>
|
|
<time>2026-07-10T17:37:03.000Z</time>
|
|
</trkpt>
|
|
<trkpt lat="55.354505" lon="8.744503">
|
|
<ele>5.456093</ele>
|
|
<time>2026-07-10T17:37:04.000Z</time>
|
|
</trkpt>
|
|
<trkpt lat="55.354554" lon="8.744513">
|
|
<ele>5.477973</ele>
|
|
<time>2026-07-10T17:37:05.000Z</time>
|
|
</trkpt>
|
|
<trkpt lat="55.354609" lon="8.744525">
|
|
<ele>5.502557</ele>
|
|
<time>2026-07-10T17:37:06.000Z</time>
|
|
</trkpt>
|
|
<trkpt lat="55.354662" lon="8.744538">
|
|
<ele>5.526293</ele>
|
|
<time>2026-07-10T17:37:07.000Z</time>
|
|
</trkpt>
|
|
<trkpt lat="55.354715" lon="8.744551">
|
|
<ele>5.550029</ele>
|
|
<time>2026-07-10T17:37:08.000Z</time>
|
|
</trkpt>
|
|
<trkpt lat="55.354768" lon="8.744564">
|
|
<ele>5.573766</ele>
|
|
<time>2026-07-10T17:37:09.000Z</time>
|
|
</trkpt>
|
|
<trkpt lat="55.354822" lon="8.744577">
|
|
<ele>5.597942</ele>
|
|
<time>2026-07-10T17:37:10.000Z</time>
|
|
</trkpt>
|
|
<trkpt lat="55.354880" lon="8.744589">
|
|
<ele>5.623846</ele>
|
|
<time>2026-07-10T17:37:11.000Z</time>
|
|
</trkpt>
|
|
<trkpt lat="55.354933" lon="8.744603">
|
|
<ele>5.647619</ele>
|
|
<time>2026-07-10T17:37:12.000Z</time>
|
|
</trkpt>
|
|
<trkpt lat="55.354986" lon="8.744614">
|
|
<ele>5.671291</ele>
|
|
<time>2026-07-10T17:37:13.000Z</time>
|
|
</trkpt>
|
|
<trkpt lat="55.355041" lon="8.744627">
|
|
<ele>5.684062</ele>
|
|
<time>2026-07-10T17:37:14.000Z</time>
|
|
</trkpt>
|
|
<trkpt lat="55.355096" lon="8.744641">
|
|
<ele>5.666408</ele>
|
|
<time>2026-07-10T17:37:15.000Z</time>
|
|
</trkpt>
|
|
<trkpt lat="55.355148" lon="8.744656">
|
|
<ele>5.649669</ele>
|
|
<time>2026-07-10T17:37:16.000Z</time>
|
|
</trkpt>
|
|
<trkpt lat="55.355202" lon="8.744669">
|
|
<ele>5.632356</ele>
|
|
<time>2026-07-10T17:37:17.000Z</time>
|
|
</trkpt>
|
|
<trkpt lat="55.355257" lon="8.744683">
|
|
<ele>5.614702</ele>
|
|
<time>2026-07-10T17:37:18.000Z</time>
|
|
</trkpt>
|
|
<trkpt lat="55.355310" lon="8.744694">
|
|
<ele>5.597750</ele>
|
|
<time>2026-07-10T17:37:19.000Z</time>
|
|
</trkpt>
|
|
<trkpt lat="55.355363" lon="8.744707">
|
|
<ele>5.580751</ele>
|
|
<time>2026-07-10T17:37:20.000Z</time>
|
|
</trkpt>
|
|
<trkpt lat="55.355417" lon="8.744721">
|
|
<ele>5.563412</ele>
|
|
<time>2026-07-10T17:37:21.000Z</time>
|
|
</trkpt>
|
|
<trkpt lat="55.355470" lon="8.744734">
|
|
<ele>5.546413</ele>
|
|
<time>2026-07-10T17:37:22.000Z</time>
|
|
</trkpt>
|
|
<trkpt lat="55.355524" lon="8.744745">
|
|
<ele>5.529144</ele>
|
|
<time>2026-07-10T17:37:23.000Z</time>
|
|
</trkpt>
|
|
<trkpt lat="55.355568" lon="8.744756">
|
|
<ele>5.515027</ele>
|
|
<time>2026-07-10T17:37:24.000Z</time>
|
|
</trkpt>
|
|
<trkpt lat="55.355630" lon="8.744771">
|
|
<ele>5.495146</ele>
|
|
<time>2026-07-10T17:37:25.000Z</time>
|
|
</trkpt>
|
|
<trkpt lat="55.355684" lon="8.744786">
|
|
<ele>5.477780</ele>
|
|
<time>2026-07-10T17:37:26.000Z</time>
|
|
</trkpt>
|
|
<trkpt lat="55.355737" lon="8.744799">
|
|
<ele>5.460781</ele>
|
|
<time>2026-07-10T17:37:27.000Z</time>
|
|
</trkpt>
|
|
<trkpt lat="55.355791" lon="8.744811">
|
|
<ele>5.443491</ele>
|
|
<time>2026-07-10T17:37:28.000Z</time>
|
|
</trkpt>
|
|
<trkpt lat="55.355846" lon="8.744826">
|
|
<ele>5.425811</ele>
|
|
<time>2026-07-10T17:37:29.000Z</time>
|
|
</trkpt>
|
|
<trkpt lat="55.355897" lon="8.744843">
|
|
<ele>5.409322</ele>
|
|
<time>2026-07-10T17:37:30.000Z</time>
|
|
</trkpt>
|
|
<trkpt lat="55.355951" lon="8.744856">
|
|
<ele>5.392008</ele>
|
|
<time>2026-07-10T17:37:31.000Z</time>
|
|
</trkpt>
|
|
<trkpt lat="55.356004" lon="8.744868">
|
|
<ele>5.375033</ele>
|
|
<time>2026-07-10T17:37:32.000Z</time>
|
|
</trkpt>
|
|
<trkpt lat="55.356058" lon="8.744878">
|
|
<ele>5.357785</ele>
|
|
<time>2026-07-10T17:37:33.000Z</time>
|
|
</trkpt>
|
|
<trkpt lat="55.356111" lon="8.744892">
|
|
<ele>5.340760</ele>
|
|
<time>2026-07-10T17:37:34.000Z</time>
|
|
</trkpt>
|
|
<trkpt lat="55.356168" lon="8.744905">
|
|
<ele>5.322502</ele>
|
|
<time>2026-07-10T17:37:35.000Z</time>
|
|
</trkpt>
|
|
<trkpt lat="55.356222" lon="8.744917">
|
|
<ele>5.305212</ele>
|
|
<time>2026-07-10T17:37:36.000Z</time>
|
|
</trkpt>
|
|
<trkpt lat="55.356280" lon="8.744930">
|
|
<ele>5.286638</ele>
|
|
<time>2026-07-10T17:37:37.000Z</time>
|
|
</trkpt>
|
|
<trkpt lat="55.356331" lon="8.744943">
|
|
<ele>5.270268</ele>
|
|
<time>2026-07-10T17:37:38.000Z</time>
|
|
</trkpt>
|
|
<trkpt lat="55.356387" lon="8.744957">
|
|
<ele>5.252300</ele>
|
|
<time>2026-07-10T17:37:39.000Z</time>
|
|
</trkpt>
|
|
<trkpt lat="55.356439" lon="8.744970">
|
|
<ele>5.235616</ele>
|
|
<time>2026-07-10T17:37:40.000Z</time>
|
|
</trkpt>
|
|
<trkpt lat="55.356492" lon="8.744983">
|
|
<ele>5.218617</ele>
|
|
<time>2026-07-10T17:37:41.000Z</time>
|
|
</trkpt>
|
|
<trkpt lat="55.356547" lon="8.744997">
|
|
<ele>5.200964</ele>
|
|
<time>2026-07-10T17:37:42.000Z</time>
|
|
</trkpt>
|
|
<trkpt lat="55.356597" lon="8.745007">
|
|
<ele>5.184978</ele>
|
|
<time>2026-07-10T17:37:43.000Z</time>
|
|
</trkpt>
|
|
<trkpt lat="55.356649" lon="8.745018">
|
|
<ele>5.168341</ele>
|
|
<time>2026-07-10T17:37:44.000Z</time>
|
|
</trkpt>
|
|
<trkpt lat="55.356700" lon="8.745029">
|
|
<ele>5.152019</ele>
|
|
<time>2026-07-10T17:37:45.000Z</time>
|
|
</trkpt>
|
|
<trkpt lat="55.356756" lon="8.745041">
|
|
<ele>5.134098</ele>
|
|
<time>2026-07-10T17:37:46.000Z</time>
|
|
</trkpt>
|
|
<trkpt lat="55.356807" lon="8.745052">
|
|
<ele>5.117776</ele>
|
|
<time>2026-07-10T17:37:47.000Z</time>
|
|
</trkpt>
|
|
<trkpt lat="55.356864" lon="8.745064">
|
|
<ele>5.128635</ele>
|
|
<time>2026-07-10T17:37:48.000Z</time>
|
|
</trkpt>
|
|
<trkpt lat="55.356915" lon="8.745079">
|
|
<ele>5.138607</ele>
|
|
<time>2026-07-10T17:37:49.000Z</time>
|
|
</trkpt>
|
|
<trkpt lat="55.356961" lon="8.745091">
|
|
<ele>5.147576</ele>
|
|
<time>2026-07-10T17:37:50.000Z</time>
|
|
</trkpt>
|
|
<trkpt lat="55.357025" lon="8.745108">
|
|
<ele>5.160058</ele>
|
|
<time>2026-07-10T17:37:51.000Z</time>
|
|
</trkpt>
|
|
<trkpt lat="55.357081" lon="8.745122">
|
|
<ele>5.170966</ele>
|
|
<time>2026-07-10T17:37:52.000Z</time>
|
|
</trkpt>
|
|
<trkpt lat="55.357133" lon="8.745136">
|
|
<ele>5.181111</ele>
|
|
<time>2026-07-10T17:37:53.000Z</time>
|
|
</trkpt>
|
|
<trkpt lat="55.357187" lon="8.745151">
|
|
<ele>5.191654</ele>
|
|
<time>2026-07-10T17:37:54.000Z</time>
|
|
</trkpt>
|
|
<trkpt lat="55.357236" lon="8.745164">
|
|
<ele>5.201211</ele>
|
|
<time>2026-07-10T17:37:55.000Z</time>
|
|
</trkpt>
|
|
<trkpt lat="55.357290" lon="8.745178">
|
|
<ele>5.211737</ele>
|
|
<time>2026-07-10T17:37:56.000Z</time>
|
|
</trkpt>
|
|
<trkpt lat="55.357343" lon="8.745188">
|
|
<ele>5.222017</ele>
|
|
<time>2026-07-10T17:37:57.000Z</time>
|
|
</trkpt>
|
|
<trkpt lat="55.357393" lon="8.745198">
|
|
<ele>5.231722</ele>
|
|
<time>2026-07-10T17:37:58.000Z</time>
|
|
</trkpt>
|
|
<trkpt lat="55.357443" lon="8.745208">
|
|
<ele>5.241426</ele>
|
|
<time>2026-07-10T17:37:59.000Z</time>
|
|
</trkpt>
|
|
<trkpt lat="55.357491" lon="8.745220">
|
|
<ele>5.250776</ele>
|
|
<time>2026-07-10T17:38:00.000Z</time>
|
|
</trkpt>
|
|
<trkpt lat="55.357542" lon="8.745235">
|
|
<ele>5.260748</ele>
|
|
<time>2026-07-10T17:38:01.000Z</time>
|
|
</trkpt>
|
|
<trkpt lat="55.357592" lon="8.745246">
|
|
<ele>5.270466</ele>
|
|
<time>2026-07-10T17:38:02.000Z</time>
|
|
</trkpt>
|
|
<trkpt lat="55.357638" lon="8.745258">
|
|
<ele>5.279434</ele>
|
|
<time>2026-07-10T17:38:03.000Z</time>
|
|
</trkpt>
|
|
<trkpt lat="55.357683" lon="8.745267">
|
|
<ele>5.288168</ele>
|
|
<time>2026-07-10T17:38:04.000Z</time>
|
|
</trkpt>
|
|
<trkpt lat="55.357725" lon="8.745274">
|
|
<ele>5.296304</ele>
|
|
<time>2026-07-10T17:38:05.000Z</time>
|
|
</trkpt>
|
|
<trkpt lat="55.357772" lon="8.745280">
|
|
<ele>5.305392</ele>
|
|
<time>2026-07-10T17:38:06.000Z</time>
|
|
</trkpt>
|
|
<trkpt lat="55.357814" lon="8.745277">
|
|
<ele>5.313498</ele>
|
|
<time>2026-07-10T17:38:07.000Z</time>
|
|
</trkpt>
|
|
<trkpt lat="55.357858" lon="8.745262">
|
|
<ele>5.322142</ele>
|
|
<time>2026-07-10T17:38:08.000Z</time>
|
|
</trkpt>
|
|
<trkpt lat="55.357898" lon="8.745231">
|
|
<ele>5.330571</ele>
|
|
<time>2026-07-10T17:38:09.000Z</time>
|
|
</trkpt>
|
|
<trkpt lat="55.357930" lon="8.745181">
|
|
<ele>5.338825</ele>
|
|
<time>2026-07-10T17:38:10.000Z</time>
|
|
</trkpt>
|
|
<trkpt lat="55.357959" lon="8.745111">
|
|
<ele>5.348321</ele>
|
|
<time>2026-07-10T17:38:11.000Z</time>
|
|
</trkpt>
|
|
<trkpt lat="55.357974" lon="8.745037">
|
|
<ele>5.356934</ele>
|
|
<time>2026-07-10T17:38:12.000Z</time>
|
|
</trkpt>
|
|
<trkpt lat="55.357979" lon="8.744960">
|
|
<ele>5.365430</ele>
|
|
<time>2026-07-10T17:38:13.000Z</time>
|
|
</trkpt>
|
|
<trkpt lat="55.357979" lon="8.744876">
|
|
<ele>5.374638</ele>
|
|
<time>2026-07-10T17:38:14.000Z</time>
|
|
</trkpt>
|
|
<trkpt lat="55.357979" lon="8.744797">
|
|
<ele>5.383299</ele>
|
|
<time>2026-07-10T17:38:15.000Z</time>
|
|
</trkpt>
|
|
<trkpt lat="55.357982" lon="8.744716">
|
|
<ele>5.392197</ele>
|
|
<time>2026-07-10T17:38:16.000Z</time>
|
|
</trkpt>
|
|
<trkpt lat="55.357983" lon="8.744631">
|
|
<ele>5.401517</ele>
|
|
<time>2026-07-10T17:38:17.000Z</time>
|
|
</trkpt>
|
|
<trkpt lat="55.357983" lon="8.744547">
|
|
<ele>5.410726</ele>
|
|
<time>2026-07-10T17:38:18.000Z</time>
|
|
</trkpt>
|
|
<trkpt lat="55.357979" lon="8.744463">
|
|
<ele>5.419967</ele>
|
|
<time>2026-07-10T17:38:19.000Z</time>
|
|
</trkpt>
|
|
<trkpt lat="55.357975" lon="8.744381">
|
|
<ele>5.428989</ele>
|
|
<time>2026-07-10T17:38:20.000Z</time>
|
|
</trkpt>
|
|
<trkpt lat="55.357975" lon="8.744301">
|
|
<ele>5.437759</ele>
|
|
<time>2026-07-10T17:38:21.000Z</time>
|
|
</trkpt>
|
|
<trkpt lat="55.357971" lon="8.744210">
|
|
<ele>5.447765</ele>
|
|
<time>2026-07-10T17:38:22.000Z</time>
|
|
</trkpt>
|
|
<trkpt lat="55.357968" lon="8.744122">
|
|
<ele>5.457429</ele>
|
|
<time>2026-07-10T17:38:23.000Z</time>
|
|
</trkpt>
|
|
<trkpt lat="55.357967" lon="8.744036">
|
|
<ele>5.461347</ele>
|
|
<time>2026-07-10T17:38:24.000Z</time>
|
|
</trkpt>
|
|
<trkpt lat="55.357964" lon="8.743955">
|
|
<ele>5.449318</ele>
|
|
<time>2026-07-10T17:38:25.000Z</time>
|
|
</trkpt>
|
|
<trkpt lat="55.357960" lon="8.743860">
|
|
<ele>5.435201</ele>
|
|
<time>2026-07-10T17:38:26.000Z</time>
|
|
</trkpt>
|
|
<trkpt lat="55.357956" lon="8.743776">
|
|
<ele>5.422709</ele>
|
|
<time>2026-07-10T17:38:27.000Z</time>
|
|
</trkpt>
|
|
<trkpt lat="55.357952" lon="8.743690">
|
|
<ele>5.409922</ele>
|
|
<time>2026-07-10T17:38:28.000Z</time>
|
|
</trkpt>
|
|
<trkpt lat="55.357948" lon="8.743605">
|
|
<ele>5.397283</ele>
|
|
<time>2026-07-10T17:38:29.000Z</time>
|
|
</trkpt>
|
|
<trkpt lat="55.357948" lon="8.743521">
|
|
<ele>5.384835</ele>
|
|
<time>2026-07-10T17:38:30.000Z</time>
|
|
</trkpt>
|
|
<trkpt lat="55.357948" lon="8.743427">
|
|
<ele>5.370905</ele>
|
|
<time>2026-07-10T17:38:31.000Z</time>
|
|
</trkpt>
|
|
<trkpt lat="55.357945" lon="8.743340">
|
|
<ele>5.357988</ele>
|
|
<time>2026-07-10T17:38:32.000Z</time>
|
|
</trkpt>
|
|
<trkpt lat="55.357941" lon="8.743252">
|
|
<ele>5.344906</ele>
|
|
<time>2026-07-10T17:38:33.000Z</time>
|
|
</trkpt>
|
|
<trkpt lat="55.357937" lon="8.743158">
|
|
<ele>5.330937</ele>
|
|
<time>2026-07-10T17:38:34.000Z</time>
|
|
</trkpt>
|
|
<trkpt lat="55.357937" lon="8.743067">
|
|
<ele>5.317451</ele>
|
|
<time>2026-07-10T17:38:35.000Z</time>
|
|
</trkpt>
|
|
<trkpt lat="55.357937" lon="8.742978">
|
|
<ele>5.304262</ele>
|
|
<time>2026-07-10T17:38:36.000Z</time>
|
|
</trkpt>
|
|
<trkpt lat="55.357937" lon="8.742883">
|
|
<ele>5.290184</ele>
|
|
<time>2026-07-10T17:38:37.000Z</time>
|
|
</trkpt>
|
|
<trkpt lat="55.357937" lon="8.742795">
|
|
<ele>5.277143</ele>
|
|
<time>2026-07-10T17:38:38.000Z</time>
|
|
</trkpt>
|
|
<trkpt lat="55.357937" lon="8.742702">
|
|
<ele>5.263361</ele>
|
|
<time>2026-07-10T17:38:39.000Z</time>
|
|
</trkpt>
|
|
<trkpt lat="55.357937" lon="8.742609">
|
|
<ele>5.249579</ele>
|
|
<time>2026-07-10T17:38:40.000Z</time>
|
|
</trkpt>
|
|
<trkpt lat="55.357941" lon="8.742516">
|
|
<ele>5.235758</ele>
|
|
<time>2026-07-10T17:38:41.000Z</time>
|
|
</trkpt>
|
|
<trkpt lat="55.357941" lon="8.742421">
|
|
<ele>5.221679</ele>
|
|
<time>2026-07-10T17:38:42.000Z</time>
|
|
</trkpt>
|
|
<trkpt lat="55.357948" lon="8.742327">
|
|
<ele>5.207630</ele>
|
|
<time>2026-07-10T17:38:43.000Z</time>
|
|
</trkpt>
|
|
<trkpt lat="55.357956" lon="8.742231">
|
|
<ele>5.193252</ele>
|
|
<time>2026-07-10T17:38:44.000Z</time>
|
|
</trkpt>
|
|
<trkpt lat="55.357963" lon="8.742135">
|
|
<ele>5.178909</ele>
|
|
<time>2026-07-10T17:38:45.000Z</time>
|
|
</trkpt>
|
|
<trkpt lat="55.357960" lon="8.742041">
|
|
<ele>5.164957</ele>
|
|
<time>2026-07-10T17:38:46.000Z</time>
|
|
</trkpt>
|
|
<trkpt lat="55.357960" lon="8.741947">
|
|
<ele>5.151027</ele>
|
|
<time>2026-07-10T17:38:47.000Z</time>
|
|
</trkpt>
|
|
<trkpt lat="55.357956" lon="8.741855">
|
|
<ele>5.137353</ele>
|
|
<time>2026-07-10T17:38:48.000Z</time>
|
|
</trkpt>
|
|
<trkpt lat="55.357956" lon="8.741766">
|
|
<ele>5.124164</ele>
|
|
<time>2026-07-10T17:38:49.000Z</time>
|
|
</trkpt>
|
|
<trkpt lat="55.357956" lon="8.741677">
|
|
<ele>5.110975</ele>
|
|
<time>2026-07-10T17:38:50.000Z</time>
|
|
</trkpt>
|
|
<trkpt lat="55.357956" lon="8.741595">
|
|
<ele>5.098823</ele>
|
|
<time>2026-07-10T17:38:51.000Z</time>
|
|
</trkpt>
|
|
<trkpt lat="55.357956" lon="8.741501">
|
|
<ele>5.084893</ele>
|
|
<time>2026-07-10T17:38:52.000Z</time>
|
|
</trkpt>
|
|
<trkpt lat="55.357956" lon="8.741415">
|
|
<ele>5.072149</ele>
|
|
<time>2026-07-10T17:38:53.000Z</time>
|
|
</trkpt>
|
|
<trkpt lat="55.357956" lon="8.741328">
|
|
<ele>5.059256</ele>
|
|
<time>2026-07-10T17:38:54.000Z</time>
|
|
</trkpt>
|
|
<trkpt lat="55.357952" lon="8.741243">
|
|
<ele>5.046617</ele>
|
|
<time>2026-07-10T17:38:55.000Z</time>
|
|
</trkpt>
|
|
<trkpt lat="55.357952" lon="8.741159">
|
|
<ele>5.034168</ele>
|
|
<time>2026-07-10T17:38:56.000Z</time>
|
|
</trkpt>
|
|
<trkpt lat="55.357952" lon="8.741077">
|
|
<ele>5.022017</ele>
|
|
<time>2026-07-10T17:38:57.000Z</time>
|
|
</trkpt>
|
|
<trkpt lat="55.357952" lon="8.740996">
|
|
<ele>5.010013</ele>
|
|
<time>2026-07-10T17:38:58.000Z</time>
|
|
</trkpt>
|
|
<trkpt lat="55.357952" lon="8.740911">
|
|
<ele>4.997417</ele>
|
|
<time>2026-07-10T17:38:59.000Z</time>
|
|
</trkpt>
|
|
<trkpt lat="55.357949" lon="8.740828">
|
|
<ele>4.995005</ele>
|
|
<time>2026-07-10T17:39:00.000Z</time>
|
|
</trkpt>
|
|
<trkpt lat="55.357948" lon="8.740738">
|
|
<ele>4.994231</ele>
|
|
<time>2026-07-10T17:39:01.000Z</time>
|
|
</trkpt>
|
|
<trkpt lat="55.357948" lon="8.740652">
|
|
<ele>4.993491</ele>
|
|
<time>2026-07-10T17:39:02.000Z</time>
|
|
</trkpt>
|
|
<trkpt lat="55.357945" lon="8.740566">
|
|
<ele>4.992750</ele>
|
|
<time>2026-07-10T17:39:03.000Z</time>
|
|
</trkpt>
|
|
<trkpt lat="55.357941" lon="8.740475">
|
|
<ele>4.991965</ele>
|
|
<time>2026-07-10T17:39:04.000Z</time>
|
|
</trkpt>
|
|
<trkpt lat="55.357941" lon="8.740391">
|
|
<ele>4.991243</ele>
|
|
<time>2026-07-10T17:39:05.000Z</time>
|
|
</trkpt>
|
|
<trkpt lat="55.357937" lon="8.740300">
|
|
<ele>4.990458</ele>
|
|
<time>2026-07-10T17:39:06.000Z</time>
|
|
</trkpt>
|
|
<trkpt lat="55.357937" lon="8.740211">
|
|
<ele>4.989692</ele>
|
|
<time>2026-07-10T17:39:07.000Z</time>
|
|
</trkpt>
|
|
<trkpt lat="55.357937" lon="8.740127">
|
|
<ele>4.988970</ele>
|
|
<time>2026-07-10T17:39:08.000Z</time>
|
|
</trkpt>
|
|
<trkpt lat="55.357933" lon="8.740037">
|
|
<ele>4.988193</ele>
|
|
<time>2026-07-10T17:39:09.000Z</time>
|
|
</trkpt>
|
|
<trkpt lat="55.357929" lon="8.739951">
|
|
<ele>4.987451</ele>
|
|
<time>2026-07-10T17:39:10.000Z</time>
|
|
</trkpt>
|
|
<trkpt lat="55.357929" lon="8.739862">
|
|
<ele>4.986686</ele>
|
|
<time>2026-07-10T17:39:11.000Z</time>
|
|
</trkpt>
|
|
<trkpt lat="55.357929" lon="8.739775">
|
|
<ele>4.985938</ele>
|
|
<time>2026-07-10T17:39:12.000Z</time>
|
|
</trkpt>
|
|
<trkpt lat="55.357929" lon="8.739685">
|
|
<ele>4.985164</ele>
|
|
<time>2026-07-10T17:39:13.000Z</time>
|
|
</trkpt>
|
|
<trkpt lat="55.357926" lon="8.739598">
|
|
<ele>4.984414</ele>
|
|
<time>2026-07-10T17:39:14.000Z</time>
|
|
</trkpt>
|
|
<trkpt lat="55.357922" lon="8.739512">
|
|
<ele>4.983672</ele>
|
|
<time>2026-07-10T17:39:15.000Z</time>
|
|
</trkpt>
|
|
<trkpt lat="55.357922" lon="8.739424">
|
|
<ele>4.982915</ele>
|
|
<time>2026-07-10T17:39:16.000Z</time>
|
|
</trkpt>
|
|
<trkpt lat="55.357918" lon="8.739335">
|
|
<ele>4.982147</ele>
|
|
<time>2026-07-10T17:39:17.000Z</time>
|
|
</trkpt>
|
|
<trkpt lat="55.357918" lon="8.739247">
|
|
<ele>4.981390</ele>
|
|
<time>2026-07-10T17:39:18.000Z</time>
|
|
</trkpt>
|
|
<trkpt lat="55.357914" lon="8.739154">
|
|
<ele>4.980588</ele>
|
|
<time>2026-07-10T17:39:19.000Z</time>
|
|
</trkpt>
|
|
<trkpt lat="55.357914" lon="8.739063">
|
|
<ele>4.979806</ele>
|
|
<time>2026-07-10T17:39:20.000Z</time>
|
|
</trkpt>
|
|
<trkpt lat="55.357914" lon="8.738971">
|
|
<ele>4.979014</ele>
|
|
<time>2026-07-10T17:39:21.000Z</time>
|
|
</trkpt>
|
|
<trkpt lat="55.357910" lon="8.738877">
|
|
<ele>4.978204</ele>
|
|
<time>2026-07-10T17:39:22.000Z</time>
|
|
</trkpt>
|
|
<trkpt lat="55.357910" lon="8.738786">
|
|
<ele>4.977421</ele>
|
|
<time>2026-07-10T17:39:23.000Z</time>
|
|
</trkpt>
|
|
<trkpt lat="55.357903" lon="8.738698">
|
|
<ele>4.976657</ele>
|
|
<time>2026-07-10T17:39:24.000Z</time>
|
|
</trkpt>
|
|
<trkpt lat="55.357895" lon="8.738607">
|
|
<ele>4.975865</ele>
|
|
<time>2026-07-10T17:39:25.000Z</time>
|
|
</trkpt>
|
|
<trkpt lat="55.357884" lon="8.738517">
|
|
<ele>4.975073</ele>
|
|
<time>2026-07-10T17:39:26.000Z</time>
|
|
</trkpt>
|
|
<trkpt lat="55.357876" lon="8.738433">
|
|
<ele>4.974341</ele>
|
|
<time>2026-07-10T17:39:27.000Z</time>
|
|
</trkpt>
|
|
<trkpt lat="55.357868" lon="8.738338">
|
|
<ele>4.973515</ele>
|
|
<time>2026-07-10T17:39:28.000Z</time>
|
|
</trkpt>
|
|
<trkpt lat="55.357865" lon="8.738251">
|
|
<ele>4.972765</ele>
|
|
<time>2026-07-10T17:39:29.000Z</time>
|
|
</trkpt>
|
|
<trkpt lat="55.357864" lon="8.738161">
|
|
<ele>4.971991</ele>
|
|
<time>2026-07-10T17:39:30.000Z</time>
|
|
</trkpt>
|
|
<trkpt lat="55.357864" lon="8.738076">
|
|
<ele>4.971260</ele>
|
|
<time>2026-07-10T17:39:31.000Z</time>
|
|
</trkpt>
|
|
<trkpt lat="55.357868" lon="8.737992">
|
|
<ele>4.970535</ele>
|
|
<time>2026-07-10T17:39:32.000Z</time>
|
|
</trkpt>
|
|
<trkpt lat="55.357868" lon="8.737906">
|
|
<ele>4.969795</ele>
|
|
<time>2026-07-10T17:39:33.000Z</time>
|
|
</trkpt>
|
|
<trkpt lat="55.357875" lon="8.737827">
|
|
<ele>4.969108</ele>
|
|
<time>2026-07-10T17:39:34.000Z</time>
|
|
</trkpt>
|
|
<trkpt lat="55.357879" lon="8.737748">
|
|
<ele>4.968426</ele>
|
|
<time>2026-07-10T17:39:35.000Z</time>
|
|
</trkpt>
|
|
<trkpt lat="55.357883" lon="8.737664">
|
|
<ele>4.947853</ele>
|
|
<time>2026-07-10T17:39:36.000Z</time>
|
|
</trkpt>
|
|
<trkpt lat="55.357883" lon="8.737581">
|
|
<ele>4.926966</ele>
|
|
<time>2026-07-10T17:39:37.000Z</time>
|
|
</trkpt>
|
|
<trkpt lat="55.357887" lon="8.737495">
|
|
<ele>4.905251</ele>
|
|
<time>2026-07-10T17:39:38.000Z</time>
|
|
</trkpt>
|
|
<trkpt lat="55.357884" lon="8.737412">
|
|
<ele>4.884322</ele>
|
|
<time>2026-07-10T17:39:39.000Z</time>
|
|
</trkpt>
|
|
<trkpt lat="55.357883" lon="8.737329">
|
|
<ele>4.863430</ele>
|
|
<time>2026-07-10T17:39:40.000Z</time>
|
|
</trkpt>
|
|
<trkpt lat="55.357883" lon="8.737251">
|
|
<ele>4.843801</ele>
|
|
<time>2026-07-10T17:39:41.000Z</time>
|
|
</trkpt>
|
|
<trkpt lat="55.357883" lon="8.737174">
|
|
<ele>4.824423</ele>
|
|
<time>2026-07-10T17:39:42.000Z</time>
|
|
</trkpt>
|
|
<trkpt lat="55.357883" lon="8.737099">
|
|
<ele>4.805549</ele>
|
|
<time>2026-07-10T17:39:43.000Z</time>
|
|
</trkpt>
|
|
<trkpt lat="55.357883" lon="8.737020">
|
|
<ele>4.785669</ele>
|
|
<time>2026-07-10T17:39:44.000Z</time>
|
|
</trkpt>
|
|
<trkpt lat="55.357883" lon="8.736948">
|
|
<ele>4.767550</ele>
|
|
<time>2026-07-10T17:39:45.000Z</time>
|
|
</trkpt>
|
|
<trkpt lat="55.357883" lon="8.736869">
|
|
<ele>4.747669</ele>
|
|
<time>2026-07-10T17:39:46.000Z</time>
|
|
</trkpt>
|
|
<trkpt lat="55.357880" lon="8.736800">
|
|
<ele>4.730254</ele>
|
|
<time>2026-07-10T17:39:47.000Z</time>
|
|
</trkpt>
|
|
<trkpt lat="55.357880" lon="8.736729">
|
|
<ele>4.712387</ele>
|
|
<time>2026-07-10T17:39:48.000Z</time>
|
|
</trkpt>
|
|
<trkpt lat="55.357880" lon="8.736664">
|
|
<ele>4.696029</ele>
|
|
<time>2026-07-10T17:39:49.000Z</time>
|
|
</trkpt>
|
|
<trkpt lat="55.357876" lon="8.736593">
|
|
<ele>4.678074</ele>
|
|
<time>2026-07-10T17:39:50.000Z</time>
|
|
</trkpt>
|
|
<trkpt lat="55.357876" lon="8.736527">
|
|
<ele>4.661465</ele>
|
|
<time>2026-07-10T17:39:51.000Z</time>
|
|
</trkpt>
|
|
<trkpt lat="55.357872" lon="8.736461">
|
|
<ele>4.644762</ele>
|
|
<time>2026-07-10T17:39:52.000Z</time>
|
|
</trkpt>
|
|
<trkpt lat="55.357872" lon="8.736405">
|
|
<ele>4.630669</ele>
|
|
<time>2026-07-10T17:39:53.000Z</time>
|
|
</trkpt>
|
|
<trkpt lat="55.357872" lon="8.736346">
|
|
<ele>4.615822</ele>
|
|
<time>2026-07-10T17:39:54.000Z</time>
|
|
</trkpt>
|
|
<trkpt lat="55.357872" lon="8.736298">
|
|
<ele>4.603742</ele>
|
|
<time>2026-07-10T17:39:55.000Z</time>
|
|
</trkpt>
|
|
<trkpt lat="55.357872" lon="8.736252">
|
|
<ele>4.592166</ele>
|
|
<time>2026-07-10T17:39:56.000Z</time>
|
|
</trkpt>
|
|
<trkpt lat="55.357869" lon="8.736211">
|
|
<ele>4.581763</ele>
|
|
<time>2026-07-10T17:39:57.000Z</time>
|
|
</trkpt>
|
|
<trkpt lat="55.357868" lon="8.736164">
|
|
<ele>4.569927</ele>
|
|
<time>2026-07-10T17:39:58.000Z</time>
|
|
</trkpt>
|
|
<trkpt lat="55.357868" lon="8.736126">
|
|
<ele>4.560364</ele>
|
|
<time>2026-07-10T17:39:59.000Z</time>
|
|
</trkpt>
|
|
<trkpt lat="55.357875" lon="8.736105">
|
|
<ele>4.554238</ele>
|
|
<time>2026-07-10T17:40:00.000Z</time>
|
|
</trkpt>
|
|
<trkpt lat="55.357886" lon="8.736094">
|
|
<ele>4.548637</ele>
|
|
<time>2026-07-10T17:40:01.000Z</time>
|
|
</trkpt>
|
|
<trkpt lat="55.357898" lon="8.736089">
|
|
<ele>4.543177</ele>
|
|
<time>2026-07-10T17:40:02.000Z</time>
|
|
</trkpt>
|
|
<trkpt lat="55.357914" lon="8.736080">
|
|
<ele>4.535741</ele>
|
|
<time>2026-07-10T17:40:03.000Z</time>
|
|
</trkpt>
|
|
<trkpt lat="55.357932" lon="8.736069">
|
|
<ele>4.527305</ele>
|
|
<time>2026-07-10T17:40:04.000Z</time>
|
|
</trkpt>
|
|
<trkpt lat="55.357953" lon="8.736052">
|
|
<ele>4.517071</ele>
|
|
<time>2026-07-10T17:40:05.000Z</time>
|
|
</trkpt>
|
|
<trkpt lat="55.357981" lon="8.736028">
|
|
<ele>4.503282</ele>
|
|
<time>2026-07-10T17:40:06.000Z</time>
|
|
</trkpt>
|
|
<trkpt lat="55.358009" lon="8.736002">
|
|
<ele>4.489266</ele>
|
|
<time>2026-07-10T17:40:07.000Z</time>
|
|
</trkpt>
|
|
<trkpt lat="55.358039" lon="8.735978">
|
|
<ele>4.474676</ele>
|
|
<time>2026-07-10T17:40:08.000Z</time>
|
|
</trkpt>
|
|
<trkpt lat="55.358070" lon="8.735956">
|
|
<ele>4.459877</ele>
|
|
<time>2026-07-10T17:40:09.000Z</time>
|
|
</trkpt>
|
|
<trkpt lat="55.358104" lon="8.735937">
|
|
<ele>4.444084</ele>
|
|
<time>2026-07-10T17:40:10.000Z</time>
|
|
</trkpt>
|
|
<trkpt lat="55.358142" lon="8.735922">
|
|
<ele>4.426843</ele>
|
|
<time>2026-07-10T17:40:11.000Z</time>
|
|
</trkpt>
|
|
<trkpt lat="55.358184" lon="8.735905">
|
|
<ele>4.407764</ele>
|
|
<time>2026-07-10T17:40:12.000Z</time>
|
|
</trkpt>
|
|
<trkpt lat="55.358226" lon="8.735885">
|
|
<ele>4.388501</ele>
|
|
<time>2026-07-10T17:40:13.000Z</time>
|
|
</trkpt>
|
|
<trkpt lat="55.358264" lon="8.735862">
|
|
<ele>4.370711</ele>
|
|
<time>2026-07-10T17:40:14.000Z</time>
|
|
</trkpt>
|
|
<trkpt lat="55.358306" lon="8.735838">
|
|
<ele>4.351161</ele>
|
|
<time>2026-07-10T17:40:15.000Z</time>
|
|
</trkpt>
|
|
<trkpt lat="55.358345" lon="8.735815">
|
|
<ele>4.332951</ele>
|
|
<time>2026-07-10T17:40:16.000Z</time>
|
|
</trkpt>
|
|
<trkpt lat="55.358389" lon="8.735794">
|
|
<ele>4.312768</ele>
|
|
<time>2026-07-10T17:40:17.000Z</time>
|
|
</trkpt>
|
|
<trkpt lat="55.358432" lon="8.735771">
|
|
<ele>4.292871</ele>
|
|
<time>2026-07-10T17:40:18.000Z</time>
|
|
</trkpt>
|
|
<trkpt lat="55.358478" lon="8.735747">
|
|
<ele>4.271630</ele>
|
|
<time>2026-07-10T17:40:19.000Z</time>
|
|
</trkpt>
|
|
<trkpt lat="55.358520" lon="8.735720">
|
|
<ele>4.251834</ele>
|
|
<time>2026-07-10T17:40:20.000Z</time>
|
|
</trkpt>
|
|
<trkpt lat="55.358562" lon="8.735689">
|
|
<ele>4.231671</ele>
|
|
<time>2026-07-10T17:40:21.000Z</time>
|
|
</trkpt>
|
|
<trkpt lat="55.358608" lon="8.735657">
|
|
<ele>4.209772</ele>
|
|
<time>2026-07-10T17:40:22.000Z</time>
|
|
</trkpt>
|
|
<trkpt lat="55.358649" lon="8.735629">
|
|
<ele>4.190301</ele>
|
|
<time>2026-07-10T17:40:23.000Z</time>
|
|
</trkpt>
|
|
<trkpt lat="55.358692" lon="8.735602">
|
|
<ele>4.172108</ele>
|
|
<time>2026-07-10T17:40:24.000Z</time>
|
|
</trkpt>
|
|
<trkpt lat="55.358737" lon="8.735582">
|
|
<ele>4.171805</ele>
|
|
<time>2026-07-10T17:40:25.000Z</time>
|
|
</trkpt>
|
|
<trkpt lat="55.358779" lon="8.735563">
|
|
<ele>4.171521</ele>
|
|
<time>2026-07-10T17:40:26.000Z</time>
|
|
</trkpt>
|
|
<trkpt lat="55.358821" lon="8.735544">
|
|
<ele>4.171237</ele>
|
|
<time>2026-07-10T17:40:27.000Z</time>
|
|
</trkpt>
|
|
<trkpt lat="55.358867" lon="8.735522">
|
|
<ele>4.170925</ele>
|
|
<time>2026-07-10T17:40:28.000Z</time>
|
|
</trkpt>
|
|
<trkpt lat="55.358909" lon="8.735501">
|
|
<ele>4.170639</ele>
|
|
<time>2026-07-10T17:40:29.000Z</time>
|
|
</trkpt>
|
|
<trkpt lat="55.358951" lon="8.735481">
|
|
<ele>4.170355</ele>
|
|
<time>2026-07-10T17:40:30.000Z</time>
|
|
</trkpt>
|
|
<trkpt lat="55.358997" lon="8.735462">
|
|
<ele>4.170045</ele>
|
|
<time>2026-07-10T17:40:31.000Z</time>
|
|
</trkpt>
|
|
<trkpt lat="55.359043" lon="8.735445">
|
|
<ele>4.169738</ele>
|
|
<time>2026-07-10T17:40:32.000Z</time>
|
|
</trkpt>
|
|
<trkpt lat="55.359088" lon="8.735429">
|
|
<ele>4.169437</ele>
|
|
<time>2026-07-10T17:40:33.000Z</time>
|
|
</trkpt>
|
|
<trkpt lat="55.359134" lon="8.735414">
|
|
<ele>4.169131</ele>
|
|
<time>2026-07-10T17:40:34.000Z</time>
|
|
</trkpt>
|
|
<trkpt lat="55.359176" lon="8.735397">
|
|
<ele>4.168849</ele>
|
|
<time>2026-07-10T17:40:35.000Z</time>
|
|
</trkpt>
|
|
<trkpt lat="55.359226" lon="8.735382">
|
|
<ele>4.168517</ele>
|
|
<time>2026-07-10T17:40:36.000Z</time>
|
|
</trkpt>
|
|
<trkpt lat="55.359271" lon="8.735367">
|
|
<ele>4.168218</ele>
|
|
<time>2026-07-10T17:40:37.000Z</time>
|
|
</trkpt>
|
|
<trkpt lat="55.359321" lon="8.735350">
|
|
<ele>4.167884</ele>
|
|
<time>2026-07-10T17:40:38.000Z</time>
|
|
</trkpt>
|
|
<trkpt lat="55.359366" lon="8.735334">
|
|
<ele>4.167584</ele>
|
|
<time>2026-07-10T17:40:39.000Z</time>
|
|
</trkpt>
|
|
<trkpt lat="55.359416" lon="8.735316">
|
|
<ele>4.167250</ele>
|
|
<time>2026-07-10T17:40:40.000Z</time>
|
|
</trkpt>
|
|
<trkpt lat="55.359466" lon="8.735298">
|
|
<ele>4.166916</ele>
|
|
<time>2026-07-10T17:40:41.000Z</time>
|
|
</trkpt>
|
|
<trkpt lat="55.359516" lon="8.735278">
|
|
<ele>4.166581</ele>
|
|
<time>2026-07-10T17:40:42.000Z</time>
|
|
</trkpt>
|
|
<trkpt lat="55.359565" lon="8.735262">
|
|
<ele>4.166254</ele>
|
|
<time>2026-07-10T17:40:43.000Z</time>
|
|
</trkpt>
|
|
<trkpt lat="55.359614" lon="8.735244">
|
|
<ele>4.165927</ele>
|
|
<time>2026-07-10T17:40:44.000Z</time>
|
|
</trkpt>
|
|
<trkpt lat="55.359664" lon="8.735225">
|
|
<ele>4.165592</ele>
|
|
<time>2026-07-10T17:40:45.000Z</time>
|
|
</trkpt>
|
|
<trkpt lat="55.359714" lon="8.735207">
|
|
<ele>4.165258</ele>
|
|
<time>2026-07-10T17:40:46.000Z</time>
|
|
</trkpt>
|
|
<trkpt lat="55.359767" lon="8.735191">
|
|
<ele>4.164906</ele>
|
|
<time>2026-07-10T17:40:47.000Z</time>
|
|
</trkpt>
|
|
<trkpt lat="55.359817" lon="8.735172">
|
|
<ele>4.164572</ele>
|
|
<time>2026-07-10T17:40:48.000Z</time>
|
|
</trkpt>
|
|
<trkpt lat="55.359863" lon="8.735152">
|
|
<ele>4.164262</ele>
|
|
<time>2026-07-10T17:40:49.000Z</time>
|
|
</trkpt>
|
|
<trkpt lat="55.359912" lon="8.735134">
|
|
<ele>4.163934</ele>
|
|
<time>2026-07-10T17:40:50.000Z</time>
|
|
</trkpt>
|
|
<trkpt lat="55.359962" lon="8.735117">
|
|
<ele>4.163601</ele>
|
|
<time>2026-07-10T17:40:51.000Z</time>
|
|
</trkpt>
|
|
<trkpt lat="55.360007" lon="8.735100">
|
|
<ele>4.163300</ele>
|
|
<time>2026-07-10T17:40:52.000Z</time>
|
|
</trkpt>
|
|
<trkpt lat="55.360061" lon="8.735082">
|
|
<ele>4.162940</ele>
|
|
<time>2026-07-10T17:40:53.000Z</time>
|
|
</trkpt>
|
|
<trkpt lat="55.360107" lon="8.735062">
|
|
<ele>4.162630</ele>
|
|
<time>2026-07-10T17:40:54.000Z</time>
|
|
</trkpt>
|
|
<trkpt lat="55.360152" lon="8.735042">
|
|
<ele>4.162326</ele>
|
|
<time>2026-07-10T17:40:55.000Z</time>
|
|
</trkpt>
|
|
<trkpt lat="55.360202" lon="8.735022">
|
|
<ele>4.161991</ele>
|
|
<time>2026-07-10T17:40:56.000Z</time>
|
|
</trkpt>
|
|
<trkpt lat="55.360247" lon="8.735000">
|
|
<ele>4.161685</ele>
|
|
<time>2026-07-10T17:40:57.000Z</time>
|
|
</trkpt>
|
|
<trkpt lat="55.360297" lon="8.734977">
|
|
<ele>4.161347</ele>
|
|
<time>2026-07-10T17:40:58.000Z</time>
|
|
</trkpt>
|
|
<trkpt lat="55.360347" lon="8.734959">
|
|
<ele>4.161013</ele>
|
|
<time>2026-07-10T17:40:59.000Z</time>
|
|
</trkpt>
|
|
<trkpt lat="55.360393" lon="8.734942">
|
|
<ele>4.160705</ele>
|
|
<time>2026-07-10T17:41:00.000Z</time>
|
|
</trkpt>
|
|
<trkpt lat="55.360443" lon="8.734925">
|
|
<ele>4.160372</ele>
|
|
<time>2026-07-10T17:41:01.000Z</time>
|
|
</trkpt>
|
|
<trkpt lat="55.360492" lon="8.734906">
|
|
<ele>4.168128</ele>
|
|
<time>2026-07-10T17:41:02.000Z</time>
|
|
</trkpt>
|
|
<trkpt lat="55.360538" lon="8.734886">
|
|
<ele>4.175526</ele>
|
|
<time>2026-07-10T17:41:03.000Z</time>
|
|
</trkpt>
|
|
<trkpt lat="55.360587" lon="8.734865">
|
|
<ele>4.183400</ele>
|
|
<time>2026-07-10T17:41:04.000Z</time>
|
|
</trkpt>
|
|
<trkpt lat="55.360633" lon="8.734842">
|
|
<ele>4.190867</ele>
|
|
<time>2026-07-10T17:41:05.000Z</time>
|
|
</trkpt>
|
|
<trkpt lat="55.360683" lon="8.734819">
|
|
<ele>4.198936</ele>
|
|
<time>2026-07-10T17:41:06.000Z</time>
|
|
</trkpt>
|
|
<trkpt lat="55.360728" lon="8.734799">
|
|
<ele>4.206182</ele>
|
|
<time>2026-07-10T17:41:07.000Z</time>
|
|
</trkpt>
|
|
<trkpt lat="55.360774" lon="8.734777">
|
|
<ele>4.213625</ele>
|
|
<time>2026-07-10T17:41:08.000Z</time>
|
|
</trkpt>
|
|
<trkpt lat="55.360820" lon="8.734752">
|
|
<ele>4.221142</ele>
|
|
<time>2026-07-10T17:41:09.000Z</time>
|
|
</trkpt>
|
|
<trkpt lat="55.360866" lon="8.734728">
|
|
<ele>4.228633</ele>
|
|
<time>2026-07-10T17:41:10.000Z</time>
|
|
</trkpt>
|
|
<trkpt lat="55.360912" lon="8.734705">
|
|
<ele>4.236099</ele>
|
|
<time>2026-07-10T17:41:11.000Z</time>
|
|
</trkpt>
|
|
<trkpt lat="55.360957" lon="8.734682">
|
|
<ele>4.243416</ele>
|
|
<time>2026-07-10T17:41:12.000Z</time>
|
|
</trkpt>
|
|
<trkpt lat="55.361003" lon="8.734657">
|
|
<ele>4.250933</ele>
|
|
<time>2026-07-10T17:41:13.000Z</time>
|
|
</trkpt>
|
|
<trkpt lat="55.361049" lon="8.734636">
|
|
<ele>4.258353</ele>
|
|
<time>2026-07-10T17:41:14.000Z</time>
|
|
</trkpt>
|
|
<trkpt lat="55.361095" lon="8.734616">
|
|
<ele>4.265751</ele>
|
|
<time>2026-07-10T17:41:15.000Z</time>
|
|
</trkpt>
|
|
<trkpt lat="55.361141" lon="8.734596">
|
|
<ele>4.273149</ele>
|
|
<time>2026-07-10T17:41:16.000Z</time>
|
|
</trkpt>
|
|
<trkpt lat="55.361186" lon="8.734572">
|
|
<ele>4.280491</ele>
|
|
<time>2026-07-10T17:41:17.000Z</time>
|
|
</trkpt>
|
|
<trkpt lat="55.361232" lon="8.734549">
|
|
<ele>4.287957</ele>
|
|
<time>2026-07-10T17:41:18.000Z</time>
|
|
</trkpt>
|
|
<trkpt lat="55.361278" lon="8.734524">
|
|
<ele>4.295474</ele>
|
|
<time>2026-07-10T17:41:19.000Z</time>
|
|
</trkpt>
|
|
<trkpt lat="55.361320" lon="8.734500">
|
|
<ele>4.302369</ele>
|
|
<time>2026-07-10T17:41:20.000Z</time>
|
|
</trkpt>
|
|
<trkpt lat="55.361362" lon="8.734476">
|
|
<ele>4.309263</ele>
|
|
<time>2026-07-10T17:41:21.000Z</time>
|
|
</trkpt>
|
|
<trkpt lat="55.361407" lon="8.734451">
|
|
<ele>4.316631</ele>
|
|
<time>2026-07-10T17:41:22.000Z</time>
|
|
</trkpt>
|
|
<trkpt lat="55.361450" lon="8.734431">
|
|
<ele>4.323576</ele>
|
|
<time>2026-07-10T17:41:23.000Z</time>
|
|
</trkpt>
|
|
<trkpt lat="55.361495" lon="8.734413">
|
|
<ele>4.330781</ele>
|
|
<time>2026-07-10T17:41:24.000Z</time>
|
|
</trkpt>
|
|
<trkpt lat="55.361541" lon="8.734393">
|
|
<ele>4.338179</ele>
|
|
<time>2026-07-10T17:41:25.000Z</time>
|
|
</trkpt>
|
|
<trkpt lat="55.361583" lon="8.734374">
|
|
<ele>4.344950</ele>
|
|
<time>2026-07-10T17:41:26.000Z</time>
|
|
</trkpt>
|
|
<trkpt lat="55.361629" lon="8.734359">
|
|
<ele>4.352254</ele>
|
|
<time>2026-07-10T17:41:27.000Z</time>
|
|
</trkpt>
|
|
<trkpt lat="55.361675" lon="8.734347">
|
|
<ele>4.359515</ele>
|
|
<time>2026-07-10T17:41:28.000Z</time>
|
|
</trkpt>
|
|
<trkpt lat="55.361724" lon="8.734340">
|
|
<ele>4.367190</ele>
|
|
<time>2026-07-10T17:41:29.000Z</time>
|
|
</trkpt>
|
|
<trkpt lat="55.361770" lon="8.734339">
|
|
<ele>4.374373</ele>
|
|
<time>2026-07-10T17:41:30.000Z</time>
|
|
</trkpt>
|
|
<trkpt lat="55.361816" lon="8.734337">
|
|
<ele>4.381557</ele>
|
|
<time>2026-07-10T17:41:31.000Z</time>
|
|
</trkpt>
|
|
<trkpt lat="55.361862" lon="8.734333">
|
|
<ele>4.388748</ele>
|
|
<time>2026-07-10T17:41:32.000Z</time>
|
|
</trkpt>
|
|
<trkpt lat="55.361911" lon="8.734333">
|
|
<ele>4.396399</ele>
|
|
<time>2026-07-10T17:41:33.000Z</time>
|
|
</trkpt>
|
|
<trkpt lat="55.361957" lon="8.734335">
|
|
<ele>4.403583</ele>
|
|
<time>2026-07-10T17:41:34.000Z</time>
|
|
</trkpt>
|
|
<trkpt lat="55.362003" lon="8.734337">
|
|
<ele>4.410767</ele>
|
|
<time>2026-07-10T17:41:35.000Z</time>
|
|
</trkpt>
|
|
<trkpt lat="55.362045" lon="8.734335">
|
|
<ele>4.417327</ele>
|
|
<time>2026-07-10T17:41:36.000Z</time>
|
|
</trkpt>
|
|
<trkpt lat="55.362094" lon="8.734340">
|
|
<ele>4.424990</ele>
|
|
<time>2026-07-10T17:41:37.000Z</time>
|
|
</trkpt>
|
|
<trkpt lat="55.362134" lon="8.734345">
|
|
<ele>4.431251</ele>
|
|
<time>2026-07-10T17:41:38.000Z</time>
|
|
</trkpt>
|
|
<trkpt lat="55.362189" lon="8.734352">
|
|
<ele>4.439861</ele>
|
|
<time>2026-07-10T17:41:39.000Z</time>
|
|
</trkpt>
|
|
<trkpt lat="55.362239" lon="8.734359">
|
|
<ele>4.437383</ele>
|
|
<time>2026-07-10T17:41:40.000Z</time>
|
|
</trkpt>
|
|
<trkpt lat="55.362285" lon="8.734363">
|
|
<ele>4.433166</ele>
|
|
<time>2026-07-10T17:41:41.000Z</time>
|
|
</trkpt>
|
|
<trkpt lat="55.362334" lon="8.734366">
|
|
<ele>4.428677</ele>
|
|
<time>2026-07-10T17:41:42.000Z</time>
|
|
</trkpt>
|
|
<trkpt lat="55.362380" lon="8.734368">
|
|
<ele>4.424464</ele>
|
|
<time>2026-07-10T17:41:43.000Z</time>
|
|
</trkpt>
|
|
<trkpt lat="55.362426" lon="8.734370">
|
|
<ele>4.420251</ele>
|
|
<time>2026-07-10T17:41:44.000Z</time>
|
|
</trkpt>
|
|
<trkpt lat="55.362476" lon="8.734373">
|
|
<ele>4.415670</ele>
|
|
<time>2026-07-10T17:41:45.000Z</time>
|
|
</trkpt>
|
|
<trkpt lat="55.362521" lon="8.734378">
|
|
<ele>4.411542</ele>
|
|
<time>2026-07-10T17:41:46.000Z</time>
|
|
</trkpt>
|
|
<trkpt lat="55.362567" lon="8.734383">
|
|
<ele>4.407322</ele>
|
|
<time>2026-07-10T17:41:47.000Z</time>
|
|
</trkpt>
|
|
<trkpt lat="55.362609" lon="8.734386">
|
|
<ele>4.403474</ele>
|
|
<time>2026-07-10T17:41:48.000Z</time>
|
|
</trkpt>
|
|
<trkpt lat="55.362655" lon="8.734388">
|
|
<ele>4.399261</ele>
|
|
<time>2026-07-10T17:41:49.000Z</time>
|
|
</trkpt>
|
|
<trkpt lat="55.362700" lon="8.734391">
|
|
<ele>4.395137</ele>
|
|
<time>2026-07-10T17:41:50.000Z</time>
|
|
</trkpt>
|
|
<trkpt lat="55.362746" lon="8.734393">
|
|
<ele>4.390924</ele>
|
|
<time>2026-07-10T17:41:51.000Z</time>
|
|
</trkpt>
|
|
<trkpt lat="55.362789" lon="8.734393">
|
|
<ele>4.386987</ele>
|
|
<time>2026-07-10T17:41:52.000Z</time>
|
|
</trkpt>
|
|
<trkpt lat="55.362830" lon="8.734393">
|
|
<ele>4.383234</ele>
|
|
<time>2026-07-10T17:41:53.000Z</time>
|
|
</trkpt>
|
|
<trkpt lat="55.362876" lon="8.734397">
|
|
<ele>4.379017</ele>
|
|
<time>2026-07-10T17:41:54.000Z</time>
|
|
</trkpt>
|
|
<trkpt lat="55.362918" lon="8.734404">
|
|
<ele>4.375154</ele>
|
|
<time>2026-07-10T17:41:55.000Z</time>
|
|
</trkpt>
|
|
<trkpt lat="55.362964" lon="8.734408">
|
|
<ele>4.370937</ele>
|
|
<time>2026-07-10T17:41:56.000Z</time>
|
|
</trkpt>
|
|
<trkpt lat="55.363010" lon="8.734411">
|
|
<ele>4.366722</ele>
|
|
<time>2026-07-10T17:41:57.000Z</time>
|
|
</trkpt>
|
|
<trkpt lat="55.363051" lon="8.734413">
|
|
<ele>4.362967</ele>
|
|
<time>2026-07-10T17:41:58.000Z</time>
|
|
</trkpt>
|
|
<trkpt lat="55.363101" lon="8.734413">
|
|
<ele>4.358389</ele>
|
|
<time>2026-07-10T17:41:59.000Z</time>
|
|
</trkpt>
|
|
<trkpt lat="55.363150" lon="8.734415">
|
|
<ele>4.353902</ele>
|
|
<time>2026-07-10T17:42:00.000Z</time>
|
|
</trkpt>
|
|
<trkpt lat="55.363196" lon="8.734420">
|
|
<ele>4.349682</ele>
|
|
<time>2026-07-10T17:42:01.000Z</time>
|
|
</trkpt>
|
|
<trkpt lat="55.363241" lon="8.734423">
|
|
<ele>4.345559</ele>
|
|
<time>2026-07-10T17:42:02.000Z</time>
|
|
</trkpt>
|
|
<trkpt lat="55.363288" lon="8.734424">
|
|
<ele>4.341255</ele>
|
|
<time>2026-07-10T17:42:03.000Z</time>
|
|
</trkpt>
|
|
<trkpt lat="55.363337" lon="8.734426">
|
|
<ele>4.336768</ele>
|
|
<time>2026-07-10T17:42:04.000Z</time>
|
|
</trkpt>
|
|
<trkpt lat="55.363387" lon="8.734428">
|
|
<ele>4.332188</ele>
|
|
<time>2026-07-10T17:42:05.000Z</time>
|
|
</trkpt>
|
|
<trkpt lat="55.363437" lon="8.734431">
|
|
<ele>4.327608</ele>
|
|
<time>2026-07-10T17:42:06.000Z</time>
|
|
</trkpt>
|
|
<trkpt lat="55.363487" lon="8.734437">
|
|
<ele>4.323019</ele>
|
|
<time>2026-07-10T17:42:07.000Z</time>
|
|
</trkpt>
|
|
<trkpt lat="55.363532" lon="8.734442">
|
|
<ele>4.318891</ele>
|
|
<time>2026-07-10T17:42:08.000Z</time>
|
|
</trkpt>
|
|
<trkpt lat="55.363582" lon="8.734450">
|
|
<ele>4.314294</ele>
|
|
<time>2026-07-10T17:42:09.000Z</time>
|
|
</trkpt>
|
|
<trkpt lat="55.363628" lon="8.734462">
|
|
<ele>4.310036</ele>
|
|
<time>2026-07-10T17:42:10.000Z</time>
|
|
</trkpt>
|
|
<trkpt lat="55.363670" lon="8.734471">
|
|
<ele>4.306162</ele>
|
|
<time>2026-07-10T17:42:11.000Z</time>
|
|
</trkpt>
|
|
<trkpt lat="55.363711" lon="8.734483">
|
|
<ele>4.302357</ele>
|
|
<time>2026-07-10T17:42:12.000Z</time>
|
|
</trkpt>
|
|
<trkpt lat="55.363754" lon="8.734498">
|
|
<ele>4.298343</ele>
|
|
<time>2026-07-10T17:42:13.000Z</time>
|
|
</trkpt>
|
|
<trkpt lat="55.363795" lon="8.734511">
|
|
<ele>4.294529</ele>
|
|
<time>2026-07-10T17:42:14.000Z</time>
|
|
</trkpt>
|
|
<trkpt lat="55.363841" lon="8.734524">
|
|
<ele>4.290263</ele>
|
|
<time>2026-07-10T17:42:15.000Z</time>
|
|
</trkpt>
|
|
<trkpt lat="55.363883" lon="8.734542">
|
|
<ele>4.286305</ele>
|
|
<time>2026-07-10T17:42:16.000Z</time>
|
|
</trkpt>
|
|
<trkpt lat="55.363933" lon="8.734562">
|
|
<ele>4.281610</ele>
|
|
<time>2026-07-10T17:42:17.000Z</time>
|
|
</trkpt>
|
|
<trkpt lat="55.363975" lon="8.734583">
|
|
<ele>4.277613</ele>
|
|
<time>2026-07-10T17:42:18.000Z</time>
|
|
</trkpt>
|
|
<trkpt lat="55.364021" lon="8.734609">
|
|
<ele>4.274147</ele>
|
|
<time>2026-07-10T17:42:19.000Z</time>
|
|
</trkpt>
|
|
<trkpt lat="55.364063" lon="8.734633">
|
|
<ele>4.271271</ele>
|
|
<time>2026-07-10T17:42:20.000Z</time>
|
|
</trkpt>
|
|
<trkpt lat="55.364108" lon="8.734656">
|
|
<ele>4.268218</ele>
|
|
<time>2026-07-10T17:42:21.000Z</time>
|
|
</trkpt>
|
|
<trkpt lat="55.364150" lon="8.734681">
|
|
<ele>4.265329</ele>
|
|
<time>2026-07-10T17:42:22.000Z</time>
|
|
</trkpt>
|
|
<trkpt lat="55.364189" lon="8.734708">
|
|
<ele>4.262599</ele>
|
|
<time>2026-07-10T17:42:23.000Z</time>
|
|
</trkpt>
|
|
<trkpt lat="55.364226" lon="8.734740">
|
|
<ele>4.259913</ele>
|
|
<time>2026-07-10T17:42:24.000Z</time>
|
|
</trkpt>
|
|
<trkpt lat="55.364265" lon="8.734770">
|
|
<ele>4.257140</ele>
|
|
<time>2026-07-10T17:42:25.000Z</time>
|
|
</trkpt>
|
|
<trkpt lat="55.364299" lon="8.734791">
|
|
<ele>4.254793</ele>
|
|
<time>2026-07-10T17:42:26.000Z</time>
|
|
</trkpt>
|
|
<trkpt lat="55.364334" lon="8.734814">
|
|
<ele>4.252359</ele>
|
|
<time>2026-07-10T17:42:27.000Z</time>
|
|
</trkpt>
|
|
<trkpt lat="55.364357" lon="8.734836">
|
|
<ele>4.250653</ele>
|
|
<time>2026-07-10T17:42:28.000Z</time>
|
|
</trkpt>
|
|
<trkpt lat="55.364372" lon="8.734848">
|
|
<ele>4.249580</ele>
|
|
<time>2026-07-10T17:42:29.000Z</time>
|
|
</trkpt>
|
|
<trkpt lat="55.364380" lon="8.734857">
|
|
<ele>4.248961</ele>
|
|
<time>2026-07-10T17:43:01.000Z</time>
|
|
</trkpt>
|
|
<trkpt lat="55.364391" lon="8.734859">
|
|
<ele>4.248241</ele>
|
|
<time>2026-07-10T17:43:02.000Z</time>
|
|
</trkpt>
|
|
<trkpt lat="55.364410" lon="8.734860">
|
|
<ele>4.247003</ele>
|
|
<time>2026-07-10T17:43:03.000Z</time>
|
|
</trkpt>
|
|
<trkpt lat="55.364429" lon="8.734863">
|
|
<ele>4.245760</ele>
|
|
<time>2026-07-10T17:43:04.000Z</time>
|
|
</trkpt>
|
|
<trkpt lat="55.364451" lon="8.734876">
|
|
<ele>4.244248</ele>
|
|
<time>2026-07-10T17:43:05.000Z</time>
|
|
</trkpt>
|
|
<trkpt lat="55.364475" lon="8.734898">
|
|
<ele>4.242485</ele>
|
|
<time>2026-07-10T17:43:06.000Z</time>
|
|
</trkpt>
|
|
<trkpt lat="55.364502" lon="8.734921">
|
|
<ele>4.240531</ele>
|
|
<time>2026-07-10T17:43:07.000Z</time>
|
|
</trkpt>
|
|
<trkpt lat="55.364536" lon="8.734941">
|
|
<ele>4.238195</ele>
|
|
<time>2026-07-10T17:43:08.000Z</time>
|
|
</trkpt>
|
|
<trkpt lat="55.364574" lon="8.734961">
|
|
<ele>4.235611</ele>
|
|
<time>2026-07-10T17:43:09.000Z</time>
|
|
</trkpt>
|
|
<trkpt lat="55.364612" lon="8.734979">
|
|
<ele>4.233048</ele>
|
|
<time>2026-07-10T17:43:10.000Z</time>
|
|
</trkpt>
|
|
<trkpt lat="55.364649" lon="8.734999">
|
|
<ele>4.230526</ele>
|
|
<time>2026-07-10T17:43:11.000Z</time>
|
|
</trkpt>
|
|
<trkpt lat="55.364692" lon="8.735023">
|
|
<ele>4.227587</ele>
|
|
<time>2026-07-10T17:43:12.000Z</time>
|
|
</trkpt>
|
|
<trkpt lat="55.364733" lon="8.735046">
|
|
<ele>4.224784</ele>
|
|
<time>2026-07-10T17:43:13.000Z</time>
|
|
</trkpt>
|
|
<trkpt lat="55.364776" lon="8.735068">
|
|
<ele>4.221866</ele>
|
|
<time>2026-07-10T17:43:14.000Z</time>
|
|
</trkpt>
|
|
<trkpt lat="55.364818" lon="8.735090">
|
|
<ele>4.219012</ele>
|
|
<time>2026-07-10T17:43:15.000Z</time>
|
|
</trkpt>
|
|
<trkpt lat="55.364867" lon="8.735111">
|
|
<ele>4.215726</ele>
|
|
<time>2026-07-10T17:43:16.000Z</time>
|
|
</trkpt>
|
|
<trkpt lat="55.364913" lon="8.735137">
|
|
<ele>4.212578</ele>
|
|
<time>2026-07-10T17:43:17.000Z</time>
|
|
</trkpt>
|
|
<trkpt lat="55.364959" lon="8.735159">
|
|
<ele>4.209473</ele>
|
|
<time>2026-07-10T17:43:18.000Z</time>
|
|
</trkpt>
|
|
<trkpt lat="55.365008" lon="8.735184">
|
|
<ele>4.206149</ele>
|
|
<time>2026-07-10T17:43:19.000Z</time>
|
|
</trkpt>
|
|
<trkpt lat="55.365058" lon="8.735206">
|
|
<ele>4.202792</ele>
|
|
<time>2026-07-10T17:43:20.000Z</time>
|
|
</trkpt>
|
|
<trkpt lat="55.365108" lon="8.735230">
|
|
<ele>4.199415</ele>
|
|
<time>2026-07-10T17:43:21.000Z</time>
|
|
</trkpt>
|
|
<trkpt lat="55.365157" lon="8.735256">
|
|
<ele>4.196081</ele>
|
|
<time>2026-07-10T17:43:22.000Z</time>
|
|
</trkpt>
|
|
<trkpt lat="55.365209" lon="8.735279">
|
|
<ele>4.192588</ele>
|
|
<time>2026-07-10T17:43:23.000Z</time>
|
|
</trkpt>
|
|
<trkpt lat="55.365260" lon="8.735295">
|
|
<ele>4.189213</ele>
|
|
<time>2026-07-10T17:43:24.000Z</time>
|
|
</trkpt>
|
|
<trkpt lat="55.365310" lon="8.735307">
|
|
<ele>4.185926</ele>
|
|
<time>2026-07-10T17:43:25.000Z</time>
|
|
</trkpt>
|
|
<trkpt lat="55.365359" lon="8.735320">
|
|
<ele>4.182698</ele>
|
|
<time>2026-07-10T17:43:26.000Z</time>
|
|
</trkpt>
|
|
<trkpt lat="55.365417" lon="8.735338">
|
|
<ele>4.178861</ele>
|
|
<time>2026-07-10T17:43:27.000Z</time>
|
|
</trkpt>
|
|
<trkpt lat="55.365470" lon="8.735353">
|
|
<ele>4.175364</ele>
|
|
<time>2026-07-10T17:43:28.000Z</time>
|
|
</trkpt>
|
|
<trkpt lat="55.365524" lon="8.735365">
|
|
<ele>4.171818</ele>
|
|
<time>2026-07-10T17:43:29.000Z</time>
|
|
</trkpt>
|
|
<trkpt lat="55.365577" lon="8.735376">
|
|
<ele>4.168341</ele>
|
|
<time>2026-07-10T17:43:30.000Z</time>
|
|
</trkpt>
|
|
<trkpt lat="55.365630" lon="8.735385">
|
|
<ele>4.164872</ele>
|
|
<time>2026-07-10T17:43:31.000Z</time>
|
|
</trkpt>
|
|
<trkpt lat="55.365684" lon="8.735395">
|
|
<ele>4.161335</ele>
|
|
<time>2026-07-10T17:43:32.000Z</time>
|
|
</trkpt>
|
|
<trkpt lat="55.365737" lon="8.735402">
|
|
<ele>4.160705</ele>
|
|
<time>2026-07-10T17:43:33.000Z</time>
|
|
</trkpt>
|
|
<trkpt lat="55.365791" lon="8.735407">
|
|
<ele>4.163995</ele>
|
|
<time>2026-07-10T17:43:34.000Z</time>
|
|
</trkpt>
|
|
<trkpt lat="55.365836" lon="8.735410">
|
|
<ele>4.166735</ele>
|
|
<time>2026-07-10T17:43:35.000Z</time>
|
|
</trkpt>
|
|
<trkpt lat="55.365886" lon="8.735415">
|
|
<ele>4.169783</ele>
|
|
<time>2026-07-10T17:43:36.000Z</time>
|
|
</trkpt>
|
|
<trkpt lat="55.365932" lon="8.735422">
|
|
<ele>4.172592</ele>
|
|
<time>2026-07-10T17:43:37.000Z</time>
|
|
</trkpt>
|
|
<trkpt lat="55.365974" lon="8.735427">
|
|
<ele>4.175154</ele>
|
|
<time>2026-07-10T17:43:38.000Z</time>
|
|
</trkpt>
|
|
<trkpt lat="55.366016" lon="8.735430">
|
|
<ele>4.177711</ele>
|
|
<time>2026-07-10T17:43:39.000Z</time>
|
|
</trkpt>
|
|
<trkpt lat="55.366054" lon="8.735429">
|
|
<ele>4.180024</ele>
|
|
<time>2026-07-10T17:43:40.000Z</time>
|
|
</trkpt>
|
|
<trkpt lat="55.366096" lon="8.735425">
|
|
<ele>4.182583</ele>
|
|
<time>2026-07-10T17:43:41.000Z</time>
|
|
</trkpt>
|
|
<trkpt lat="55.366138" lon="8.735420">
|
|
<ele>4.185145</ele>
|
|
<time>2026-07-10T17:43:42.000Z</time>
|
|
</trkpt>
|
|
<trkpt lat="55.366187" lon="8.735412">
|
|
<ele>4.188139</ele>
|
|
<time>2026-07-10T17:43:43.000Z</time>
|
|
</trkpt>
|
|
<trkpt lat="55.366237" lon="8.735407">
|
|
<ele>4.191187</ele>
|
|
<time>2026-07-10T17:43:44.000Z</time>
|
|
</trkpt>
|
|
<trkpt lat="55.366290" lon="8.735402">
|
|
<ele>4.194416</ele>
|
|
<time>2026-07-10T17:43:45.000Z</time>
|
|
</trkpt>
|
|
<trkpt lat="55.366343" lon="8.735396">
|
|
<ele>4.197648</ele>
|
|
<time>2026-07-10T17:43:46.000Z</time>
|
|
</trkpt>
|
|
<trkpt lat="55.366401" lon="8.735392">
|
|
<ele>4.201180</ele>
|
|
<time>2026-07-10T17:43:47.000Z</time>
|
|
</trkpt>
|
|
<trkpt lat="55.366454" lon="8.735387">
|
|
<ele>4.204410</ele>
|
|
<time>2026-07-10T17:43:48.000Z</time>
|
|
</trkpt>
|
|
<trkpt lat="55.366508" lon="8.735383">
|
|
<ele>4.207699</ele>
|
|
<time>2026-07-10T17:43:49.000Z</time>
|
|
</trkpt>
|
|
<trkpt lat="55.366557" lon="8.735374">
|
|
<ele>4.210696</ele>
|
|
<time>2026-07-10T17:43:50.000Z</time>
|
|
</trkpt>
|
|
<trkpt lat="55.366607" lon="8.735369">
|
|
<ele>4.213744</ele>
|
|
<time>2026-07-10T17:43:51.000Z</time>
|
|
</trkpt>
|
|
<trkpt lat="55.366656" lon="8.735367">
|
|
<ele>4.216726</ele>
|
|
<time>2026-07-10T17:43:52.000Z</time>
|
|
</trkpt>
|
|
<trkpt lat="55.366710" lon="8.735367">
|
|
<ele>4.220012</ele>
|
|
<time>2026-07-10T17:43:53.000Z</time>
|
|
</trkpt>
|
|
<trkpt lat="55.366760" lon="8.735365">
|
|
<ele>4.223055</ele>
|
|
<time>2026-07-10T17:43:54.000Z</time>
|
|
</trkpt>
|
|
<trkpt lat="55.366813" lon="8.735362">
|
|
<ele>4.226282</ele>
|
|
<time>2026-07-10T17:43:55.000Z</time>
|
|
</trkpt>
|
|
<trkpt lat="55.366866" lon="8.735360">
|
|
<ele>4.229508</ele>
|
|
<time>2026-07-10T17:43:56.000Z</time>
|
|
</trkpt>
|
|
<trkpt lat="55.366920" lon="8.735355">
|
|
<ele>4.232798</ele>
|
|
<time>2026-07-10T17:43:57.000Z</time>
|
|
</trkpt>
|
|
<trkpt lat="55.366973" lon="8.735350">
|
|
<ele>4.236028</ele>
|
|
<time>2026-07-10T17:43:58.000Z</time>
|
|
</trkpt>
|
|
<trkpt lat="55.367029" lon="8.735345">
|
|
<ele>4.239440</ele>
|
|
<time>2026-07-10T17:43:59.000Z</time>
|
|
</trkpt>
|
|
<trkpt lat="55.367083" lon="8.735342">
|
|
<ele>4.242727</ele>
|
|
<time>2026-07-10T17:44:00.000Z</time>
|
|
</trkpt>
|
|
<trkpt lat="55.367141" lon="8.735340">
|
|
<ele>4.246257</ele>
|
|
<time>2026-07-10T17:44:01.000Z</time>
|
|
</trkpt>
|
|
<trkpt lat="55.367195" lon="8.735336">
|
|
<ele>4.249546</ele>
|
|
<time>2026-07-10T17:44:02.000Z</time>
|
|
</trkpt>
|
|
<trkpt lat="55.367248" lon="8.735333">
|
|
<ele>4.252773</ele>
|
|
<time>2026-07-10T17:44:03.000Z</time>
|
|
</trkpt>
|
|
<trkpt lat="55.367305" lon="8.735330">
|
|
<ele>4.256243</ele>
|
|
<time>2026-07-10T17:44:04.000Z</time>
|
|
</trkpt>
|
|
<trkpt lat="55.367362" lon="8.735330">
|
|
<ele>4.259711</ele>
|
|
<time>2026-07-10T17:44:05.000Z</time>
|
|
</trkpt>
|
|
<trkpt lat="55.367415" lon="8.735327">
|
|
<ele>4.262938</ele>
|
|
<time>2026-07-10T17:44:06.000Z</time>
|
|
</trkpt>
|
|
<trkpt lat="55.367469" lon="8.735323">
|
|
<ele>4.266227</ele>
|
|
<time>2026-07-10T17:44:07.000Z</time>
|
|
</trkpt>
|
|
<trkpt lat="55.367522" lon="8.735318">
|
|
<ele>4.267607</ele>
|
|
<time>2026-07-10T17:44:08.000Z</time>
|
|
</trkpt>
|
|
<trkpt lat="55.367576" lon="8.735313">
|
|
<ele>4.261854</ele>
|
|
<time>2026-07-10T17:44:09.000Z</time>
|
|
</trkpt>
|
|
<trkpt lat="55.367629" lon="8.735309">
|
|
<ele>4.256210</ele>
|
|
<time>2026-07-10T17:44:10.000Z</time>
|
|
</trkpt>
|
|
<trkpt lat="55.367683" lon="8.735303">
|
|
<ele>4.250454</ele>
|
|
<time>2026-07-10T17:44:11.000Z</time>
|
|
</trkpt>
|
|
<trkpt lat="55.367737" lon="8.735298">
|
|
<ele>4.244701</ele>
|
|
<time>2026-07-10T17:44:12.000Z</time>
|
|
</trkpt>
|
|
<trkpt lat="55.367793" lon="8.735293">
|
|
<ele>4.238735</ele>
|
|
<time>2026-07-10T17:44:13.000Z</time>
|
|
</trkpt>
|
|
<trkpt lat="55.367850" lon="8.735289">
|
|
<ele>4.232666</ele>
|
|
<time>2026-07-10T17:44:14.000Z</time>
|
|
</trkpt>
|
|
<trkpt lat="55.367907" lon="8.735282">
|
|
<ele>4.226587</ele>
|
|
<time>2026-07-10T17:44:15.000Z</time>
|
|
</trkpt>
|
|
<trkpt lat="55.367961" lon="8.735276">
|
|
<ele>4.220831</ele>
|
|
<time>2026-07-10T17:44:16.000Z</time>
|
|
</trkpt>
|
|
<trkpt lat="55.368016" lon="8.735267">
|
|
<ele>4.214954</ele>
|
|
<time>2026-07-10T17:44:17.000Z</time>
|
|
</trkpt>
|
|
<trkpt lat="55.368071" lon="8.735255">
|
|
<ele>4.209058</ele>
|
|
<time>2026-07-10T17:44:18.000Z</time>
|
|
</trkpt>
|
|
<trkpt lat="55.368129" lon="8.735245">
|
|
<ele>4.202857</ele>
|
|
<time>2026-07-10T17:44:19.000Z</time>
|
|
</trkpt>
|
|
<trkpt lat="55.368186" lon="8.735235">
|
|
<ele>4.196763</ele>
|
|
<time>2026-07-10T17:44:20.000Z</time>
|
|
</trkpt>
|
|
<trkpt lat="55.368239" lon="8.735224">
|
|
<ele>4.191085</ele>
|
|
<time>2026-07-10T17:44:21.000Z</time>
|
|
</trkpt>
|
|
<trkpt lat="55.368296" lon="8.735212">
|
|
<ele>4.184978</ele>
|
|
<time>2026-07-10T17:44:22.000Z</time>
|
|
</trkpt>
|
|
<trkpt lat="55.368350" lon="8.735202">
|
|
<ele>4.179201</ele>
|
|
<time>2026-07-10T17:44:23.000Z</time>
|
|
</trkpt>
|
|
<trkpt lat="55.368407" lon="8.735191">
|
|
<ele>4.173100</ele>
|
|
<time>2026-07-10T17:44:24.000Z</time>
|
|
</trkpt>
|
|
<trkpt lat="55.368461" lon="8.735177">
|
|
<ele>4.167293</ele>
|
|
<time>2026-07-10T17:44:25.000Z</time>
|
|
</trkpt>
|
|
<trkpt lat="55.368514" lon="8.735167">
|
|
<ele>4.161622</ele>
|
|
<time>2026-07-10T17:44:26.000Z</time>
|
|
</trkpt>
|
|
<trkpt lat="55.368567" lon="8.735158">
|
|
<ele>4.155957</ele>
|
|
<time>2026-07-10T17:44:27.000Z</time>
|
|
</trkpt>
|
|
<trkpt lat="55.368621" lon="8.735149">
|
|
<ele>4.150186</ele>
|
|
<time>2026-07-10T17:44:28.000Z</time>
|
|
</trkpt>
|
|
<trkpt lat="55.368675" lon="8.735137">
|
|
<ele>4.144396</ele>
|
|
<time>2026-07-10T17:44:29.000Z</time>
|
|
</trkpt>
|
|
<trkpt lat="55.368724" lon="8.735125">
|
|
<ele>4.139132</ele>
|
|
<time>2026-07-10T17:44:30.000Z</time>
|
|
</trkpt>
|
|
<trkpt lat="55.368777" lon="8.735111">
|
|
<ele>4.133430</ele>
|
|
<time>2026-07-10T17:44:31.000Z</time>
|
|
</trkpt>
|
|
<trkpt lat="55.368831" lon="8.735097">
|
|
<ele>4.127623</ele>
|
|
<time>2026-07-10T17:44:32.000Z</time>
|
|
</trkpt>
|
|
<trkpt lat="55.368884" lon="8.735084">
|
|
<ele>4.121930</ele>
|
|
<time>2026-07-10T17:44:33.000Z</time>
|
|
</trkpt>
|
|
<trkpt lat="55.368938" lon="8.735069">
|
|
<ele>4.116114</ele>
|
|
<time>2026-07-10T17:44:34.000Z</time>
|
|
</trkpt>
|
|
<trkpt lat="55.368991" lon="8.735055">
|
|
<ele>4.110412</ele>
|
|
<time>2026-07-10T17:44:35.000Z</time>
|
|
</trkpt>
|
|
<trkpt lat="55.369041" lon="8.735042">
|
|
<ele>4.105035</ele>
|
|
<time>2026-07-10T17:44:36.000Z</time>
|
|
</trkpt>
|
|
<trkpt lat="55.369090" lon="8.735027">
|
|
<ele>4.099743</ele>
|
|
<time>2026-07-10T17:44:37.000Z</time>
|
|
</trkpt>
|
|
<trkpt lat="55.369140" lon="8.735017">
|
|
<ele>4.094389</ele>
|
|
<time>2026-07-10T17:44:38.000Z</time>
|
|
</trkpt>
|
|
<trkpt lat="55.369190" lon="8.735008">
|
|
<ele>4.089042</ele>
|
|
<time>2026-07-10T17:44:39.000Z</time>
|
|
</trkpt>
|
|
<trkpt lat="55.369231" lon="8.735002">
|
|
<ele>4.084665</ele>
|
|
<time>2026-07-10T17:44:40.000Z</time>
|
|
</trkpt>
|
|
<trkpt lat="55.369281" lon="8.734995">
|
|
<ele>4.079329</ele>
|
|
<time>2026-07-10T17:44:41.000Z</time>
|
|
</trkpt>
|
|
<trkpt lat="55.369327" lon="8.734988">
|
|
<ele>4.081840</ele>
|
|
<time>2026-07-10T17:44:42.000Z</time>
|
|
</trkpt>
|
|
<trkpt lat="55.369373" lon="8.734980">
|
|
<ele>4.089058</ele>
|
|
<time>2026-07-10T17:44:43.000Z</time>
|
|
</trkpt>
|
|
<trkpt lat="55.369418" lon="8.734970">
|
|
<ele>4.096141</ele>
|
|
<time>2026-07-10T17:44:44.000Z</time>
|
|
</trkpt>
|
|
<trkpt lat="55.369470" lon="8.734964">
|
|
<ele>4.104278</ele>
|
|
<time>2026-07-10T17:44:45.000Z</time>
|
|
</trkpt>
|
|
<trkpt lat="55.369529" lon="8.734959">
|
|
<ele>4.113502</ele>
|
|
<time>2026-07-10T17:44:46.000Z</time>
|
|
</trkpt>
|
|
<trkpt lat="55.369582" lon="8.734955">
|
|
<ele>4.121786</ele>
|
|
<time>2026-07-10T17:44:47.000Z</time>
|
|
</trkpt>
|
|
<trkpt lat="55.369643" lon="8.734953">
|
|
<ele>4.131313</ele>
|
|
<time>2026-07-10T17:44:48.000Z</time>
|
|
</trkpt>
|
|
<trkpt lat="55.369704" lon="8.734948">
|
|
<ele>4.140849</ele>
|
|
<time>2026-07-10T17:44:49.000Z</time>
|
|
</trkpt>
|
|
<trkpt lat="55.369762" lon="8.734943">
|
|
<ele>4.149916</ele>
|
|
<time>2026-07-10T17:44:50.000Z</time>
|
|
</trkpt>
|
|
<trkpt lat="55.369819" lon="8.734943">
|
|
<ele>4.158817</ele>
|
|
<time>2026-07-10T17:44:51.000Z</time>
|
|
</trkpt>
|
|
<trkpt lat="55.369868" lon="8.734940">
|
|
<ele>4.166473</ele>
|
|
<time>2026-07-10T17:44:52.000Z</time>
|
|
</trkpt>
|
|
<trkpt lat="55.369914" lon="8.734939">
|
|
<ele>4.173657</ele>
|
|
<time>2026-07-10T17:44:53.000Z</time>
|
|
</trkpt>
|
|
<trkpt lat="55.369960" lon="8.734935">
|
|
<ele>4.180849</ele>
|
|
<time>2026-07-10T17:44:54.000Z</time>
|
|
</trkpt>
|
|
<trkpt lat="55.370014" lon="8.734937">
|
|
<ele>4.189283</ele>
|
|
<time>2026-07-10T17:44:55.000Z</time>
|
|
</trkpt>
|
|
<trkpt lat="55.370063" lon="8.734940">
|
|
<ele>4.196939</ele>
|
|
<time>2026-07-10T17:44:56.000Z</time>
|
|
</trkpt>
|
|
<trkpt lat="55.370113" lon="8.734943">
|
|
<ele>4.204751</ele>
|
|
<time>2026-07-10T17:44:57.000Z</time>
|
|
</trkpt>
|
|
<trkpt lat="55.370170" lon="8.734946">
|
|
<ele>4.213656</ele>
|
|
<time>2026-07-10T17:44:58.000Z</time>
|
|
</trkpt>
|
|
<trkpt lat="55.370223" lon="8.734948">
|
|
<ele>4.221934</ele>
|
|
<time>2026-07-10T17:44:59.000Z</time>
|
|
</trkpt>
|
|
<trkpt lat="55.370277" lon="8.734947">
|
|
<ele>4.230367</ele>
|
|
<time>2026-07-10T17:45:00.000Z</time>
|
|
</trkpt>
|
|
<trkpt lat="55.370342" lon="8.734946">
|
|
<ele>4.240517</ele>
|
|
<time>2026-07-10T17:45:01.000Z</time>
|
|
</trkpt>
|
|
<trkpt lat="55.370402" lon="8.734946">
|
|
<ele>4.249886</ele>
|
|
<time>2026-07-10T17:45:02.000Z</time>
|
|
</trkpt>
|
|
<trkpt lat="55.370459" lon="8.734943">
|
|
<ele>4.258791</ele>
|
|
<time>2026-07-10T17:45:03.000Z</time>
|
|
</trkpt>
|
|
<trkpt lat="55.370520" lon="8.734942">
|
|
<ele>4.268317</ele>
|
|
<time>2026-07-10T17:45:04.000Z</time>
|
|
</trkpt>
|
|
<trkpt lat="55.370574" lon="8.734941">
|
|
<ele>4.276749</ele>
|
|
<time>2026-07-10T17:45:05.000Z</time>
|
|
</trkpt>
|
|
<trkpt lat="55.370635" lon="8.734941">
|
|
<ele>4.286275</ele>
|
|
<time>2026-07-10T17:45:06.000Z</time>
|
|
</trkpt>
|
|
<trkpt lat="55.370692" lon="8.734943">
|
|
<ele>4.295177</ele>
|
|
<time>2026-07-10T17:45:07.000Z</time>
|
|
</trkpt>
|
|
<trkpt lat="55.370753" lon="8.734946">
|
|
<ele>4.304706</ele>
|
|
<time>2026-07-10T17:45:08.000Z</time>
|
|
</trkpt>
|
|
<trkpt lat="55.370811" lon="8.734948">
|
|
<ele>4.313765</ele>
|
|
<time>2026-07-10T17:45:09.000Z</time>
|
|
</trkpt>
|
|
<trkpt lat="55.370864" lon="8.734952">
|
|
<ele>4.322049</ele>
|
|
<time>2026-07-10T17:45:10.000Z</time>
|
|
</trkpt>
|
|
<trkpt lat="55.370925" lon="8.734950">
|
|
<ele>4.331576</ele>
|
|
<time>2026-07-10T17:45:11.000Z</time>
|
|
</trkpt>
|
|
<trkpt lat="55.370983" lon="8.734946">
|
|
<ele>4.340640</ele>
|
|
<time>2026-07-10T17:45:12.000Z</time>
|
|
</trkpt>
|
|
<trkpt lat="55.371043" lon="8.734946">
|
|
<ele>4.350009</ele>
|
|
<time>2026-07-10T17:45:13.000Z</time>
|
|
</trkpt>
|
|
<trkpt lat="55.371097" lon="8.734943">
|
|
<ele>4.358289</ele>
|
|
<time>2026-07-10T17:45:14.000Z</time>
|
|
</trkpt>
|
|
<trkpt lat="55.371154" lon="8.734940">
|
|
<ele>4.358292</ele>
|
|
<time>2026-07-10T17:45:15.000Z</time>
|
|
</trkpt>
|
|
<trkpt lat="55.371207" lon="8.734932">
|
|
<ele>4.358295</ele>
|
|
<time>2026-07-10T17:45:16.000Z</time>
|
|
</trkpt>
|
|
<trkpt lat="55.371268" lon="8.734926">
|
|
<ele>4.358297</ele>
|
|
<time>2026-07-10T17:45:17.000Z</time>
|
|
</trkpt>
|
|
<trkpt lat="55.371330" lon="8.734925">
|
|
<ele>4.358300</ele>
|
|
<time>2026-07-10T17:45:18.000Z</time>
|
|
</trkpt>
|
|
<trkpt lat="55.371387" lon="8.734922">
|
|
<ele>4.358303</ele>
|
|
<time>2026-07-10T17:45:19.000Z</time>
|
|
</trkpt>
|
|
<trkpt lat="55.371447" lon="8.734917">
|
|
<ele>4.358306</ele>
|
|
<time>2026-07-10T17:45:20.000Z</time>
|
|
</trkpt>
|
|
<trkpt lat="55.371501" lon="8.734912">
|
|
<ele>4.358309</ele>
|
|
<time>2026-07-10T17:45:21.000Z</time>
|
|
</trkpt>
|
|
<trkpt lat="55.371559" lon="8.734910">
|
|
<ele>4.358312</ele>
|
|
<time>2026-07-10T17:45:22.000Z</time>
|
|
</trkpt>
|
|
<trkpt lat="55.371612" lon="8.734910">
|
|
<ele>4.358314</ele>
|
|
<time>2026-07-10T17:45:23.000Z</time>
|
|
</trkpt>
|
|
<trkpt lat="55.371669" lon="8.734908">
|
|
<ele>4.358317</ele>
|
|
<time>2026-07-10T17:45:24.000Z</time>
|
|
</trkpt>
|
|
<trkpt lat="55.371722" lon="8.734906">
|
|
<ele>4.358319</ele>
|
|
<time>2026-07-10T17:45:25.000Z</time>
|
|
</trkpt>
|
|
<trkpt lat="55.371780" lon="8.734905">
|
|
<ele>4.358322</ele>
|
|
<time>2026-07-10T17:45:26.000Z</time>
|
|
</trkpt>
|
|
<trkpt lat="55.371832" lon="8.734903">
|
|
<ele>4.358325</ele>
|
|
<time>2026-07-10T17:45:27.000Z</time>
|
|
</trkpt>
|
|
<trkpt lat="55.371890" lon="8.734901">
|
|
<ele>4.358328</ele>
|
|
<time>2026-07-10T17:45:28.000Z</time>
|
|
</trkpt>
|
|
<trkpt lat="55.371943" lon="8.734899">
|
|
<ele>4.358330</ele>
|
|
<time>2026-07-10T17:45:29.000Z</time>
|
|
</trkpt>
|
|
<trkpt lat="55.371997" lon="8.734895">
|
|
<ele>4.358333</ele>
|
|
<time>2026-07-10T17:45:30.000Z</time>
|
|
</trkpt>
|
|
<trkpt lat="55.372054" lon="8.734895">
|
|
<ele>4.358336</ele>
|
|
<time>2026-07-10T17:45:31.000Z</time>
|
|
</trkpt>
|
|
<trkpt lat="55.372108" lon="8.734898">
|
|
<ele>4.358338</ele>
|
|
<time>2026-07-10T17:45:32.000Z</time>
|
|
</trkpt>
|
|
<trkpt lat="55.372161" lon="8.734897">
|
|
<ele>4.358341</ele>
|
|
<time>2026-07-10T17:45:33.000Z</time>
|
|
</trkpt>
|
|
<trkpt lat="55.372214" lon="8.734894">
|
|
<ele>4.358343</ele>
|
|
<time>2026-07-10T17:45:34.000Z</time>
|
|
</trkpt>
|
|
<trkpt lat="55.372268" lon="8.734890">
|
|
<ele>4.358346</ele>
|
|
<time>2026-07-10T17:45:35.000Z</time>
|
|
</trkpt>
|
|
<trkpt lat="55.372322" lon="8.734885">
|
|
<ele>4.358349</ele>
|
|
<time>2026-07-10T17:45:36.000Z</time>
|
|
</trkpt>
|
|
<trkpt lat="55.372375" lon="8.734881">
|
|
<ele>4.358351</ele>
|
|
<time>2026-07-10T17:45:37.000Z</time>
|
|
</trkpt>
|
|
<trkpt lat="55.372428" lon="8.734872">
|
|
<ele>4.358354</ele>
|
|
<time>2026-07-10T17:45:38.000Z</time>
|
|
</trkpt>
|
|
<trkpt lat="55.372481" lon="8.734867">
|
|
<ele>4.358356</ele>
|
|
<time>2026-07-10T17:45:39.000Z</time>
|
|
</trkpt>
|
|
<trkpt lat="55.372535" lon="8.734863">
|
|
<ele>4.358359</ele>
|
|
<time>2026-07-10T17:45:40.000Z</time>
|
|
</trkpt>
|
|
<trkpt lat="55.372588" lon="8.734861">
|
|
<ele>4.358362</ele>
|
|
<time>2026-07-10T17:45:41.000Z</time>
|
|
</trkpt>
|
|
<trkpt lat="55.372642" lon="8.734854">
|
|
<ele>4.358364</ele>
|
|
<time>2026-07-10T17:45:42.000Z</time>
|
|
</trkpt>
|
|
<trkpt lat="55.372695" lon="8.734835">
|
|
<ele>4.358367</ele>
|
|
<time>2026-07-10T17:45:43.000Z</time>
|
|
</trkpt>
|
|
<trkpt lat="55.372744" lon="8.734804">
|
|
<ele>4.358369</ele>
|
|
<time>2026-07-10T17:45:44.000Z</time>
|
|
</trkpt>
|
|
<trkpt lat="55.372791" lon="8.734754">
|
|
<ele>4.358372</ele>
|
|
<time>2026-07-10T17:45:45.000Z</time>
|
|
</trkpt>
|
|
<trkpt lat="55.372829" lon="8.734688">
|
|
<ele>4.358375</ele>
|
|
<time>2026-07-10T17:45:46.000Z</time>
|
|
</trkpt>
|
|
<trkpt lat="55.372860" lon="8.734610">
|
|
<ele>4.352868</ele>
|
|
<time>2026-07-10T17:45:47.000Z</time>
|
|
</trkpt>
|
|
<trkpt lat="55.372882" lon="8.734521">
|
|
<ele>4.335285</ele>
|
|
<time>2026-07-10T17:45:48.000Z</time>
|
|
</trkpt>
|
|
<trkpt lat="55.372898" lon="8.734426">
|
|
<ele>4.317335</ele>
|
|
<time>2026-07-10T17:45:49.000Z</time>
|
|
</trkpt>
|
|
<trkpt lat="55.372906" lon="8.734332">
|
|
<ele>4.300116</ele>
|
|
<time>2026-07-10T17:45:50.000Z</time>
|
|
</trkpt>
|
|
<trkpt lat="55.372910" lon="8.734235">
|
|
<ele>4.282497</ele>
|
|
<time>2026-07-10T17:45:51.000Z</time>
|
|
</trkpt>
|
|
<trkpt lat="55.372910" lon="8.734143">
|
|
<ele>4.265830</ele>
|
|
<time>2026-07-10T17:45:52.000Z</time>
|
|
</trkpt>
|
|
<trkpt lat="55.372910" lon="8.734046">
|
|
<ele>4.248257</ele>
|
|
<time>2026-07-10T17:45:53.000Z</time>
|
|
</trkpt>
|
|
<trkpt lat="55.372906" lon="8.733953">
|
|
<ele>4.231361</ele>
|
|
<time>2026-07-10T17:45:54.000Z</time>
|
|
</trkpt>
|
|
<trkpt lat="55.372898" lon="8.733858">
|
|
<ele>4.213963</ele>
|
|
<time>2026-07-10T17:45:55.000Z</time>
|
|
</trkpt>
|
|
<trkpt lat="55.372898" lon="8.733756">
|
|
<ele>4.195485</ele>
|
|
<time>2026-07-10T17:45:56.000Z</time>
|
|
</trkpt>
|
|
<trkpt lat="55.372891" lon="8.733660">
|
|
<ele>4.177950</ele>
|
|
<time>2026-07-10T17:45:57.000Z</time>
|
|
</trkpt>
|
|
<trkpt lat="55.372887" lon="8.733563">
|
|
<ele>4.160332</ele>
|
|
<time>2026-07-10T17:45:58.000Z</time>
|
|
</trkpt>
|
|
<trkpt lat="55.372887" lon="8.733469">
|
|
<ele>4.143302</ele>
|
|
<time>2026-07-10T17:45:59.000Z</time>
|
|
</trkpt>
|
|
<trkpt lat="55.372883" lon="8.733374">
|
|
<ele>4.126045</ele>
|
|
<time>2026-07-10T17:46:00.000Z</time>
|
|
</trkpt>
|
|
<trkpt lat="55.372875" lon="8.733277">
|
|
<ele>4.108288</ele>
|
|
<time>2026-07-10T17:46:01.000Z</time>
|
|
</trkpt>
|
|
<trkpt lat="55.372871" lon="8.733177">
|
|
<ele>4.090127</ele>
|
|
<time>2026-07-10T17:46:02.000Z</time>
|
|
</trkpt>
|
|
<trkpt lat="55.372864" lon="8.733081">
|
|
<ele>4.072593</ele>
|
|
<time>2026-07-10T17:46:03.000Z</time>
|
|
</trkpt>
|
|
<trkpt lat="55.372860" lon="8.732985">
|
|
<ele>4.055155</ele>
|
|
<time>2026-07-10T17:46:04.000Z</time>
|
|
</trkpt>
|
|
<trkpt lat="55.372856" lon="8.732890">
|
|
<ele>4.037897</ele>
|
|
<time>2026-07-10T17:46:05.000Z</time>
|
|
</trkpt>
|
|
<trkpt lat="55.372852" lon="8.732790">
|
|
<ele>4.019736</ele>
|
|
<time>2026-07-10T17:46:06.000Z</time>
|
|
</trkpt>
|
|
<trkpt lat="55.372849" lon="8.732686">
|
|
<ele>4.000871</ele>
|
|
<time>2026-07-10T17:46:07.000Z</time>
|
|
</trkpt>
|
|
<trkpt lat="55.372841" lon="8.732583">
|
|
<ele>3.982038</ele>
|
|
<time>2026-07-10T17:46:08.000Z</time>
|
|
</trkpt>
|
|
<trkpt lat="55.372833" lon="8.732473">
|
|
<ele>3.961948</ele>
|
|
<time>2026-07-10T17:46:09.000Z</time>
|
|
</trkpt>
|
|
<trkpt lat="55.372822" lon="8.732364">
|
|
<ele>3.941892</ele>
|
|
<time>2026-07-10T17:46:10.000Z</time>
|
|
</trkpt>
|
|
<trkpt lat="55.372818" lon="8.732256">
|
|
<ele>3.922285</ele>
|
|
<time>2026-07-10T17:46:11.000Z</time>
|
|
</trkpt>
|
|
<trkpt lat="55.372811" lon="8.732152">
|
|
<ele>3.903313</ele>
|
|
<time>2026-07-10T17:46:12.000Z</time>
|
|
</trkpt>
|
|
<trkpt lat="55.372807" lon="8.732047">
|
|
<ele>3.884248</ele>
|
|
<time>2026-07-10T17:46:13.000Z</time>
|
|
</trkpt>
|
|
<trkpt lat="55.372807" lon="8.731942">
|
|
<ele>3.865226</ele>
|
|
<time>2026-07-10T17:46:14.000Z</time>
|
|
</trkpt>
|
|
<trkpt lat="55.372799" lon="8.731838">
|
|
<ele>3.846214</ele>
|
|
<time>2026-07-10T17:46:15.000Z</time>
|
|
</trkpt>
|
|
<trkpt lat="55.372791" lon="8.731735">
|
|
<ele>3.827380</ele>
|
|
<time>2026-07-10T17:46:16.000Z</time>
|
|
</trkpt>
|
|
<trkpt lat="55.372788" lon="8.731635">
|
|
<ele>3.809239</ele>
|
|
<time>2026-07-10T17:46:17.000Z</time>
|
|
</trkpt>
|
|
<trkpt lat="55.372784" lon="8.731537">
|
|
<ele>3.791439</ele>
|
|
<time>2026-07-10T17:46:18.000Z</time>
|
|
</trkpt>
|
|
<trkpt lat="55.372776" lon="8.731437">
|
|
<ele>3.782536</ele>
|
|
<time>2026-07-10T17:46:19.000Z</time>
|
|
</trkpt>
|
|
<trkpt lat="55.372769" lon="8.731340">
|
|
<ele>3.778923</ele>
|
|
<time>2026-07-10T17:46:20.000Z</time>
|
|
</trkpt>
|
|
<trkpt lat="55.372761" lon="8.731244">
|
|
<ele>3.775338</ele>
|
|
<time>2026-07-10T17:46:21.000Z</time>
|
|
</trkpt>
|
|
<trkpt lat="55.372753" lon="8.731140">
|
|
<ele>3.771460</ele>
|
|
<time>2026-07-10T17:46:22.000Z</time>
|
|
</trkpt>
|
|
<trkpt lat="55.372753" lon="8.731035">
|
|
<ele>3.767580</ele>
|
|
<time>2026-07-10T17:46:23.000Z</time>
|
|
</trkpt>
|
|
<trkpt lat="55.372749" lon="8.730929">
|
|
<ele>3.763655</ele>
|
|
<time>2026-07-10T17:46:24.000Z</time>
|
|
</trkpt>
|
|
<trkpt lat="55.372742" lon="8.730818">
|
|
<ele>3.759528</ele>
|
|
<time>2026-07-10T17:46:25.000Z</time>
|
|
</trkpt>
|
|
<trkpt lat="55.372730" lon="8.730714">
|
|
<ele>3.755607</ele>
|
|
<time>2026-07-10T17:46:26.000Z</time>
|
|
</trkpt>
|
|
<trkpt lat="55.372727" lon="8.730604">
|
|
<ele>3.751537</ele>
|
|
<time>2026-07-10T17:46:27.000Z</time>
|
|
</trkpt>
|
|
<trkpt lat="55.372719" lon="8.730494">
|
|
<ele>3.747440</ele>
|
|
<time>2026-07-10T17:46:28.000Z</time>
|
|
</trkpt>
|
|
<trkpt lat="55.372711" lon="8.730390">
|
|
<ele>3.743562</ele>
|
|
<time>2026-07-10T17:46:29.000Z</time>
|
|
</trkpt>
|
|
<trkpt lat="55.372707" lon="8.730286">
|
|
<ele>3.739710</ele>
|
|
<time>2026-07-10T17:46:30.000Z</time>
|
|
</trkpt>
|
|
<trkpt lat="55.372700" lon="8.730184">
|
|
<ele>3.735914</ele>
|
|
<time>2026-07-10T17:46:31.000Z</time>
|
|
</trkpt>
|
|
<trkpt lat="55.372696" lon="8.730083">
|
|
<ele>3.732173</ele>
|
|
<time>2026-07-10T17:46:32.000Z</time>
|
|
</trkpt>
|
|
<trkpt lat="55.372692" lon="8.729982">
|
|
<ele>3.728432</ele>
|
|
<time>2026-07-10T17:46:33.000Z</time>
|
|
</trkpt>
|
|
<trkpt lat="55.372685" lon="8.729872">
|
|
<ele>3.724342</ele>
|
|
<time>2026-07-10T17:46:34.000Z</time>
|
|
</trkpt>
|
|
<trkpt lat="55.372677" lon="8.729772">
|
|
<ele>3.720611</ele>
|
|
<time>2026-07-10T17:46:35.000Z</time>
|
|
</trkpt>
|
|
<trkpt lat="55.372673" lon="8.729673">
|
|
<ele>3.716943</ele>
|
|
<time>2026-07-10T17:46:36.000Z</time>
|
|
</trkpt>
|
|
<trkpt lat="55.372666" lon="8.729572">
|
|
<ele>3.713184</ele>
|
|
<time>2026-07-10T17:46:37.000Z</time>
|
|
</trkpt>
|
|
<trkpt lat="55.372658" lon="8.729470">
|
|
<ele>3.709379</ele>
|
|
<time>2026-07-10T17:46:38.000Z</time>
|
|
</trkpt>
|
|
<trkpt lat="55.372650" lon="8.729365">
|
|
<ele>3.705464</ele>
|
|
<time>2026-07-10T17:46:39.000Z</time>
|
|
</trkpt>
|
|
<trkpt lat="55.372643" lon="8.729258">
|
|
<ele>3.701485</ele>
|
|
<time>2026-07-10T17:46:40.000Z</time>
|
|
</trkpt>
|
|
<trkpt lat="55.372635" lon="8.729152">
|
|
<ele>3.697533</ele>
|
|
<time>2026-07-10T17:46:41.000Z</time>
|
|
</trkpt>
|
|
<trkpt lat="55.372624" lon="8.729044">
|
|
<ele>3.693479</ele>
|
|
<time>2026-07-10T17:46:42.000Z</time>
|
|
</trkpt>
|
|
<trkpt lat="55.372616" lon="8.728933">
|
|
<ele>3.689345</ele>
|
|
<time>2026-07-10T17:46:43.000Z</time>
|
|
</trkpt>
|
|
<trkpt lat="55.372608" lon="8.728825">
|
|
<ele>3.685321</ele>
|
|
<time>2026-07-10T17:46:44.000Z</time>
|
|
</trkpt>
|
|
<trkpt lat="55.372601" lon="8.728716">
|
|
<ele>3.681267</ele>
|
|
<time>2026-07-10T17:46:45.000Z</time>
|
|
</trkpt>
|
|
<trkpt lat="55.372593" lon="8.728610">
|
|
<ele>3.677316</ele>
|
|
<time>2026-07-10T17:46:46.000Z</time>
|
|
</trkpt>
|
|
<trkpt lat="55.372582" lon="8.728504">
|
|
<ele>3.673335</ele>
|
|
<time>2026-07-10T17:46:47.000Z</time>
|
|
</trkpt>
|
|
<trkpt lat="55.372570" lon="8.728398">
|
|
<ele>3.669341</ele>
|
|
<time>2026-07-10T17:46:48.000Z</time>
|
|
</trkpt>
|
|
<trkpt lat="55.372563" lon="8.728297">
|
|
<ele>3.667091</ele>
|
|
<time>2026-07-10T17:46:49.000Z</time>
|
|
</trkpt>
|
|
<trkpt lat="55.372555" lon="8.728193">
|
|
<ele>3.665650</ele>
|
|
<time>2026-07-10T17:46:50.000Z</time>
|
|
</trkpt>
|
|
<trkpt lat="55.372543" lon="8.728088">
|
|
<ele>3.664179</ele>
|
|
<time>2026-07-10T17:46:51.000Z</time>
|
|
</trkpt>
|
|
<trkpt lat="55.372536" lon="8.727988">
|
|
<ele>3.662796</ele>
|
|
<time>2026-07-10T17:46:52.000Z</time>
|
|
</trkpt>
|
|
<trkpt lat="55.372524" lon="8.727885">
|
|
<ele>3.661352</ele>
|
|
<time>2026-07-10T17:46:53.000Z</time>
|
|
</trkpt>
|
|
<trkpt lat="55.372517" lon="8.727786">
|
|
<ele>3.659983</ele>
|
|
<time>2026-07-10T17:46:54.000Z</time>
|
|
</trkpt>
|
|
<trkpt lat="55.372509" lon="8.727684">
|
|
<ele>3.658569</ele>
|
|
<time>2026-07-10T17:46:55.000Z</time>
|
|
</trkpt>
|
|
<trkpt lat="55.372501" lon="8.727581">
|
|
<ele>3.657142</ele>
|
|
<time>2026-07-10T17:46:56.000Z</time>
|
|
</trkpt>
|
|
<trkpt lat="55.372494" lon="8.727476">
|
|
<ele>3.655690</ele>
|
|
<time>2026-07-10T17:46:57.000Z</time>
|
|
</trkpt>
|
|
<trkpt lat="55.372486" lon="8.727375">
|
|
<ele>3.654290</ele>
|
|
<time>2026-07-10T17:46:58.000Z</time>
|
|
</trkpt>
|
|
<trkpt lat="55.372482" lon="8.727267">
|
|
<ele>3.652804</ele>
|
|
<time>2026-07-10T17:46:59.000Z</time>
|
|
</trkpt>
|
|
<trkpt lat="55.372480" lon="8.727194">
|
|
<ele>3.651801</ele>
|
|
<time>2026-07-10T17:47:00.000Z</time>
|
|
</trkpt>
|
|
<trkpt lat="55.372471" lon="8.727058">
|
|
<ele>3.649921</ele>
|
|
<time>2026-07-10T17:47:01.000Z</time>
|
|
</trkpt>
|
|
<trkpt lat="55.372467" lon="8.726948">
|
|
<ele>3.648408</ele>
|
|
<time>2026-07-10T17:47:02.000Z</time>
|
|
</trkpt>
|
|
<trkpt lat="55.372463" lon="8.726841">
|
|
<ele>3.646936</ele>
|
|
<time>2026-07-10T17:47:03.000Z</time>
|
|
</trkpt>
|
|
<trkpt lat="55.372459" lon="8.726732">
|
|
<ele>3.645436</ele>
|
|
<time>2026-07-10T17:47:04.000Z</time>
|
|
</trkpt>
|
|
<trkpt lat="55.372463" lon="8.726627">
|
|
<ele>3.643991</ele>
|
|
<time>2026-07-10T17:47:05.000Z</time>
|
|
</trkpt>
|
|
<trkpt lat="55.372459" lon="8.726518">
|
|
<ele>3.642492</ele>
|
|
<time>2026-07-10T17:47:06.000Z</time>
|
|
</trkpt>
|
|
<trkpt lat="55.372456" lon="8.726409">
|
|
<ele>3.640993</ele>
|
|
<time>2026-07-10T17:47:07.000Z</time>
|
|
</trkpt>
|
|
<trkpt lat="55.372459" lon="8.726298">
|
|
<ele>3.639468</ele>
|
|
<time>2026-07-10T17:47:08.000Z</time>
|
|
</trkpt>
|
|
<trkpt lat="55.372463" lon="8.726190">
|
|
<ele>3.637982</ele>
|
|
<time>2026-07-10T17:47:09.000Z</time>
|
|
</trkpt>
|
|
<trkpt lat="55.372471" lon="8.726083">
|
|
<ele>3.636500</ele>
|
|
<time>2026-07-10T17:47:10.000Z</time>
|
|
</trkpt>
|
|
<trkpt lat="55.372478" lon="8.725978">
|
|
<ele>3.635048</ele>
|
|
<time>2026-07-10T17:47:11.000Z</time>
|
|
</trkpt>
|
|
<trkpt lat="55.372482" lon="8.725876">
|
|
<ele>3.633645</ele>
|
|
<time>2026-07-10T17:47:12.000Z</time>
|
|
</trkpt>
|
|
<trkpt lat="55.372490" lon="8.725770">
|
|
<ele>3.632177</ele>
|
|
<time>2026-07-10T17:47:13.000Z</time>
|
|
</trkpt>
|
|
<trkpt lat="55.372494" lon="8.725665">
|
|
<ele>3.630732</ele>
|
|
<time>2026-07-10T17:47:14.000Z</time>
|
|
</trkpt>
|
|
<trkpt lat="55.372505" lon="8.725558">
|
|
<ele>3.629239</ele>
|
|
<time>2026-07-10T17:47:15.000Z</time>
|
|
</trkpt>
|
|
<trkpt lat="55.372513" lon="8.725453">
|
|
<ele>3.627785</ele>
|
|
<time>2026-07-10T17:47:16.000Z</time>
|
|
</trkpt>
|
|
<trkpt lat="55.372517" lon="8.725346">
|
|
<ele>3.626312</ele>
|
|
<time>2026-07-10T17:47:17.000Z</time>
|
|
</trkpt>
|
|
<trkpt lat="55.372520" lon="8.725239">
|
|
<ele>3.624841</ele>
|
|
<time>2026-07-10T17:47:18.000Z</time>
|
|
</trkpt>
|
|
<trkpt lat="55.372524" lon="8.725132">
|
|
<ele>3.630890</ele>
|
|
<time>2026-07-10T17:47:19.000Z</time>
|
|
</trkpt>
|
|
<trkpt lat="55.372532" lon="8.725026">
|
|
<ele>3.638971</ele>
|
|
<time>2026-07-10T17:47:20.000Z</time>
|
|
</trkpt>
|
|
<trkpt lat="55.372539" lon="8.724916">
|
|
<ele>3.647335</ele>
|
|
<time>2026-07-10T17:47:21.000Z</time>
|
|
</trkpt>
|
|
<trkpt lat="55.372547" lon="8.724811">
|
|
<ele>3.655341</ele>
|
|
<time>2026-07-10T17:47:22.000Z</time>
|
|
</trkpt>
|
|
<trkpt lat="55.372555" lon="8.724701">
|
|
<ele>3.663722</ele>
|
|
<time>2026-07-10T17:47:23.000Z</time>
|
|
</trkpt>
|
|
<trkpt lat="55.372562" lon="8.724595">
|
|
<ele>3.671786</ele>
|
|
<time>2026-07-10T17:47:24.000Z</time>
|
|
</trkpt>
|
|
<trkpt lat="55.372570" lon="8.724488">
|
|
<ele>3.679942</ele>
|
|
<time>2026-07-10T17:47:25.000Z</time>
|
|
</trkpt>
|
|
<trkpt lat="55.372578" lon="8.724383">
|
|
<ele>3.687948</ele>
|
|
<time>2026-07-10T17:47:26.000Z</time>
|
|
</trkpt>
|
|
<trkpt lat="55.372585" lon="8.724276">
|
|
<ele>3.696088</ele>
|
|
<time>2026-07-10T17:47:27.000Z</time>
|
|
</trkpt>
|
|
<trkpt lat="55.372589" lon="8.724170">
|
|
<ele>3.704116</ele>
|
|
<time>2026-07-10T17:47:28.000Z</time>
|
|
</trkpt>
|
|
<trkpt lat="55.372597" lon="8.724064">
|
|
<ele>3.712197</ele>
|
|
<time>2026-07-10T17:47:29.000Z</time>
|
|
</trkpt>
|
|
<trkpt lat="55.372604" lon="8.723960">
|
|
<ele>3.720111</ele>
|
|
<time>2026-07-10T17:47:30.000Z</time>
|
|
</trkpt>
|
|
<trkpt lat="55.372612" lon="8.723856">
|
|
<ele>3.728042</ele>
|
|
<time>2026-07-10T17:47:31.000Z</time>
|
|
</trkpt>
|
|
<trkpt lat="55.372623" lon="8.723755">
|
|
<ele>3.735813</ele>
|
|
<time>2026-07-10T17:47:32.000Z</time>
|
|
</trkpt>
|
|
<trkpt lat="55.372631" lon="8.723650">
|
|
<ele>3.743819</ele>
|
|
<time>2026-07-10T17:47:33.000Z</time>
|
|
</trkpt>
|
|
<trkpt lat="55.372642" lon="8.723545">
|
|
<ele>3.751888</ele>
|
|
<time>2026-07-10T17:47:34.000Z</time>
|
|
</trkpt>
|
|
<trkpt lat="55.372654" lon="8.723441">
|
|
<ele>3.759908</ele>
|
|
<time>2026-07-10T17:47:35.000Z</time>
|
|
</trkpt>
|
|
<trkpt lat="55.372665" lon="8.723337">
|
|
<ele>3.767902</ele>
|
|
<time>2026-07-10T17:47:36.000Z</time>
|
|
</trkpt>
|
|
<trkpt lat="55.372676" lon="8.723235">
|
|
<ele>3.775748</ele>
|
|
<time>2026-07-10T17:47:37.000Z</time>
|
|
</trkpt>
|
|
<trkpt lat="55.372692" lon="8.723131">
|
|
<ele>3.783890</ele>
|
|
<time>2026-07-10T17:47:38.000Z</time>
|
|
</trkpt>
|
|
<trkpt lat="55.372711" lon="8.723033">
|
|
<ele>3.791715</ele>
|
|
<time>2026-07-10T17:47:39.000Z</time>
|
|
</trkpt>
|
|
<trkpt lat="55.372730" lon="8.722935">
|
|
<ele>3.799540</ele>
|
|
<time>2026-07-10T17:47:40.000Z</time>
|
|
</trkpt>
|
|
<trkpt lat="55.372749" lon="8.722839">
|
|
<ele>3.807223</ele>
|
|
<time>2026-07-10T17:47:41.000Z</time>
|
|
</trkpt>
|
|
<trkpt lat="55.372768" lon="8.722744">
|
|
<ele>3.814833</ele>
|
|
<time>2026-07-10T17:47:42.000Z</time>
|
|
</trkpt>
|
|
<trkpt lat="55.372791" lon="8.722655">
|
|
<ele>3.822222</ele>
|
|
<time>2026-07-10T17:47:43.000Z</time>
|
|
</trkpt>
|
|
<trkpt lat="55.372814" lon="8.722566">
|
|
<ele>3.829611</ele>
|
|
<time>2026-07-10T17:47:44.000Z</time>
|
|
</trkpt>
|
|
<trkpt lat="55.372837" lon="8.722481">
|
|
<ele>3.836725</ele>
|
|
<time>2026-07-10T17:47:45.000Z</time>
|
|
</trkpt>
|
|
<trkpt lat="55.372863" lon="8.722398">
|
|
<ele>3.843888</ele>
|
|
<time>2026-07-10T17:47:46.000Z</time>
|
|
</trkpt>
|
|
<trkpt lat="55.372886" lon="8.722318">
|
|
<ele>3.850663</ele>
|
|
<time>2026-07-10T17:47:47.000Z</time>
|
|
</trkpt>
|
|
<trkpt lat="55.372917" lon="8.722241">
|
|
<ele>3.857794</ele>
|
|
<time>2026-07-10T17:47:48.000Z</time>
|
|
</trkpt>
|
|
<trkpt lat="55.372943" lon="8.722167">
|
|
<ele>3.863235</ele>
|
|
<time>2026-07-10T17:47:49.000Z</time>
|
|
</trkpt>
|
|
<trkpt lat="55.372974" lon="8.722091">
|
|
<ele>3.857775</ele>
|
|
<time>2026-07-10T17:47:50.000Z</time>
|
|
</trkpt>
|
|
<trkpt lat="55.373004" lon="8.722016">
|
|
<ele>3.852423</ele>
|
|
<time>2026-07-10T17:47:51.000Z</time>
|
|
</trkpt>
|
|
<trkpt lat="55.373035" lon="8.721943">
|
|
<ele>3.847104</ele>
|
|
<time>2026-07-10T17:47:52.000Z</time>
|
|
</trkpt>
|
|
<trkpt lat="55.373066" lon="8.721869">
|
|
<ele>3.841738</ele>
|
|
<time>2026-07-10T17:47:53.000Z</time>
|
|
</trkpt>
|
|
<trkpt lat="55.373096" lon="8.721797">
|
|
<ele>3.836528</ele>
|
|
<time>2026-07-10T17:47:54.000Z</time>
|
|
</trkpt>
|
|
<trkpt lat="55.373130" lon="8.721720">
|
|
<ele>3.830836</ele>
|
|
<time>2026-07-10T17:47:55.000Z</time>
|
|
</trkpt>
|
|
<trkpt lat="55.373161" lon="8.721646">
|
|
<ele>3.825471</ele>
|
|
<time>2026-07-10T17:47:56.000Z</time>
|
|
</trkpt>
|
|
<trkpt lat="55.373191" lon="8.721573">
|
|
<ele>3.820213</ele>
|
|
<time>2026-07-10T17:47:57.000Z</time>
|
|
</trkpt>
|
|
<trkpt lat="55.373226" lon="8.721498">
|
|
<ele>3.814549</ele>
|
|
<time>2026-07-10T17:47:58.000Z</time>
|
|
</trkpt>
|
|
<trkpt lat="55.373260" lon="8.721422">
|
|
<ele>3.808904</ele>
|
|
<time>2026-07-10T17:47:59.000Z</time>
|
|
</trkpt>
|
|
<trkpt lat="55.373290" lon="8.721351">
|
|
<ele>3.803740</ele>
|
|
<time>2026-07-10T17:48:00.000Z</time>
|
|
</trkpt>
|
|
<trkpt lat="55.373325" lon="8.721277">
|
|
<ele>3.798121</ele>
|
|
<time>2026-07-10T17:48:01.000Z</time>
|
|
</trkpt>
|
|
<trkpt lat="55.373359" lon="8.721205">
|
|
<ele>3.792657</ele>
|
|
<time>2026-07-10T17:48:02.000Z</time>
|
|
</trkpt>
|
|
<trkpt lat="55.373390" lon="8.721130">
|
|
<ele>3.787245</ele>
|
|
<time>2026-07-10T17:48:03.000Z</time>
|
|
</trkpt>
|
|
<trkpt lat="55.373424" lon="8.721053">
|
|
<ele>3.781554</ele>
|
|
<time>2026-07-10T17:48:04.000Z</time>
|
|
</trkpt>
|
|
<trkpt lat="55.373455" lon="8.720977">
|
|
<ele>3.776094</ele>
|
|
<time>2026-07-10T17:48:05.000Z</time>
|
|
</trkpt>
|
|
<trkpt lat="55.373489" lon="8.720905">
|
|
<ele>3.770630</ele>
|
|
<time>2026-07-10T17:48:06.000Z</time>
|
|
</trkpt>
|
|
<trkpt lat="55.373520" lon="8.720828">
|
|
<ele>3.765123</ele>
|
|
<time>2026-07-10T17:48:07.000Z</time>
|
|
</trkpt>
|
|
<trkpt lat="55.373554" lon="8.720751">
|
|
<ele>3.759432</ele>
|
|
<time>2026-07-10T17:48:08.000Z</time>
|
|
</trkpt>
|
|
<trkpt lat="55.373584" lon="8.720675">
|
|
<ele>3.754031</ele>
|
|
<time>2026-07-10T17:48:09.000Z</time>
|
|
</trkpt>
|
|
<trkpt lat="55.373615" lon="8.720597">
|
|
<ele>3.748476</ele>
|
|
<time>2026-07-10T17:48:10.000Z</time>
|
|
</trkpt>
|
|
<trkpt lat="55.373645" lon="8.720521">
|
|
<ele>3.743075</ele>
|
|
<time>2026-07-10T17:48:11.000Z</time>
|
|
</trkpt>
|
|
<trkpt lat="55.373680" lon="8.720445">
|
|
<ele>3.737366</ele>
|
|
<time>2026-07-10T17:48:12.000Z</time>
|
|
</trkpt>
|
|
<trkpt lat="55.373714" lon="8.720368">
|
|
<ele>3.731675</ele>
|
|
<time>2026-07-10T17:48:13.000Z</time>
|
|
</trkpt>
|
|
<trkpt lat="55.373745" lon="8.720294">
|
|
<ele>3.726309</ele>
|
|
<time>2026-07-10T17:48:14.000Z</time>
|
|
</trkpt>
|
|
<trkpt lat="55.373779" lon="8.720221">
|
|
<ele>3.720801</ele>
|
|
<time>2026-07-10T17:48:15.000Z</time>
|
|
</trkpt>
|
|
<trkpt lat="55.373809" lon="8.720148">
|
|
<ele>3.715543</ele>
|
|
<time>2026-07-10T17:48:16.000Z</time>
|
|
</trkpt>
|
|
<trkpt lat="55.373840" lon="8.720075">
|
|
<ele>3.710224</ele>
|
|
<time>2026-07-10T17:48:17.000Z</time>
|
|
</trkpt>
|
|
<trkpt lat="55.373874" lon="8.720001">
|
|
<ele>3.704670</ele>
|
|
<time>2026-07-10T17:48:18.000Z</time>
|
|
</trkpt>
|
|
<trkpt lat="55.373905" lon="8.719924">
|
|
<ele>3.699163</ele>
|
|
<time>2026-07-10T17:48:19.000Z</time>
|
|
</trkpt>
|
|
<trkpt lat="55.373939" lon="8.719850">
|
|
<ele>3.693609</ele>
|
|
<time>2026-07-10T17:48:20.000Z</time>
|
|
</trkpt>
|
|
<trkpt lat="55.373969" lon="8.719777">
|
|
<ele>3.688351</ele>
|
|
<time>2026-07-10T17:48:21.000Z</time>
|
|
</trkpt>
|
|
<trkpt lat="55.374000" lon="8.719703">
|
|
<ele>3.682986</ele>
|
|
<time>2026-07-10T17:48:22.000Z</time>
|
|
</trkpt>
|
|
<trkpt lat="55.374034" lon="8.719628">
|
|
<ele>3.681790</ele>
|
|
<time>2026-07-10T17:48:23.000Z</time>
|
|
</trkpt>
|
|
<trkpt lat="55.374065" lon="8.719554">
|
|
<ele>3.691117</ele>
|
|
<time>2026-07-10T17:48:24.000Z</time>
|
|
</trkpt>
|
|
<trkpt lat="55.374095" lon="8.719480">
|
|
<ele>3.700339</ele>
|
|
<time>2026-07-10T17:48:25.000Z</time>
|
|
</trkpt>
|
|
<trkpt lat="55.374126" lon="8.719404">
|
|
<ele>3.709830</ele>
|
|
<time>2026-07-10T17:48:26.000Z</time>
|
|
</trkpt>
|
|
<trkpt lat="55.374160" lon="8.719329">
|
|
<ele>3.719563</ele>
|
|
<time>2026-07-10T17:48:27.000Z</time>
|
|
</trkpt>
|
|
<trkpt lat="55.374195" lon="8.719252">
|
|
<ele>3.729567</ele>
|
|
<time>2026-07-10T17:48:28.000Z</time>
|
|
</trkpt>
|
|
<trkpt lat="55.374225" lon="8.719177">
|
|
<ele>3.738871</ele>
|
|
<time>2026-07-10T17:48:29.000Z</time>
|
|
</trkpt>
|
|
<trkpt lat="55.374259" lon="8.719104">
|
|
<ele>3.748447</ele>
|
|
<time>2026-07-10T17:48:30.000Z</time>
|
|
</trkpt>
|
|
<trkpt lat="55.374290" lon="8.719030">
|
|
<ele>3.757774</ele>
|
|
<time>2026-07-10T17:48:31.000Z</time>
|
|
</trkpt>
|
|
<trkpt lat="55.374324" lon="8.718955">
|
|
<ele>3.767507</ele>
|
|
<time>2026-07-10T17:48:32.000Z</time>
|
|
</trkpt>
|
|
<trkpt lat="55.374355" lon="8.718879">
|
|
<ele>3.776998</ele>
|
|
<time>2026-07-10T17:48:33.000Z</time>
|
|
</trkpt>
|
|
<trkpt lat="55.374385" lon="8.718806">
|
|
<ele>3.786137</ele>
|
|
<time>2026-07-10T17:48:34.000Z</time>
|
|
</trkpt>
|
|
<trkpt lat="55.374420" lon="8.718728">
|
|
<ele>3.796220</ele>
|
|
<time>2026-07-10T17:48:35.000Z</time>
|
|
</trkpt>
|
|
<trkpt lat="55.374447" lon="8.718649">
|
|
<ele>3.805572</ele>
|
|
<time>2026-07-10T17:48:36.000Z</time>
|
|
</trkpt>
|
|
<trkpt lat="55.374477" lon="8.718572">
|
|
<ele>3.815044</ele>
|
|
<time>2026-07-10T17:48:37.000Z</time>
|
|
</trkpt>
|
|
<trkpt lat="55.374508" lon="8.718496">
|
|
<ele>3.824534</ele>
|
|
<time>2026-07-10T17:48:38.000Z</time>
|
|
</trkpt>
|
|
<trkpt lat="55.374534" lon="8.718419">
|
|
<ele>3.833621</ele>
|
|
<time>2026-07-10T17:48:39.000Z</time>
|
|
</trkpt>
|
|
<trkpt lat="55.374565" lon="8.718343">
|
|
<ele>3.843112</ele>
|
|
<time>2026-07-10T17:48:40.000Z</time>
|
|
</trkpt>
|
|
<trkpt lat="55.374591" lon="8.718266">
|
|
<ele>3.852198</ele>
|
|
<time>2026-07-10T17:48:41.000Z</time>
|
|
</trkpt>
|
|
<trkpt lat="55.374618" lon="8.718188">
|
|
<ele>3.861464</ele>
|
|
<time>2026-07-10T17:48:42.000Z</time>
|
|
</trkpt>
|
|
<trkpt lat="55.374645" lon="8.718112">
|
|
<ele>3.870557</ele>
|
|
<time>2026-07-10T17:48:43.000Z</time>
|
|
</trkpt>
|
|
<trkpt lat="55.374676" lon="8.718035">
|
|
<ele>3.880130</ele>
|
|
<time>2026-07-10T17:48:44.000Z</time>
|
|
</trkpt>
|
|
<trkpt lat="55.374702" lon="8.717958">
|
|
<ele>3.889217</ele>
|
|
<time>2026-07-10T17:48:45.000Z</time>
|
|
</trkpt>
|
|
<trkpt lat="55.374729" lon="8.717884">
|
|
<ele>3.898138</ele>
|
|
<time>2026-07-10T17:48:46.000Z</time>
|
|
</trkpt>
|
|
<trkpt lat="55.374759" lon="8.717811">
|
|
<ele>3.907277</ele>
|
|
<time>2026-07-10T17:48:47.000Z</time>
|
|
</trkpt>
|
|
<trkpt lat="55.374790" lon="8.717737">
|
|
<ele>3.916604</ele>
|
|
<time>2026-07-10T17:48:48.000Z</time>
|
|
</trkpt>
|
|
<trkpt lat="55.374820" lon="8.717663">
|
|
<ele>3.925826</ele>
|
|
<time>2026-07-10T17:48:49.000Z</time>
|
|
</trkpt>
|
|
<trkpt lat="55.374847" lon="8.717585">
|
|
<ele>3.935091</ele>
|
|
<time>2026-07-10T17:48:50.000Z</time>
|
|
</trkpt>
|
|
<trkpt lat="55.374873" lon="8.717511">
|
|
<ele>3.943918</ele>
|
|
<time>2026-07-10T17:48:51.000Z</time>
|
|
</trkpt>
|
|
<trkpt lat="55.374900" lon="8.717433">
|
|
<ele>3.953183</ele>
|
|
<time>2026-07-10T17:48:52.000Z</time>
|
|
</trkpt>
|
|
<trkpt lat="55.374931" lon="8.717357">
|
|
<ele>3.962674</ele>
|
|
<time>2026-07-10T17:48:53.000Z</time>
|
|
</trkpt>
|
|
<trkpt lat="55.374958" lon="8.717279">
|
|
<ele>3.971939</ele>
|
|
<time>2026-07-10T17:48:54.000Z</time>
|
|
</trkpt>
|
|
<trkpt lat="55.374984" lon="8.717207">
|
|
<ele>3.980594</ele>
|
|
<time>2026-07-10T17:48:55.000Z</time>
|
|
</trkpt>
|
|
<trkpt lat="55.375010" lon="8.717133">
|
|
<ele>3.989420</ele>
|
|
<time>2026-07-10T17:48:56.000Z</time>
|
|
</trkpt>
|
|
<trkpt lat="55.375038" lon="8.717054">
|
|
<ele>3.998865</ele>
|
|
<time>2026-07-10T17:48:57.000Z</time>
|
|
</trkpt>
|
|
<trkpt lat="55.375064" lon="8.716979">
|
|
<ele>4.007575</ele>
|
|
<time>2026-07-10T17:48:58.000Z</time>
|
|
</trkpt>
|
|
<trkpt lat="55.375091" lon="8.716903">
|
|
<ele>4.016427</ele>
|
|
<time>2026-07-10T17:48:59.000Z</time>
|
|
</trkpt>
|
|
<trkpt lat="55.375118" lon="8.716827">
|
|
<ele>4.025279</ele>
|
|
<time>2026-07-10T17:49:00.000Z</time>
|
|
</trkpt>
|
|
<trkpt lat="55.375148" lon="8.716752">
|
|
<ele>4.034337</ele>
|
|
<time>2026-07-10T17:49:01.000Z</time>
|
|
</trkpt>
|
|
<trkpt lat="55.375171" lon="8.716676">
|
|
<ele>4.042841</ele>
|
|
<time>2026-07-10T17:49:02.000Z</time>
|
|
</trkpt>
|
|
<trkpt lat="55.375198" lon="8.716600">
|
|
<ele>4.051693</ele>
|
|
<time>2026-07-10T17:49:03.000Z</time>
|
|
</trkpt>
|
|
<trkpt lat="55.375225" lon="8.716524">
|
|
<ele>4.060545</ele>
|
|
<time>2026-07-10T17:49:04.000Z</time>
|
|
</trkpt>
|
|
<trkpt lat="55.375251" lon="8.716451">
|
|
<ele>4.069054</ele>
|
|
<time>2026-07-10T17:49:05.000Z</time>
|
|
</trkpt>
|
|
<trkpt lat="55.375278" lon="8.716379">
|
|
<ele>4.077573</ele>
|
|
<time>2026-07-10T17:49:06.000Z</time>
|
|
</trkpt>
|
|
<trkpt lat="55.375305" lon="8.716310">
|
|
<ele>4.085847</ele>
|
|
<time>2026-07-10T17:49:07.000Z</time>
|
|
</trkpt>
|
|
<trkpt lat="55.375331" lon="8.716238">
|
|
<ele>4.094272</ele>
|
|
<time>2026-07-10T17:49:08.000Z</time>
|
|
</trkpt>
|
|
<trkpt lat="55.375358" lon="8.716165">
|
|
<ele>4.102874</ele>
|
|
<time>2026-07-10T17:49:09.000Z</time>
|
|
</trkpt>
|
|
<trkpt lat="55.375385" lon="8.716091">
|
|
<ele>4.111559</ele>
|
|
<time>2026-07-10T17:49:10.000Z</time>
|
|
</trkpt>
|
|
<trkpt lat="55.375415" lon="8.716018">
|
|
<ele>4.120457</ele>
|
|
<time>2026-07-10T17:49:11.000Z</time>
|
|
</trkpt>
|
|
<trkpt lat="55.375442" lon="8.715944">
|
|
<ele>4.129142</ele>
|
|
<time>2026-07-10T17:49:12.000Z</time>
|
|
</trkpt>
|
|
<trkpt lat="55.375469" lon="8.715869">
|
|
<ele>4.137910</ele>
|
|
<time>2026-07-10T17:49:13.000Z</time>
|
|
</trkpt>
|
|
<trkpt lat="55.375496" lon="8.715795">
|
|
<ele>4.146595</ele>
|
|
<time>2026-07-10T17:49:14.000Z</time>
|
|
</trkpt>
|
|
<trkpt lat="55.375518" lon="8.715718">
|
|
<ele>4.155107</ele>
|
|
<time>2026-07-10T17:49:15.000Z</time>
|
|
</trkpt>
|
|
<trkpt lat="55.375541" lon="8.715638">
|
|
<ele>4.163961</ele>
|
|
<time>2026-07-10T17:49:16.000Z</time>
|
|
</trkpt>
|
|
<trkpt lat="55.375568" lon="8.715560">
|
|
<ele>4.172981</ele>
|
|
<time>2026-07-10T17:49:17.000Z</time>
|
|
</trkpt>
|
|
<trkpt lat="55.375591" lon="8.715478">
|
|
<ele>4.182012</ele>
|
|
<time>2026-07-10T17:49:18.000Z</time>
|
|
</trkpt>
|
|
<trkpt lat="55.375614" lon="8.715396">
|
|
<ele>4.191043</ele>
|
|
<time>2026-07-10T17:49:19.000Z</time>
|
|
</trkpt>
|
|
<trkpt lat="55.375637" lon="8.715316">
|
|
<ele>4.199898</ele>
|
|
<time>2026-07-10T17:49:20.000Z</time>
|
|
</trkpt>
|
|
<trkpt lat="55.375663" lon="8.715236">
|
|
<ele>4.208999</ele>
|
|
<time>2026-07-10T17:49:21.000Z</time>
|
|
</trkpt>
|
|
<trkpt lat="55.375686" lon="8.715167">
|
|
<ele>4.216900</ele>
|
|
<time>2026-07-10T17:49:22.000Z</time>
|
|
</trkpt>
|
|
<trkpt lat="55.375716" lon="8.715076">
|
|
<ele>4.227290</ele>
|
|
<time>2026-07-10T17:49:23.000Z</time>
|
|
</trkpt>
|
|
<trkpt lat="55.375740" lon="8.714991">
|
|
<ele>4.236663</ele>
|
|
<time>2026-07-10T17:49:24.000Z</time>
|
|
</trkpt>
|
|
<trkpt lat="55.375763" lon="8.714904">
|
|
<ele>4.246140</ele>
|
|
<time>2026-07-10T17:49:25.000Z</time>
|
|
</trkpt>
|
|
<trkpt lat="55.375785" lon="8.714822">
|
|
<ele>4.255095</ele>
|
|
<time>2026-07-10T17:49:26.000Z</time>
|
|
</trkpt>
|
|
<trkpt lat="55.375812" lon="8.714739">
|
|
<ele>4.264540</ele>
|
|
<time>2026-07-10T17:49:27.000Z</time>
|
|
</trkpt>
|
|
<trkpt lat="55.375835" lon="8.714655">
|
|
<ele>4.273749</ele>
|
|
<time>2026-07-10T17:49:28.000Z</time>
|
|
</trkpt>
|
|
<trkpt lat="55.375862" lon="8.714570">
|
|
<ele>4.283366</ele>
|
|
<time>2026-07-10T17:49:29.000Z</time>
|
|
</trkpt>
|
|
<trkpt lat="55.375885" lon="8.714483">
|
|
<ele>4.292842</ele>
|
|
<time>2026-07-10T17:49:30.000Z</time>
|
|
</trkpt>
|
|
<trkpt lat="55.375911" lon="8.714400">
|
|
<ele>4.302202</ele>
|
|
<time>2026-07-10T17:49:31.000Z</time>
|
|
</trkpt>
|
|
<trkpt lat="55.375931" lon="8.714315">
|
|
<ele>4.311288</ele>
|
|
<time>2026-07-10T17:49:32.000Z</time>
|
|
</trkpt>
|
|
<trkpt lat="55.375953" lon="8.714230">
|
|
<ele>4.300234</ele>
|
|
<time>2026-07-10T17:49:33.000Z</time>
|
|
</trkpt>
|
|
<trkpt lat="55.375980" lon="8.714146">
|
|
<ele>4.284901</ele>
|
|
<time>2026-07-10T17:49:34.000Z</time>
|
|
</trkpt>
|
|
<trkpt lat="55.376003" lon="8.714061">
|
|
<ele>4.269943</ele>
|
|
<time>2026-07-10T17:49:35.000Z</time>
|
|
</trkpt>
|
|
<trkpt lat="55.376030" lon="8.713978">
|
|
<ele>4.254747</ele>
|
|
<time>2026-07-10T17:49:36.000Z</time>
|
|
</trkpt>
|
|
<trkpt lat="55.376053" lon="8.713894">
|
|
<ele>4.239932</ele>
|
|
<time>2026-07-10T17:49:37.000Z</time>
|
|
</trkpt>
|
|
<trkpt lat="55.376075" lon="8.713810">
|
|
<ele>4.225237</ele>
|
|
<time>2026-07-10T17:49:38.000Z</time>
|
|
</trkpt>
|
|
<trkpt lat="55.376102" lon="8.713726">
|
|
<ele>4.209903</ele>
|
|
<time>2026-07-10T17:49:39.000Z</time>
|
|
</trkpt>
|
|
<trkpt lat="55.376125" lon="8.713643">
|
|
<ele>4.195232</ele>
|
|
<time>2026-07-10T17:49:40.000Z</time>
|
|
</trkpt>
|
|
<trkpt lat="55.376148" lon="8.713560">
|
|
<ele>4.180560</ele>
|
|
<time>2026-07-10T17:49:41.000Z</time>
|
|
</trkpt>
|
|
<trkpt lat="55.376175" lon="8.713476">
|
|
<ele>4.165226</ele>
|
|
<time>2026-07-10T17:49:42.000Z</time>
|
|
</trkpt>
|
|
<trkpt lat="55.376197" lon="8.713392">
|
|
<ele>4.150531</ele>
|
|
<time>2026-07-10T17:49:43.000Z</time>
|
|
</trkpt>
|
|
<trkpt lat="55.376220" lon="8.713308">
|
|
<ele>4.135716</ele>
|
|
<time>2026-07-10T17:49:44.000Z</time>
|
|
</trkpt>
|
|
<trkpt lat="55.376243" lon="8.713221">
|
|
<ele>4.120471</ele>
|
|
<time>2026-07-10T17:49:45.000Z</time>
|
|
</trkpt>
|
|
<trkpt lat="55.376266" lon="8.713139">
|
|
<ele>4.105942</ele>
|
|
<time>2026-07-10T17:49:46.000Z</time>
|
|
</trkpt>
|
|
<trkpt lat="55.376293" lon="8.713056">
|
|
<ele>4.090746</ele>
|
|
<time>2026-07-10T17:49:47.000Z</time>
|
|
</trkpt>
|
|
<trkpt lat="55.376319" lon="8.712972">
|
|
<ele>4.075549</ele>
|
|
<time>2026-07-10T17:49:48.000Z</time>
|
|
</trkpt>
|
|
<trkpt lat="55.376342" lon="8.712890">
|
|
<ele>4.061020</ele>
|
|
<time>2026-07-10T17:49:49.000Z</time>
|
|
</trkpt>
|
|
<trkpt lat="55.376369" lon="8.712808">
|
|
<ele>4.045962</ele>
|
|
<time>2026-07-10T17:49:50.000Z</time>
|
|
</trkpt>
|
|
<trkpt lat="55.376392" lon="8.712728">
|
|
<ele>4.031717</ele>
|
|
<time>2026-07-10T17:49:51.000Z</time>
|
|
</trkpt>
|
|
<trkpt lat="55.376419" lon="8.712648">
|
|
<ele>4.016934</ele>
|
|
<time>2026-07-10T17:49:52.000Z</time>
|
|
</trkpt>
|
|
<trkpt lat="55.376445" lon="8.712568">
|
|
<ele>4.002291</ele>
|
|
<time>2026-07-10T17:49:53.000Z</time>
|
|
</trkpt>
|
|
<trkpt lat="55.376468" lon="8.712489">
|
|
<ele>3.988188</ele>
|
|
<time>2026-07-10T17:49:54.000Z</time>
|
|
</trkpt>
|
|
<trkpt lat="55.376495" lon="8.712412">
|
|
<ele>3.973812</ele>
|
|
<time>2026-07-10T17:49:55.000Z</time>
|
|
</trkpt>
|
|
<trkpt lat="55.376522" lon="8.712329">
|
|
<ele>3.958617</ele>
|
|
<time>2026-07-10T17:49:56.000Z</time>
|
|
</trkpt>
|
|
<trkpt lat="55.376545" lon="8.712246">
|
|
<ele>3.943945</ele>
|
|
<time>2026-07-10T17:49:57.000Z</time>
|
|
</trkpt>
|
|
<trkpt lat="55.376571" lon="8.712161">
|
|
<ele>3.928608</ele>
|
|
<time>2026-07-10T17:49:58.000Z</time>
|
|
</trkpt>
|
|
<trkpt lat="55.376598" lon="8.712076">
|
|
<ele>3.913136</ele>
|
|
<time>2026-07-10T17:49:59.000Z</time>
|
|
</trkpt>
|
|
<trkpt lat="55.376621" lon="8.711989">
|
|
<ele>3.897891</ele>
|
|
<time>2026-07-10T17:50:00.000Z</time>
|
|
</trkpt>
|
|
<trkpt lat="55.376644" lon="8.711903">
|
|
<ele>3.882789</ele>
|
|
<time>2026-07-10T17:50:01.000Z</time>
|
|
</trkpt>
|
|
<trkpt lat="55.376670" lon="8.711820">
|
|
<ele>3.867731</ele>
|
|
<time>2026-07-10T17:50:02.000Z</time>
|
|
</trkpt>
|
|
<trkpt lat="55.376693" lon="8.711743">
|
|
<ele>3.853910</ele>
|
|
<time>2026-07-10T17:50:03.000Z</time>
|
|
</trkpt>
|
|
<trkpt lat="55.376716" lon="8.711668">
|
|
<ele>3.840369</ele>
|
|
<time>2026-07-10T17:50:04.000Z</time>
|
|
</trkpt>
|
|
<trkpt lat="55.376743" lon="8.711592">
|
|
<ele>3.826128</ele>
|
|
<time>2026-07-10T17:50:05.000Z</time>
|
|
</trkpt>
|
|
<trkpt lat="55.376766" lon="8.711516">
|
|
<ele>3.812448</ele>
|
|
<time>2026-07-10T17:50:06.000Z</time>
|
|
</trkpt>
|
|
<trkpt lat="55.376793" lon="8.711439">
|
|
<ele>3.808316</ele>
|
|
<time>2026-07-10T17:50:07.000Z</time>
|
|
</trkpt>
|
|
<trkpt lat="55.376815" lon="8.711365">
|
|
<ele>3.806645</ele>
|
|
<time>2026-07-10T17:50:08.000Z</time>
|
|
</trkpt>
|
|
<trkpt lat="55.376835" lon="8.711294">
|
|
<ele>3.805060</ele>
|
|
<time>2026-07-10T17:50:09.000Z</time>
|
|
</trkpt>
|
|
<trkpt lat="55.376854" lon="8.711225">
|
|
<ele>3.803526</ele>
|
|
<time>2026-07-10T17:50:10.000Z</time>
|
|
</trkpt>
|
|
<trkpt lat="55.376876" lon="8.711158">
|
|
<ele>3.801978</ele>
|
|
<time>2026-07-10T17:50:11.000Z</time>
|
|
</trkpt>
|
|
<trkpt lat="55.376899" lon="8.711089">
|
|
<ele>3.800378</ele>
|
|
<time>2026-07-10T17:50:12.000Z</time>
|
|
</trkpt>
|
|
<trkpt lat="55.376922" lon="8.711022">
|
|
<ele>3.798812</ele>
|
|
<time>2026-07-10T17:50:13.000Z</time>
|
|
</trkpt>
|
|
<trkpt lat="55.376949" lon="8.710953">
|
|
<ele>3.797136</ele>
|
|
<time>2026-07-10T17:50:14.000Z</time>
|
|
</trkpt>
|
|
<trkpt lat="55.376980" lon="8.710888">
|
|
<ele>3.795438</ele>
|
|
<time>2026-07-10T17:50:15.000Z</time>
|
|
</trkpt>
|
|
<trkpt lat="55.377017" lon="8.710830">
|
|
<ele>3.793694</ele>
|
|
<time>2026-07-10T17:50:16.000Z</time>
|
|
</trkpt>
|
|
<trkpt lat="55.377055" lon="8.710786">
|
|
<ele>3.792092</ele>
|
|
<time>2026-07-10T17:50:17.000Z</time>
|
|
</trkpt>
|
|
<trkpt lat="55.377101" lon="8.710754">
|
|
<ele>3.790351</ele>
|
|
<time>2026-07-10T17:50:18.000Z</time>
|
|
</trkpt>
|
|
<trkpt lat="55.377151" lon="8.710734">
|
|
<ele>3.788546</ele>
|
|
<time>2026-07-10T17:50:19.000Z</time>
|
|
</trkpt>
|
|
<trkpt lat="55.377197" lon="8.710733">
|
|
<ele>3.786926</ele>
|
|
<time>2026-07-10T17:50:20.000Z</time>
|
|
</trkpt>
|
|
<trkpt lat="55.377246" lon="8.710749">
|
|
<ele>3.785171</ele>
|
|
<time>2026-07-10T17:50:21.000Z</time>
|
|
</trkpt>
|
|
<trkpt lat="55.377296" lon="8.710776">
|
|
<ele>3.783330</ele>
|
|
<time>2026-07-10T17:50:22.000Z</time>
|
|
</trkpt>
|
|
<trkpt lat="55.377342" lon="8.710808">
|
|
<ele>3.781589</ele>
|
|
<time>2026-07-10T17:50:23.000Z</time>
|
|
</trkpt>
|
|
<trkpt lat="55.377391" lon="8.710845">
|
|
<ele>3.779711</ele>
|
|
<time>2026-07-10T17:50:24.000Z</time>
|
|
</trkpt>
|
|
<trkpt lat="55.377433" lon="8.710881">
|
|
<ele>3.778067</ele>
|
|
<time>2026-07-10T17:50:25.000Z</time>
|
|
</trkpt>
|
|
<trkpt lat="55.377479" lon="8.710918">
|
|
<ele>3.776286</ele>
|
|
<time>2026-07-10T17:50:26.000Z</time>
|
|
</trkpt>
|
|
<trkpt lat="55.377521" lon="8.710956">
|
|
<ele>3.774623</ele>
|
|
<time>2026-07-10T17:50:27.000Z</time>
|
|
</trkpt>
|
|
<trkpt lat="55.377563" lon="8.710994">
|
|
<ele>3.772961</ele>
|
|
<time>2026-07-10T17:50:28.000Z</time>
|
|
</trkpt>
|
|
<trkpt lat="55.377605" lon="8.711032">
|
|
<ele>3.771298</ele>
|
|
<time>2026-07-10T17:50:29.000Z</time>
|
|
</trkpt>
|
|
<trkpt lat="55.377647" lon="8.711069">
|
|
<ele>3.769645</ele>
|
|
<time>2026-07-10T17:50:30.000Z</time>
|
|
</trkpt>
|
|
<trkpt lat="55.377689" lon="8.711105">
|
|
<ele>3.768000</ele>
|
|
<time>2026-07-10T17:50:31.000Z</time>
|
|
</trkpt>
|
|
<trkpt lat="55.377731" lon="8.711136">
|
|
<ele>3.766396</ele>
|
|
<time>2026-07-10T17:50:32.000Z</time>
|
|
</trkpt>
|
|
<trkpt lat="55.377768" lon="8.711164">
|
|
<ele>3.764978</ele>
|
|
<time>2026-07-10T17:50:33.000Z</time>
|
|
</trkpt>
|
|
<trkpt lat="55.377803" lon="8.711190">
|
|
<ele>3.763641</ele>
|
|
<time>2026-07-10T17:50:34.000Z</time>
|
|
</trkpt>
|
|
<trkpt lat="55.377852" lon="8.711226">
|
|
<ele>3.761771</ele>
|
|
<time>2026-07-10T17:50:35.000Z</time>
|
|
</trkpt>
|
|
<trkpt lat="55.377892" lon="8.711259">
|
|
<ele>3.760216</ele>
|
|
<time>2026-07-10T17:50:36.000Z</time>
|
|
</trkpt>
|
|
<trkpt lat="55.377933" lon="8.711296">
|
|
<ele>3.758594</ele>
|
|
<time>2026-07-10T17:50:37.000Z</time>
|
|
</trkpt>
|
|
<trkpt lat="55.377978" lon="8.711339">
|
|
<ele>3.756791</ele>
|
|
<time>2026-07-10T17:50:38.000Z</time>
|
|
</trkpt>
|
|
<trkpt lat="55.378024" lon="8.711384">
|
|
<ele>3.754938</ele>
|
|
<time>2026-07-10T17:50:39.000Z</time>
|
|
</trkpt>
|
|
<trkpt lat="55.378066" lon="8.711426">
|
|
<ele>3.753238</ele>
|
|
<time>2026-07-10T17:50:40.000Z</time>
|
|
</trkpt>
|
|
<trkpt lat="55.378113" lon="8.711465">
|
|
<ele>3.751408</ele>
|
|
<time>2026-07-10T17:50:41.000Z</time>
|
|
</trkpt>
|
|
<trkpt lat="55.378161" lon="8.711501">
|
|
<ele>3.749571</ele>
|
|
<time>2026-07-10T17:50:42.000Z</time>
|
|
</trkpt>
|
|
<trkpt lat="55.378211" lon="8.711539">
|
|
<ele>3.747654</ele>
|
|
<time>2026-07-10T17:50:43.000Z</time>
|
|
</trkpt>
|
|
<trkpt lat="55.378261" lon="8.711583">
|
|
<ele>3.733524</ele>
|
|
<time>2026-07-10T17:50:44.000Z</time>
|
|
</trkpt>
|
|
<trkpt lat="55.378307" lon="8.711627">
|
|
<ele>3.702955</ele>
|
|
<time>2026-07-10T17:50:45.000Z</time>
|
|
</trkpt>
|
|
<trkpt lat="55.378356" lon="8.711671">
|
|
<ele>3.670836</ele>
|
|
<time>2026-07-10T17:50:46.000Z</time>
|
|
</trkpt>
|
|
<trkpt lat="55.378406" lon="8.711716">
|
|
<ele>3.638046</ele>
|
|
<time>2026-07-10T17:50:47.000Z</time>
|
|
</trkpt>
|
|
<trkpt lat="55.378455" lon="8.711758">
|
|
<ele>3.606223</ele>
|
|
<time>2026-07-10T17:50:48.000Z</time>
|
|
</trkpt>
|
|
<trkpt lat="55.378505" lon="8.711803">
|
|
<ele>3.573434</ele>
|
|
<time>2026-07-10T17:50:49.000Z</time>
|
|
</trkpt>
|
|
<trkpt lat="55.378558" lon="8.711845">
|
|
<ele>3.539496</ele>
|
|
<time>2026-07-10T17:50:50.000Z</time>
|
|
</trkpt>
|
|
<trkpt lat="55.378608" lon="8.711888">
|
|
<ele>3.507003</ele>
|
|
<time>2026-07-10T17:50:51.000Z</time>
|
|
</trkpt>
|
|
<trkpt lat="55.378661" lon="8.711923">
|
|
<ele>3.473950</ele>
|
|
<time>2026-07-10T17:50:52.000Z</time>
|
|
</trkpt>
|
|
<trkpt lat="55.378710" lon="8.711957">
|
|
<ele>3.443197</ele>
|
|
<time>2026-07-10T17:50:53.000Z</time>
|
|
</trkpt>
|
|
<trkpt lat="55.378764" lon="8.711991">
|
|
<ele>3.409710</ele>
|
|
<time>2026-07-10T17:50:54.000Z</time>
|
|
</trkpt>
|
|
<trkpt lat="55.378818" lon="8.712023">
|
|
<ele>3.376441</ele>
|
|
<time>2026-07-10T17:50:55.000Z</time>
|
|
</trkpt>
|
|
<trkpt lat="55.378867" lon="8.712053">
|
|
<ele>3.346149</ele>
|
|
<time>2026-07-10T17:50:56.000Z</time>
|
|
</trkpt>
|
|
<trkpt lat="55.378921" lon="8.712081">
|
|
<ele>3.313280</ele>
|
|
<time>2026-07-10T17:50:57.000Z</time>
|
|
</trkpt>
|
|
<trkpt lat="55.378974" lon="8.712108">
|
|
<ele>3.281063</ele>
|
|
<time>2026-07-10T17:50:58.000Z</time>
|
|
</trkpt>
|
|
<trkpt lat="55.379028" lon="8.712136">
|
|
<ele>3.248194</ele>
|
|
<time>2026-07-10T17:50:59.000Z</time>
|
|
</trkpt>
|
|
<trkpt lat="55.379076" lon="8.712164">
|
|
<ele>3.218668</ele>
|
|
<time>2026-07-10T17:51:00.000Z</time>
|
|
</trkpt>
|
|
<trkpt lat="55.379130" lon="8.712196">
|
|
<ele>3.185399</ele>
|
|
<time>2026-07-10T17:51:01.000Z</time>
|
|
</trkpt>
|
|
<trkpt lat="55.379184" lon="8.712226">
|
|
<ele>3.152336</ele>
|
|
<time>2026-07-10T17:51:02.000Z</time>
|
|
</trkpt>
|
|
<trkpt lat="55.379234" lon="8.712253">
|
|
<ele>3.121798</ele>
|
|
<time>2026-07-10T17:51:03.000Z</time>
|
|
</trkpt>
|
|
<trkpt lat="55.379287" lon="8.712278">
|
|
<ele>3.089760</ele>
|
|
<time>2026-07-10T17:51:04.000Z</time>
|
|
</trkpt>
|
|
<trkpt lat="55.379340" lon="8.712303">
|
|
<ele>3.057722</ele>
|
|
<time>2026-07-10T17:51:05.000Z</time>
|
|
</trkpt>
|
|
<trkpt lat="55.379390" lon="8.712329">
|
|
<ele>3.027280</ele>
|
|
<time>2026-07-10T17:51:06.000Z</time>
|
|
</trkpt>
|
|
<trkpt lat="55.379443" lon="8.712354">
|
|
<ele>2.995242</ele>
|
|
<time>2026-07-10T17:51:07.000Z</time>
|
|
</trkpt>
|
|
<trkpt lat="55.379497" lon="8.712380">
|
|
<ele>2.962554</ele>
|
|
<time>2026-07-10T17:51:08.000Z</time>
|
|
</trkpt>
|
|
<trkpt lat="55.379546" lon="8.712407">
|
|
<ele>2.932574</ele>
|
|
<time>2026-07-10T17:51:09.000Z</time>
|
|
</trkpt>
|
|
<trkpt lat="55.379600" lon="8.712432">
|
|
<ele>2.899972</ele>
|
|
<time>2026-07-10T17:51:10.000Z</time>
|
|
</trkpt>
|
|
<trkpt lat="55.379650" lon="8.712459">
|
|
<ele>2.869435</ele>
|
|
<time>2026-07-10T17:51:11.000Z</time>
|
|
</trkpt>
|
|
<trkpt lat="55.379699" lon="8.712485">
|
|
<ele>2.839552</ele>
|
|
<time>2026-07-10T17:51:12.000Z</time>
|
|
</trkpt>
|
|
<trkpt lat="55.379748" lon="8.712508">
|
|
<ele>2.809942</ele>
|
|
<time>2026-07-10T17:51:13.000Z</time>
|
|
</trkpt>
|
|
<trkpt lat="55.379798" lon="8.712533">
|
|
<ele>2.779592</ele>
|
|
<time>2026-07-10T17:51:14.000Z</time>
|
|
</trkpt>
|
|
<trkpt lat="55.379848" lon="8.712558">
|
|
<ele>2.749243</ele>
|
|
<time>2026-07-10T17:51:15.000Z</time>
|
|
</trkpt>
|
|
<trkpt lat="55.379897" lon="8.712585">
|
|
<ele>2.719263</ele>
|
|
<time>2026-07-10T17:51:16.000Z</time>
|
|
</trkpt>
|
|
<trkpt lat="55.379947" lon="8.712611">
|
|
<ele>2.696631</ele>
|
|
<time>2026-07-10T17:51:17.000Z</time>
|
|
</trkpt>
|
|
<trkpt lat="55.380000" lon="8.712637">
|
|
<ele>2.698233</ele>
|
|
<time>2026-07-10T17:51:18.000Z</time>
|
|
</trkpt>
|
|
<trkpt lat="55.380050" lon="8.712664">
|
|
<ele>2.699757</ele>
|
|
<time>2026-07-10T17:51:19.000Z</time>
|
|
</trkpt>
|
|
<trkpt lat="55.380103" lon="8.712691">
|
|
<ele>2.701363</ele>
|
|
<time>2026-07-10T17:51:20.000Z</time>
|
|
</trkpt>
|
|
<trkpt lat="55.380153" lon="8.712715">
|
|
<ele>2.702873</ele>
|
|
<time>2026-07-10T17:51:21.000Z</time>
|
|
</trkpt>
|
|
<trkpt lat="55.380206" lon="8.712737">
|
|
<ele>2.704458</ele>
|
|
<time>2026-07-10T17:51:22.000Z</time>
|
|
</trkpt>
|
|
<trkpt lat="55.380256" lon="8.712761">
|
|
<ele>2.705968</ele>
|
|
<time>2026-07-10T17:51:23.000Z</time>
|
|
</trkpt>
|
|
<trkpt lat="55.380309" lon="8.712788">
|
|
<ele>2.707574</ele>
|
|
<time>2026-07-10T17:51:24.000Z</time>
|
|
</trkpt>
|
|
<trkpt lat="55.380359" lon="8.712815">
|
|
<ele>2.709097</ele>
|
|
<time>2026-07-10T17:51:25.000Z</time>
|
|
</trkpt>
|
|
<trkpt lat="55.380408" lon="8.712840">
|
|
<ele>2.710583</ele>
|
|
<time>2026-07-10T17:51:26.000Z</time>
|
|
</trkpt>
|
|
<trkpt lat="55.380458" lon="8.712863">
|
|
<ele>2.712088</ele>
|
|
<time>2026-07-10T17:51:27.000Z</time>
|
|
</trkpt>
|
|
<trkpt lat="55.380508" lon="8.712888">
|
|
<ele>2.713602</ele>
|
|
<time>2026-07-10T17:51:28.000Z</time>
|
|
</trkpt>
|
|
<trkpt lat="55.380561" lon="8.712915">
|
|
<ele>2.715208</ele>
|
|
<time>2026-07-10T17:51:29.000Z</time>
|
|
</trkpt>
|
|
<trkpt lat="55.380611" lon="8.712938">
|
|
<ele>2.716713</ele>
|
|
<time>2026-07-10T17:51:30.000Z</time>
|
|
</trkpt>
|
|
<trkpt lat="55.380664" lon="8.712963">
|
|
<ele>2.718311</ele>
|
|
<time>2026-07-10T17:51:31.000Z</time>
|
|
</trkpt>
|
|
<trkpt lat="55.380714" lon="8.712989">
|
|
<ele>2.719830</ele>
|
|
<time>2026-07-10T17:51:32.000Z</time>
|
|
</trkpt>
|
|
<trkpt lat="55.380763" lon="8.713014">
|
|
<ele>2.721315</ele>
|
|
<time>2026-07-10T17:51:33.000Z</time>
|
|
</trkpt>
|
|
<trkpt lat="55.380813" lon="8.713038">
|
|
<ele>2.722824</ele>
|
|
<time>2026-07-10T17:51:34.000Z</time>
|
|
</trkpt>
|
|
<trkpt lat="55.380866" lon="8.713061">
|
|
<ele>2.724414</ele>
|
|
<time>2026-07-10T17:51:35.000Z</time>
|
|
</trkpt>
|
|
<trkpt lat="55.380916" lon="8.713087">
|
|
<ele>2.725932</ele>
|
|
<time>2026-07-10T17:51:36.000Z</time>
|
|
</trkpt>
|
|
<trkpt lat="55.380965" lon="8.713113">
|
|
<ele>2.727423</ele>
|
|
<time>2026-07-10T17:51:37.000Z</time>
|
|
</trkpt>
|
|
<trkpt lat="55.381015" lon="8.713138">
|
|
<ele>2.728936</ele>
|
|
<time>2026-07-10T17:51:38.000Z</time>
|
|
</trkpt>
|
|
<trkpt lat="55.381065" lon="8.713163">
|
|
<ele>2.730450</ele>
|
|
<time>2026-07-10T17:51:39.000Z</time>
|
|
</trkpt>
|
|
<trkpt lat="55.381114" lon="8.713183">
|
|
<ele>2.731915</ele>
|
|
<time>2026-07-10T17:51:40.000Z</time>
|
|
</trkpt>
|
|
<trkpt lat="55.381168" lon="8.713203">
|
|
<ele>2.733522</ele>
|
|
<time>2026-07-10T17:51:41.000Z</time>
|
|
</trkpt>
|
|
<trkpt lat="55.381221" lon="8.713221">
|
|
<ele>2.735094</ele>
|
|
<time>2026-07-10T17:51:42.000Z</time>
|
|
</trkpt>
|
|
<trkpt lat="55.381274" lon="8.713236">
|
|
<ele>2.736657</ele>
|
|
<time>2026-07-10T17:51:43.000Z</time>
|
|
</trkpt>
|
|
<trkpt lat="55.381327" lon="8.713250">
|
|
<ele>2.738218</ele>
|
|
<time>2026-07-10T17:51:44.000Z</time>
|
|
</trkpt>
|
|
<trkpt lat="55.381381" lon="8.713260">
|
|
<ele>2.739799</ele>
|
|
<time>2026-07-10T17:51:45.000Z</time>
|
|
</trkpt>
|
|
<trkpt lat="55.381435" lon="8.713268">
|
|
<ele>2.741377</ele>
|
|
<time>2026-07-10T17:51:46.000Z</time>
|
|
</trkpt>
|
|
<trkpt lat="55.381488" lon="8.713277">
|
|
<ele>2.742928</ele>
|
|
<time>2026-07-10T17:51:47.000Z</time>
|
|
</trkpt>
|
|
<trkpt lat="55.381542" lon="8.713283">
|
|
<ele>2.744503</ele>
|
|
<time>2026-07-10T17:51:48.000Z</time>
|
|
</trkpt>
|
|
<trkpt lat="55.381595" lon="8.713284">
|
|
<ele>2.746047</ele>
|
|
<time>2026-07-10T17:51:49.000Z</time>
|
|
</trkpt>
|
|
<trkpt lat="55.381648" lon="8.713280">
|
|
<ele>2.747592</ele>
|
|
<time>2026-07-10T17:51:50.000Z</time>
|
|
</trkpt>
|
|
<trkpt lat="55.381698" lon="8.713275">
|
|
<ele>2.749762</ele>
|
|
<time>2026-07-10T17:51:51.000Z</time>
|
|
</trkpt>
|
|
<trkpt lat="55.381751" lon="8.713272">
|
|
<ele>2.753983</ele>
|
|
<time>2026-07-10T17:51:52.000Z</time>
|
|
</trkpt>
|
|
<trkpt lat="55.381808" lon="8.713268">
|
|
<ele>2.758523</ele>
|
|
<time>2026-07-10T17:51:53.000Z</time>
|
|
</trkpt>
|
|
<trkpt lat="55.381862" lon="8.713264">
|
|
<ele>2.762824</ele>
|
|
<time>2026-07-10T17:51:54.000Z</time>
|
|
</trkpt>
|
|
<trkpt lat="55.381916" lon="8.713259">
|
|
<ele>2.767128</ele>
|
|
<time>2026-07-10T17:51:55.000Z</time>
|
|
</trkpt>
|
|
<trkpt lat="55.381969" lon="8.713257">
|
|
<ele>2.771347</ele>
|
|
<time>2026-07-10T17:51:56.000Z</time>
|
|
</trkpt>
|
|
<trkpt lat="55.382022" lon="8.713253">
|
|
<ele>2.775569</ele>
|
|
<time>2026-07-10T17:51:57.000Z</time>
|
|
</trkpt>
|
|
<trkpt lat="55.382075" lon="8.713250">
|
|
<ele>2.779789</ele>
|
|
<time>2026-07-10T17:51:58.000Z</time>
|
|
</trkpt>
|
|
<trkpt lat="55.382129" lon="8.713246">
|
|
<ele>2.784091</ele>
|
|
<time>2026-07-10T17:51:59.000Z</time>
|
|
</trkpt>
|
|
<trkpt lat="55.382181" lon="8.713244">
|
|
<ele>2.788230</ele>
|
|
<time>2026-07-10T17:52:00.000Z</time>
|
|
</trkpt>
|
|
<trkpt lat="55.382236" lon="8.713240">
|
|
<ele>2.792611</ele>
|
|
<time>2026-07-10T17:52:01.000Z</time>
|
|
</trkpt>
|
|
<trkpt lat="55.382289" lon="8.713235">
|
|
<ele>2.796835</ele>
|
|
<time>2026-07-10T17:52:02.000Z</time>
|
|
</trkpt>
|
|
<trkpt lat="55.382343" lon="8.713226">
|
|
<ele>2.801152</ele>
|
|
<time>2026-07-10T17:52:03.000Z</time>
|
|
</trkpt>
|
|
<trkpt lat="55.382396" lon="8.713223">
|
|
<ele>2.805373</ele>
|
|
<time>2026-07-10T17:52:04.000Z</time>
|
|
</trkpt>
|
|
<trkpt lat="55.382449" lon="8.713220">
|
|
<ele>2.809593</ele>
|
|
<time>2026-07-10T17:52:05.000Z</time>
|
|
</trkpt>
|
|
<trkpt lat="55.382495" lon="8.713213">
|
|
<ele>2.813267</ele>
|
|
<time>2026-07-10T17:52:06.000Z</time>
|
|
</trkpt>
|
|
<trkpt lat="55.382545" lon="8.713206">
|
|
<ele>2.817259</ele>
|
|
<time>2026-07-10T17:52:07.000Z</time>
|
|
</trkpt>
|
|
<trkpt lat="55.382594" lon="8.713200">
|
|
<ele>2.821169</ele>
|
|
<time>2026-07-10T17:52:08.000Z</time>
|
|
</trkpt>
|
|
<trkpt lat="55.382648" lon="8.713195">
|
|
<ele>2.825472</ele>
|
|
<time>2026-07-10T17:52:09.000Z</time>
|
|
</trkpt>
|
|
<trkpt lat="55.382701" lon="8.713190">
|
|
<ele>2.829696</ele>
|
|
<time>2026-07-10T17:52:10.000Z</time>
|
|
</trkpt>
|
|
<trkpt lat="55.382750" lon="8.713186">
|
|
<ele>2.833600</ele>
|
|
<time>2026-07-10T17:52:11.000Z</time>
|
|
</trkpt>
|
|
<trkpt lat="55.382804" lon="8.713183">
|
|
<ele>2.837900</ele>
|
|
<time>2026-07-10T17:52:12.000Z</time>
|
|
</trkpt>
|
|
<trkpt lat="55.382858" lon="8.713180">
|
|
<ele>2.842200</ele>
|
|
<time>2026-07-10T17:52:13.000Z</time>
|
|
</trkpt>
|
|
<trkpt lat="55.382911" lon="8.713175">
|
|
<ele>2.846424</ele>
|
|
<time>2026-07-10T17:52:14.000Z</time>
|
|
</trkpt>
|
|
<trkpt lat="55.382964" lon="8.713166">
|
|
<ele>2.850662</ele>
|
|
<time>2026-07-10T17:52:15.000Z</time>
|
|
</trkpt>
|
|
<trkpt lat="55.383014" lon="8.713159">
|
|
<ele>2.854654</ele>
|
|
<time>2026-07-10T17:52:16.000Z</time>
|
|
</trkpt>
|
|
<trkpt lat="55.383071" lon="8.713152">
|
|
<ele>2.859201</ele>
|
|
<time>2026-07-10T17:52:17.000Z</time>
|
|
</trkpt>
|
|
<trkpt lat="55.383124" lon="8.713148">
|
|
<ele>2.863423</ele>
|
|
<time>2026-07-10T17:52:18.000Z</time>
|
|
</trkpt>
|
|
<trkpt lat="55.383178" lon="8.713146">
|
|
<ele>2.867722</ele>
|
|
<time>2026-07-10T17:52:19.000Z</time>
|
|
</trkpt>
|
|
<trkpt lat="55.383232" lon="8.713143">
|
|
<ele>2.872022</ele>
|
|
<time>2026-07-10T17:52:20.000Z</time>
|
|
</trkpt>
|
|
<trkpt lat="55.383281" lon="8.713140">
|
|
<ele>2.875924</ele>
|
|
<time>2026-07-10T17:52:21.000Z</time>
|
|
</trkpt>
|
|
<trkpt lat="55.383327" lon="8.713139">
|
|
<ele>2.879585</ele>
|
|
<time>2026-07-10T17:52:22.000Z</time>
|
|
</trkpt>
|
|
<trkpt lat="55.383376" lon="8.713139">
|
|
<ele>2.883485</ele>
|
|
<time>2026-07-10T17:52:23.000Z</time>
|
|
</trkpt>
|
|
<trkpt lat="55.383430" lon="8.713137">
|
|
<ele>2.887783</ele>
|
|
<time>2026-07-10T17:52:24.000Z</time>
|
|
</trkpt>
|
|
<trkpt lat="55.383479" lon="8.713133">
|
|
<ele>2.891687</ele>
|
|
<time>2026-07-10T17:52:25.000Z</time>
|
|
</trkpt>
|
|
<trkpt lat="55.383529" lon="8.713128">
|
|
<ele>2.903045</ele>
|
|
<time>2026-07-10T17:52:26.000Z</time>
|
|
</trkpt>
|
|
<trkpt lat="55.383578" lon="8.713125">
|
|
<ele>2.914350</ele>
|
|
<time>2026-07-10T17:52:27.000Z</time>
|
|
</trkpt>
|
|
<trkpt lat="55.383631" lon="8.713122">
|
|
<ele>2.926576</ele>
|
|
<time>2026-07-10T17:52:28.000Z</time>
|
|
</trkpt>
|
|
<trkpt lat="55.383681" lon="8.713119">
|
|
<ele>2.938112</ele>
|
|
<time>2026-07-10T17:52:29.000Z</time>
|
|
</trkpt>
|
|
<trkpt lat="55.383731" lon="8.713112">
|
|
<ele>2.949677</ele>
|
|
<time>2026-07-10T17:52:30.000Z</time>
|
|
</trkpt>
|
|
<trkpt lat="55.383781" lon="8.713107">
|
|
<ele>2.961224</ele>
|
|
<time>2026-07-10T17:52:31.000Z</time>
|
|
</trkpt>
|
|
<trkpt lat="55.383830" lon="8.713103">
|
|
<ele>2.972534</ele>
|
|
<time>2026-07-10T17:52:32.000Z</time>
|
|
</trkpt>
|
|
<trkpt lat="55.383876" lon="8.713101">
|
|
<ele>2.983144</ele>
|
|
<time>2026-07-10T17:52:33.000Z</time>
|
|
</trkpt>
|
|
<trkpt lat="55.383930" lon="8.713097">
|
|
<ele>2.995606</ele>
|
|
<time>2026-07-10T17:52:34.000Z</time>
|
|
</trkpt>
|
|
<trkpt lat="55.383979" lon="8.713092">
|
|
<ele>3.006923</ele>
|
|
<time>2026-07-10T17:52:35.000Z</time>
|
|
</trkpt>
|
|
<trkpt lat="55.384032" lon="8.713087">
|
|
<ele>3.019160</ele>
|
|
<time>2026-07-10T17:52:36.000Z</time>
|
|
</trkpt>
|
|
<trkpt lat="55.384078" lon="8.713080">
|
|
<ele>3.029806</ele>
|
|
<time>2026-07-10T17:52:37.000Z</time>
|
|
</trkpt>
|
|
<trkpt lat="55.384128" lon="8.713070">
|
|
<ele>3.041409</ele>
|
|
<time>2026-07-10T17:52:38.000Z</time>
|
|
</trkpt>
|
|
<trkpt lat="55.384177" lon="8.713061">
|
|
<ele>3.052768</ele>
|
|
<time>2026-07-10T17:52:39.000Z</time>
|
|
</trkpt>
|
|
<trkpt lat="55.384231" lon="8.713057">
|
|
<ele>3.065230</ele>
|
|
<time>2026-07-10T17:52:40.000Z</time>
|
|
</trkpt>
|
|
<trkpt lat="55.384280" lon="8.713054">
|
|
<ele>3.076535</ele>
|
|
<time>2026-07-10T17:52:41.000Z</time>
|
|
</trkpt>
|
|
<trkpt lat="55.384330" lon="8.713048">
|
|
<ele>3.088091</ele>
|
|
<time>2026-07-10T17:52:42.000Z</time>
|
|
</trkpt>
|
|
<trkpt lat="55.384380" lon="8.713043">
|
|
<ele>3.099638</ele>
|
|
<time>2026-07-10T17:52:43.000Z</time>
|
|
</trkpt>
|
|
<trkpt lat="55.384429" lon="8.713040">
|
|
<ele>3.110943</ele>
|
|
<time>2026-07-10T17:52:44.000Z</time>
|
|
</trkpt>
|
|
<trkpt lat="55.384479" lon="8.713035">
|
|
<ele>3.122490</ele>
|
|
<time>2026-07-10T17:52:45.000Z</time>
|
|
</trkpt>
|
|
<trkpt lat="55.384532" lon="8.713028">
|
|
<ele>3.134745</ele>
|
|
<time>2026-07-10T17:52:46.000Z</time>
|
|
</trkpt>
|
|
<trkpt lat="55.384582" lon="8.713023">
|
|
<ele>3.146292</ele>
|
|
<time>2026-07-10T17:52:47.000Z</time>
|
|
</trkpt>
|
|
<trkpt lat="55.384631" lon="8.713019">
|
|
<ele>3.157602</ele>
|
|
<time>2026-07-10T17:52:48.000Z</time>
|
|
</trkpt>
|
|
<trkpt lat="55.384685" lon="8.713018">
|
|
<ele>3.170054</ele>
|
|
<time>2026-07-10T17:52:49.000Z</time>
|
|
</trkpt>
|
|
<trkpt lat="55.384734" lon="8.713017">
|
|
<ele>3.181352</ele>
|
|
<time>2026-07-10T17:52:50.000Z</time>
|
|
</trkpt>
|
|
<trkpt lat="55.384780" lon="8.713010">
|
|
<ele>3.191998</ele>
|
|
<time>2026-07-10T17:52:51.000Z</time>
|
|
</trkpt>
|
|
<trkpt lat="55.384830" lon="8.713005">
|
|
<ele>3.203545</ele>
|
|
<time>2026-07-10T17:52:52.000Z</time>
|
|
</trkpt>
|
|
<trkpt lat="55.384879" lon="8.713001">
|
|
<ele>3.214856</ele>
|
|
<time>2026-07-10T17:52:53.000Z</time>
|
|
</trkpt>
|
|
<trkpt lat="55.384933" lon="8.712997">
|
|
<ele>3.227317</ele>
|
|
<time>2026-07-10T17:52:54.000Z</time>
|
|
</trkpt>
|
|
<trkpt lat="55.384983" lon="8.712994">
|
|
<ele>3.238853</ele>
|
|
<time>2026-07-10T17:52:55.000Z</time>
|
|
</trkpt>
|
|
<trkpt lat="55.385028" lon="8.712990">
|
|
<ele>3.249242</ele>
|
|
<time>2026-07-10T17:52:56.000Z</time>
|
|
</trkpt>
|
|
<trkpt lat="55.385078" lon="8.712985">
|
|
<ele>3.260789</ele>
|
|
<time>2026-07-10T17:52:57.000Z</time>
|
|
</trkpt>
|
|
<trkpt lat="55.385123" lon="8.712980">
|
|
<ele>3.271185</ele>
|
|
<time>2026-07-10T17:52:58.000Z</time>
|
|
</trkpt>
|
|
<trkpt lat="55.385169" lon="8.712975">
|
|
<ele>3.281812</ele>
|
|
<time>2026-07-10T17:52:59.000Z</time>
|
|
</trkpt>
|
|
<trkpt lat="55.385204" lon="8.712969">
|
|
<ele>3.289920</ele>
|
|
<time>2026-07-10T17:53:00.000Z</time>
|
|
</trkpt>
|
|
<trkpt lat="55.385261" lon="8.712963">
|
|
<ele>3.303086</ele>
|
|
<time>2026-07-10T17:53:01.000Z</time>
|
|
</trkpt>
|
|
<trkpt lat="55.385314" lon="8.712958">
|
|
<ele>3.299756</ele>
|
|
<time>2026-07-10T17:53:02.000Z</time>
|
|
</trkpt>
|
|
<trkpt lat="55.385364" lon="8.712956">
|
|
<ele>3.290933</ele>
|
|
<time>2026-07-10T17:53:03.000Z</time>
|
|
</trkpt>
|
|
<trkpt lat="55.385413" lon="8.712952">
|
|
<ele>3.282279</ele>
|
|
<time>2026-07-10T17:53:04.000Z</time>
|
|
</trkpt>
|
|
<trkpt lat="55.385459" lon="8.712950">
|
|
<ele>3.274161</ele>
|
|
<time>2026-07-10T17:53:05.000Z</time>
|
|
</trkpt>
|
|
<trkpt lat="55.385513" lon="8.712945">
|
|
<ele>3.264622</ele>
|
|
<time>2026-07-10T17:53:06.000Z</time>
|
|
</trkpt>
|
|
<trkpt lat="55.385562" lon="8.712943">
|
|
<ele>3.255975</ele>
|
|
<time>2026-07-10T17:53:07.000Z</time>
|
|
</trkpt>
|
|
<trkpt lat="55.385615" lon="8.712940">
|
|
<ele>3.246620</ele>
|
|
<time>2026-07-10T17:53:08.000Z</time>
|
|
</trkpt>
|
|
<trkpt lat="55.385669" lon="8.712932">
|
|
<ele>3.237060</ele>
|
|
<time>2026-07-10T17:53:09.000Z</time>
|
|
</trkpt>
|
|
<trkpt lat="55.385722" lon="8.712923">
|
|
<ele>3.227666</ele>
|
|
<time>2026-07-10T17:53:10.000Z</time>
|
|
</trkpt>
|
|
<trkpt lat="55.385780" lon="8.712920">
|
|
<ele>3.217430</ele>
|
|
<time>2026-07-10T17:53:11.000Z</time>
|
|
</trkpt>
|
|
<trkpt lat="55.385837" lon="8.712916">
|
|
<ele>3.207366</ele>
|
|
<time>2026-07-10T17:53:12.000Z</time>
|
|
</trkpt>
|
|
<trkpt lat="55.385894" lon="8.712909">
|
|
<ele>3.197286</ele>
|
|
<time>2026-07-10T17:53:13.000Z</time>
|
|
</trkpt>
|
|
<trkpt lat="55.385951" lon="8.712903">
|
|
<ele>3.187212</ele>
|
|
<time>2026-07-10T17:53:14.000Z</time>
|
|
</trkpt>
|
|
<trkpt lat="55.386007" lon="8.712900">
|
|
<ele>3.177328</ele>
|
|
<time>2026-07-10T17:53:15.000Z</time>
|
|
</trkpt>
|
|
<trkpt lat="55.386066" lon="8.712900">
|
|
<ele>3.166920</ele>
|
|
<time>2026-07-10T17:53:16.000Z</time>
|
|
</trkpt>
|
|
<trkpt lat="55.386123" lon="8.712902">
|
|
<ele>3.156862</ele>
|
|
<time>2026-07-10T17:53:17.000Z</time>
|
|
</trkpt>
|
|
<trkpt lat="55.386180" lon="8.712898">
|
|
<ele>3.146798</ele>
|
|
<time>2026-07-10T17:53:18.000Z</time>
|
|
</trkpt>
|
|
<trkpt lat="55.386237" lon="8.712894">
|
|
<ele>3.136735</ele>
|
|
<time>2026-07-10T17:53:19.000Z</time>
|
|
</trkpt>
|
|
<trkpt lat="55.386291" lon="8.712889">
|
|
<ele>3.127195</ele>
|
|
<time>2026-07-10T17:53:20.000Z</time>
|
|
</trkpt>
|
|
<trkpt lat="55.386344" lon="8.712889">
|
|
<ele>3.117845</ele>
|
|
<time>2026-07-10T17:53:21.000Z</time>
|
|
</trkpt>
|
|
<trkpt lat="55.386401" lon="8.712885">
|
|
<ele>3.107781</ele>
|
|
<time>2026-07-10T17:53:22.000Z</time>
|
|
</trkpt>
|
|
<trkpt lat="55.386455" lon="8.712880">
|
|
<ele>3.098242</ele>
|
|
<time>2026-07-10T17:53:23.000Z</time>
|
|
</trkpt>
|
|
<trkpt lat="55.386508" lon="8.712870">
|
|
<ele>3.088838</ele>
|
|
<time>2026-07-10T17:53:24.000Z</time>
|
|
</trkpt>
|
|
<trkpt lat="55.386562" lon="8.712863">
|
|
<ele>3.079286</ele>
|
|
<time>2026-07-10T17:53:25.000Z</time>
|
|
</trkpt>
|
|
<trkpt lat="55.386615" lon="8.712858">
|
|
<ele>3.069922</ele>
|
|
<time>2026-07-10T17:53:26.000Z</time>
|
|
</trkpt>
|
|
<trkpt lat="55.386668" lon="8.712850">
|
|
<ele>3.060538</ele>
|
|
<time>2026-07-10T17:53:27.000Z</time>
|
|
</trkpt>
|
|
<trkpt lat="55.386722" lon="8.712845">
|
|
<ele>3.050998</ele>
|
|
<time>2026-07-10T17:53:28.000Z</time>
|
|
</trkpt>
|
|
<trkpt lat="55.386775" lon="8.712842">
|
|
<ele>3.041643</ele>
|
|
<time>2026-07-10T17:53:29.000Z</time>
|
|
</trkpt>
|
|
<trkpt lat="55.386829" lon="8.712838">
|
|
<ele>3.032108</ele>
|
|
<time>2026-07-10T17:53:30.000Z</time>
|
|
</trkpt>
|
|
<trkpt lat="55.386882" lon="8.712835">
|
|
<ele>3.022753</ele>
|
|
<time>2026-07-10T17:53:31.000Z</time>
|
|
</trkpt>
|
|
<trkpt lat="55.386932" lon="8.712830">
|
|
<ele>3.013918</ele>
|
|
<time>2026-07-10T17:53:32.000Z</time>
|
|
</trkpt>
|
|
<trkpt lat="55.386984" lon="8.712830">
|
|
<ele>3.004745</ele>
|
|
<time>2026-07-10T17:53:33.000Z</time>
|
|
</trkpt>
|
|
<trkpt lat="55.387034" lon="8.712830">
|
|
<ele>2.995924</ele>
|
|
<time>2026-07-10T17:53:34.000Z</time>
|
|
</trkpt>
|
|
<trkpt lat="55.387088" lon="8.712827">
|
|
<ele>2.985808</ele>
|
|
<time>2026-07-10T17:53:35.000Z</time>
|
|
</trkpt>
|
|
<trkpt lat="55.387145" lon="8.712825">
|
|
<ele>2.973649</ele>
|
|
<time>2026-07-10T17:53:36.000Z</time>
|
|
</trkpt>
|
|
<trkpt lat="55.387199" lon="8.712825">
|
|
<ele>2.962133</ele>
|
|
<time>2026-07-10T17:53:37.000Z</time>
|
|
</trkpt>
|
|
<trkpt lat="55.387252" lon="8.712823">
|
|
<ele>2.950828</ele>
|
|
<time>2026-07-10T17:53:38.000Z</time>
|
|
</trkpt>
|
|
<trkpt lat="55.387305" lon="8.712818">
|
|
<ele>2.939508</ele>
|
|
<time>2026-07-10T17:53:39.000Z</time>
|
|
</trkpt>
|
|
<trkpt lat="55.387362" lon="8.712814">
|
|
<ele>2.927343</ele>
|
|
<time>2026-07-10T17:53:40.000Z</time>
|
|
</trkpt>
|
|
<trkpt lat="55.387416" lon="8.712805">
|
|
<ele>2.915775</ele>
|
|
<time>2026-07-10T17:53:41.000Z</time>
|
|
</trkpt>
|
|
<trkpt lat="55.387473" lon="8.712798">
|
|
<ele>2.903590</ele>
|
|
<time>2026-07-10T17:53:42.000Z</time>
|
|
</trkpt>
|
|
<trkpt lat="55.387531" lon="8.712793">
|
|
<ele>2.891206</ele>
|
|
<time>2026-07-10T17:53:43.000Z</time>
|
|
</trkpt>
|
|
<trkpt lat="55.387588" lon="8.712793">
|
|
<ele>2.879050</ele>
|
|
<time>2026-07-10T17:53:44.000Z</time>
|
|
</trkpt>
|
|
<trkpt lat="55.387641" lon="8.712791">
|
|
<ele>2.867744</ele>
|
|
<time>2026-07-10T17:53:45.000Z</time>
|
|
</trkpt>
|
|
<trkpt lat="55.387698" lon="8.712789">
|
|
<ele>2.855586</ele>
|
|
<time>2026-07-10T17:53:46.000Z</time>
|
|
</trkpt>
|
|
<trkpt lat="55.387756" lon="8.712785">
|
|
<ele>2.843207</ele>
|
|
<time>2026-07-10T17:53:47.000Z</time>
|
|
</trkpt>
|
|
<trkpt lat="55.387809" lon="8.712783">
|
|
<ele>2.831902</ele>
|
|
<time>2026-07-10T17:53:48.000Z</time>
|
|
</trkpt>
|
|
<trkpt lat="55.387862" lon="8.712780">
|
|
<ele>2.820593</ele>
|
|
<time>2026-07-10T17:53:49.000Z</time>
|
|
</trkpt>
|
|
<trkpt lat="55.387912" lon="8.712778">
|
|
<ele>2.809927</ele>
|
|
<time>2026-07-10T17:53:50.000Z</time>
|
|
</trkpt>
|
|
<trkpt lat="55.387965" lon="8.712777">
|
|
<ele>2.798623</ele>
|
|
<time>2026-07-10T17:53:51.000Z</time>
|
|
</trkpt>
|
|
<trkpt lat="55.388019" lon="8.712775">
|
|
<ele>2.787105</ele>
|
|
<time>2026-07-10T17:53:52.000Z</time>
|
|
</trkpt>
|
|
<trkpt lat="55.388072" lon="8.712772">
|
|
<ele>2.775796</ele>
|
|
<time>2026-07-10T17:53:53.000Z</time>
|
|
</trkpt>
|
|
<trkpt lat="55.388122" lon="8.712769">
|
|
<ele>2.765127</ele>
|
|
<time>2026-07-10T17:53:54.000Z</time>
|
|
</trkpt>
|
|
<trkpt lat="55.388175" lon="8.712767">
|
|
<ele>2.753821</ele>
|
|
<time>2026-07-10T17:53:55.000Z</time>
|
|
</trkpt>
|
|
<trkpt lat="55.388225" lon="8.712762">
|
|
<ele>2.743141</ele>
|
|
<time>2026-07-10T17:53:56.000Z</time>
|
|
</trkpt>
|
|
<trkpt lat="55.388278" lon="8.712758">
|
|
<ele>2.731827</ele>
|
|
<time>2026-07-10T17:53:57.000Z</time>
|
|
</trkpt>
|
|
<trkpt lat="55.388332" lon="8.712755">
|
|
<ele>2.720306</ele>
|
|
<time>2026-07-10T17:53:58.000Z</time>
|
|
</trkpt>
|
|
<trkpt lat="55.388385" lon="8.712750">
|
|
<ele>2.708986</ele>
|
|
<time>2026-07-10T17:53:59.000Z</time>
|
|
</trkpt>
|
|
<trkpt lat="55.388433" lon="8.712745">
|
|
<ele>2.698732</ele>
|
|
<time>2026-07-10T17:54:00.000Z</time>
|
|
</trkpt>
|
|
<trkpt lat="55.388488" lon="8.712742">
|
|
<ele>2.686997</ele>
|
|
<time>2026-07-10T17:54:01.000Z</time>
|
|
</trkpt>
|
|
<trkpt lat="55.388541" lon="8.712737">
|
|
<ele>2.675678</ele>
|
|
<time>2026-07-10T17:54:02.000Z</time>
|
|
</trkpt>
|
|
<trkpt lat="55.388591" lon="8.712733">
|
|
<ele>2.665004</ele>
|
|
<time>2026-07-10T17:54:03.000Z</time>
|
|
</trkpt>
|
|
<trkpt lat="55.388648" lon="8.712729">
|
|
<ele>2.652838</ele>
|
|
<time>2026-07-10T17:54:04.000Z</time>
|
|
</trkpt>
|
|
<trkpt lat="55.388704" lon="8.712724">
|
|
<ele>2.640880</ele>
|
|
<time>2026-07-10T17:54:05.000Z</time>
|
|
</trkpt>
|
|
<trkpt lat="55.388762" lon="8.712717">
|
|
<ele>2.628482</ele>
|
|
<time>2026-07-10T17:54:06.000Z</time>
|
|
</trkpt>
|
|
<trkpt lat="55.388816" lon="8.712711">
|
|
<ele>2.616943</ele>
|
|
<time>2026-07-10T17:54:07.000Z</time>
|
|
</trkpt>
|
|
<trkpt lat="55.388873" lon="8.712709">
|
|
<ele>2.606767</ele>
|
|
<time>2026-07-10T17:54:08.000Z</time>
|
|
</trkpt>
|
|
<trkpt lat="55.388930" lon="8.712708">
|
|
<ele>2.623773</ele>
|
|
<time>2026-07-10T17:54:09.000Z</time>
|
|
</trkpt>
|
|
<trkpt lat="55.388984" lon="8.712717">
|
|
<ele>2.639954</ele>
|
|
<time>2026-07-10T17:54:10.000Z</time>
|
|
</trkpt>
|
|
<trkpt lat="55.389042" lon="8.712726">
|
|
<ele>2.657325</ele>
|
|
<time>2026-07-10T17:54:11.000Z</time>
|
|
</trkpt>
|
|
<trkpt lat="55.389099" lon="8.712735">
|
|
<ele>2.674398</ele>
|
|
<time>2026-07-10T17:54:12.000Z</time>
|
|
</trkpt>
|
|
<trkpt lat="55.389155" lon="8.712744">
|
|
<ele>2.691174</ele>
|
|
<time>2026-07-10T17:54:13.000Z</time>
|
|
</trkpt>
|
|
<trkpt lat="55.389213" lon="8.712747">
|
|
<ele>2.708484</ele>
|
|
<time>2026-07-10T17:54:14.000Z</time>
|
|
</trkpt>
|
|
<trkpt lat="55.389274" lon="8.712757">
|
|
<ele>2.726761</ele>
|
|
<time>2026-07-10T17:54:15.000Z</time>
|
|
</trkpt>
|
|
<trkpt lat="55.389330" lon="8.712766">
|
|
<ele>2.743537</ele>
|
|
<time>2026-07-10T17:54:16.000Z</time>
|
|
</trkpt>
|
|
<trkpt lat="55.389388" lon="8.712778">
|
|
<ele>2.760959</ele>
|
|
<time>2026-07-10T17:54:17.000Z</time>
|
|
</trkpt>
|
|
<trkpt lat="55.389449" lon="8.712788">
|
|
<ele>2.779236</ele>
|
|
<time>2026-07-10T17:54:18.000Z</time>
|
|
</trkpt>
|
|
<trkpt lat="55.389510" lon="8.712800">
|
|
<ele>2.797547</ele>
|
|
<time>2026-07-10T17:54:19.000Z</time>
|
|
</trkpt>
|
|
<trkpt lat="55.389567" lon="8.712813">
|
|
<ele>2.814694</ele>
|
|
<time>2026-07-10T17:54:20.000Z</time>
|
|
</trkpt>
|
|
<trkpt lat="55.389625" lon="8.712825">
|
|
<ele>2.832116</ele>
|
|
<time>2026-07-10T17:54:21.000Z</time>
|
|
</trkpt>
|
|
<trkpt lat="55.389682" lon="8.712835">
|
|
<ele>2.849205</ele>
|
|
<time>2026-07-10T17:54:22.000Z</time>
|
|
</trkpt>
|
|
<trkpt lat="55.389739" lon="8.712842">
|
|
<ele>2.866252</ele>
|
|
<time>2026-07-10T17:54:23.000Z</time>
|
|
</trkpt>
|
|
<trkpt lat="55.389793" lon="8.712851">
|
|
<ele>2.882433</ele>
|
|
<time>2026-07-10T17:54:24.000Z</time>
|
|
</trkpt>
|
|
<trkpt lat="55.389850" lon="8.712862">
|
|
<ele>2.899540</ele>
|
|
<time>2026-07-10T17:54:25.000Z</time>
|
|
</trkpt>
|
|
<trkpt lat="55.389904" lon="8.712872">
|
|
<ele>2.915739</ele>
|
|
<time>2026-07-10T17:54:26.000Z</time>
|
|
</trkpt>
|
|
<trkpt lat="55.389961" lon="8.712880">
|
|
<ele>2.932797</ele>
|
|
<time>2026-07-10T17:54:27.000Z</time>
|
|
</trkpt>
|
|
<trkpt lat="55.390017" lon="8.712887">
|
|
<ele>2.949546</ele>
|
|
<time>2026-07-10T17:54:28.000Z</time>
|
|
</trkpt>
|
|
<trkpt lat="55.390071" lon="8.712893">
|
|
<ele>2.965688</ele>
|
|
<time>2026-07-10T17:54:29.000Z</time>
|
|
</trkpt>
|
|
<trkpt lat="55.390124" lon="8.712902">
|
|
<ele>2.981573</ele>
|
|
<time>2026-07-10T17:54:30.000Z</time>
|
|
</trkpt>
|
|
<trkpt lat="55.390182" lon="8.712909">
|
|
<ele>2.998916</ele>
|
|
<time>2026-07-10T17:54:31.000Z</time>
|
|
</trkpt>
|
|
<trkpt lat="55.390235" lon="8.712916">
|
|
<ele>3.014772</ele>
|
|
<time>2026-07-10T17:54:32.000Z</time>
|
|
</trkpt>
|
|
<trkpt lat="55.390289" lon="8.712925">
|
|
<ele>3.030954</ele>
|
|
<time>2026-07-10T17:54:33.000Z</time>
|
|
</trkpt>
|
|
<trkpt lat="55.390342" lon="8.712935">
|
|
<ele>3.046856</ele>
|
|
<time>2026-07-10T17:54:34.000Z</time>
|
|
</trkpt>
|
|
<trkpt lat="55.390399" lon="8.712943">
|
|
<ele>3.063915</ele>
|
|
<time>2026-07-10T17:54:35.000Z</time>
|
|
</trkpt>
|
|
<trkpt lat="55.390452" lon="8.712951">
|
|
<ele>3.079784</ele>
|
|
<time>2026-07-10T17:54:36.000Z</time>
|
|
</trkpt>
|
|
<trkpt lat="55.390506" lon="8.712960">
|
|
<ele>3.095966</ele>
|
|
<time>2026-07-10T17:54:37.000Z</time>
|
|
</trkpt>
|
|
<trkpt lat="55.390563" lon="8.712971">
|
|
<ele>3.113073</ele>
|
|
<time>2026-07-10T17:54:38.000Z</time>
|
|
</trkpt>
|
|
<trkpt lat="55.390616" lon="8.712981">
|
|
<ele>3.128975</ele>
|
|
<time>2026-07-10T17:54:39.000Z</time>
|
|
</trkpt>
|
|
<trkpt lat="55.390670" lon="8.712990">
|
|
<ele>3.145705</ele>
|
|
<time>2026-07-10T17:54:40.000Z</time>
|
|
</trkpt>
|
|
<trkpt lat="55.390727" lon="8.712998">
|
|
<ele>3.165928</ele>
|
|
<time>2026-07-10T17:54:41.000Z</time>
|
|
</trkpt>
|
|
<trkpt lat="55.390781" lon="8.713008">
|
|
<ele>3.185131</ele>
|
|
<time>2026-07-10T17:54:42.000Z</time>
|
|
</trkpt>
|
|
<trkpt lat="55.390834" lon="8.713018">
|
|
<ele>3.203982</ele>
|
|
<time>2026-07-10T17:54:43.000Z</time>
|
|
</trkpt>
|
|
<trkpt lat="55.390888" lon="8.713028">
|
|
<ele>3.223186</ele>
|
|
<time>2026-07-10T17:54:44.000Z</time>
|
|
</trkpt>
|
|
<trkpt lat="55.390941" lon="8.713038">
|
|
<ele>3.242037</ele>
|
|
<time>2026-07-10T17:54:45.000Z</time>
|
|
</trkpt>
|
|
<trkpt lat="55.390994" lon="8.713047">
|
|
<ele>3.260868</ele>
|
|
<time>2026-07-10T17:54:46.000Z</time>
|
|
</trkpt>
|
|
<trkpt lat="55.391048" lon="8.713054">
|
|
<ele>3.280018</ele>
|
|
<time>2026-07-10T17:54:47.000Z</time>
|
|
</trkpt>
|
|
<trkpt lat="55.391101" lon="8.713063">
|
|
<ele>3.298849</ele>
|
|
<time>2026-07-10T17:54:48.000Z</time>
|
|
</trkpt>
|
|
<trkpt lat="55.391155" lon="8.713072">
|
|
<ele>3.318032</ele>
|
|
<time>2026-07-10T17:54:49.000Z</time>
|
|
</trkpt>
|
|
<trkpt lat="55.391204" lon="8.713081">
|
|
<ele>3.335455</ele>
|
|
<time>2026-07-10T17:54:50.000Z</time>
|
|
</trkpt>
|
|
<trkpt lat="55.391257" lon="8.713088">
|
|
<ele>3.354252</ele>
|
|
<time>2026-07-10T17:54:51.000Z</time>
|
|
</trkpt>
|
|
<trkpt lat="55.391311" lon="8.713094">
|
|
<ele>3.373388</ele>
|
|
<time>2026-07-10T17:54:52.000Z</time>
|
|
</trkpt>
|
|
<trkpt lat="55.391368" lon="8.713098">
|
|
<ele>3.393563</ele>
|
|
<time>2026-07-10T17:54:53.000Z</time>
|
|
</trkpt>
|
|
<trkpt lat="55.391422" lon="8.713108">
|
|
<ele>3.412766</ele>
|
|
<time>2026-07-10T17:54:54.000Z</time>
|
|
</trkpt>
|
|
<trkpt lat="55.391471" lon="8.713118">
|
|
<ele>3.430211</ele>
|
|
<time>2026-07-10T17:54:55.000Z</time>
|
|
</trkpt>
|
|
<trkpt lat="55.391524" lon="8.713128">
|
|
<ele>3.449063</ele>
|
|
<time>2026-07-10T17:54:56.000Z</time>
|
|
</trkpt>
|
|
<trkpt lat="55.391578" lon="8.713137">
|
|
<ele>3.468246</ele>
|
|
<time>2026-07-10T17:54:57.000Z</time>
|
|
</trkpt>
|
|
<trkpt lat="55.391631" lon="8.713141">
|
|
<ele>3.487007</ele>
|
|
<time>2026-07-10T17:54:58.000Z</time>
|
|
</trkpt>
|
|
<trkpt lat="55.391681" lon="8.713145">
|
|
<ele>3.504709</ele>
|
|
<time>2026-07-10T17:54:59.000Z</time>
|
|
</trkpt>
|
|
<trkpt lat="55.391733" lon="8.713152">
|
|
<ele>3.523153</ele>
|
|
<time>2026-07-10T17:55:00.000Z</time>
|
|
</trkpt>
|
|
<trkpt lat="55.391788" lon="8.713158">
|
|
<ele>3.542642</ele>
|
|
<time>2026-07-10T17:55:01.000Z</time>
|
|
</trkpt>
|
|
<trkpt lat="55.391841" lon="8.713160">
|
|
<ele>3.561390</ele>
|
|
<time>2026-07-10T17:55:02.000Z</time>
|
|
</trkpt>
|
|
<trkpt lat="55.391895" lon="8.713161">
|
|
<ele>3.580489</ele>
|
|
<time>2026-07-10T17:55:03.000Z</time>
|
|
</trkpt>
|
|
<trkpt lat="55.391948" lon="8.713163">
|
|
<ele>3.599237</ele>
|
|
<time>2026-07-10T17:55:04.000Z</time>
|
|
</trkpt>
|
|
<trkpt lat="55.392001" lon="8.713165">
|
|
<ele>3.617986</ele>
|
|
<time>2026-07-10T17:55:05.000Z</time>
|
|
</trkpt>
|
|
<trkpt lat="55.392054" lon="8.713168">
|
|
<ele>3.636740</ele>
|
|
<time>2026-07-10T17:55:06.000Z</time>
|
|
</trkpt>
|
|
<trkpt lat="55.392105" lon="8.713172">
|
|
<ele>3.654794</ele>
|
|
<time>2026-07-10T17:55:07.000Z</time>
|
|
</trkpt>
|
|
<trkpt lat="55.392158" lon="8.713175">
|
|
<ele>3.673548</ele>
|
|
<time>2026-07-10T17:55:08.000Z</time>
|
|
</trkpt>
|
|
<trkpt lat="55.392207" lon="8.713177">
|
|
<ele>3.690882</ele>
|
|
<time>2026-07-10T17:55:09.000Z</time>
|
|
</trkpt>
|
|
<trkpt lat="55.392261" lon="8.713180">
|
|
<ele>3.709990</ele>
|
|
<time>2026-07-10T17:55:10.000Z</time>
|
|
</trkpt>
|
|
<trkpt lat="55.392315" lon="8.713181">
|
|
<ele>3.729088</ele>
|
|
<time>2026-07-10T17:55:11.000Z</time>
|
|
</trkpt>
|
|
<trkpt lat="55.392366" lon="8.713181">
|
|
<ele>3.747125</ele>
|
|
<time>2026-07-10T17:55:12.000Z</time>
|
|
</trkpt>
|
|
<trkpt lat="55.392421" lon="8.713183">
|
|
<ele>3.766581</ele>
|
|
<time>2026-07-10T17:55:13.000Z</time>
|
|
</trkpt>
|
|
<trkpt lat="55.392474" lon="8.713188">
|
|
<ele>3.787827</ele>
|
|
<time>2026-07-10T17:55:14.000Z</time>
|
|
</trkpt>
|
|
<trkpt lat="55.392528" lon="8.713193">
|
|
<ele>3.813677</ele>
|
|
<time>2026-07-10T17:55:15.000Z</time>
|
|
</trkpt>
|
|
<trkpt lat="55.392581" lon="8.713201">
|
|
<ele>3.839106</ele>
|
|
<time>2026-07-10T17:55:16.000Z</time>
|
|
</trkpt>
|
|
<trkpt lat="55.392629" lon="8.713206">
|
|
<ele>3.862092</ele>
|
|
<time>2026-07-10T17:55:17.000Z</time>
|
|
</trkpt>
|
|
<trkpt lat="55.392684" lon="8.713210">
|
|
<ele>3.888407</ele>
|
|
<time>2026-07-10T17:55:18.000Z</time>
|
|
</trkpt>
|
|
<trkpt lat="55.392737" lon="8.713217">
|
|
<ele>3.913814</ele>
|
|
<time>2026-07-10T17:55:19.000Z</time>
|
|
</trkpt>
|
|
<trkpt lat="55.392787" lon="8.713220">
|
|
<ele>3.937730</ele>
|
|
<time>2026-07-10T17:55:20.000Z</time>
|
|
</trkpt>
|
|
<trkpt lat="55.392833" lon="8.713219">
|
|
<ele>3.959721</ele>
|
|
<time>2026-07-10T17:55:21.000Z</time>
|
|
</trkpt>
|
|
<trkpt lat="55.392883" lon="8.713217">
|
|
<ele>3.983629</ele>
|
|
<time>2026-07-10T17:55:22.000Z</time>
|
|
</trkpt>
|
|
<trkpt lat="55.392936" lon="8.713217">
|
|
<ele>4.008966</ele>
|
|
<time>2026-07-10T17:55:23.000Z</time>
|
|
</trkpt>
|
|
<trkpt lat="55.392985" lon="8.713221">
|
|
<ele>4.032415</ele>
|
|
<time>2026-07-10T17:55:24.000Z</time>
|
|
</trkpt>
|
|
<trkpt lat="55.393039" lon="8.713228">
|
|
<ele>4.058299</ele>
|
|
<time>2026-07-10T17:55:25.000Z</time>
|
|
</trkpt>
|
|
<trkpt lat="55.393089" lon="8.713233">
|
|
<ele>4.082239</ele>
|
|
<time>2026-07-10T17:55:26.000Z</time>
|
|
</trkpt>
|
|
<trkpt lat="55.393142" lon="8.713235">
|
|
<ele>4.107581</ele>
|
|
<time>2026-07-10T17:55:27.000Z</time>
|
|
</trkpt>
|
|
<trkpt lat="55.393192" lon="8.713235">
|
|
<ele>4.131483</ele>
|
|
<time>2026-07-10T17:55:28.000Z</time>
|
|
</trkpt>
|
|
<trkpt lat="55.393245" lon="8.713239">
|
|
<ele>4.156842</ele>
|
|
<time>2026-07-10T17:55:29.000Z</time>
|
|
</trkpt>
|
|
<trkpt lat="55.393295" lon="8.713240">
|
|
<ele>4.180746</ele>
|
|
<time>2026-07-10T17:55:30.000Z</time>
|
|
</trkpt>
|
|
<trkpt lat="55.393348" lon="8.713242">
|
|
<ele>4.206088</ele>
|
|
<time>2026-07-10T17:55:31.000Z</time>
|
|
</trkpt>
|
|
<trkpt lat="55.393398" lon="8.713243">
|
|
<ele>4.229991</ele>
|
|
<time>2026-07-10T17:55:32.000Z</time>
|
|
</trkpt>
|
|
<trkpt lat="55.393443" lon="8.713248">
|
|
<ele>4.251546</ele>
|
|
<time>2026-07-10T17:55:33.000Z</time>
|
|
</trkpt>
|
|
<trkpt lat="55.393489" lon="8.713252">
|
|
<ele>4.273562</ele>
|
|
<time>2026-07-10T17:55:34.000Z</time>
|
|
</trkpt>
|
|
<trkpt lat="55.393535" lon="8.713253">
|
|
<ele>4.295554</ele>
|
|
<time>2026-07-10T17:55:35.000Z</time>
|
|
</trkpt>
|
|
<trkpt lat="55.393573" lon="8.713253">
|
|
<ele>4.313719</ele>
|
|
<time>2026-07-10T17:55:36.000Z</time>
|
|
</trkpt>
|
|
<trkpt lat="55.393611" lon="8.713253">
|
|
<ele>4.331885</ele>
|
|
<time>2026-07-10T17:55:37.000Z</time>
|
|
</trkpt>
|
|
<trkpt lat="55.393653" lon="8.713253">
|
|
<ele>4.351963</ele>
|
|
<time>2026-07-10T17:55:38.000Z</time>
|
|
</trkpt>
|
|
<trkpt lat="55.393695" lon="8.713257">
|
|
<ele>4.372070</ele>
|
|
<time>2026-07-10T17:55:39.000Z</time>
|
|
</trkpt>
|
|
<trkpt lat="55.393737" lon="8.713263">
|
|
<ele>4.392213</ele>
|
|
<time>2026-07-10T17:55:40.000Z</time>
|
|
</trkpt>
|
|
<trkpt lat="55.393783" lon="8.713268">
|
|
<ele>4.414245</ele>
|
|
<time>2026-07-10T17:55:41.000Z</time>
|
|
</trkpt>
|
|
<trkpt lat="55.393829" lon="8.713268">
|
|
<ele>4.436235</ele>
|
|
<time>2026-07-10T17:55:42.000Z</time>
|
|
</trkpt>
|
|
<trkpt lat="55.393874" lon="8.713266">
|
|
<ele>4.457753</ele>
|
|
<time>2026-07-10T17:55:43.000Z</time>
|
|
</trkpt>
|
|
<trkpt lat="55.393920" lon="8.713264">
|
|
<ele>4.479750</ele>
|
|
<time>2026-07-10T17:55:44.000Z</time>
|
|
</trkpt>
|
|
<trkpt lat="55.393966" lon="8.713259">
|
|
<ele>4.501782</ele>
|
|
<time>2026-07-10T17:55:45.000Z</time>
|
|
</trkpt>
|
|
<trkpt lat="55.394012" lon="8.713255">
|
|
<ele>4.523798</ele>
|
|
<time>2026-07-10T17:55:46.000Z</time>
|
|
</trkpt>
|
|
<trkpt lat="55.394054" lon="8.713250">
|
|
<ele>4.543922</ele>
|
|
<time>2026-07-10T17:55:47.000Z</time>
|
|
</trkpt>
|
|
<trkpt lat="55.394103" lon="8.713253">
|
|
<ele>4.567360</ele>
|
|
<time>2026-07-10T17:55:48.000Z</time>
|
|
</trkpt>
|
|
<trkpt lat="55.394149" lon="8.713260">
|
|
<ele>4.589431</ele>
|
|
<time>2026-07-10T17:55:49.000Z</time>
|
|
</trkpt>
|
|
<trkpt lat="55.394191" lon="8.713270">
|
|
<ele>4.609692</ele>
|
|
<time>2026-07-10T17:55:50.000Z</time>
|
|
</trkpt>
|
|
<trkpt lat="55.394237" lon="8.713277">
|
|
<ele>4.631764</ele>
|
|
<time>2026-07-10T17:55:51.000Z</time>
|
|
</trkpt>
|
|
<trkpt lat="55.394283" lon="8.713285">
|
|
<ele>4.638135</ele>
|
|
<time>2026-07-10T17:55:52.000Z</time>
|
|
</trkpt>
|
|
<trkpt lat="55.394325" lon="8.713295">
|
|
<ele>4.638135</ele>
|
|
<time>2026-07-10T17:55:53.000Z</time>
|
|
</trkpt>
|
|
<trkpt lat="55.394366" lon="8.713301">
|
|
<ele>4.638135</ele>
|
|
<time>2026-07-10T17:55:54.000Z</time>
|
|
</trkpt>
|
|
<trkpt lat="55.394409" lon="8.713304">
|
|
<ele>4.638135</ele>
|
|
<time>2026-07-10T17:55:55.000Z</time>
|
|
</trkpt>
|
|
<trkpt lat="55.394454" lon="8.713306">
|
|
<ele>4.638135</ele>
|
|
<time>2026-07-10T17:55:56.000Z</time>
|
|
</trkpt>
|
|
<trkpt lat="55.394492" lon="8.713315">
|
|
<ele>4.638135</ele>
|
|
<time>2026-07-10T17:55:57.000Z</time>
|
|
</trkpt>
|
|
<trkpt lat="55.394534" lon="8.713321">
|
|
<ele>4.638135</ele>
|
|
<time>2026-07-10T17:55:58.000Z</time>
|
|
</trkpt>
|
|
<trkpt lat="55.394573" lon="8.713326">
|
|
<ele>4.638135</ele>
|
|
<time>2026-07-10T17:55:59.000Z</time>
|
|
</trkpt>
|
|
<trkpt lat="55.394610" lon="8.713331">
|
|
<ele>4.638135</ele>
|
|
<time>2026-07-10T17:56:00.000Z</time>
|
|
</trkpt>
|
|
<trkpt lat="55.394649" lon="8.713340">
|
|
<ele>4.638135</ele>
|
|
<time>2026-07-10T17:56:01.000Z</time>
|
|
</trkpt>
|
|
<trkpt lat="55.394683" lon="8.713346">
|
|
<ele>4.638135</ele>
|
|
<time>2026-07-10T17:56:02.000Z</time>
|
|
</trkpt>
|
|
<trkpt lat="55.394718" lon="8.713351">
|
|
<ele>4.638135</ele>
|
|
<time>2026-07-10T17:56:03.000Z</time>
|
|
</trkpt>
|
|
<trkpt lat="55.394748" lon="8.713357">
|
|
<ele>4.638135</ele>
|
|
<time>2026-07-10T17:56:04.000Z</time>
|
|
</trkpt>
|
|
<trkpt lat="55.394779" lon="8.713360">
|
|
<ele>4.638135</ele>
|
|
<time>2026-07-10T17:56:05.000Z</time>
|
|
</trkpt>
|
|
<trkpt lat="55.394805" lon="8.713364">
|
|
<ele>4.638135</ele>
|
|
<time>2026-07-10T17:56:06.000Z</time>
|
|
</trkpt>
|
|
<trkpt lat="55.394829" lon="8.713371">
|
|
<ele>4.638135</ele>
|
|
<time>2026-07-10T17:56:07.000Z</time>
|
|
</trkpt>
|
|
<trkpt lat="55.394836" lon="8.713380">
|
|
<ele>4.638135</ele>
|
|
<time>2026-07-10T17:56:42.000Z</time>
|
|
</trkpt>
|
|
<trkpt lat="55.394776" lon="8.713343">
|
|
<ele>4.638135</ele>
|
|
<time>2026-07-10T17:56:46.000Z</time>
|
|
</trkpt>
|
|
<trkpt lat="55.394745" lon="8.713333">
|
|
<ele>4.638135</ele>
|
|
<time>2026-07-10T17:56:47.000Z</time>
|
|
</trkpt>
|
|
<trkpt lat="55.394715" lon="8.713330">
|
|
<ele>4.638135</ele>
|
|
<time>2026-07-10T17:56:48.000Z</time>
|
|
</trkpt>
|
|
<trkpt lat="55.394682" lon="8.713328">
|
|
<ele>4.638135</ele>
|
|
<time>2026-07-10T17:56:49.000Z</time>
|
|
</trkpt>
|
|
<trkpt lat="55.394651" lon="8.713324">
|
|
<ele>4.638135</ele>
|
|
<time>2026-07-10T17:56:50.000Z</time>
|
|
</trkpt>
|
|
<trkpt lat="55.394621" lon="8.713319">
|
|
<ele>4.638135</ele>
|
|
<time>2026-07-10T17:56:51.000Z</time>
|
|
</trkpt>
|
|
<trkpt lat="55.394583" lon="8.713312">
|
|
<ele>4.638135</ele>
|
|
<time>2026-07-10T17:56:52.000Z</time>
|
|
</trkpt>
|
|
<trkpt lat="55.394551" lon="8.713304">
|
|
<ele>4.638135</ele>
|
|
<time>2026-07-10T17:56:53.000Z</time>
|
|
</trkpt>
|
|
<trkpt lat="55.394523" lon="8.713299">
|
|
<ele>4.638135</ele>
|
|
<time>2026-07-10T17:56:54.000Z</time>
|
|
</trkpt>
|
|
<trkpt lat="55.394489" lon="8.713290">
|
|
<ele>4.638135</ele>
|
|
<time>2026-07-10T17:56:55.000Z</time>
|
|
</trkpt>
|
|
<trkpt lat="55.394457" lon="8.713279">
|
|
<ele>4.638135</ele>
|
|
<time>2026-07-10T17:56:56.000Z</time>
|
|
</trkpt>
|
|
<trkpt lat="55.394429" lon="8.713274">
|
|
<ele>4.638135</ele>
|
|
<time>2026-07-10T17:56:57.000Z</time>
|
|
</trkpt>
|
|
<trkpt lat="55.394401" lon="8.713272">
|
|
<ele>4.638135</ele>
|
|
<time>2026-07-10T17:56:58.000Z</time>
|
|
</trkpt>
|
|
<trkpt lat="55.394375" lon="8.713270">
|
|
<ele>4.638135</ele>
|
|
<time>2026-07-10T17:56:59.000Z</time>
|
|
</trkpt>
|
|
<trkpt lat="55.394345" lon="8.713264">
|
|
<ele>4.638135</ele>
|
|
<time>2026-07-10T17:57:00.000Z</time>
|
|
</trkpt>
|
|
<trkpt lat="55.394326" lon="8.713253">
|
|
<ele>4.638135</ele>
|
|
<time>2026-07-10T17:57:01.000Z</time>
|
|
</trkpt>
|
|
<trkpt lat="55.394310" lon="8.713239">
|
|
<ele>4.638135</ele>
|
|
<time>2026-07-10T17:57:02.000Z</time>
|
|
</trkpt>
|
|
<trkpt lat="55.394300" lon="8.713225">
|
|
<ele>4.638135</ele>
|
|
<time>2026-07-10T17:57:03.000Z</time>
|
|
</trkpt>
|
|
<trkpt lat="55.394287" lon="8.713200">
|
|
<ele>4.638135</ele>
|
|
<time>2026-07-10T17:57:04.000Z</time>
|
|
</trkpt>
|
|
<trkpt lat="55.394280" lon="8.713168">
|
|
<ele>4.638135</ele>
|
|
<time>2026-07-10T17:57:05.000Z</time>
|
|
</trkpt>
|
|
<trkpt lat="55.394276" lon="8.713129">
|
|
<ele>4.638135</ele>
|
|
<time>2026-07-10T17:57:06.000Z</time>
|
|
</trkpt>
|
|
<trkpt lat="55.394276" lon="8.713089">
|
|
<ele>4.638135</ele>
|
|
<time>2026-07-10T17:57:07.000Z</time>
|
|
</trkpt>
|
|
<trkpt lat="55.394276" lon="8.713042">
|
|
<ele>4.638135</ele>
|
|
<time>2026-07-10T17:57:08.000Z</time>
|
|
</trkpt>
|
|
<trkpt lat="55.394276" lon="8.713002">
|
|
<ele>4.638135</ele>
|
|
<time>2026-07-10T17:57:09.000Z</time>
|
|
</trkpt>
|
|
<trkpt lat="55.394276" lon="8.712957">
|
|
<ele>4.638135</ele>
|
|
<time>2026-07-10T17:57:10.000Z</time>
|
|
</trkpt>
|
|
<trkpt lat="55.394276" lon="8.712921">
|
|
<ele>4.638135</ele>
|
|
<time>2026-07-10T17:57:11.000Z</time>
|
|
</trkpt>
|
|
<trkpt lat="55.394276" lon="8.712870">
|
|
<ele>4.638135</ele>
|
|
<time>2026-07-10T17:57:12.000Z</time>
|
|
</trkpt>
|
|
<trkpt lat="55.394276" lon="8.712831">
|
|
<ele>4.638135</ele>
|
|
<time>2026-07-10T17:57:13.000Z</time>
|
|
</trkpt>
|
|
<trkpt lat="55.394276" lon="8.712789">
|
|
<ele>4.638135</ele>
|
|
<time>2026-07-10T17:57:14.000Z</time>
|
|
</trkpt>
|
|
<trkpt lat="55.394276" lon="8.712751">
|
|
<ele>4.638135</ele>
|
|
<time>2026-07-10T17:57:15.000Z</time>
|
|
</trkpt>
|
|
<trkpt lat="55.394279" lon="8.712711">
|
|
<ele>4.638135</ele>
|
|
<time>2026-07-10T17:57:16.000Z</time>
|
|
</trkpt>
|
|
<trkpt lat="55.394283" lon="8.712684">
|
|
<ele>4.638135</ele>
|
|
<time>2026-07-10T17:57:17.000Z</time>
|
|
</trkpt>
|
|
<trkpt lat="55.394283" lon="8.712662">
|
|
<ele>4.638135</ele>
|
|
<time>2026-07-10T17:57:18.000Z</time>
|
|
</trkpt>
|
|
<trkpt lat="55.394283" lon="8.712652">
|
|
<ele>4.638135</ele>
|
|
<time>2026-07-10T17:57:19.000Z</time>
|
|
</trkpt>
|
|
<trkpt lat="55.394287" lon="8.712651">
|
|
<ele>4.638135</ele>
|
|
<time>2026-07-10T17:57:20.000Z</time>
|
|
</trkpt>
|
|
<trkpt lat="55.394283" lon="8.712649">
|
|
<ele>4.638135</ele>
|
|
<time>2026-07-10T17:57:21.000Z</time>
|
|
</trkpt>
|
|
<trkpt lat="55.394283" lon="8.712648">
|
|
<ele>4.638135</ele>
|
|
<time>2026-07-10T17:57:22.000Z</time>
|
|
</trkpt>
|
|
<trkpt lat="55.394373" lon="8.712610">
|
|
<ele>4.638135</ele>
|
|
<time>2026-07-10T17:57:38.000Z</time>
|
|
</trkpt>
|
|
<trkpt lat="55.394390" lon="8.712610">
|
|
<ele>4.638135</ele>
|
|
<time>2026-07-10T17:57:39.000Z</time>
|
|
</trkpt>
|
|
<trkpt lat="55.394398" lon="8.712610">
|
|
<ele>4.638135</ele>
|
|
<time>2026-07-10T17:57:40.000Z</time>
|
|
</trkpt>
|
|
<trkpt lat="55.394407" lon="8.712609">
|
|
<ele>4.638135</ele>
|
|
<time>2026-07-10T17:57:41.000Z</time>
|
|
</trkpt>
|
|
<trkpt lat="55.394413" lon="8.712606">
|
|
<ele>4.638135</ele>
|
|
<time>2026-07-10T17:57:42.000Z</time>
|
|
</trkpt>
|
|
<trkpt lat="55.394424" lon="8.712605">
|
|
<ele>4.638135</ele>
|
|
<time>2026-07-10T17:57:43.000Z</time>
|
|
</trkpt>
|
|
<trkpt lat="55.394436" lon="8.712606">
|
|
<ele>4.638135</ele>
|
|
<time>2026-07-10T17:57:44.000Z</time>
|
|
</trkpt>
|
|
<trkpt lat="55.394442" lon="8.712608">
|
|
<ele>4.638135</ele>
|
|
<time>2026-07-10T17:57:45.000Z</time>
|
|
</trkpt>
|
|
<trkpt lat="55.394455" lon="8.712608">
|
|
<ele>4.638135</ele>
|
|
<time>2026-07-10T17:57:46.000Z</time>
|
|
</trkpt>
|
|
<trkpt lat="55.394463" lon="8.712608">
|
|
<ele>4.638135</ele>
|
|
<time>2026-07-10T17:57:47.000Z</time>
|
|
</trkpt>
|
|
<trkpt lat="55.394470" lon="8.712611">
|
|
<ele>4.638135</ele>
|
|
<time>2026-07-10T17:57:48.000Z</time>
|
|
</trkpt>
|
|
<trkpt lat="55.394481" lon="8.712611">
|
|
<ele>4.638135</ele>
|
|
<time>2026-07-10T17:57:49.000Z</time>
|
|
</trkpt>
|
|
<trkpt lat="55.394482" lon="8.712611">
|
|
<ele>4.638135</ele>
|
|
<time>2026-07-10T17:57:50.000Z</time>
|
|
</trkpt>
|
|
<trkpt lat="55.394482" lon="8.712611">
|
|
<ele>4.638135</ele>
|
|
<time>2026-07-10T17:57:56.000Z</time>
|
|
</trkpt>
|
|
<trkpt lat="55.394482" lon="8.712611">
|
|
<ele>4.638135</ele>
|
|
<time>2026-07-10T17:57:59.000Z</time>
|
|
</trkpt>
|
|
<trkpt lat="55.394572" lon="8.712597">
|
|
<ele>4.638135</ele>
|
|
<time>2026-07-10T17:58:01.000Z</time>
|
|
</trkpt>
|
|
<trkpt lat="55.394581" lon="8.712596">
|
|
<ele>4.638135</ele>
|
|
<time>2026-07-10T17:58:02.000Z</time>
|
|
</trkpt>
|
|
<trkpt lat="55.394588" lon="8.712597">
|
|
<ele>4.638135</ele>
|
|
<time>2026-07-10T17:58:03.000Z</time>
|
|
</trkpt>
|
|
<trkpt lat="55.394600" lon="8.712599">
|
|
<ele>4.638135</ele>
|
|
<time>2026-07-10T17:58:04.000Z</time>
|
|
</trkpt>
|
|
<trkpt lat="55.394600" lon="8.712599">
|
|
<ele>4.638135</ele>
|
|
<time>2026-07-10T17:58:05.000Z</time>
|
|
</trkpt>
|
|
<trkpt lat="55.394690" lon="8.712623">
|
|
<ele>4.638135</ele>
|
|
<time>2026-07-10T17:58:17.000Z</time>
|
|
</trkpt>
|
|
<trkpt lat="55.394697" lon="8.712627">
|
|
<ele>4.638135</ele>
|
|
<time>2026-07-10T17:58:18.000Z</time>
|
|
</trkpt>
|
|
<trkpt lat="55.394707" lon="8.712630">
|
|
<ele>4.638135</ele>
|
|
<time>2026-07-10T17:58:19.000Z</time>
|
|
</trkpt>
|
|
<trkpt lat="55.394711" lon="8.712637">
|
|
<ele>4.638135</ele>
|
|
<time>2026-07-10T17:58:20.000Z</time>
|
|
</trkpt>
|
|
<trkpt lat="55.394711" lon="8.712637">
|
|
<ele>4.638135</ele>
|
|
<time>2026-07-10T17:58:21.000Z</time>
|
|
</trkpt>
|
|
<trkpt lat="55.394748" lon="8.712579">
|
|
<ele>4.638135</ele>
|
|
<time>2026-07-10T18:00:15.000Z</time>
|
|
</trkpt>
|
|
<trkpt lat="55.394760" lon="8.712572">
|
|
<ele>4.638135</ele>
|
|
<time>2026-07-10T18:00:16.000Z</time>
|
|
</trkpt>
|
|
<trkpt lat="55.394766" lon="8.712567">
|
|
<ele>4.638135</ele>
|
|
<time>2026-07-10T18:00:17.000Z</time>
|
|
</trkpt>
|
|
<trkpt lat="55.394779" lon="8.712560">
|
|
<ele>4.638135</ele>
|
|
<time>2026-07-10T18:00:18.000Z</time>
|
|
</trkpt>
|
|
<trkpt lat="55.394787" lon="8.712553">
|
|
<ele>4.638135</ele>
|
|
<time>2026-07-10T18:00:19.000Z</time>
|
|
</trkpt>
|
|
<trkpt lat="55.394796" lon="8.712547">
|
|
<ele>4.638135</ele>
|
|
<time>2026-07-10T18:00:20.000Z</time>
|
|
</trkpt>
|
|
<trkpt lat="55.394806" lon="8.712544">
|
|
<ele>4.638135</ele>
|
|
<time>2026-07-10T18:00:21.000Z</time>
|
|
</trkpt>
|
|
<trkpt lat="55.394813" lon="8.712542">
|
|
<ele>4.638135</ele>
|
|
<time>2026-07-10T18:00:22.000Z</time>
|
|
</trkpt>
|
|
<trkpt lat="55.394822" lon="8.712542">
|
|
<ele>4.638135</ele>
|
|
<time>2026-07-10T18:00:23.000Z</time>
|
|
</trkpt>
|
|
<trkpt lat="55.394832" lon="8.712545">
|
|
<ele>4.638135</ele>
|
|
<time>2026-07-10T18:00:24.000Z</time>
|
|
</trkpt>
|
|
<trkpt lat="55.394840" lon="8.712550">
|
|
<ele>4.638135</ele>
|
|
<time>2026-07-10T18:00:25.000Z</time>
|
|
</trkpt>
|
|
<trkpt lat="55.394850" lon="8.712554">
|
|
<ele>4.638135</ele>
|
|
<time>2026-07-10T18:00:26.000Z</time>
|
|
</trkpt>
|
|
<trkpt lat="55.394859" lon="8.712561">
|
|
<ele>4.638135</ele>
|
|
<time>2026-07-10T18:00:27.000Z</time>
|
|
</trkpt>
|
|
<trkpt lat="55.394863" lon="8.712570">
|
|
<ele>4.638135</ele>
|
|
<time>2026-07-10T18:00:28.000Z</time>
|
|
</trkpt>
|
|
<trkpt lat="55.394867" lon="8.712579">
|
|
<ele>4.638135</ele>
|
|
<time>2026-07-10T18:00:29.000Z</time>
|
|
</trkpt>
|
|
<trkpt lat="55.394867" lon="8.712579">
|
|
<ele>4.638135</ele>
|
|
<time>2026-07-10T18:00:30.000Z</time>
|
|
</trkpt>
|
|
<trkpt lat="55.394874" lon="8.712592">
|
|
<ele>4.638135</ele>
|
|
<time>2026-07-10T18:00:31.000Z</time>
|
|
</trkpt>
|
|
<trkpt lat="55.394878" lon="8.712605">
|
|
<ele>4.638135</ele>
|
|
<time>2026-07-10T18:00:32.000Z</time>
|
|
</trkpt>
|
|
<trkpt lat="55.394886" lon="8.712610">
|
|
<ele>4.638135</ele>
|
|
<time>2026-07-10T18:00:33.000Z</time>
|
|
</trkpt>
|
|
<trkpt lat="55.394890" lon="8.712615">
|
|
<ele>4.638135</ele>
|
|
<time>2026-07-10T18:00:34.000Z</time>
|
|
</trkpt>
|
|
<trkpt lat="55.394893" lon="8.712619">
|
|
<ele>4.638135</ele>
|
|
<time>2026-07-10T18:00:35.000Z</time>
|
|
</trkpt>
|
|
<trkpt lat="55.394897" lon="8.712623">
|
|
<ele>4.638135</ele>
|
|
<time>2026-07-10T18:00:36.000Z</time>
|
|
</trkpt>
|
|
<trkpt lat="55.394901" lon="8.712631">
|
|
<ele>4.638135</ele>
|
|
<time>2026-07-10T18:00:37.000Z</time>
|
|
</trkpt>
|
|
<trkpt lat="55.394901" lon="8.712637">
|
|
<ele>4.638135</ele>
|
|
<time>2026-07-10T18:00:38.000Z</time>
|
|
</trkpt>
|
|
</trkseg>
|
|
</trk>
|
|
</gpx> |